<?xml version="1.0" encoding="UTF-8" standalone="no" ?>
<gpx xmlns="http://www.topografix.com/GPX/1/1" xmlns:xsi="http://www.w3.org/2001/XMLSchema-instance" xsi:schemaLocation="http://www.topografix.com/GPX/1/1 http://www.topografix.com/GPX/1/1/gpx.xsd" version="1.1" creator="VisuGPX - https://www.visugpx.com">
  <metadata>
    <name>Vinon-26km</name>
    <desc><![CDATA[Ballade au départ de Ginasservis vers le village de Vinon sur Verdon.]]></desc>
  </metadata>
  <trk>
    <name><![CDATA[1 Place du Docteur Richaud]]></name>
    <desc><![CDATA[]]></desc>
    <trkseg>
      <trkpt lat="43.67091" lon="5.84844">
        <ele>481</ele>
        <time>2016-01-23T07:57:37.537Z</time>
      </trkpt>
      <trkpt lat="43.67085" lon="5.84838">
        <ele>483</ele>
        <time>2016-01-23T07:59:15.434Z</time>
      </trkpt>
      <trkpt lat="43.67083" lon="5.84836">
        <ele>482</ele>
        <time>2016-01-23T07:59:16.409Z</time>
      </trkpt>
      <trkpt lat="43.67088" lon="5.84846">
        <ele>478</ele>
        <time>2016-01-23T07:59:23.464Z</time>
      </trkpt>
      <trkpt lat="43.67089" lon="5.84846">
        <ele>477</ele>
        <time>2016-01-23T07:59:24.415Z</time>
      </trkpt>
      <trkpt lat="43.67092" lon="5.84835">
        <ele>480</ele>
        <time>2016-01-23T08:01:00.434Z</time>
      </trkpt>
      <trkpt lat="43.67093" lon="5.84834">
        <ele>482</ele>
        <time>2016-01-23T08:01:01.411Z</time>
      </trkpt>
      <trkpt lat="43.67099" lon="5.84826">
        <ele>485</ele>
        <time>2016-01-23T08:01:06.435Z</time>
      </trkpt>
      <trkpt lat="43.671" lon="5.84825">
        <ele>486</ele>
        <time>2016-01-23T08:01:07.406Z</time>
      </trkpt>
      <trkpt lat="43.67103" lon="5.84813">
        <ele>482</ele>
        <time>2016-01-23T08:01:15.437Z</time>
      </trkpt>
      <trkpt lat="43.67104" lon="5.84813">
        <ele>482</ele>
        <time>2016-01-23T08:01:16.410Z</time>
      </trkpt>
      <trkpt lat="43.67113" lon="5.84811">
        <ele>481</ele>
        <time>2016-01-23T08:01:20.496Z</time>
      </trkpt>
      <trkpt lat="43.67115" lon="5.8481">
        <ele>481</ele>
        <time>2016-01-23T08:01:21.411Z</time>
      </trkpt>
      <trkpt lat="43.67122" lon="5.84808">
        <ele>480</ele>
        <time>2016-01-23T08:01:24.465Z</time>
      </trkpt>
      <trkpt lat="43.67125" lon="5.84808">
        <ele>480</ele>
        <time>2016-01-23T08:01:25.411Z</time>
      </trkpt>
      <trkpt lat="43.67133" lon="5.84806">
        <ele>479</ele>
        <time>2016-01-23T08:01:28.433Z</time>
      </trkpt>
      <trkpt lat="43.67135" lon="5.84806">
        <ele>479</ele>
        <time>2016-01-23T08:01:29.409Z</time>
      </trkpt>
      <trkpt lat="43.67141" lon="5.84804">
        <ele>478</ele>
        <time>2016-01-23T08:01:31.435Z</time>
      </trkpt>
      <trkpt lat="43.67144" lon="5.84804">
        <ele>479</ele>
        <time>2016-01-23T08:01:32.411Z</time>
      </trkpt>
      <trkpt lat="43.67152" lon="5.84801">
        <ele>478</ele>
        <time>2016-01-23T08:01:34.436Z</time>
      </trkpt>
      <trkpt lat="43.67156" lon="5.848">
        <ele>477</ele>
        <time>2016-01-23T08:01:35.438Z</time>
      </trkpt>
      <trkpt lat="43.67164" lon="5.84798">
        <ele>478</ele>
        <time>2016-01-23T08:01:37.436Z</time>
      </trkpt>
      <trkpt lat="43.67168" lon="5.84796">
        <ele>478</ele>
        <time>2016-01-23T08:01:38.410Z</time>
      </trkpt>
      <trkpt lat="43.67176" lon="5.84795">
        <ele>477</ele>
        <time>2016-01-23T08:01:40.434Z</time>
      </trkpt>
      <trkpt lat="43.67181" lon="5.84794">
        <ele>477</ele>
        <time>2016-01-23T08:01:41.410Z</time>
      </trkpt>
      <trkpt lat="43.67189" lon="5.84794">
        <ele>477</ele>
        <time>2016-01-23T08:01:43.436Z</time>
      </trkpt>
      <trkpt lat="43.67194" lon="5.84793">
        <ele>477</ele>
        <time>2016-01-23T08:01:44.413Z</time>
      </trkpt>
      <trkpt lat="43.67198" lon="5.84792">
        <ele>476</ele>
        <time>2016-01-23T08:01:45.432Z</time>
      </trkpt>
      <trkpt lat="43.67206" lon="5.84789">
        <ele>475</ele>
        <time>2016-01-23T08:01:46.437Z</time>
      </trkpt>
      <trkpt lat="43.6721" lon="5.84787">
        <ele>474</ele>
        <time>2016-01-23T08:01:47.435Z</time>
      </trkpt>
      <trkpt lat="43.67215" lon="5.84786">
        <ele>474</ele>
        <time>2016-01-23T08:01:48.404Z</time>
      </trkpt>
      <trkpt lat="43.6722" lon="5.84784">
        <ele>474</ele>
        <time>2016-01-23T08:01:49.429Z</time>
      </trkpt>
      <trkpt lat="43.67224" lon="5.84783">
        <ele>474</ele>
        <time>2016-01-23T08:01:50.416Z</time>
      </trkpt>
      <trkpt lat="43.67233" lon="5.84782">
        <ele>472</ele>
        <time>2016-01-23T08:01:52.430Z</time>
      </trkpt>
      <trkpt lat="43.67237" lon="5.84783">
        <ele>473</ele>
        <time>2016-01-23T08:01:53.410Z</time>
      </trkpt>
      <trkpt lat="43.67243" lon="5.84782">
        <ele>472</ele>
        <time>2016-01-23T08:01:54.431Z</time>
      </trkpt>
      <trkpt lat="43.67248" lon="5.84781">
        <ele>472</ele>
        <time>2016-01-23T08:01:55.408Z</time>
      </trkpt>
      <trkpt lat="43.67254" lon="5.8478">
        <ele>472</ele>
        <time>2016-01-23T08:01:56.429Z</time>
      </trkpt>
      <trkpt lat="43.6726" lon="5.84779">
        <ele>471</ele>
        <time>2016-01-23T08:01:57.439Z</time>
      </trkpt>
      <trkpt lat="43.67265" lon="5.84779">
        <ele>471</ele>
        <time>2016-01-23T08:01:58.429Z</time>
      </trkpt>
      <trkpt lat="43.67271" lon="5.84778">
        <ele>470</ele>
        <time>2016-01-23T08:01:59.410Z</time>
      </trkpt>
      <trkpt lat="43.67277" lon="5.84777">
        <ele>470</ele>
        <time>2016-01-23T08:02:00.430Z</time>
      </trkpt>
      <trkpt lat="43.67282" lon="5.84776">
        <ele>470</ele>
        <time>2016-01-23T08:02:01.409Z</time>
      </trkpt>
      <trkpt lat="43.67287" lon="5.84774">
        <ele>470</ele>
        <time>2016-01-23T08:02:02.435Z</time>
      </trkpt>
      <trkpt lat="43.67292" lon="5.84773">
        <ele>470</ele>
        <time>2016-01-23T08:02:03.410Z</time>
      </trkpt>
      <trkpt lat="43.67298" lon="5.84773">
        <ele>469</ele>
        <time>2016-01-23T08:02:04.432Z</time>
      </trkpt>
      <trkpt lat="43.67304" lon="5.84772">
        <ele>468</ele>
        <time>2016-01-23T08:02:05.407Z</time>
      </trkpt>
      <trkpt lat="43.67309" lon="5.8477">
        <ele>468</ele>
        <time>2016-01-23T08:02:06.430Z</time>
      </trkpt>
      <trkpt lat="43.67314" lon="5.84769">
        <ele>467</ele>
        <time>2016-01-23T08:02:07.587Z</time>
      </trkpt>
      <trkpt lat="43.67319" lon="5.84767">
        <ele>467</ele>
        <time>2016-01-23T08:02:08.460Z</time>
      </trkpt>
      <trkpt lat="43.67323" lon="5.84765">
        <ele>466</ele>
        <time>2016-01-23T08:02:09.401Z</time>
      </trkpt>
      <trkpt lat="43.67329" lon="5.84761">
        <ele>466</ele>
        <time>2016-01-23T08:02:10.427Z</time>
      </trkpt>
      <trkpt lat="43.67334" lon="5.84759">
        <ele>465</ele>
        <time>2016-01-23T08:02:11.412Z</time>
      </trkpt>
      <trkpt lat="43.67339" lon="5.84757">
        <ele>465</ele>
        <time>2016-01-23T08:02:12.434Z</time>
      </trkpt>
      <trkpt lat="43.67345" lon="5.84755">
        <ele>465</ele>
        <time>2016-01-23T08:02:13.411Z</time>
      </trkpt>
      <trkpt lat="43.6735" lon="5.84754">
        <ele>465</ele>
        <time>2016-01-23T08:02:14.436Z</time>
      </trkpt>
      <trkpt lat="43.67355" lon="5.84753">
        <ele>464</ele>
        <time>2016-01-23T08:02:15.409Z</time>
      </trkpt>
      <trkpt lat="43.6736" lon="5.84751">
        <ele>464</ele>
        <time>2016-01-23T08:02:16.655Z</time>
      </trkpt>
      <trkpt lat="43.67365" lon="5.84745">
        <ele>464</ele>
        <time>2016-01-23T08:02:17.411Z</time>
      </trkpt>
      <trkpt lat="43.67368" lon="5.8474">
        <ele>464</ele>
        <time>2016-01-23T08:02:18.434Z</time>
      </trkpt>
      <trkpt lat="43.67371" lon="5.84734">
        <ele>464</ele>
        <time>2016-01-23T08:02:19.410Z</time>
      </trkpt>
      <trkpt lat="43.67374" lon="5.84729">
        <ele>465</ele>
        <time>2016-01-23T08:02:20.433Z</time>
      </trkpt>
      <trkpt lat="43.67378" lon="5.84725">
        <ele>465</ele>
        <time>2016-01-23T08:02:21.411Z</time>
      </trkpt>
      <trkpt lat="43.67387" lon="5.84721">
        <ele>464</ele>
        <time>2016-01-23T08:02:23.435Z</time>
      </trkpt>
      <trkpt lat="43.67392" lon="5.8472">
        <ele>464</ele>
        <time>2016-01-23T08:02:24.437Z</time>
      </trkpt>
      <trkpt lat="43.67398" lon="5.84718">
        <ele>464</ele>
        <time>2016-01-23T08:02:26.433Z</time>
      </trkpt>
      <trkpt lat="43.67402" lon="5.84717">
        <ele>464</ele>
        <time>2016-01-23T08:02:27.410Z</time>
      </trkpt>
      <trkpt lat="43.67408" lon="5.84717">
        <ele>465</ele>
        <time>2016-01-23T08:02:29.433Z</time>
      </trkpt>
      <trkpt lat="43.67411" lon="5.84716">
        <ele>464</ele>
        <time>2016-01-23T08:02:30.406Z</time>
      </trkpt>
      <trkpt lat="43.67418" lon="5.84713">
        <ele>465</ele>
        <time>2016-01-23T08:02:32.430Z</time>
      </trkpt>
      <trkpt lat="43.67421" lon="5.84712">
        <ele>465</ele>
        <time>2016-01-23T08:02:33.408Z</time>
      </trkpt>
      <trkpt lat="43.67428" lon="5.8471">
        <ele>464</ele>
        <time>2016-01-23T08:02:35.454Z</time>
      </trkpt>
      <trkpt lat="43.67432" lon="5.84709">
        <ele>464</ele>
        <time>2016-01-23T08:02:36.409Z</time>
      </trkpt>
      <trkpt lat="43.67438" lon="5.84706">
        <ele>464</ele>
        <time>2016-01-23T08:02:38.430Z</time>
      </trkpt>
      <trkpt lat="43.67442" lon="5.84704">
        <ele>464</ele>
        <time>2016-01-23T08:02:39.408Z</time>
      </trkpt>
      <trkpt lat="43.67448" lon="5.847">
        <ele>465</ele>
        <time>2016-01-23T08:02:41.436Z</time>
      </trkpt>
      <trkpt lat="43.67451" lon="5.84698">
        <ele>465</ele>
        <time>2016-01-23T08:02:42.412Z</time>
      </trkpt>
      <trkpt lat="43.67459" lon="5.84692">
        <ele>465</ele>
        <time>2016-01-23T08:02:45.434Z</time>
      </trkpt>
      <trkpt lat="43.67461" lon="5.8469">
        <ele>466</ele>
        <time>2016-01-23T08:02:46.411Z</time>
      </trkpt>
      <trkpt lat="43.67466" lon="5.84684">
        <ele>466</ele>
        <time>2016-01-23T08:02:49.434Z</time>
      </trkpt>
      <trkpt lat="43.67468" lon="5.84682">
        <ele>466</ele>
        <time>2016-01-23T08:02:50.412Z</time>
      </trkpt>
      <trkpt lat="43.67473" lon="5.84673">
        <ele>467</ele>
        <time>2016-01-23T08:02:53.446Z</time>
      </trkpt>
      <trkpt lat="43.67474" lon="5.8467">
        <ele>467</ele>
        <time>2016-01-23T08:02:54.411Z</time>
      </trkpt>
      <trkpt lat="43.67477" lon="5.8466">
        <ele>468</ele>
        <time>2016-01-23T08:02:57.434Z</time>
      </trkpt>
      <trkpt lat="43.67477" lon="5.84657">
        <ele>468</ele>
        <time>2016-01-23T08:02:58.411Z</time>
      </trkpt>
      <trkpt lat="43.67477" lon="5.84646">
        <ele>468</ele>
        <time>2016-01-23T08:03:01.434Z</time>
      </trkpt>
      <trkpt lat="43.67477" lon="5.84643">
        <ele>468</ele>
        <time>2016-01-23T08:03:02.439Z</time>
      </trkpt>
      <trkpt lat="43.67475" lon="5.84633">
        <ele>469</ele>
        <time>2016-01-23T08:03:05.434Z</time>
      </trkpt>
      <trkpt lat="43.67474" lon="5.8463">
        <ele>469</ele>
        <time>2016-01-23T08:03:06.411Z</time>
      </trkpt>
      <trkpt lat="43.67472" lon="5.8462">
        <ele>469</ele>
        <time>2016-01-23T08:03:09.446Z</time>
      </trkpt>
      <trkpt lat="43.67471" lon="5.84617">
        <ele>469</ele>
        <time>2016-01-23T08:03:10.412Z</time>
      </trkpt>
      <trkpt lat="43.6747" lon="5.84608">
        <ele>470</ele>
        <time>2016-01-23T08:03:13.470Z</time>
      </trkpt>
      <trkpt lat="43.67469" lon="5.84605">
        <ele>471</ele>
        <time>2016-01-23T08:03:14.411Z</time>
      </trkpt>
      <trkpt lat="43.67467" lon="5.84595">
        <ele>471</ele>
        <time>2016-01-23T08:03:18.433Z</time>
      </trkpt>
      <trkpt lat="43.67467" lon="5.84593">
        <ele>471</ele>
        <time>2016-01-23T08:03:19.410Z</time>
      </trkpt>
      <trkpt lat="43.67464" lon="5.84581">
        <ele>472</ele>
        <time>2016-01-23T08:03:24.462Z</time>
      </trkpt>
      <trkpt lat="43.67464" lon="5.84579">
        <ele>472</ele>
        <time>2016-01-23T08:03:25.422Z</time>
      </trkpt>
      <trkpt lat="43.67461" lon="5.84569">
        <ele>473</ele>
        <time>2016-01-23T08:03:30.434Z</time>
      </trkpt>
      <trkpt lat="43.6746" lon="5.84567">
        <ele>473</ele>
        <time>2016-01-23T08:03:31.412Z</time>
      </trkpt>
      <trkpt lat="43.67455" lon="5.84557">
        <ele>474</ele>
        <time>2016-01-23T08:03:36.434Z</time>
      </trkpt>
      <trkpt lat="43.67453" lon="5.84557">
        <ele>475</ele>
        <time>2016-01-23T08:03:37.411Z</time>
      </trkpt>
      <trkpt lat="43.67445" lon="5.84556">
        <ele>475</ele>
        <time>2016-01-23T08:03:42.435Z</time>
      </trkpt>
      <trkpt lat="43.67443" lon="5.84556">
        <ele>475</ele>
        <time>2016-01-23T08:03:43.411Z</time>
      </trkpt>
      <trkpt lat="43.67436" lon="5.84559">
        <ele>475</ele>
        <time>2016-01-23T08:03:47.435Z</time>
      </trkpt>
      <trkpt lat="43.67434" lon="5.8456">
        <ele>475</ele>
        <time>2016-01-23T08:03:48.413Z</time>
      </trkpt>
      <trkpt lat="43.67427" lon="5.84562">
        <ele>475</ele>
        <time>2016-01-23T08:03:52.434Z</time>
      </trkpt>
      <trkpt lat="43.67425" lon="5.84562">
        <ele>475</ele>
        <time>2016-01-23T08:03:53.411Z</time>
      </trkpt>
      <trkpt lat="43.67417" lon="5.84564">
        <ele>475</ele>
        <time>2016-01-23T08:03:58.436Z</time>
      </trkpt>
      <trkpt lat="43.67415" lon="5.84564">
        <ele>475</ele>
        <time>2016-01-23T08:03:59.413Z</time>
      </trkpt>
      <trkpt lat="43.67407" lon="5.84565">
        <ele>476</ele>
        <time>2016-01-23T08:04:05.432Z</time>
      </trkpt>
      <trkpt lat="43.67406" lon="5.84565">
        <ele>476</ele>
        <time>2016-01-23T08:04:06.410Z</time>
      </trkpt>
      <trkpt lat="43.67398" lon="5.84566">
        <ele>478</ele>
        <time>2016-01-23T08:04:12.432Z</time>
      </trkpt>
      <trkpt lat="43.67397" lon="5.84566">
        <ele>478</ele>
        <time>2016-01-23T08:04:13.411Z</time>
      </trkpt>
      <trkpt lat="43.67388" lon="5.84567">
        <ele>480</ele>
        <time>2016-01-23T08:04:19.439Z</time>
      </trkpt>
      <trkpt lat="43.67386" lon="5.84567">
        <ele>481</ele>
        <time>2016-01-23T08:04:20.422Z</time>
      </trkpt>
      <trkpt lat="43.67377" lon="5.84567">
        <ele>483</ele>
        <time>2016-01-23T08:04:26.436Z</time>
      </trkpt>
      <trkpt lat="43.67376" lon="5.84567">
        <ele>483</ele>
        <time>2016-01-23T08:04:27.412Z</time>
      </trkpt>
      <trkpt lat="43.67369" lon="5.84559">
        <ele>484</ele>
        <time>2016-01-23T08:04:34.435Z</time>
      </trkpt>
      <trkpt lat="43.67368" lon="5.84558">
        <ele>484</ele>
        <time>2016-01-23T08:04:35.438Z</time>
      </trkpt>
      <trkpt lat="43.67371" lon="5.84547">
        <ele>485</ele>
        <time>2016-01-23T08:04:44.436Z</time>
      </trkpt>
      <trkpt lat="43.67371" lon="5.84546">
        <ele>485</ele>
        <time>2016-01-23T08:04:45.412Z</time>
      </trkpt>
      <trkpt lat="43.67369" lon="5.84534">
        <ele>487</ele>
        <time>2016-01-23T08:04:52.435Z</time>
      </trkpt>
      <trkpt lat="43.67368" lon="5.84533">
        <ele>487</ele>
        <time>2016-01-23T08:04:53.410Z</time>
      </trkpt>
      <trkpt lat="43.67364" lon="5.84522">
        <ele>488</ele>
        <time>2016-01-23T08:05:00.438Z</time>
      </trkpt>
      <trkpt lat="43.67364" lon="5.84521">
        <ele>488</ele>
        <time>2016-01-23T08:05:01.412Z</time>
      </trkpt>
      <trkpt lat="43.6736" lon="5.8451">
        <ele>490</ele>
        <time>2016-01-23T08:05:08.440Z</time>
      </trkpt>
      <trkpt lat="43.6736" lon="5.84508">
        <ele>491</ele>
        <time>2016-01-23T08:05:09.412Z</time>
      </trkpt>
      <trkpt lat="43.67358" lon="5.84497">
        <ele>492</ele>
        <time>2016-01-23T08:05:15.436Z</time>
      </trkpt>
      <trkpt lat="43.67358" lon="5.84495">
        <ele>492</ele>
        <time>2016-01-23T08:05:16.413Z</time>
      </trkpt>
      <trkpt lat="43.67358" lon="5.84483">
        <ele>493</ele>
        <time>2016-01-23T08:05:22.434Z</time>
      </trkpt>
      <trkpt lat="43.67358" lon="5.84481">
        <ele>493</ele>
        <time>2016-01-23T08:05:23.412Z</time>
      </trkpt>
      <trkpt lat="43.67355" lon="5.8447">
        <ele>494</ele>
        <time>2016-01-23T08:05:29.432Z</time>
      </trkpt>
      <trkpt lat="43.67354" lon="5.84468">
        <ele>494</ele>
        <time>2016-01-23T08:05:30.410Z</time>
      </trkpt>
      <trkpt lat="43.67352" lon="5.84457">
        <ele>494</ele>
        <time>2016-01-23T08:05:35.462Z</time>
      </trkpt>
      <trkpt lat="43.67352" lon="5.84455">
        <ele>494</ele>
        <time>2016-01-23T08:05:36.411Z</time>
      </trkpt>
      <trkpt lat="43.67357" lon="5.84448">
        <ele>493</ele>
        <time>2016-01-23T08:05:39.434Z</time>
      </trkpt>
      <trkpt lat="43.67361" lon="5.84448">
        <ele>493</ele>
        <time>2016-01-23T08:05:40.421Z</time>
      </trkpt>
      <trkpt lat="43.67368" lon="5.84449">
        <ele>492</ele>
        <time>2016-01-23T08:05:42.434Z</time>
      </trkpt>
      <trkpt lat="43.67371" lon="5.8445">
        <ele>492</ele>
        <time>2016-01-23T08:05:43.412Z</time>
      </trkpt>
      <trkpt lat="43.67379" lon="5.84452">
        <ele>492</ele>
        <time>2016-01-23T08:05:45.436Z</time>
      </trkpt>
      <trkpt lat="43.67382" lon="5.84453">
        <ele>493</ele>
        <time>2016-01-23T08:05:46.412Z</time>
      </trkpt>
      <trkpt lat="43.67389" lon="5.84455">
        <ele>492</ele>
        <time>2016-01-23T08:05:49.435Z</time>
      </trkpt>
      <trkpt lat="43.67392" lon="5.84453">
        <ele>492</ele>
        <time>2016-01-23T08:05:50.410Z</time>
      </trkpt>
      <trkpt lat="43.67398" lon="5.84448">
        <ele>491</ele>
        <time>2016-01-23T08:05:52.437Z</time>
      </trkpt>
      <trkpt lat="43.67401" lon="5.84446">
        <ele>491</ele>
        <time>2016-01-23T08:05:53.411Z</time>
      </trkpt>
      <trkpt lat="43.67408" lon="5.8444">
        <ele>491</ele>
        <time>2016-01-23T08:05:55.437Z</time>
      </trkpt>
      <trkpt lat="43.67412" lon="5.84437">
        <ele>490</ele>
        <time>2016-01-23T08:05:56.412Z</time>
      </trkpt>
      <trkpt lat="43.67418" lon="5.84432">
        <ele>489</ele>
        <time>2016-01-23T08:05:57.435Z</time>
      </trkpt>
      <trkpt lat="43.67421" lon="5.84428">
        <ele>489</ele>
        <time>2016-01-23T08:05:58.411Z</time>
      </trkpt>
      <trkpt lat="43.67426" lon="5.84425">
        <ele>489</ele>
        <time>2016-01-23T08:05:59.434Z</time>
      </trkpt>
      <trkpt lat="43.6743" lon="5.84423">
        <ele>489</ele>
        <time>2016-01-23T08:06:00.412Z</time>
      </trkpt>
      <trkpt lat="43.67439" lon="5.84418">
        <ele>489</ele>
        <time>2016-01-23T08:06:02.463Z</time>
      </trkpt>
      <trkpt lat="43.67443" lon="5.84416">
        <ele>490</ele>
        <time>2016-01-23T08:06:03.425Z</time>
      </trkpt>
      <trkpt lat="43.67449" lon="5.84411">
        <ele>490</ele>
        <time>2016-01-23T08:06:05.437Z</time>
      </trkpt>
      <trkpt lat="43.67452" lon="5.8441">
        <ele>490</ele>
        <time>2016-01-23T08:06:06.412Z</time>
      </trkpt>
      <trkpt lat="43.67457" lon="5.84405">
        <ele>490</ele>
        <time>2016-01-23T08:06:08.456Z</time>
      </trkpt>
      <trkpt lat="43.6746" lon="5.84403">
        <ele>490</ele>
        <time>2016-01-23T08:06:09.411Z</time>
      </trkpt>
      <trkpt lat="43.67465" lon="5.84399">
        <ele>490</ele>
        <time>2016-01-23T08:06:11.436Z</time>
      </trkpt>
      <trkpt lat="43.67468" lon="5.84397">
        <ele>490</ele>
        <time>2016-01-23T08:06:12.411Z</time>
      </trkpt>
      <trkpt lat="43.67473" lon="5.84392">
        <ele>490</ele>
        <time>2016-01-23T08:06:14.438Z</time>
      </trkpt>
      <trkpt lat="43.67475" lon="5.8439">
        <ele>490</ele>
        <time>2016-01-23T08:06:15.413Z</time>
      </trkpt>
      <trkpt lat="43.67481" lon="5.84385">
        <ele>490</ele>
        <time>2016-01-23T08:06:17.435Z</time>
      </trkpt>
      <trkpt lat="43.67483" lon="5.84382">
        <ele>490</ele>
        <time>2016-01-23T08:06:18.411Z</time>
      </trkpt>
      <trkpt lat="43.67488" lon="5.84378">
        <ele>489</ele>
        <time>2016-01-23T08:06:20.434Z</time>
      </trkpt>
      <trkpt lat="43.67491" lon="5.84375">
        <ele>490</ele>
        <time>2016-01-23T08:06:21.412Z</time>
      </trkpt>
      <trkpt lat="43.67499" lon="5.84368">
        <ele>490</ele>
        <time>2016-01-23T08:06:24.478Z</time>
      </trkpt>
      <trkpt lat="43.675" lon="5.84367">
        <ele>490</ele>
        <time>2016-01-23T08:06:25.413Z</time>
      </trkpt>
      <trkpt lat="43.67507" lon="5.84362">
        <ele>490</ele>
        <time>2016-01-23T08:06:28.435Z</time>
      </trkpt>
      <trkpt lat="43.6751" lon="5.84361">
        <ele>490</ele>
        <time>2016-01-23T08:06:29.421Z</time>
      </trkpt>
      <trkpt lat="43.67519" lon="5.8436">
        <ele>491</ele>
        <time>2016-01-23T08:06:32.434Z</time>
      </trkpt>
      <trkpt lat="43.67521" lon="5.8436">
        <ele>491</ele>
        <time>2016-01-23T08:06:33.412Z</time>
      </trkpt>
      <trkpt lat="43.6753" lon="5.84364">
        <ele>492</ele>
        <time>2016-01-23T08:06:36.436Z</time>
      </trkpt>
      <trkpt lat="43.67532" lon="5.84365">
        <ele>492</ele>
        <time>2016-01-23T08:06:37.411Z</time>
      </trkpt>
      <trkpt lat="43.6754" lon="5.8437">
        <ele>492</ele>
        <time>2016-01-23T08:06:40.436Z</time>
      </trkpt>
      <trkpt lat="43.67543" lon="5.84371">
        <ele>492</ele>
        <time>2016-01-23T08:06:41.411Z</time>
      </trkpt>
      <trkpt lat="43.67551" lon="5.84374">
        <ele>493</ele>
        <time>2016-01-23T08:06:44.446Z</time>
      </trkpt>
      <trkpt lat="43.67554" lon="5.84376">
        <ele>493</ele>
        <time>2016-01-23T08:06:45.411Z</time>
      </trkpt>
      <trkpt lat="43.67562" lon="5.84378">
        <ele>493</ele>
        <time>2016-01-23T08:06:48.435Z</time>
      </trkpt>
      <trkpt lat="43.67564" lon="5.84379">
        <ele>494</ele>
        <time>2016-01-23T08:06:49.412Z</time>
      </trkpt>
      <trkpt lat="43.67572" lon="5.84379">
        <ele>494</ele>
        <time>2016-01-23T08:06:52.437Z</time>
      </trkpt>
      <trkpt lat="43.67575" lon="5.84379">
        <ele>494</ele>
        <time>2016-01-23T08:06:53.413Z</time>
      </trkpt>
      <trkpt lat="43.67582" lon="5.84377">
        <ele>493</ele>
        <time>2016-01-23T08:06:56.445Z</time>
      </trkpt>
      <trkpt lat="43.67585" lon="5.84377">
        <ele>493</ele>
        <time>2016-01-23T08:06:57.439Z</time>
      </trkpt>
      <trkpt lat="43.67593" lon="5.84376">
        <ele>493</ele>
        <time>2016-01-23T08:07:00.434Z</time>
      </trkpt>
      <trkpt lat="43.67595" lon="5.84375">
        <ele>493</ele>
        <time>2016-01-23T08:07:01.407Z</time>
      </trkpt>
      <trkpt lat="43.67601" lon="5.84373">
        <ele>492</ele>
        <time>2016-01-23T08:07:03.438Z</time>
      </trkpt>
      <trkpt lat="43.67605" lon="5.84371">
        <ele>492</ele>
        <time>2016-01-23T08:07:04.413Z</time>
      </trkpt>
      <trkpt lat="43.67611" lon="5.84367">
        <ele>492</ele>
        <time>2016-01-23T08:07:06.435Z</time>
      </trkpt>
      <trkpt lat="43.67614" lon="5.84366">
        <ele>491</ele>
        <time>2016-01-23T08:07:07.413Z</time>
      </trkpt>
      <trkpt lat="43.67619" lon="5.84363">
        <ele>491</ele>
        <time>2016-01-23T08:07:09.436Z</time>
      </trkpt>
      <trkpt lat="43.67622" lon="5.84361">
        <ele>491</ele>
        <time>2016-01-23T08:07:10.412Z</time>
      </trkpt>
      <trkpt lat="43.67629" lon="5.84358">
        <ele>491</ele>
        <time>2016-01-23T08:07:12.448Z</time>
      </trkpt>
      <trkpt lat="43.67631" lon="5.84356">
        <ele>491</ele>
        <time>2016-01-23T08:07:13.413Z</time>
      </trkpt>
      <trkpt lat="43.67637" lon="5.84353">
        <ele>490</ele>
        <time>2016-01-23T08:07:15.437Z</time>
      </trkpt>
      <trkpt lat="43.67641" lon="5.84351">
        <ele>490</ele>
        <time>2016-01-23T08:07:16.411Z</time>
      </trkpt>
      <trkpt lat="43.67647" lon="5.84348">
        <ele>490</ele>
        <time>2016-01-23T08:07:18.437Z</time>
      </trkpt>
      <trkpt lat="43.67651" lon="5.84347">
        <ele>490</ele>
        <time>2016-01-23T08:07:19.412Z</time>
      </trkpt>
      <trkpt lat="43.67657" lon="5.84343">
        <ele>489</ele>
        <time>2016-01-23T08:07:21.496Z</time>
      </trkpt>
      <trkpt lat="43.67662" lon="5.84341">
        <ele>489</ele>
        <time>2016-01-23T08:07:22.414Z</time>
      </trkpt>
      <trkpt lat="43.67669" lon="5.84335">
        <ele>488</ele>
        <time>2016-01-23T08:07:24.463Z</time>
      </trkpt>
      <trkpt lat="43.67673" lon="5.84332">
        <ele>488</ele>
        <time>2016-01-23T08:07:25.412Z</time>
      </trkpt>
      <trkpt lat="43.6768" lon="5.84326">
        <ele>488</ele>
        <time>2016-01-23T08:07:27.437Z</time>
      </trkpt>
      <trkpt lat="43.67683" lon="5.84323">
        <ele>488</ele>
        <time>2016-01-23T08:07:28.411Z</time>
      </trkpt>
      <trkpt lat="43.67689" lon="5.84318">
        <ele>487</ele>
        <time>2016-01-23T08:07:30.511Z</time>
      </trkpt>
      <trkpt lat="43.67692" lon="5.84316">
        <ele>487</ele>
        <time>2016-01-23T08:07:31.412Z</time>
      </trkpt>
      <trkpt lat="43.67699" lon="5.84309">
        <ele>487</ele>
        <time>2016-01-23T08:07:34.436Z</time>
      </trkpt>
      <trkpt lat="43.67701" lon="5.84307">
        <ele>487</ele>
        <time>2016-01-23T08:07:35.439Z</time>
      </trkpt>
      <trkpt lat="43.67706" lon="5.84301">
        <ele>488</ele>
        <time>2016-01-23T08:07:38.437Z</time>
      </trkpt>
      <trkpt lat="43.67709" lon="5.84299">
        <ele>488</ele>
        <time>2016-01-23T08:07:39.412Z</time>
      </trkpt>
      <trkpt lat="43.67717" lon="5.84296">
        <ele>488</ele>
        <time>2016-01-23T08:07:43.437Z</time>
      </trkpt>
      <trkpt lat="43.67719" lon="5.84295">
        <ele>488</ele>
        <time>2016-01-23T08:07:44.412Z</time>
      </trkpt>
      <trkpt lat="43.67726" lon="5.84294">
        <ele>487</ele>
        <time>2016-01-23T08:07:47.435Z</time>
      </trkpt>
      <trkpt lat="43.67729" lon="5.84294">
        <ele>486</ele>
        <time>2016-01-23T08:07:48.423Z</time>
      </trkpt>
      <trkpt lat="43.67735" lon="5.84295">
        <ele>485</ele>
        <time>2016-01-23T08:07:50.435Z</time>
      </trkpt>
      <trkpt lat="43.6774" lon="5.84297">
        <ele>483</ele>
        <time>2016-01-23T08:07:51.412Z</time>
      </trkpt>
      <trkpt lat="43.67749" lon="5.84298">
        <ele>482</ele>
        <time>2016-01-23T08:07:52.437Z</time>
      </trkpt>
      <trkpt lat="43.67755" lon="5.84297">
        <ele>481</ele>
        <time>2016-01-23T08:07:53.414Z</time>
      </trkpt>
      <trkpt lat="43.67762" lon="5.84297">
        <ele>480</ele>
        <time>2016-01-23T08:07:54.435Z</time>
      </trkpt>
      <trkpt lat="43.6777" lon="5.84295">
        <ele>479</ele>
        <time>2016-01-23T08:07:55.412Z</time>
      </trkpt>
      <trkpt lat="43.67777" lon="5.84292">
        <ele>477</ele>
        <time>2016-01-23T08:07:56.436Z</time>
      </trkpt>
      <trkpt lat="43.67785" lon="5.84288">
        <ele>477</ele>
        <time>2016-01-23T08:07:57.440Z</time>
      </trkpt>
      <trkpt lat="43.67793" lon="5.84284">
        <ele>476</ele>
        <time>2016-01-23T08:07:58.488Z</time>
      </trkpt>
      <trkpt lat="43.67799" lon="5.84278">
        <ele>477</ele>
        <time>2016-01-23T08:07:59.413Z</time>
      </trkpt>
      <trkpt lat="43.67806" lon="5.84272">
        <ele>477</ele>
        <time>2016-01-23T08:08:00.437Z</time>
      </trkpt>
      <trkpt lat="43.67811" lon="5.84267">
        <ele>477</ele>
        <time>2016-01-23T08:08:01.412Z</time>
      </trkpt>
      <trkpt lat="43.67816" lon="5.84263">
        <ele>477</ele>
        <time>2016-01-23T08:08:02.434Z</time>
      </trkpt>
      <trkpt lat="43.6782" lon="5.8426">
        <ele>477</ele>
        <time>2016-01-23T08:08:03.413Z</time>
      </trkpt>
      <trkpt lat="43.67828" lon="5.84254">
        <ele>478</ele>
        <time>2016-01-23T08:08:05.435Z</time>
      </trkpt>
      <trkpt lat="43.6783" lon="5.84252">
        <ele>478</ele>
        <time>2016-01-23T08:08:06.412Z</time>
      </trkpt>
      <trkpt lat="43.67837" lon="5.84246">
        <ele>479</ele>
        <time>2016-01-23T08:08:09.434Z</time>
      </trkpt>
      <trkpt lat="43.6784" lon="5.84244">
        <ele>479</ele>
        <time>2016-01-23T08:08:10.412Z</time>
      </trkpt>
      <trkpt lat="43.67848" lon="5.84238">
        <ele>479</ele>
        <time>2016-01-23T08:08:13.441Z</time>
      </trkpt>
      <trkpt lat="43.6785" lon="5.84235">
        <ele>479</ele>
        <time>2016-01-23T08:08:14.410Z</time>
      </trkpt>
      <trkpt lat="43.67855" lon="5.8423">
        <ele>480</ele>
        <time>2016-01-23T08:08:16.436Z</time>
      </trkpt>
      <trkpt lat="43.67858" lon="5.84227">
        <ele>480</ele>
        <time>2016-01-23T08:08:17.451Z</time>
      </trkpt>
      <trkpt lat="43.67863" lon="5.84221">
        <ele>480</ele>
        <time>2016-01-23T08:08:19.430Z</time>
      </trkpt>
      <trkpt lat="43.67866" lon="5.84218">
        <ele>479</ele>
        <time>2016-01-23T08:08:20.413Z</time>
      </trkpt>
      <trkpt lat="43.67872" lon="5.84213">
        <ele>480</ele>
        <time>2016-01-23T08:08:22.463Z</time>
      </trkpt>
      <trkpt lat="43.67875" lon="5.84211">
        <ele>480</ele>
        <time>2016-01-23T08:08:23.422Z</time>
      </trkpt>
      <trkpt lat="43.67882" lon="5.84206">
        <ele>480</ele>
        <time>2016-01-23T08:08:26.435Z</time>
      </trkpt>
      <trkpt lat="43.67884" lon="5.84203">
        <ele>480</ele>
        <time>2016-01-23T08:08:27.423Z</time>
      </trkpt>
      <trkpt lat="43.67889" lon="5.84194">
        <ele>481</ele>
        <time>2016-01-23T08:08:30.437Z</time>
      </trkpt>
      <trkpt lat="43.67891" lon="5.8419">
        <ele>482</ele>
        <time>2016-01-23T08:08:31.413Z</time>
      </trkpt>
      <trkpt lat="43.67895" lon="5.84184">
        <ele>482</ele>
        <time>2016-01-23T08:08:33.669Z</time>
      </trkpt>
      <trkpt lat="43.67897" lon="5.84181">
        <ele>482</ele>
        <time>2016-01-23T08:08:34.424Z</time>
      </trkpt>
      <trkpt lat="43.67902" lon="5.84175">
        <ele>482</ele>
        <time>2016-01-23T08:08:36.435Z</time>
      </trkpt>
      <trkpt lat="43.67904" lon="5.84171">
        <ele>482</ele>
        <time>2016-01-23T08:08:37.413Z</time>
      </trkpt>
      <trkpt lat="43.6791" lon="5.84164">
        <ele>483</ele>
        <time>2016-01-23T08:08:41.437Z</time>
      </trkpt>
      <trkpt lat="43.67912" lon="5.84163">
        <ele>483</ele>
        <time>2016-01-23T08:08:42.413Z</time>
      </trkpt>
      <trkpt lat="43.67919" lon="5.84157">
        <ele>485</ele>
        <time>2016-01-23T08:08:46.463Z</time>
      </trkpt>
      <trkpt lat="43.6792" lon="5.84155">
        <ele>485</ele>
        <time>2016-01-23T08:08:47.414Z</time>
      </trkpt>
      <trkpt lat="43.67928" lon="5.84151">
        <ele>486</ele>
        <time>2016-01-23T08:08:52.437Z</time>
      </trkpt>
      <trkpt lat="43.6793" lon="5.84151">
        <ele>486</ele>
        <time>2016-01-23T08:08:53.412Z</time>
      </trkpt>
      <trkpt lat="43.67938" lon="5.84149">
        <ele>486</ele>
        <time>2016-01-23T08:08:56.435Z</time>
      </trkpt>
      <trkpt lat="43.6794" lon="5.84147">
        <ele>486</ele>
        <time>2016-01-23T08:08:57.438Z</time>
      </trkpt>
      <trkpt lat="43.67947" lon="5.84142">
        <ele>486</ele>
        <time>2016-01-23T08:09:00.435Z</time>
      </trkpt>
      <trkpt lat="43.6795" lon="5.84141">
        <ele>487</ele>
        <time>2016-01-23T08:09:01.413Z</time>
      </trkpt>
      <trkpt lat="43.67957" lon="5.84138">
        <ele>487</ele>
        <time>2016-01-23T08:09:04.435Z</time>
      </trkpt>
      <trkpt lat="43.67959" lon="5.84137">
        <ele>487</ele>
        <time>2016-01-23T08:09:05.412Z</time>
      </trkpt>
      <trkpt lat="43.67966" lon="5.84133">
        <ele>487</ele>
        <time>2016-01-23T08:09:08.462Z</time>
      </trkpt>
      <trkpt lat="43.67969" lon="5.84131">
        <ele>487</ele>
        <time>2016-01-23T08:09:09.412Z</time>
      </trkpt>
      <trkpt lat="43.67975" lon="5.84129">
        <ele>488</ele>
        <time>2016-01-23T08:09:12.435Z</time>
      </trkpt>
      <trkpt lat="43.67978" lon="5.84129">
        <ele>488</ele>
        <time>2016-01-23T08:09:13.411Z</time>
      </trkpt>
      <trkpt lat="43.67984" lon="5.84131">
        <ele>487</ele>
        <time>2016-01-23T08:09:15.447Z</time>
      </trkpt>
      <trkpt lat="43.67988" lon="5.84132">
        <ele>487</ele>
        <time>2016-01-23T08:09:16.412Z</time>
      </trkpt>
      <trkpt lat="43.67995" lon="5.8413">
        <ele>487</ele>
        <time>2016-01-23T08:09:18.434Z</time>
      </trkpt>
      <trkpt lat="43.67999" lon="5.84129">
        <ele>486</ele>
        <time>2016-01-23T08:09:19.412Z</time>
      </trkpt>
      <trkpt lat="43.68006" lon="5.8413">
        <ele>486</ele>
        <time>2016-01-23T08:09:21.654Z</time>
      </trkpt>
      <trkpt lat="43.68009" lon="5.84132">
        <ele>485</ele>
        <time>2016-01-23T08:09:22.412Z</time>
      </trkpt>
      <trkpt lat="43.68018" lon="5.84133">
        <ele>484</ele>
        <time>2016-01-23T08:09:24.461Z</time>
      </trkpt>
      <trkpt lat="43.68023" lon="5.84132">
        <ele>483</ele>
        <time>2016-01-23T08:09:25.424Z</time>
      </trkpt>
      <trkpt lat="43.68029" lon="5.84132">
        <ele>482</ele>
        <time>2016-01-23T08:09:27.436Z</time>
      </trkpt>
      <trkpt lat="43.68033" lon="5.84132">
        <ele>482</ele>
        <time>2016-01-23T08:09:28.411Z</time>
      </trkpt>
      <trkpt lat="43.68041" lon="5.84133">
        <ele>481</ele>
        <time>2016-01-23T08:09:31.436Z</time>
      </trkpt>
      <trkpt lat="43.68044" lon="5.8413">
        <ele>480</ele>
        <time>2016-01-23T08:09:32.412Z</time>
      </trkpt>
      <trkpt lat="43.68052" lon="5.84128">
        <ele>481</ele>
        <time>2016-01-23T08:09:35.623Z</time>
      </trkpt>
      <trkpt lat="43.68056" lon="5.84128">
        <ele>482</ele>
        <time>2016-01-23T08:09:36.402Z</time>
      </trkpt>
      <trkpt lat="43.68063" lon="5.84126">
        <ele>481</ele>
        <time>2016-01-23T08:09:38.434Z</time>
      </trkpt>
      <trkpt lat="43.68067" lon="5.84126">
        <ele>480</ele>
        <time>2016-01-23T08:09:39.402Z</time>
      </trkpt>
      <trkpt lat="43.68074" lon="5.84125">
        <ele>479</ele>
        <time>2016-01-23T08:09:41.436Z</time>
      </trkpt>
      <trkpt lat="43.68078" lon="5.84124">
        <ele>478</ele>
        <time>2016-01-23T08:09:42.411Z</time>
      </trkpt>
      <trkpt lat="43.68085" lon="5.84122">
        <ele>478</ele>
        <time>2016-01-23T08:09:44.605Z</time>
      </trkpt>
      <trkpt lat="43.6809" lon="5.84121">
        <ele>477</ele>
        <time>2016-01-23T08:09:45.412Z</time>
      </trkpt>
      <trkpt lat="43.68096" lon="5.84118">
        <ele>476</ele>
        <time>2016-01-23T08:09:46.438Z</time>
      </trkpt>
      <trkpt lat="43.68101" lon="5.84116">
        <ele>475</ele>
        <time>2016-01-23T08:09:47.412Z</time>
      </trkpt>
      <trkpt lat="43.68106" lon="5.84113">
        <ele>475</ele>
        <time>2016-01-23T08:09:48.449Z</time>
      </trkpt>
      <trkpt lat="43.68112" lon="5.84109">
        <ele>475</ele>
        <time>2016-01-23T08:09:49.413Z</time>
      </trkpt>
      <trkpt lat="43.68116" lon="5.84107">
        <ele>475</ele>
        <time>2016-01-23T08:09:50.437Z</time>
      </trkpt>
      <trkpt lat="43.6812" lon="5.84103">
        <ele>474</ele>
        <time>2016-01-23T08:09:51.439Z</time>
      </trkpt>
      <trkpt lat="43.68128" lon="5.84098">
        <ele>474</ele>
        <time>2016-01-23T08:09:53.436Z</time>
      </trkpt>
      <trkpt lat="43.68132" lon="5.84096">
        <ele>474</ele>
        <time>2016-01-23T08:09:54.412Z</time>
      </trkpt>
      <trkpt lat="43.68138" lon="5.84093">
        <ele>474</ele>
        <time>2016-01-23T08:09:56.426Z</time>
      </trkpt>
      <trkpt lat="43.68141" lon="5.84092">
        <ele>475</ele>
        <time>2016-01-23T08:09:57.413Z</time>
      </trkpt>
      <trkpt lat="43.68148" lon="5.84088">
        <ele>476</ele>
        <time>2016-01-23T08:10:00.439Z</time>
      </trkpt>
      <trkpt lat="43.68151" lon="5.84086">
        <ele>476</ele>
        <time>2016-01-23T08:10:01.412Z</time>
      </trkpt>
      <trkpt lat="43.68157" lon="5.84083">
        <ele>476</ele>
        <time>2016-01-23T08:10:04.438Z</time>
      </trkpt>
      <trkpt lat="43.68159" lon="5.84081">
        <ele>476</ele>
        <time>2016-01-23T08:10:05.434Z</time>
      </trkpt>
      <trkpt lat="43.68164" lon="5.84075">
        <ele>475</ele>
        <time>2016-01-23T08:10:07.437Z</time>
      </trkpt>
      <trkpt lat="43.68166" lon="5.8407">
        <ele>474</ele>
        <time>2016-01-23T08:10:08.645Z</time>
      </trkpt>
      <trkpt lat="43.68172" lon="5.84063">
        <ele>473</ele>
        <time>2016-01-23T08:10:10.519Z</time>
      </trkpt>
      <trkpt lat="43.68175" lon="5.8406">
        <ele>473</ele>
        <time>2016-01-23T08:10:11.408Z</time>
      </trkpt>
      <trkpt lat="43.68183" lon="5.84059">
        <ele>471</ele>
        <time>2016-01-23T08:10:13.474Z</time>
      </trkpt>
      <trkpt lat="43.68187" lon="5.84061">
        <ele>471</ele>
        <time>2016-01-23T08:10:14.413Z</time>
      </trkpt>
      <trkpt lat="43.68193" lon="5.84062">
        <ele>470</ele>
        <time>2016-01-23T08:10:15.437Z</time>
      </trkpt>
      <trkpt lat="43.68198" lon="5.8406">
        <ele>470</ele>
        <time>2016-01-23T08:10:16.424Z</time>
      </trkpt>
      <trkpt lat="43.68203" lon="5.84058">
        <ele>469</ele>
        <time>2016-01-23T08:10:17.436Z</time>
      </trkpt>
      <trkpt lat="43.68208" lon="5.84054">
        <ele>468</ele>
        <time>2016-01-23T08:10:18.413Z</time>
      </trkpt>
      <trkpt lat="43.68213" lon="5.8405">
        <ele>468</ele>
        <time>2016-01-23T08:10:19.474Z</time>
      </trkpt>
      <trkpt lat="43.68218" lon="5.84046">
        <ele>466</ele>
        <time>2016-01-23T08:10:20.413Z</time>
      </trkpt>
      <trkpt lat="43.68223" lon="5.8404">
        <ele>466</ele>
        <time>2016-01-23T08:10:21.435Z</time>
      </trkpt>
      <trkpt lat="43.68229" lon="5.84035">
        <ele>465</ele>
        <time>2016-01-23T08:10:22.412Z</time>
      </trkpt>
      <trkpt lat="43.68234" lon="5.84029">
        <ele>464</ele>
        <time>2016-01-23T08:10:23.436Z</time>
      </trkpt>
      <trkpt lat="43.6824" lon="5.84021">
        <ele>463</ele>
        <time>2016-01-23T08:10:24.424Z</time>
      </trkpt>
      <trkpt lat="43.68246" lon="5.84014">
        <ele>462</ele>
        <time>2016-01-23T08:10:25.436Z</time>
      </trkpt>
      <trkpt lat="43.68251" lon="5.84007">
        <ele>462</ele>
        <time>2016-01-23T08:10:26.411Z</time>
      </trkpt>
      <trkpt lat="43.68257" lon="5.84001">
        <ele>461</ele>
        <time>2016-01-23T08:10:27.435Z</time>
      </trkpt>
      <trkpt lat="43.68262" lon="5.83996">
        <ele>460</ele>
        <time>2016-01-23T08:10:28.413Z</time>
      </trkpt>
      <trkpt lat="43.68267" lon="5.83991">
        <ele>459</ele>
        <time>2016-01-23T08:10:29.437Z</time>
      </trkpt>
      <trkpt lat="43.68271" lon="5.83986">
        <ele>459</ele>
        <time>2016-01-23T08:10:30.412Z</time>
      </trkpt>
      <trkpt lat="43.68278" lon="5.83978">
        <ele>458</ele>
        <time>2016-01-23T08:10:32.436Z</time>
      </trkpt>
      <trkpt lat="43.68279" lon="5.83974">
        <ele>457</ele>
        <time>2016-01-23T08:10:33.411Z</time>
      </trkpt>
      <trkpt lat="43.6828" lon="5.83963">
        <ele>455</ele>
        <time>2016-01-23T08:10:35.464Z</time>
      </trkpt>
      <trkpt lat="43.68281" lon="5.83958">
        <ele>454</ele>
        <time>2016-01-23T08:10:36.413Z</time>
      </trkpt>
      <trkpt lat="43.68282" lon="5.83952">
        <ele>452</ele>
        <time>2016-01-23T08:10:37.437Z</time>
      </trkpt>
      <trkpt lat="43.68283" lon="5.83945">
        <ele>452</ele>
        <time>2016-01-23T08:10:38.414Z</time>
      </trkpt>
      <trkpt lat="43.68285" lon="5.83937">
        <ele>451</ele>
        <time>2016-01-23T08:10:39.435Z</time>
      </trkpt>
      <trkpt lat="43.68285" lon="5.8393">
        <ele>450</ele>
        <time>2016-01-23T08:10:40.412Z</time>
      </trkpt>
      <trkpt lat="43.68285" lon="5.83923">
        <ele>449</ele>
        <time>2016-01-23T08:10:41.435Z</time>
      </trkpt>
      <trkpt lat="43.68285" lon="5.83914">
        <ele>448</ele>
        <time>2016-01-23T08:10:42.412Z</time>
      </trkpt>
      <trkpt lat="43.68285" lon="5.83907">
        <ele>447</ele>
        <time>2016-01-23T08:10:43.431Z</time>
      </trkpt>
      <trkpt lat="43.68286" lon="5.83901">
        <ele>446</ele>
        <time>2016-01-23T08:10:44.413Z</time>
      </trkpt>
      <trkpt lat="43.68289" lon="5.83894">
        <ele>446</ele>
        <time>2016-01-23T08:10:45.437Z</time>
      </trkpt>
      <trkpt lat="43.68291" lon="5.83888">
        <ele>446</ele>
        <time>2016-01-23T08:10:46.440Z</time>
      </trkpt>
      <trkpt lat="43.68293" lon="5.83881">
        <ele>445</ele>
        <time>2016-01-23T08:10:47.437Z</time>
      </trkpt>
      <trkpt lat="43.68294" lon="5.83875">
        <ele>445</ele>
        <time>2016-01-23T08:10:48.414Z</time>
      </trkpt>
      <trkpt lat="43.68297" lon="5.83869">
        <ele>444</ele>
        <time>2016-01-23T08:10:49.446Z</time>
      </trkpt>
      <trkpt lat="43.683" lon="5.83864">
        <ele>444</ele>
        <time>2016-01-23T08:10:50.412Z</time>
      </trkpt>
      <trkpt lat="43.68304" lon="5.83858">
        <ele>444</ele>
        <time>2016-01-23T08:10:51.536Z</time>
      </trkpt>
      <trkpt lat="43.68307" lon="5.83853">
        <ele>443</ele>
        <time>2016-01-23T08:10:52.413Z</time>
      </trkpt>
      <trkpt lat="43.68312" lon="5.83846">
        <ele>442</ele>
        <time>2016-01-23T08:10:54.438Z</time>
      </trkpt>
      <trkpt lat="43.68315" lon="5.83842">
        <ele>441</ele>
        <time>2016-01-23T08:10:55.413Z</time>
      </trkpt>
      <trkpt lat="43.6832" lon="5.83833">
        <ele>440</ele>
        <time>2016-01-23T08:10:57.465Z</time>
      </trkpt>
      <trkpt lat="43.68321" lon="5.83828">
        <ele>440</ele>
        <time>2016-01-23T08:10:58.414Z</time>
      </trkpt>
      <trkpt lat="43.68323" lon="5.83821">
        <ele>439</ele>
        <time>2016-01-23T08:10:59.435Z</time>
      </trkpt>
      <trkpt lat="43.68325" lon="5.83813">
        <ele>437</ele>
        <time>2016-01-23T08:11:00.412Z</time>
      </trkpt>
      <trkpt lat="43.6833" lon="5.83806">
        <ele>437</ele>
        <time>2016-01-23T08:11:01.435Z</time>
      </trkpt>
      <trkpt lat="43.68334" lon="5.838">
        <ele>437</ele>
        <time>2016-01-23T08:11:02.412Z</time>
      </trkpt>
      <trkpt lat="43.68339" lon="5.83794">
        <ele>436</ele>
        <time>2016-01-23T08:11:03.426Z</time>
      </trkpt>
      <trkpt lat="43.68344" lon="5.83789">
        <ele>436</ele>
        <time>2016-01-23T08:11:04.413Z</time>
      </trkpt>
      <trkpt lat="43.68347" lon="5.83784">
        <ele>436</ele>
        <time>2016-01-23T08:11:05.436Z</time>
      </trkpt>
      <trkpt lat="43.68351" lon="5.83778">
        <ele>435</ele>
        <time>2016-01-23T08:11:06.413Z</time>
      </trkpt>
      <trkpt lat="43.68354" lon="5.83772">
        <ele>435</ele>
        <time>2016-01-23T08:11:07.435Z</time>
      </trkpt>
      <trkpt lat="43.68355" lon="5.83766">
        <ele>435</ele>
        <time>2016-01-23T08:11:08.415Z</time>
      </trkpt>
      <trkpt lat="43.68354" lon="5.8376">
        <ele>434</ele>
        <time>2016-01-23T08:11:09.436Z</time>
      </trkpt>
      <trkpt lat="43.68353" lon="5.83754">
        <ele>434</ele>
        <time>2016-01-23T08:11:10.413Z</time>
      </trkpt>
      <trkpt lat="43.6835" lon="5.83748">
        <ele>433</ele>
        <time>2016-01-23T08:11:11.437Z</time>
      </trkpt>
      <trkpt lat="43.68345" lon="5.83743">
        <ele>432</ele>
        <time>2016-01-23T08:11:12.413Z</time>
      </trkpt>
      <trkpt lat="43.68344" lon="5.83737">
        <ele>432</ele>
        <time>2016-01-23T08:11:13.485Z</time>
      </trkpt>
      <trkpt lat="43.68343" lon="5.8373">
        <ele>431</ele>
        <time>2016-01-23T08:11:14.412Z</time>
      </trkpt>
      <trkpt lat="43.6834" lon="5.83724">
        <ele>430</ele>
        <time>2016-01-23T08:11:15.427Z</time>
      </trkpt>
      <trkpt lat="43.68339" lon="5.83717">
        <ele>430</ele>
        <time>2016-01-23T08:11:16.414Z</time>
      </trkpt>
      <trkpt lat="43.68336" lon="5.83705">
        <ele>428</ele>
        <time>2016-01-23T08:11:18.431Z</time>
      </trkpt>
      <trkpt lat="43.68335" lon="5.837">
        <ele>428</ele>
        <time>2016-01-23T08:11:19.417Z</time>
      </trkpt>
      <trkpt lat="43.68328" lon="5.83692">
        <ele>428</ele>
        <time>2016-01-23T08:11:23.431Z</time>
      </trkpt>
      <trkpt lat="43.68327" lon="5.83692">
        <ele>428</ele>
        <time>2016-01-23T08:11:24.433Z</time>
      </trkpt>
      <trkpt lat="43.68319" lon="5.83687">
        <ele>427</ele>
        <time>2016-01-23T08:11:29.441Z</time>
      </trkpt>
      <trkpt lat="43.68318" lon="5.83687">
        <ele>427</ele>
        <time>2016-01-23T08:11:30.411Z</time>
      </trkpt>
      <trkpt lat="43.68309" lon="5.83685">
        <ele>428</ele>
        <time>2016-01-23T08:11:35.455Z</time>
      </trkpt>
      <trkpt lat="43.68308" lon="5.83683">
        <ele>429</ele>
        <time>2016-01-23T08:11:36.411Z</time>
      </trkpt>
      <trkpt lat="43.68301" lon="5.83678">
        <ele>431</ele>
        <time>2016-01-23T08:11:40.436Z</time>
      </trkpt>
      <trkpt lat="43.68299" lon="5.83677">
        <ele>432</ele>
        <time>2016-01-23T08:11:41.413Z</time>
      </trkpt>
      <trkpt lat="43.68291" lon="5.83676">
        <ele>433</ele>
        <time>2016-01-23T08:11:46.467Z</time>
      </trkpt>
      <trkpt lat="43.6829" lon="5.83676">
        <ele>433</ele>
        <time>2016-01-23T08:11:47.413Z</time>
      </trkpt>
      <trkpt lat="43.68281" lon="5.83675">
        <ele>433</ele>
        <time>2016-01-23T08:11:56.438Z</time>
      </trkpt>
      <trkpt lat="43.68279" lon="5.83674">
        <ele>434</ele>
        <time>2016-01-23T08:11:57.413Z</time>
      </trkpt>
      <trkpt lat="43.68272" lon="5.83668">
        <ele>435</ele>
        <time>2016-01-23T08:12:01.436Z</time>
      </trkpt>
      <trkpt lat="43.6827" lon="5.83667">
        <ele>435</ele>
        <time>2016-01-23T08:12:02.442Z</time>
      </trkpt>
      <trkpt lat="43.68263" lon="5.83665">
        <ele>434</ele>
        <time>2016-01-23T08:12:06.449Z</time>
      </trkpt>
      <trkpt lat="43.68261" lon="5.83664">
        <ele>434</ele>
        <time>2016-01-23T08:12:07.413Z</time>
      </trkpt>
      <trkpt lat="43.68255" lon="5.83658">
        <ele>435</ele>
        <time>2016-01-23T08:12:11.437Z</time>
      </trkpt>
      <trkpt lat="43.68254" lon="5.83656">
        <ele>435</ele>
        <time>2016-01-23T08:12:12.414Z</time>
      </trkpt>
      <trkpt lat="43.6825" lon="5.83648">
        <ele>435</ele>
        <time>2016-01-23T08:12:16.437Z</time>
      </trkpt>
      <trkpt lat="43.68248" lon="5.83647">
        <ele>435</ele>
        <time>2016-01-23T08:12:17.412Z</time>
      </trkpt>
      <trkpt lat="43.68241" lon="5.83645">
        <ele>434</ele>
        <time>2016-01-23T08:12:21.437Z</time>
      </trkpt>
      <trkpt lat="43.68239" lon="5.83646">
        <ele>434</ele>
        <time>2016-01-23T08:12:22.412Z</time>
      </trkpt>
      <trkpt lat="43.68231" lon="5.83651">
        <ele>434</ele>
        <time>2016-01-23T08:12:26.436Z</time>
      </trkpt>
      <trkpt lat="43.68229" lon="5.83652">
        <ele>434</ele>
        <time>2016-01-23T08:12:27.412Z</time>
      </trkpt>
      <trkpt lat="43.68221" lon="5.83657">
        <ele>434</ele>
        <time>2016-01-23T08:12:31.435Z</time>
      </trkpt>
      <trkpt lat="43.68218" lon="5.83659">
        <ele>434</ele>
        <time>2016-01-23T08:12:32.413Z</time>
      </trkpt>
      <trkpt lat="43.68211" lon="5.83665">
        <ele>433</ele>
        <time>2016-01-23T08:12:35.464Z</time>
      </trkpt>
      <trkpt lat="43.68209" lon="5.83667">
        <ele>434</ele>
        <time>2016-01-23T08:12:36.423Z</time>
      </trkpt>
      <trkpt lat="43.68202" lon="5.83673">
        <ele>434</ele>
        <time>2016-01-23T08:12:39.479Z</time>
      </trkpt>
      <trkpt lat="43.682" lon="5.83675">
        <ele>434</ele>
        <time>2016-01-23T08:12:40.415Z</time>
      </trkpt>
      <trkpt lat="43.68196" lon="5.83664">
        <ele>434</ele>
        <time>2016-01-23T08:12:45.439Z</time>
      </trkpt>
      <trkpt lat="43.68197" lon="5.83662">
        <ele>434</ele>
        <time>2016-01-23T08:12:46.452Z</time>
      </trkpt>
      <trkpt lat="43.68202" lon="5.83652">
        <ele>434</ele>
        <time>2016-01-23T08:12:51.421Z</time>
      </trkpt>
      <trkpt lat="43.68203" lon="5.8365">
        <ele>434</ele>
        <time>2016-01-23T08:12:52.413Z</time>
      </trkpt>
      <trkpt lat="43.68209" lon="5.8364">
        <ele>435</ele>
        <time>2016-01-23T08:12:57.438Z</time>
      </trkpt>
      <trkpt lat="43.6821" lon="5.83638">
        <ele>435</ele>
        <time>2016-01-23T08:12:58.414Z</time>
      </trkpt>
      <trkpt lat="43.68215" lon="5.8363">
        <ele>436</ele>
        <time>2016-01-23T08:13:03.437Z</time>
      </trkpt>
      <trkpt lat="43.68216" lon="5.83629">
        <ele>436</ele>
        <time>2016-01-23T08:13:04.414Z</time>
      </trkpt>
      <trkpt lat="43.68223" lon="5.83622">
        <ele>436</ele>
        <time>2016-01-23T08:13:09.438Z</time>
      </trkpt>
      <trkpt lat="43.68223" lon="5.8362">
        <ele>436</ele>
        <time>2016-01-23T08:13:10.414Z</time>
      </trkpt>
      <trkpt lat="43.68225" lon="5.83608">
        <ele>437</ele>
        <time>2016-01-23T08:13:16.439Z</time>
      </trkpt>
      <trkpt lat="43.68225" lon="5.83606">
        <ele>437</ele>
        <time>2016-01-23T08:13:17.667Z</time>
      </trkpt>
      <trkpt lat="43.68228" lon="5.83595">
        <ele>437</ele>
        <time>2016-01-23T08:13:23.436Z</time>
      </trkpt>
      <trkpt lat="43.68229" lon="5.83594">
        <ele>437</ele>
        <time>2016-01-23T08:13:24.444Z</time>
      </trkpt>
      <trkpt lat="43.68233" lon="5.83585">
        <ele>438</ele>
        <time>2016-01-23T08:13:36.431Z</time>
      </trkpt>
      <trkpt lat="43.68234" lon="5.83583">
        <ele>439</ele>
        <time>2016-01-23T08:13:37.412Z</time>
      </trkpt>
      <trkpt lat="43.68237" lon="5.83573">
        <ele>439</ele>
        <time>2016-01-23T08:13:41.431Z</time>
      </trkpt>
      <trkpt lat="43.68238" lon="5.83571">
        <ele>440</ele>
        <time>2016-01-23T08:13:42.411Z</time>
      </trkpt>
      <trkpt lat="43.6824" lon="5.83561">
        <ele>441</ele>
        <time>2016-01-23T08:13:46.456Z</time>
      </trkpt>
      <trkpt lat="43.6824" lon="5.83558">
        <ele>441</ele>
        <time>2016-01-23T08:13:47.412Z</time>
      </trkpt>
      <trkpt lat="43.68243" lon="5.83547">
        <ele>442</ele>
        <time>2016-01-23T08:14:07.432Z</time>
      </trkpt>
      <trkpt lat="43.68242" lon="5.83544">
        <ele>442</ele>
        <time>2016-01-23T08:14:08.436Z</time>
      </trkpt>
      <trkpt lat="43.68246" lon="5.83533">
        <ele>444</ele>
        <time>2016-01-23T08:14:13.435Z</time>
      </trkpt>
      <trkpt lat="43.68248" lon="5.83532">
        <ele>444</ele>
        <time>2016-01-23T08:14:14.412Z</time>
      </trkpt>
      <trkpt lat="43.68245" lon="5.8352">
        <ele>445</ele>
        <time>2016-01-23T08:14:21.439Z</time>
      </trkpt>
      <trkpt lat="43.68243" lon="5.8352">
        <ele>445</ele>
        <time>2016-01-23T08:14:22.415Z</time>
      </trkpt>
      <trkpt lat="43.68237" lon="5.83516">
        <ele>444</ele>
        <time>2016-01-23T08:14:26.437Z</time>
      </trkpt>
      <trkpt lat="43.68234" lon="5.83514">
        <ele>444</ele>
        <time>2016-01-23T08:14:27.413Z</time>
      </trkpt>
      <trkpt lat="43.68228" lon="5.83512">
        <ele>444</ele>
        <time>2016-01-23T08:14:29.439Z</time>
      </trkpt>
      <trkpt lat="43.68225" lon="5.8351">
        <ele>444</ele>
        <time>2016-01-23T08:14:30.416Z</time>
      </trkpt>
      <trkpt lat="43.6822" lon="5.835">
        <ele>444</ele>
        <time>2016-01-23T08:14:33.665Z</time>
      </trkpt>
      <trkpt lat="43.6822" lon="5.83498">
        <ele>445</ele>
        <time>2016-01-23T08:14:34.414Z</time>
      </trkpt>
      <trkpt lat="43.68219" lon="5.83487">
        <ele>444</ele>
        <time>2016-01-23T08:14:39.437Z</time>
      </trkpt>
      <trkpt lat="43.68218" lon="5.83485">
        <ele>444</ele>
        <time>2016-01-23T08:14:40.415Z</time>
      </trkpt>
      <trkpt lat="43.68215" lon="5.83475">
        <ele>445</ele>
        <time>2016-01-23T08:14:45.446Z</time>
      </trkpt>
      <trkpt lat="43.68215" lon="5.83473">
        <ele>445</ele>
        <time>2016-01-23T08:14:46.656Z</time>
      </trkpt>
      <trkpt lat="43.68213" lon="5.83461">
        <ele>446</ele>
        <time>2016-01-23T08:14:52.442Z</time>
      </trkpt>
      <trkpt lat="43.68213" lon="5.83459">
        <ele>446</ele>
        <time>2016-01-23T08:14:53.415Z</time>
      </trkpt>
      <trkpt lat="43.68214" lon="5.83448">
        <ele>447</ele>
        <time>2016-01-23T08:14:58.669Z</time>
      </trkpt>
      <trkpt lat="43.68214" lon="5.83446">
        <ele>447</ele>
        <time>2016-01-23T08:14:59.415Z</time>
      </trkpt>
      <trkpt lat="43.68211" lon="5.83435">
        <ele>448</ele>
        <time>2016-01-23T08:15:04.437Z</time>
      </trkpt>
      <trkpt lat="43.6821" lon="5.83434">
        <ele>448</ele>
        <time>2016-01-23T08:15:05.414Z</time>
      </trkpt>
      <trkpt lat="43.68206" lon="5.83424">
        <ele>450</ele>
        <time>2016-01-23T08:15:10.437Z</time>
      </trkpt>
      <trkpt lat="43.68206" lon="5.83422">
        <ele>451</ele>
        <time>2016-01-23T08:15:11.426Z</time>
      </trkpt>
      <trkpt lat="43.68204" lon="5.8341">
        <ele>452</ele>
        <time>2016-01-23T08:15:18.438Z</time>
      </trkpt>
      <trkpt lat="43.68203" lon="5.83408">
        <ele>452</ele>
        <time>2016-01-23T08:15:19.427Z</time>
      </trkpt>
      <trkpt lat="43.68199" lon="5.83398">
        <ele>452</ele>
        <time>2016-01-23T08:15:25.438Z</time>
      </trkpt>
      <trkpt lat="43.68199" lon="5.83397">
        <ele>452</ele>
        <time>2016-01-23T08:15:26.414Z</time>
      </trkpt>
      <trkpt lat="43.68193" lon="5.83387">
        <ele>453</ele>
        <time>2016-01-23T08:15:33.436Z</time>
      </trkpt>
      <trkpt lat="43.68193" lon="5.83385">
        <ele>453</ele>
        <time>2016-01-23T08:15:34.413Z</time>
      </trkpt>
      <trkpt lat="43.6819" lon="5.83374">
        <ele>454</ele>
        <time>2016-01-23T08:15:41.436Z</time>
      </trkpt>
      <trkpt lat="43.68189" lon="5.83372">
        <ele>454</ele>
        <time>2016-01-23T08:15:42.414Z</time>
      </trkpt>
      <trkpt lat="43.68184" lon="5.83363">
        <ele>456</ele>
        <time>2016-01-23T08:15:49.438Z</time>
      </trkpt>
      <trkpt lat="43.68184" lon="5.83361">
        <ele>456</ele>
        <time>2016-01-23T08:15:50.414Z</time>
      </trkpt>
      <trkpt lat="43.6818" lon="5.83351">
        <ele>457</ele>
        <time>2016-01-23T08:15:57.450Z</time>
      </trkpt>
      <trkpt lat="43.68179" lon="5.83349">
        <ele>457</ele>
        <time>2016-01-23T08:15:58.415Z</time>
      </trkpt>
      <trkpt lat="43.68176" lon="5.83337">
        <ele>459</ele>
        <time>2016-01-23T08:16:05.437Z</time>
      </trkpt>
      <trkpt lat="43.68176" lon="5.83336">
        <ele>459</ele>
        <time>2016-01-23T08:16:06.415Z</time>
      </trkpt>
      <trkpt lat="43.68174" lon="5.83325">
        <ele>461</ele>
        <time>2016-01-23T08:16:13.483Z</time>
      </trkpt>
      <trkpt lat="43.68174" lon="5.83324">
        <ele>461</ele>
        <time>2016-01-23T08:16:14.414Z</time>
      </trkpt>
      <trkpt lat="43.68171" lon="5.83313">
        <ele>462</ele>
        <time>2016-01-23T08:16:21.437Z</time>
      </trkpt>
      <trkpt lat="43.68171" lon="5.83311">
        <ele>462</ele>
        <time>2016-01-23T08:16:22.414Z</time>
      </trkpt>
      <trkpt lat="43.68171" lon="5.83299">
        <ele>464</ele>
        <time>2016-01-23T08:16:29.438Z</time>
      </trkpt>
      <trkpt lat="43.68171" lon="5.83298">
        <ele>464</ele>
        <time>2016-01-23T08:16:30.415Z</time>
      </trkpt>
      <trkpt lat="43.68176" lon="5.83289">
        <ele>464</ele>
        <time>2016-01-23T08:16:37.439Z</time>
      </trkpt>
      <trkpt lat="43.68177" lon="5.83288">
        <ele>465</ele>
        <time>2016-01-23T08:16:38.414Z</time>
      </trkpt>
      <trkpt lat="43.68184" lon="5.83283">
        <ele>464</ele>
        <time>2016-01-23T08:16:45.438Z</time>
      </trkpt>
      <trkpt lat="43.68186" lon="5.83283">
        <ele>464</ele>
        <time>2016-01-23T08:16:46.439Z</time>
      </trkpt>
      <trkpt lat="43.68193" lon="5.83283">
        <ele>465</ele>
        <time>2016-01-23T08:16:52.648Z</time>
      </trkpt>
      <trkpt lat="43.68195" lon="5.83282">
        <ele>465</ele>
        <time>2016-01-23T08:16:53.414Z</time>
      </trkpt>
      <trkpt lat="43.68203" lon="5.83279">
        <ele>465</ele>
        <time>2016-01-23T08:16:58.440Z</time>
      </trkpt>
      <trkpt lat="43.68204" lon="5.83279">
        <ele>465</ele>
        <time>2016-01-23T08:16:59.416Z</time>
      </trkpt>
      <trkpt lat="43.68211" lon="5.83274">
        <ele>465</ele>
        <time>2016-01-23T08:17:04.439Z</time>
      </trkpt>
      <trkpt lat="43.68213" lon="5.83273">
        <ele>465</ele>
        <time>2016-01-23T08:17:05.415Z</time>
      </trkpt>
      <trkpt lat="43.68221" lon="5.8327">
        <ele>466</ele>
        <time>2016-01-23T08:17:10.445Z</time>
      </trkpt>
      <trkpt lat="43.68223" lon="5.8327">
        <ele>466</ele>
        <time>2016-01-23T08:17:11.414Z</time>
      </trkpt>
      <trkpt lat="43.68232" lon="5.83267">
        <ele>467</ele>
        <time>2016-01-23T08:17:17.438Z</time>
      </trkpt>
      <trkpt lat="43.68233" lon="5.83266">
        <ele>467</ele>
        <time>2016-01-23T08:17:18.415Z</time>
      </trkpt>
      <trkpt lat="43.68241" lon="5.83263">
        <ele>469</ele>
        <time>2016-01-23T08:17:25.440Z</time>
      </trkpt>
      <trkpt lat="43.68242" lon="5.83263">
        <ele>469</ele>
        <time>2016-01-23T08:17:26.416Z</time>
      </trkpt>
      <trkpt lat="43.68249" lon="5.83262">
        <ele>469</ele>
        <time>2016-01-23T08:17:31.437Z</time>
      </trkpt>
      <trkpt lat="43.68251" lon="5.83261">
        <ele>469</ele>
        <time>2016-01-23T08:17:32.424Z</time>
      </trkpt>
      <trkpt lat="43.68257" lon="5.83254">
        <ele>469</ele>
        <time>2016-01-23T08:17:36.460Z</time>
      </trkpt>
      <trkpt lat="43.68258" lon="5.83252">
        <ele>469</ele>
        <time>2016-01-23T08:17:37.412Z</time>
      </trkpt>
      <trkpt lat="43.68265" lon="5.83246">
        <ele>469</ele>
        <time>2016-01-23T08:17:42.431Z</time>
      </trkpt>
      <trkpt lat="43.68267" lon="5.83246">
        <ele>469</ele>
        <time>2016-01-23T08:17:43.412Z</time>
      </trkpt>
      <trkpt lat="43.68274" lon="5.83241">
        <ele>469</ele>
        <time>2016-01-23T08:17:47.433Z</time>
      </trkpt>
      <trkpt lat="43.68275" lon="5.83239">
        <ele>469</ele>
        <time>2016-01-23T08:17:48.411Z</time>
      </trkpt>
      <trkpt lat="43.6828" lon="5.83233">
        <ele>469</ele>
        <time>2016-01-23T08:17:51.456Z</time>
      </trkpt>
      <trkpt lat="43.68282" lon="5.83231">
        <ele>469</ele>
        <time>2016-01-23T08:17:52.412Z</time>
      </trkpt>
      <trkpt lat="43.68289" lon="5.83227">
        <ele>468</ele>
        <time>2016-01-23T08:17:55.433Z</time>
      </trkpt>
      <trkpt lat="43.68293" lon="5.83226">
        <ele>468</ele>
        <time>2016-01-23T08:17:56.413Z</time>
      </trkpt>
      <trkpt lat="43.683" lon="5.83223">
        <ele>467</ele>
        <time>2016-01-23T08:17:58.433Z</time>
      </trkpt>
      <trkpt lat="43.68303" lon="5.83222">
        <ele>467</ele>
        <time>2016-01-23T08:17:59.414Z</time>
      </trkpt>
      <trkpt lat="43.68309" lon="5.83219">
        <ele>467</ele>
        <time>2016-01-23T08:18:01.433Z</time>
      </trkpt>
      <trkpt lat="43.68313" lon="5.83219">
        <ele>467</ele>
        <time>2016-01-23T08:18:02.436Z</time>
      </trkpt>
      <trkpt lat="43.68318" lon="5.83222">
        <ele>467</ele>
        <time>2016-01-23T08:18:04.437Z</time>
      </trkpt>
      <trkpt lat="43.68321" lon="5.83224">
        <ele>467</ele>
        <time>2016-01-23T08:18:05.594Z</time>
      </trkpt>
      <trkpt lat="43.68328" lon="5.83226">
        <ele>466</ele>
        <time>2016-01-23T08:18:07.428Z</time>
      </trkpt>
      <trkpt lat="43.68335" lon="5.83228">
        <ele>465</ele>
        <time>2016-01-23T08:18:08.412Z</time>
      </trkpt>
      <trkpt lat="43.68341" lon="5.8323">
        <ele>464</ele>
        <time>2016-01-23T08:18:09.433Z</time>
      </trkpt>
      <trkpt lat="43.68347" lon="5.83232">
        <ele>463</ele>
        <time>2016-01-23T08:18:10.411Z</time>
      </trkpt>
      <trkpt lat="43.68353" lon="5.83234">
        <ele>462</ele>
        <time>2016-01-23T08:18:11.465Z</time>
      </trkpt>
      <trkpt lat="43.68359" lon="5.83238">
        <ele>460</ele>
        <time>2016-01-23T08:18:12.414Z</time>
      </trkpt>
      <trkpt lat="43.68366" lon="5.8324">
        <ele>460</ele>
        <time>2016-01-23T08:18:13.465Z</time>
      </trkpt>
      <trkpt lat="43.68371" lon="5.83241">
        <ele>458</ele>
        <time>2016-01-23T08:18:14.413Z</time>
      </trkpt>
      <trkpt lat="43.68377" lon="5.8324">
        <ele>458</ele>
        <time>2016-01-23T08:18:15.439Z</time>
      </trkpt>
      <trkpt lat="43.68383" lon="5.83236">
        <ele>457</ele>
        <time>2016-01-23T08:18:16.416Z</time>
      </trkpt>
      <trkpt lat="43.68388" lon="5.83234">
        <ele>457</ele>
        <time>2016-01-23T08:18:17.431Z</time>
      </trkpt>
      <trkpt lat="43.68394" lon="5.83232">
        <ele>456</ele>
        <time>2016-01-23T08:18:18.411Z</time>
      </trkpt>
      <trkpt lat="43.68399" lon="5.83226">
        <ele>455</ele>
        <time>2016-01-23T08:18:19.428Z</time>
      </trkpt>
      <trkpt lat="43.68404" lon="5.8322">
        <ele>455</ele>
        <time>2016-01-23T08:18:20.411Z</time>
      </trkpt>
      <trkpt lat="43.6841" lon="5.83213">
        <ele>453</ele>
        <time>2016-01-23T08:18:21.431Z</time>
      </trkpt>
      <trkpt lat="43.68415" lon="5.83209">
        <ele>453</ele>
        <time>2016-01-23T08:18:22.413Z</time>
      </trkpt>
      <trkpt lat="43.68421" lon="5.83207">
        <ele>452</ele>
        <time>2016-01-23T08:18:23.442Z</time>
      </trkpt>
      <trkpt lat="43.68427" lon="5.83203">
        <ele>451</ele>
        <time>2016-01-23T08:18:24.435Z</time>
      </trkpt>
      <trkpt lat="43.6843" lon="5.83196">
        <ele>450</ele>
        <time>2016-01-23T08:18:25.432Z</time>
      </trkpt>
      <trkpt lat="43.68431" lon="5.83188">
        <ele>450</ele>
        <time>2016-01-23T08:18:26.410Z</time>
      </trkpt>
      <trkpt lat="43.68432" lon="5.83178">
        <ele>450</ele>
        <time>2016-01-23T08:18:27.431Z</time>
      </trkpt>
      <trkpt lat="43.68434" lon="5.8317">
        <ele>450</ele>
        <time>2016-01-23T08:18:28.411Z</time>
      </trkpt>
      <trkpt lat="43.68436" lon="5.83162">
        <ele>450</ele>
        <time>2016-01-23T08:18:29.431Z</time>
      </trkpt>
      <trkpt lat="43.68437" lon="5.83154">
        <ele>449</ele>
        <time>2016-01-23T08:18:30.416Z</time>
      </trkpt>
      <trkpt lat="43.68437" lon="5.83145">
        <ele>450</ele>
        <time>2016-01-23T08:18:31.432Z</time>
      </trkpt>
      <trkpt lat="43.68436" lon="5.83135">
        <ele>449</ele>
        <time>2016-01-23T08:18:32.412Z</time>
      </trkpt>
      <trkpt lat="43.68435" lon="5.83126">
        <ele>449</ele>
        <time>2016-01-23T08:18:33.433Z</time>
      </trkpt>
      <trkpt lat="43.68435" lon="5.83116">
        <ele>448</ele>
        <time>2016-01-23T08:18:34.413Z</time>
      </trkpt>
      <trkpt lat="43.68438" lon="5.83107">
        <ele>448</ele>
        <time>2016-01-23T08:18:35.454Z</time>
      </trkpt>
      <trkpt lat="43.68442" lon="5.83101">
        <ele>448</ele>
        <time>2016-01-23T08:18:36.414Z</time>
      </trkpt>
      <trkpt lat="43.68446" lon="5.83093">
        <ele>448</ele>
        <time>2016-01-23T08:18:37.466Z</time>
      </trkpt>
      <trkpt lat="43.68447" lon="5.83087">
        <ele>448</ele>
        <time>2016-01-23T08:18:38.414Z</time>
      </trkpt>
      <trkpt lat="43.68447" lon="5.83076">
        <ele>449</ele>
        <time>2016-01-23T08:18:40.466Z</time>
      </trkpt>
      <trkpt lat="43.68446" lon="5.83073">
        <ele>449</ele>
        <time>2016-01-23T08:18:41.412Z</time>
      </trkpt>
      <trkpt lat="43.68444" lon="5.83062">
        <ele>450</ele>
        <time>2016-01-23T08:18:45.435Z</time>
      </trkpt>
      <trkpt lat="43.68443" lon="5.8306">
        <ele>450</ele>
        <time>2016-01-23T08:18:46.436Z</time>
      </trkpt>
      <trkpt lat="43.68441" lon="5.8305">
        <ele>450</ele>
        <time>2016-01-23T08:18:50.607Z</time>
      </trkpt>
      <trkpt lat="43.6844" lon="5.83048">
        <ele>450</ele>
        <time>2016-01-23T08:18:51.411Z</time>
      </trkpt>
      <trkpt lat="43.68437" lon="5.83037">
        <ele>452</ele>
        <time>2016-01-23T08:18:56.435Z</time>
      </trkpt>
      <trkpt lat="43.68437" lon="5.83034">
        <ele>453</ele>
        <time>2016-01-23T08:18:57.434Z</time>
      </trkpt>
      <trkpt lat="43.68435" lon="5.83024">
        <ele>454</ele>
        <time>2016-01-23T08:19:01.432Z</time>
      </trkpt>
      <trkpt lat="43.68434" lon="5.83022">
        <ele>452</ele>
        <time>2016-01-23T08:19:02.413Z</time>
      </trkpt>
      <trkpt lat="43.68436" lon="5.8301">
        <ele>454</ele>
        <time>2016-01-23T08:19:07.433Z</time>
      </trkpt>
      <trkpt lat="43.68437" lon="5.83008">
        <ele>454</ele>
        <time>2016-01-23T08:19:08.435Z</time>
      </trkpt>
      <trkpt lat="43.68441" lon="5.82999">
        <ele>455</ele>
        <time>2016-01-23T08:19:13.438Z</time>
      </trkpt>
      <trkpt lat="43.68442" lon="5.82998">
        <ele>456</ele>
        <time>2016-01-23T08:19:14.414Z</time>
      </trkpt>
      <trkpt lat="43.68444" lon="5.82986">
        <ele>457</ele>
        <time>2016-01-23T08:19:20.432Z</time>
      </trkpt>
      <trkpt lat="43.68444" lon="5.82984">
        <ele>457</ele>
        <time>2016-01-23T08:19:21.414Z</time>
      </trkpt>
      <trkpt lat="43.68449" lon="5.82974">
        <ele>458</ele>
        <time>2016-01-23T08:19:27.616Z</time>
      </trkpt>
      <trkpt lat="43.68451" lon="5.82973">
        <ele>459</ele>
        <time>2016-01-23T08:19:28.414Z</time>
      </trkpt>
      <trkpt lat="43.68458" lon="5.82966">
        <ele>460</ele>
        <time>2016-01-23T08:19:34.430Z</time>
      </trkpt>
      <trkpt lat="43.68459" lon="5.82965">
        <ele>460</ele>
        <time>2016-01-23T08:19:35.451Z</time>
      </trkpt>
      <trkpt lat="43.68466" lon="5.8296">
        <ele>460</ele>
        <time>2016-01-23T08:19:40.427Z</time>
      </trkpt>
      <trkpt lat="43.68468" lon="5.82959">
        <ele>460</ele>
        <time>2016-01-23T08:19:41.414Z</time>
      </trkpt>
      <trkpt lat="43.68475" lon="5.82953">
        <ele>460</ele>
        <time>2016-01-23T08:19:46.444Z</time>
      </trkpt>
      <trkpt lat="43.68476" lon="5.82952">
        <ele>460</ele>
        <time>2016-01-23T08:19:47.417Z</time>
      </trkpt>
      <trkpt lat="43.68481" lon="5.82945">
        <ele>461</ele>
        <time>2016-01-23T08:19:51.464Z</time>
      </trkpt>
      <trkpt lat="43.68482" lon="5.82942">
        <ele>461</ele>
        <time>2016-01-23T08:19:52.412Z</time>
      </trkpt>
      <trkpt lat="43.68485" lon="5.82933">
        <ele>461</ele>
        <time>2016-01-23T08:19:56.436Z</time>
      </trkpt>
      <trkpt lat="43.68486" lon="5.8293">
        <ele>461</ele>
        <time>2016-01-23T08:19:57.423Z</time>
      </trkpt>
      <trkpt lat="43.68487" lon="5.8292">
        <ele>460</ele>
        <time>2016-01-23T08:20:01.437Z</time>
      </trkpt>
      <trkpt lat="43.68487" lon="5.82917">
        <ele>460</ele>
        <time>2016-01-23T08:20:02.415Z</time>
      </trkpt>
      <trkpt lat="43.68486" lon="5.82905">
        <ele>460</ele>
        <time>2016-01-23T08:20:06.435Z</time>
      </trkpt>
      <trkpt lat="43.68486" lon="5.82902">
        <ele>460</ele>
        <time>2016-01-23T08:20:07.432Z</time>
      </trkpt>
      <trkpt lat="43.68487" lon="5.82892">
        <ele>461</ele>
        <time>2016-01-23T08:20:10.452Z</time>
      </trkpt>
      <trkpt lat="43.68487" lon="5.8289">
        <ele>461</ele>
        <time>2016-01-23T08:20:11.417Z</time>
      </trkpt>
      <trkpt lat="43.68489" lon="5.82881">
        <ele>460</ele>
        <time>2016-01-23T08:20:14.440Z</time>
      </trkpt>
      <trkpt lat="43.68489" lon="5.82877">
        <ele>460</ele>
        <time>2016-01-23T08:20:15.415Z</time>
      </trkpt>
      <trkpt lat="43.68491" lon="5.82869">
        <ele>460</ele>
        <time>2016-01-23T08:20:17.496Z</time>
      </trkpt>
      <trkpt lat="43.68493" lon="5.82864">
        <ele>460</ele>
        <time>2016-01-23T08:20:18.440Z</time>
      </trkpt>
      <trkpt lat="43.68499" lon="5.82856">
        <ele>460</ele>
        <time>2016-01-23T08:20:20.502Z</time>
      </trkpt>
      <trkpt lat="43.68503" lon="5.82851">
        <ele>460</ele>
        <time>2016-01-23T08:20:21.415Z</time>
      </trkpt>
      <trkpt lat="43.68508" lon="5.82849">
        <ele>459</ele>
        <time>2016-01-23T08:20:22.439Z</time>
      </trkpt>
      <trkpt lat="43.68513" lon="5.82846">
        <ele>459</ele>
        <time>2016-01-23T08:20:23.415Z</time>
      </trkpt>
      <trkpt lat="43.68517" lon="5.82842">
        <ele>459</ele>
        <time>2016-01-23T08:20:24.439Z</time>
      </trkpt>
      <trkpt lat="43.6852" lon="5.82838">
        <ele>459</ele>
        <time>2016-01-23T08:20:25.417Z</time>
      </trkpt>
      <trkpt lat="43.68524" lon="5.82832">
        <ele>459</ele>
        <time>2016-01-23T08:20:26.440Z</time>
      </trkpt>
      <trkpt lat="43.68527" lon="5.82826">
        <ele>459</ele>
        <time>2016-01-23T08:20:27.427Z</time>
      </trkpt>
      <trkpt lat="43.68529" lon="5.8282">
        <ele>459</ele>
        <time>2016-01-23T08:20:28.439Z</time>
      </trkpt>
      <trkpt lat="43.6853" lon="5.82814">
        <ele>460</ele>
        <time>2016-01-23T08:20:29.442Z</time>
      </trkpt>
      <trkpt lat="43.68532" lon="5.82805">
        <ele>460</ele>
        <time>2016-01-23T08:20:31.441Z</time>
      </trkpt>
      <trkpt lat="43.68532" lon="5.82801">
        <ele>461</ele>
        <time>2016-01-23T08:20:32.416Z</time>
      </trkpt>
      <trkpt lat="43.68535" lon="5.8279">
        <ele>461</ele>
        <time>2016-01-23T08:20:36.437Z</time>
      </trkpt>
      <trkpt lat="43.68535" lon="5.82788">
        <ele>461</ele>
        <time>2016-01-23T08:20:37.415Z</time>
      </trkpt>
      <trkpt lat="43.68539" lon="5.82779">
        <ele>461</ele>
        <time>2016-01-23T08:20:40.469Z</time>
      </trkpt>
      <trkpt lat="43.6854" lon="5.82777">
        <ele>461</ele>
        <time>2016-01-23T08:20:41.431Z</time>
      </trkpt>
      <trkpt lat="43.68544" lon="5.82768">
        <ele>461</ele>
        <time>2016-01-23T08:20:44.436Z</time>
      </trkpt>
      <trkpt lat="43.68546" lon="5.82764">
        <ele>461</ele>
        <time>2016-01-23T08:20:45.411Z</time>
      </trkpt>
      <trkpt lat="43.6855" lon="5.82755">
        <ele>462</ele>
        <time>2016-01-23T08:20:48.433Z</time>
      </trkpt>
      <trkpt lat="43.68551" lon="5.82753">
        <ele>462</ele>
        <time>2016-01-23T08:20:49.412Z</time>
      </trkpt>
      <trkpt lat="43.68556" lon="5.82745">
        <ele>462</ele>
        <time>2016-01-23T08:20:52.434Z</time>
      </trkpt>
      <trkpt lat="43.68558" lon="5.82743">
        <ele>462</ele>
        <time>2016-01-23T08:20:53.413Z</time>
      </trkpt>
      <trkpt lat="43.68563" lon="5.82737">
        <ele>462</ele>
        <time>2016-01-23T08:20:56.440Z</time>
      </trkpt>
      <trkpt lat="43.68565" lon="5.82735">
        <ele>463</ele>
        <time>2016-01-23T08:20:57.414Z</time>
      </trkpt>
      <trkpt lat="43.68571" lon="5.82729">
        <ele>463</ele>
        <time>2016-01-23T08:21:00.435Z</time>
      </trkpt>
      <trkpt lat="43.68572" lon="5.82727">
        <ele>463</ele>
        <time>2016-01-23T08:21:01.411Z</time>
      </trkpt>
      <trkpt lat="43.68579" lon="5.8272">
        <ele>463</ele>
        <time>2016-01-23T08:21:05.433Z</time>
      </trkpt>
      <trkpt lat="43.68581" lon="5.82718">
        <ele>463</ele>
        <time>2016-01-23T08:21:06.417Z</time>
      </trkpt>
      <trkpt lat="43.68588" lon="5.82711">
        <ele>464</ele>
        <time>2016-01-23T08:21:10.439Z</time>
      </trkpt>
      <trkpt lat="43.6859" lon="5.8271">
        <ele>464</ele>
        <time>2016-01-23T08:21:11.416Z</time>
      </trkpt>
      <trkpt lat="43.68595" lon="5.82703">
        <ele>464</ele>
        <time>2016-01-23T08:21:15.454Z</time>
      </trkpt>
      <trkpt lat="43.68597" lon="5.82702">
        <ele>464</ele>
        <time>2016-01-23T08:21:16.417Z</time>
      </trkpt>
      <trkpt lat="43.68604" lon="5.82695">
        <ele>464</ele>
        <time>2016-01-23T08:21:20.432Z</time>
      </trkpt>
      <trkpt lat="43.68606" lon="5.82694">
        <ele>464</ele>
        <time>2016-01-23T08:21:21.414Z</time>
      </trkpt>
      <trkpt lat="43.68614" lon="5.82689">
        <ele>465</ele>
        <time>2016-01-23T08:21:25.434Z</time>
      </trkpt>
      <trkpt lat="43.68615" lon="5.82688">
        <ele>465</ele>
        <time>2016-01-23T08:21:26.414Z</time>
      </trkpt>
      <trkpt lat="43.68623" lon="5.82685">
        <ele>466</ele>
        <time>2016-01-23T08:21:30.438Z</time>
      </trkpt>
      <trkpt lat="43.68625" lon="5.82684">
        <ele>466</ele>
        <time>2016-01-23T08:21:31.415Z</time>
      </trkpt>
      <trkpt lat="43.68632" lon="5.82682">
        <ele>466</ele>
        <time>2016-01-23T08:21:35.441Z</time>
      </trkpt>
      <trkpt lat="43.68634" lon="5.82682">
        <ele>467</ele>
        <time>2016-01-23T08:21:36.413Z</time>
      </trkpt>
      <trkpt lat="43.68643" lon="5.82681">
        <ele>467</ele>
        <time>2016-01-23T08:21:41.443Z</time>
      </trkpt>
      <trkpt lat="43.68645" lon="5.82681">
        <ele>467</ele>
        <time>2016-01-23T08:21:42.415Z</time>
      </trkpt>
      <trkpt lat="43.68654" lon="5.82679">
        <ele>467</ele>
        <time>2016-01-23T08:21:47.434Z</time>
      </trkpt>
      <trkpt lat="43.68655" lon="5.82678">
        <ele>468</ele>
        <time>2016-01-23T08:21:48.413Z</time>
      </trkpt>
      <trkpt lat="43.68663" lon="5.82679">
        <ele>469</ele>
        <time>2016-01-23T08:21:52.433Z</time>
      </trkpt>
      <trkpt lat="43.68664" lon="5.82679">
        <ele>469</ele>
        <time>2016-01-23T08:21:53.421Z</time>
      </trkpt>
      <trkpt lat="43.68671" lon="5.82674">
        <ele>470</ele>
        <time>2016-01-23T08:21:57.433Z</time>
      </trkpt>
      <trkpt lat="43.68673" lon="5.82672">
        <ele>470</ele>
        <time>2016-01-23T08:21:58.414Z</time>
      </trkpt>
      <trkpt lat="43.6868" lon="5.82668">
        <ele>471</ele>
        <time>2016-01-23T08:22:02.438Z</time>
      </trkpt>
      <trkpt lat="43.68682" lon="5.82667">
        <ele>471</ele>
        <time>2016-01-23T08:22:03.413Z</time>
      </trkpt>
      <trkpt lat="43.6869" lon="5.82664">
        <ele>471</ele>
        <time>2016-01-23T08:22:07.433Z</time>
      </trkpt>
      <trkpt lat="43.68692" lon="5.82663">
        <ele>471</ele>
        <time>2016-01-23T08:22:08.415Z</time>
      </trkpt>
      <trkpt lat="43.687" lon="5.82659">
        <ele>471</ele>
        <time>2016-01-23T08:22:12.443Z</time>
      </trkpt>
      <trkpt lat="43.68702" lon="5.82658">
        <ele>471</ele>
        <time>2016-01-23T08:22:13.438Z</time>
      </trkpt>
      <trkpt lat="43.68711" lon="5.82655">
        <ele>472</ele>
        <time>2016-01-23T08:22:17.432Z</time>
      </trkpt>
      <trkpt lat="43.68713" lon="5.82654">
        <ele>472</ele>
        <time>2016-01-23T08:22:18.422Z</time>
      </trkpt>
      <trkpt lat="43.68721" lon="5.8265">
        <ele>472</ele>
        <time>2016-01-23T08:22:22.434Z</time>
      </trkpt>
      <trkpt lat="43.68723" lon="5.8265">
        <ele>472</ele>
        <time>2016-01-23T08:22:23.412Z</time>
      </trkpt>
      <trkpt lat="43.68732" lon="5.82647">
        <ele>471</ele>
        <time>2016-01-23T08:22:27.434Z</time>
      </trkpt>
      <trkpt lat="43.68734" lon="5.82646">
        <ele>471</ele>
        <time>2016-01-23T08:22:28.413Z</time>
      </trkpt>
      <trkpt lat="43.68741" lon="5.82644">
        <ele>471</ele>
        <time>2016-01-23T08:22:31.608Z</time>
      </trkpt>
      <trkpt lat="43.68743" lon="5.82644">
        <ele>471</ele>
        <time>2016-01-23T08:22:32.410Z</time>
      </trkpt>
      <trkpt lat="43.6875" lon="5.82643">
        <ele>471</ele>
        <time>2016-01-23T08:22:34.436Z</time>
      </trkpt>
      <trkpt lat="43.68753" lon="5.82643">
        <ele>471</ele>
        <time>2016-01-23T08:22:35.414Z</time>
      </trkpt>
      <trkpt lat="43.68759" lon="5.82643">
        <ele>470</ele>
        <time>2016-01-23T08:22:37.437Z</time>
      </trkpt>
      <trkpt lat="43.68762" lon="5.82643">
        <ele>470</ele>
        <time>2016-01-23T08:22:38.415Z</time>
      </trkpt>
      <trkpt lat="43.68769" lon="5.82645">
        <ele>470</ele>
        <time>2016-01-23T08:22:40.461Z</time>
      </trkpt>
      <trkpt lat="43.68772" lon="5.82645">
        <ele>470</ele>
        <time>2016-01-23T08:22:41.414Z</time>
      </trkpt>
      <trkpt lat="43.68778" lon="5.82647">
        <ele>470</ele>
        <time>2016-01-23T08:22:43.447Z</time>
      </trkpt>
      <trkpt lat="43.68781" lon="5.82647">
        <ele>470</ele>
        <time>2016-01-23T08:22:44.414Z</time>
      </trkpt>
      <trkpt lat="43.68788" lon="5.82649">
        <ele>470</ele>
        <time>2016-01-23T08:22:46.443Z</time>
      </trkpt>
      <trkpt lat="43.68791" lon="5.8265">
        <ele>470</ele>
        <time>2016-01-23T08:22:47.416Z</time>
      </trkpt>
      <trkpt lat="43.68797" lon="5.82654">
        <ele>471</ele>
        <time>2016-01-23T08:22:49.414Z</time>
      </trkpt>
      <trkpt lat="43.68799" lon="5.82658">
        <ele>470</ele>
        <time>2016-01-23T08:22:50.412Z</time>
      </trkpt>
      <trkpt lat="43.68803" lon="5.82669">
        <ele>471</ele>
        <time>2016-01-23T08:22:54.426Z</time>
      </trkpt>
      <trkpt lat="43.68805" lon="5.82669">
        <ele>471</ele>
        <time>2016-01-23T08:22:55.415Z</time>
      </trkpt>
      <trkpt lat="43.68808" lon="5.82658">
        <ele>470</ele>
        <time>2016-01-23T08:22:59.436Z</time>
      </trkpt>
      <trkpt lat="43.68809" lon="5.82653">
        <ele>470</ele>
        <time>2016-01-23T08:23:00.414Z</time>
      </trkpt>
      <trkpt lat="43.68809" lon="5.82643">
        <ele>470</ele>
        <time>2016-01-23T08:23:02.458Z</time>
      </trkpt>
      <trkpt lat="43.68809" lon="5.82638">
        <ele>470</ele>
        <time>2016-01-23T08:23:03.415Z</time>
      </trkpt>
      <trkpt lat="43.68808" lon="5.82629">
        <ele>470</ele>
        <time>2016-01-23T08:23:05.439Z</time>
      </trkpt>
      <trkpt lat="43.68808" lon="5.82625">
        <ele>470</ele>
        <time>2016-01-23T08:23:06.410Z</time>
      </trkpt>
      <trkpt lat="43.6881" lon="5.82613">
        <ele>469</ele>
        <time>2016-01-23T08:23:09.442Z</time>
      </trkpt>
      <trkpt lat="43.68811" lon="5.8261">
        <ele>469</ele>
        <time>2016-01-23T08:23:10.416Z</time>
      </trkpt>
      <trkpt lat="43.68817" lon="5.82603">
        <ele>468</ele>
        <time>2016-01-23T08:23:13.484Z</time>
      </trkpt>
      <trkpt lat="43.6882" lon="5.82601">
        <ele>468</ele>
        <time>2016-01-23T08:23:14.416Z</time>
      </trkpt>
      <trkpt lat="43.68825" lon="5.82597">
        <ele>468</ele>
        <time>2016-01-23T08:23:16.436Z</time>
      </trkpt>
      <trkpt lat="43.68828" lon="5.82593">
        <ele>467</ele>
        <time>2016-01-23T08:23:17.526Z</time>
      </trkpt>
      <trkpt lat="43.68833" lon="5.82586">
        <ele>467</ele>
        <time>2016-01-23T08:23:19.440Z</time>
      </trkpt>
      <trkpt lat="43.68835" lon="5.82582">
        <ele>466</ele>
        <time>2016-01-23T08:23:20.418Z</time>
      </trkpt>
      <trkpt lat="43.68838" lon="5.82577">
        <ele>466</ele>
        <time>2016-01-23T08:23:21.443Z</time>
      </trkpt>
      <trkpt lat="43.68841" lon="5.82572">
        <ele>466</ele>
        <time>2016-01-23T08:23:22.418Z</time>
      </trkpt>
      <trkpt lat="43.68845" lon="5.82562">
        <ele>465</ele>
        <time>2016-01-23T08:23:24.473Z</time>
      </trkpt>
      <trkpt lat="43.68848" lon="5.82557">
        <ele>465</ele>
        <time>2016-01-23T08:23:25.416Z</time>
      </trkpt>
      <trkpt lat="43.68852" lon="5.82552">
        <ele>465</ele>
        <time>2016-01-23T08:23:26.431Z</time>
      </trkpt>
      <trkpt lat="43.68856" lon="5.8255">
        <ele>464</ele>
        <time>2016-01-23T08:23:27.417Z</time>
      </trkpt>
      <trkpt lat="43.6886" lon="5.82547">
        <ele>464</ele>
        <time>2016-01-23T08:23:28.443Z</time>
      </trkpt>
      <trkpt lat="43.68864" lon="5.82544">
        <ele>464</ele>
        <time>2016-01-23T08:23:29.415Z</time>
      </trkpt>
      <trkpt lat="43.68868" lon="5.82542">
        <ele>463</ele>
        <time>2016-01-23T08:23:30.439Z</time>
      </trkpt>
      <trkpt lat="43.68873" lon="5.82539">
        <ele>463</ele>
        <time>2016-01-23T08:23:31.416Z</time>
      </trkpt>
      <trkpt lat="43.68877" lon="5.82536">
        <ele>463</ele>
        <time>2016-01-23T08:23:32.440Z</time>
      </trkpt>
      <trkpt lat="43.68882" lon="5.82533">
        <ele>462</ele>
        <time>2016-01-23T08:23:33.415Z</time>
      </trkpt>
      <trkpt lat="43.68887" lon="5.82531">
        <ele>462</ele>
        <time>2016-01-23T08:23:34.439Z</time>
      </trkpt>
      <trkpt lat="43.68892" lon="5.82529">
        <ele>462</ele>
        <time>2016-01-23T08:23:35.415Z</time>
      </trkpt>
      <trkpt lat="43.68897" lon="5.82528">
        <ele>463</ele>
        <time>2016-01-23T08:23:36.439Z</time>
      </trkpt>
      <trkpt lat="43.68902" lon="5.82525">
        <ele>462</ele>
        <time>2016-01-23T08:23:37.416Z</time>
      </trkpt>
      <trkpt lat="43.68907" lon="5.82521">
        <ele>461</ele>
        <time>2016-01-23T08:23:38.445Z</time>
      </trkpt>
      <trkpt lat="43.6891" lon="5.82515">
        <ele>461</ele>
        <time>2016-01-23T08:23:39.415Z</time>
      </trkpt>
      <trkpt lat="43.68914" lon="5.8251">
        <ele>460</ele>
        <time>2016-01-23T08:23:40.471Z</time>
      </trkpt>
      <trkpt lat="43.68917" lon="5.82505">
        <ele>460</ele>
        <time>2016-01-23T08:23:41.414Z</time>
      </trkpt>
      <trkpt lat="43.68922" lon="5.82501">
        <ele>460</ele>
        <time>2016-01-23T08:23:42.439Z</time>
      </trkpt>
      <trkpt lat="43.68927" lon="5.82496">
        <ele>459</ele>
        <time>2016-01-23T08:23:43.452Z</time>
      </trkpt>
      <trkpt lat="43.68931" lon="5.82491">
        <ele>459</ele>
        <time>2016-01-23T08:23:44.442Z</time>
      </trkpt>
      <trkpt lat="43.68934" lon="5.82486">
        <ele>459</ele>
        <time>2016-01-23T08:23:45.419Z</time>
      </trkpt>
      <trkpt lat="43.68938" lon="5.82481">
        <ele>458</ele>
        <time>2016-01-23T08:23:46.439Z</time>
      </trkpt>
      <trkpt lat="43.68942" lon="5.82476">
        <ele>458</ele>
        <time>2016-01-23T08:23:47.416Z</time>
      </trkpt>
      <trkpt lat="43.68945" lon="5.8247">
        <ele>458</ele>
        <time>2016-01-23T08:23:48.440Z</time>
      </trkpt>
      <trkpt lat="43.6895" lon="5.82465">
        <ele>457</ele>
        <time>2016-01-23T08:23:49.415Z</time>
      </trkpt>
      <trkpt lat="43.68953" lon="5.8246">
        <ele>457</ele>
        <time>2016-01-23T08:23:50.438Z</time>
      </trkpt>
      <trkpt lat="43.68957" lon="5.82455">
        <ele>457</ele>
        <time>2016-01-23T08:23:51.415Z</time>
      </trkpt>
      <trkpt lat="43.68962" lon="5.82446">
        <ele>457</ele>
        <time>2016-01-23T08:23:53.441Z</time>
      </trkpt>
      <trkpt lat="43.68965" lon="5.82441">
        <ele>457</ele>
        <time>2016-01-23T08:23:54.417Z</time>
      </trkpt>
      <trkpt lat="43.6897" lon="5.82432">
        <ele>457</ele>
        <time>2016-01-23T08:23:56.475Z</time>
      </trkpt>
      <trkpt lat="43.68973" lon="5.82427">
        <ele>456</ele>
        <time>2016-01-23T08:23:57.406Z</time>
      </trkpt>
      <trkpt lat="43.68978" lon="5.82419">
        <ele>456</ele>
        <time>2016-01-23T08:23:59.440Z</time>
      </trkpt>
      <trkpt lat="43.68981" lon="5.82415">
        <ele>456</ele>
        <time>2016-01-23T08:24:00.415Z</time>
      </trkpt>
      <trkpt lat="43.68987" lon="5.82408">
        <ele>455</ele>
        <time>2016-01-23T08:24:02.441Z</time>
      </trkpt>
      <trkpt lat="43.68991" lon="5.82404">
        <ele>455</ele>
        <time>2016-01-23T08:24:03.416Z</time>
      </trkpt>
      <trkpt lat="43.68994" lon="5.82399">
        <ele>454</ele>
        <time>2016-01-23T08:24:04.438Z</time>
      </trkpt>
      <trkpt lat="43.68997" lon="5.82394">
        <ele>454</ele>
        <time>2016-01-23T08:24:05.417Z</time>
      </trkpt>
      <trkpt lat="43.69001" lon="5.82389">
        <ele>454</ele>
        <time>2016-01-23T08:24:06.438Z</time>
      </trkpt>
      <trkpt lat="43.69004" lon="5.82383">
        <ele>453</ele>
        <time>2016-01-23T08:24:07.445Z</time>
      </trkpt>
      <trkpt lat="43.69007" lon="5.82378">
        <ele>453</ele>
        <time>2016-01-23T08:24:08.438Z</time>
      </trkpt>
      <trkpt lat="43.69009" lon="5.82372">
        <ele>453</ele>
        <time>2016-01-23T08:24:09.415Z</time>
      </trkpt>
      <trkpt lat="43.69014" lon="5.82364">
        <ele>453</ele>
        <time>2016-01-23T08:24:11.438Z</time>
      </trkpt>
      <trkpt lat="43.69016" lon="5.82359">
        <ele>453</ele>
        <time>2016-01-23T08:24:12.416Z</time>
      </trkpt>
      <trkpt lat="43.69023" lon="5.82351">
        <ele>453</ele>
        <time>2016-01-23T08:24:14.441Z</time>
      </trkpt>
      <trkpt lat="43.69026" lon="5.82348">
        <ele>453</ele>
        <time>2016-01-23T08:24:15.416Z</time>
      </trkpt>
      <trkpt lat="43.69031" lon="5.82342">
        <ele>452</ele>
        <time>2016-01-23T08:24:17.439Z</time>
      </trkpt>
      <trkpt lat="43.69035" lon="5.82337">
        <ele>451</ele>
        <time>2016-01-23T08:24:18.445Z</time>
      </trkpt>
      <trkpt lat="43.69038" lon="5.82331">
        <ele>450</ele>
        <time>2016-01-23T08:24:19.439Z</time>
      </trkpt>
      <trkpt lat="43.69042" lon="5.82324">
        <ele>449</ele>
        <time>2016-01-23T08:24:20.417Z</time>
      </trkpt>
      <trkpt lat="43.69045" lon="5.82316">
        <ele>448</ele>
        <time>2016-01-23T08:24:21.442Z</time>
      </trkpt>
      <trkpt lat="43.69048" lon="5.82308">
        <ele>447</ele>
        <time>2016-01-23T08:24:22.419Z</time>
      </trkpt>
      <trkpt lat="43.69051" lon="5.82301">
        <ele>446</ele>
        <time>2016-01-23T08:24:23.441Z</time>
      </trkpt>
      <trkpt lat="43.69052" lon="5.82296">
        <ele>446</ele>
        <time>2016-01-23T08:24:24.418Z</time>
      </trkpt>
      <trkpt lat="43.69049" lon="5.82285">
        <ele>448</ele>
        <time>2016-01-23T08:24:29.432Z</time>
      </trkpt>
      <trkpt lat="43.69048" lon="5.82284">
        <ele>448</ele>
        <time>2016-01-23T08:24:30.416Z</time>
      </trkpt>
      <trkpt lat="43.69041" lon="5.82278">
        <ele>448</ele>
        <time>2016-01-23T08:24:36.456Z</time>
      </trkpt>
      <trkpt lat="43.6904" lon="5.82277">
        <ele>448</ele>
        <time>2016-01-23T08:24:37.418Z</time>
      </trkpt>
      <trkpt lat="43.69035" lon="5.82268">
        <ele>450</ele>
        <time>2016-01-23T08:24:41.454Z</time>
      </trkpt>
      <trkpt lat="43.69033" lon="5.82266">
        <ele>450</ele>
        <time>2016-01-23T08:24:42.419Z</time>
      </trkpt>
      <trkpt lat="43.69027" lon="5.82259">
        <ele>450</ele>
        <time>2016-01-23T08:24:47.442Z</time>
      </trkpt>
      <trkpt lat="43.69025" lon="5.82257">
        <ele>450</ele>
        <time>2016-01-23T08:24:48.416Z</time>
      </trkpt>
      <trkpt lat="43.69019" lon="5.8225">
        <ele>451</ele>
        <time>2016-01-23T08:24:53.452Z</time>
      </trkpt>
      <trkpt lat="43.69019" lon="5.82248">
        <ele>451</ele>
        <time>2016-01-23T08:24:54.418Z</time>
      </trkpt>
      <trkpt lat="43.6902" lon="5.82237">
        <ele>452</ele>
        <time>2016-01-23T08:25:00.437Z</time>
      </trkpt>
      <trkpt lat="43.69021" lon="5.82235">
        <ele>452</ele>
        <time>2016-01-23T08:25:01.428Z</time>
      </trkpt>
      <trkpt lat="43.69021" lon="5.82223">
        <ele>453</ele>
        <time>2016-01-23T08:25:07.470Z</time>
      </trkpt>
      <trkpt lat="43.6902" lon="5.82221">
        <ele>453</ele>
        <time>2016-01-23T08:25:08.416Z</time>
      </trkpt>
      <trkpt lat="43.69021" lon="5.82209">
        <ele>455</ele>
        <time>2016-01-23T08:25:14.521Z</time>
      </trkpt>
      <trkpt lat="43.69021" lon="5.82207">
        <ele>455</ele>
        <time>2016-01-23T08:25:15.415Z</time>
      </trkpt>
      <trkpt lat="43.69021" lon="5.82196">
        <ele>455</ele>
        <time>2016-01-23T08:25:20.436Z</time>
      </trkpt>
      <trkpt lat="43.69021" lon="5.82194">
        <ele>455</ele>
        <time>2016-01-23T08:25:21.414Z</time>
      </trkpt>
      <trkpt lat="43.69023" lon="5.82183">
        <ele>457</ele>
        <time>2016-01-23T08:25:29.469Z</time>
      </trkpt>
      <trkpt lat="43.69023" lon="5.82181">
        <ele>457</ele>
        <time>2016-01-23T08:25:30.419Z</time>
      </trkpt>
      <trkpt lat="43.69025" lon="5.8217">
        <ele>458</ele>
        <time>2016-01-23T08:25:37.434Z</time>
      </trkpt>
      <trkpt lat="43.69025" lon="5.82169">
        <ele>458</ele>
        <time>2016-01-23T08:25:38.415Z</time>
      </trkpt>
      <trkpt lat="43.69027" lon="5.82157">
        <ele>459</ele>
        <time>2016-01-23T08:25:45.434Z</time>
      </trkpt>
      <trkpt lat="43.69028" lon="5.82155">
        <ele>459</ele>
        <time>2016-01-23T08:25:46.437Z</time>
      </trkpt>
      <trkpt lat="43.69028" lon="5.82144">
        <ele>459</ele>
        <time>2016-01-23T08:25:52.435Z</time>
      </trkpt>
      <trkpt lat="43.69028" lon="5.82143">
        <ele>459</ele>
        <time>2016-01-23T08:25:53.415Z</time>
      </trkpt>
      <trkpt lat="43.69031" lon="5.82131">
        <ele>459</ele>
        <time>2016-01-23T08:26:00.439Z</time>
      </trkpt>
      <trkpt lat="43.69031" lon="5.82129">
        <ele>459</ele>
        <time>2016-01-23T08:26:01.442Z</time>
      </trkpt>
      <trkpt lat="43.6903" lon="5.82118">
        <ele>459</ele>
        <time>2016-01-23T08:26:07.433Z</time>
      </trkpt>
      <trkpt lat="43.6903" lon="5.82116">
        <ele>460</ele>
        <time>2016-01-23T08:26:08.423Z</time>
      </trkpt>
      <trkpt lat="43.69031" lon="5.82105">
        <ele>462</ele>
        <time>2016-01-23T08:26:15.434Z</time>
      </trkpt>
      <trkpt lat="43.69031" lon="5.82103">
        <ele>462</ele>
        <time>2016-01-23T08:26:16.415Z</time>
      </trkpt>
      <trkpt lat="43.6903" lon="5.82092">
        <ele>463</ele>
        <time>2016-01-23T08:26:24.477Z</time>
      </trkpt>
      <trkpt lat="43.69029" lon="5.82091">
        <ele>464</ele>
        <time>2016-01-23T08:26:25.414Z</time>
      </trkpt>
      <trkpt lat="43.6903" lon="5.82079">
        <ele>464</ele>
        <time>2016-01-23T08:26:32.435Z</time>
      </trkpt>
      <trkpt lat="43.6903" lon="5.82078">
        <ele>465</ele>
        <time>2016-01-23T08:26:33.414Z</time>
      </trkpt>
      <trkpt lat="43.6903" lon="5.82067">
        <ele>466</ele>
        <time>2016-01-23T08:26:40.436Z</time>
      </trkpt>
      <trkpt lat="43.69031" lon="5.82065">
        <ele>466</ele>
        <time>2016-01-23T08:26:41.416Z</time>
      </trkpt>
      <trkpt lat="43.69032" lon="5.82054">
        <ele>466</ele>
        <time>2016-01-23T08:26:48.444Z</time>
      </trkpt>
      <trkpt lat="43.69032" lon="5.82053">
        <ele>466</ele>
        <time>2016-01-23T08:26:49.414Z</time>
      </trkpt>
      <trkpt lat="43.69034" lon="5.82042">
        <ele>468</ele>
        <time>2016-01-23T08:26:57.461Z</time>
      </trkpt>
      <trkpt lat="43.69035" lon="5.82041">
        <ele>469</ele>
        <time>2016-01-23T08:26:58.415Z</time>
      </trkpt>
      <trkpt lat="43.69036" lon="5.82029">
        <ele>471</ele>
        <time>2016-01-23T08:27:07.486Z</time>
      </trkpt>
      <trkpt lat="43.69036" lon="5.82027">
        <ele>471</ele>
        <time>2016-01-23T08:27:08.446Z</time>
      </trkpt>
      <trkpt lat="43.69035" lon="5.82015">
        <ele>473</ele>
        <time>2016-01-23T08:27:16.443Z</time>
      </trkpt>
      <trkpt lat="43.69035" lon="5.82014">
        <ele>474</ele>
        <time>2016-01-23T08:27:17.418Z</time>
      </trkpt>
      <trkpt lat="43.69034" lon="5.82001">
        <ele>475</ele>
        <time>2016-01-23T08:27:25.441Z</time>
      </trkpt>
      <trkpt lat="43.69035" lon="5.82">
        <ele>475</ele>
        <time>2016-01-23T08:27:26.417Z</time>
      </trkpt>
      <trkpt lat="43.69036" lon="5.81988">
        <ele>476</ele>
        <time>2016-01-23T08:27:34.440Z</time>
      </trkpt>
      <trkpt lat="43.69036" lon="5.81987">
        <ele>476</ele>
        <time>2016-01-23T08:27:35.693Z</time>
      </trkpt>
      <trkpt lat="43.69037" lon="5.81976">
        <ele>477</ele>
        <time>2016-01-23T08:27:44.465Z</time>
      </trkpt>
      <trkpt lat="43.69037" lon="5.81974">
        <ele>477</ele>
        <time>2016-01-23T08:27:45.416Z</time>
      </trkpt>
      <trkpt lat="43.6904" lon="5.81964">
        <ele>478</ele>
        <time>2016-01-23T08:27:53.431Z</time>
      </trkpt>
      <trkpt lat="43.6904" lon="5.81962">
        <ele>478</ele>
        <time>2016-01-23T08:27:54.418Z</time>
      </trkpt>
      <trkpt lat="43.69042" lon="5.81952">
        <ele>478</ele>
        <time>2016-01-23T08:27:59.440Z</time>
      </trkpt>
      <trkpt lat="43.69041" lon="5.8195">
        <ele>478</ele>
        <time>2016-01-23T08:28:00.418Z</time>
      </trkpt>
      <trkpt lat="43.6904" lon="5.81939">
        <ele>479</ele>
        <time>2016-01-23T08:28:06.455Z</time>
      </trkpt>
      <trkpt lat="43.6904" lon="5.81937">
        <ele>479</ele>
        <time>2016-01-23T08:28:07.418Z</time>
      </trkpt>
      <trkpt lat="43.69037" lon="5.81927">
        <ele>480</ele>
        <time>2016-01-23T08:28:14.442Z</time>
      </trkpt>
      <trkpt lat="43.69037" lon="5.81925">
        <ele>480</ele>
        <time>2016-01-23T08:28:15.418Z</time>
      </trkpt>
      <trkpt lat="43.69038" lon="5.81913">
        <ele>482</ele>
        <time>2016-01-23T08:28:22.440Z</time>
      </trkpt>
      <trkpt lat="43.69038" lon="5.81911">
        <ele>482</ele>
        <time>2016-01-23T08:28:23.418Z</time>
      </trkpt>
      <trkpt lat="43.69039" lon="5.81899">
        <ele>481</ele>
        <time>2016-01-23T08:28:29.442Z</time>
      </trkpt>
      <trkpt lat="43.69039" lon="5.81898">
        <ele>481</ele>
        <time>2016-01-23T08:28:30.417Z</time>
      </trkpt>
      <trkpt lat="43.69038" lon="5.81886">
        <ele>482</ele>
        <time>2016-01-23T08:28:35.705Z</time>
      </trkpt>
      <trkpt lat="43.69037" lon="5.81884">
        <ele>482</ele>
        <time>2016-01-23T08:28:36.420Z</time>
      </trkpt>
      <trkpt lat="43.69031" lon="5.81875">
        <ele>482</ele>
        <time>2016-01-23T08:28:42.456Z</time>
      </trkpt>
      <trkpt lat="43.69031" lon="5.81874">
        <ele>482</ele>
        <time>2016-01-23T08:28:43.421Z</time>
      </trkpt>
      <trkpt lat="43.69025" lon="5.81865">
        <ele>482</ele>
        <time>2016-01-23T08:28:49.442Z</time>
      </trkpt>
      <trkpt lat="43.69025" lon="5.81863">
        <ele>482</ele>
        <time>2016-01-23T08:28:50.430Z</time>
      </trkpt>
      <trkpt lat="43.69024" lon="5.81852">
        <ele>480</ele>
        <time>2016-01-23T08:28:53.443Z</time>
      </trkpt>
      <trkpt lat="43.69024" lon="5.81846">
        <ele>479</ele>
        <time>2016-01-23T08:28:54.421Z</time>
      </trkpt>
      <trkpt lat="43.69026" lon="5.81835">
        <ele>478</ele>
        <time>2016-01-23T08:28:56.443Z</time>
      </trkpt>
      <trkpt lat="43.69027" lon="5.8183">
        <ele>478</ele>
        <time>2016-01-23T08:28:57.444Z</time>
      </trkpt>
      <trkpt lat="43.69031" lon="5.81823">
        <ele>477</ele>
        <time>2016-01-23T08:28:59.442Z</time>
      </trkpt>
      <trkpt lat="43.69033" lon="5.81821">
        <ele>478</ele>
        <time>2016-01-23T08:29:00.418Z</time>
      </trkpt>
      <trkpt lat="43.69039" lon="5.81812">
        <ele>478</ele>
        <time>2016-01-23T08:29:03.442Z</time>
      </trkpt>
      <trkpt lat="43.69039" lon="5.81807">
        <ele>477</ele>
        <time>2016-01-23T08:29:04.419Z</time>
      </trkpt>
      <trkpt lat="43.69036" lon="5.81799">
        <ele>477</ele>
        <time>2016-01-23T08:29:06.442Z</time>
      </trkpt>
      <trkpt lat="43.69033" lon="5.81794">
        <ele>476</ele>
        <time>2016-01-23T08:29:07.420Z</time>
      </trkpt>
      <trkpt lat="43.69031" lon="5.81789">
        <ele>476</ele>
        <time>2016-01-23T08:29:08.470Z</time>
      </trkpt>
      <trkpt lat="43.6903" lon="5.81782">
        <ele>475</ele>
        <time>2016-01-23T08:29:09.418Z</time>
      </trkpt>
      <trkpt lat="43.69031" lon="5.81774">
        <ele>475</ele>
        <time>2016-01-23T08:29:10.442Z</time>
      </trkpt>
      <trkpt lat="43.6903" lon="5.81766">
        <ele>475</ele>
        <time>2016-01-23T08:29:11.418Z</time>
      </trkpt>
      <trkpt lat="43.6903" lon="5.81758">
        <ele>474</ele>
        <time>2016-01-23T08:29:12.441Z</time>
      </trkpt>
      <trkpt lat="43.6903" lon="5.8175">
        <ele>474</ele>
        <time>2016-01-23T08:29:13.430Z</time>
      </trkpt>
      <trkpt lat="43.69032" lon="5.81742">
        <ele>473</ele>
        <time>2016-01-23T08:29:14.447Z</time>
      </trkpt>
      <trkpt lat="43.69034" lon="5.81735">
        <ele>473</ele>
        <time>2016-01-23T08:29:15.421Z</time>
      </trkpt>
      <trkpt lat="43.69037" lon="5.81727">
        <ele>473</ele>
        <time>2016-01-23T08:29:16.445Z</time>
      </trkpt>
      <trkpt lat="43.69039" lon="5.81718">
        <ele>472</ele>
        <time>2016-01-23T08:29:17.420Z</time>
      </trkpt>
      <trkpt lat="43.69042" lon="5.81711">
        <ele>472</ele>
        <time>2016-01-23T08:29:18.455Z</time>
      </trkpt>
      <trkpt lat="43.69045" lon="5.81703">
        <ele>472</ele>
        <time>2016-01-23T08:29:19.420Z</time>
      </trkpt>
      <trkpt lat="43.69047" lon="5.81694">
        <ele>471</ele>
        <time>2016-01-23T08:29:20.443Z</time>
      </trkpt>
      <trkpt lat="43.69049" lon="5.81686">
        <ele>471</ele>
        <time>2016-01-23T08:29:21.417Z</time>
      </trkpt>
      <trkpt lat="43.69052" lon="5.81678">
        <ele>470</ele>
        <time>2016-01-23T08:29:22.430Z</time>
      </trkpt>
      <trkpt lat="43.69055" lon="5.8167">
        <ele>470</ele>
        <time>2016-01-23T08:29:23.418Z</time>
      </trkpt>
      <trkpt lat="43.69059" lon="5.81665">
        <ele>469</ele>
        <time>2016-01-23T08:29:24.481Z</time>
      </trkpt>
      <trkpt lat="43.69064" lon="5.8166">
        <ele>469</ele>
        <time>2016-01-23T08:29:25.419Z</time>
      </trkpt>
      <trkpt lat="43.69069" lon="5.81658">
        <ele>468</ele>
        <time>2016-01-23T08:29:26.443Z</time>
      </trkpt>
      <trkpt lat="43.69074" lon="5.81656">
        <ele>467</ele>
        <time>2016-01-23T08:29:27.429Z</time>
      </trkpt>
      <trkpt lat="43.69079" lon="5.81651">
        <ele>466</ele>
        <time>2016-01-23T08:29:28.439Z</time>
      </trkpt>
      <trkpt lat="43.69082" lon="5.81644">
        <ele>466</ele>
        <time>2016-01-23T08:29:29.418Z</time>
      </trkpt>
      <trkpt lat="43.69086" lon="5.81638">
        <ele>466</ele>
        <time>2016-01-23T08:29:30.441Z</time>
      </trkpt>
      <trkpt lat="43.69091" lon="5.81633">
        <ele>465</ele>
        <time>2016-01-23T08:29:31.418Z</time>
      </trkpt>
      <trkpt lat="43.69094" lon="5.81626">
        <ele>465</ele>
        <time>2016-01-23T08:29:32.453Z</time>
      </trkpt>
      <trkpt lat="43.69098" lon="5.81618">
        <ele>465</ele>
        <time>2016-01-23T08:29:33.421Z</time>
      </trkpt>
      <trkpt lat="43.69101" lon="5.81612">
        <ele>465</ele>
        <time>2016-01-23T08:29:34.442Z</time>
      </trkpt>
      <trkpt lat="43.69105" lon="5.81607">
        <ele>464</ele>
        <time>2016-01-23T08:29:35.438Z</time>
      </trkpt>
      <trkpt lat="43.6911" lon="5.81602">
        <ele>465</ele>
        <time>2016-01-23T08:29:36.445Z</time>
      </trkpt>
      <trkpt lat="43.69114" lon="5.81597">
        <ele>465</ele>
        <time>2016-01-23T08:29:37.426Z</time>
      </trkpt>
      <trkpt lat="43.69118" lon="5.81591">
        <ele>464</ele>
        <time>2016-01-23T08:29:38.449Z</time>
      </trkpt>
      <trkpt lat="43.69122" lon="5.81586">
        <ele>463</ele>
        <time>2016-01-23T08:29:39.417Z</time>
      </trkpt>
      <trkpt lat="43.69127" lon="5.81583">
        <ele>462</ele>
        <time>2016-01-23T08:29:40.446Z</time>
      </trkpt>
      <trkpt lat="43.69132" lon="5.81582">
        <ele>462</ele>
        <time>2016-01-23T08:29:41.413Z</time>
      </trkpt>
      <trkpt lat="43.69137" lon="5.81581">
        <ele>461</ele>
        <time>2016-01-23T08:29:42.437Z</time>
      </trkpt>
      <trkpt lat="43.69142" lon="5.81577">
        <ele>462</ele>
        <time>2016-01-23T08:29:43.416Z</time>
      </trkpt>
      <trkpt lat="43.69146" lon="5.81573">
        <ele>461</ele>
        <time>2016-01-23T08:29:44.620Z</time>
      </trkpt>
      <trkpt lat="43.69151" lon="5.81571">
        <ele>461</ele>
        <time>2016-01-23T08:29:45.417Z</time>
      </trkpt>
      <trkpt lat="43.69155" lon="5.81568">
        <ele>461</ele>
        <time>2016-01-23T08:29:46.436Z</time>
      </trkpt>
      <trkpt lat="43.6916" lon="5.81565">
        <ele>461</ele>
        <time>2016-01-23T08:29:47.416Z</time>
      </trkpt>
      <trkpt lat="43.69164" lon="5.81563">
        <ele>460</ele>
        <time>2016-01-23T08:29:48.437Z</time>
      </trkpt>
      <trkpt lat="43.6917" lon="5.81561">
        <ele>460</ele>
        <time>2016-01-23T08:29:49.424Z</time>
      </trkpt>
      <trkpt lat="43.69174" lon="5.81561">
        <ele>460</ele>
        <time>2016-01-23T08:29:50.459Z</time>
      </trkpt>
      <trkpt lat="43.6918" lon="5.81562">
        <ele>458</ele>
        <time>2016-01-23T08:29:51.418Z</time>
      </trkpt>
      <trkpt lat="43.69186" lon="5.81563">
        <ele>458</ele>
        <time>2016-01-23T08:29:52.439Z</time>
      </trkpt>
      <trkpt lat="43.69192" lon="5.81565">
        <ele>458</ele>
        <time>2016-01-23T08:29:53.418Z</time>
      </trkpt>
      <trkpt lat="43.69197" lon="5.81568">
        <ele>457</ele>
        <time>2016-01-23T08:29:54.444Z</time>
      </trkpt>
      <trkpt lat="43.69201" lon="5.81573">
        <ele>457</ele>
        <time>2016-01-23T08:29:55.418Z</time>
      </trkpt>
      <trkpt lat="43.69204" lon="5.81578">
        <ele>457</ele>
        <time>2016-01-23T08:29:56.439Z</time>
      </trkpt>
      <trkpt lat="43.69208" lon="5.81583">
        <ele>457</ele>
        <time>2016-01-23T08:29:57.439Z</time>
      </trkpt>
      <trkpt lat="43.6921" lon="5.81589">
        <ele>457</ele>
        <time>2016-01-23T08:29:58.438Z</time>
      </trkpt>
      <trkpt lat="43.69213" lon="5.81595">
        <ele>456</ele>
        <time>2016-01-23T08:29:59.417Z</time>
      </trkpt>
      <trkpt lat="43.69216" lon="5.81601">
        <ele>456</ele>
        <time>2016-01-23T08:30:00.465Z</time>
      </trkpt>
      <trkpt lat="43.69219" lon="5.81606">
        <ele>455</ele>
        <time>2016-01-23T08:30:01.441Z</time>
      </trkpt>
      <trkpt lat="43.69223" lon="5.81612">
        <ele>455</ele>
        <time>2016-01-23T08:30:02.436Z</time>
      </trkpt>
      <trkpt lat="43.69226" lon="5.81618">
        <ele>454</ele>
        <time>2016-01-23T08:30:03.417Z</time>
      </trkpt>
      <trkpt lat="43.6923" lon="5.81622">
        <ele>455</ele>
        <time>2016-01-23T08:30:04.444Z</time>
      </trkpt>
      <trkpt lat="43.69235" lon="5.81627">
        <ele>454</ele>
        <time>2016-01-23T08:30:05.417Z</time>
      </trkpt>
      <trkpt lat="43.6924" lon="5.81631">
        <ele>453</ele>
        <time>2016-01-23T08:30:06.437Z</time>
      </trkpt>
      <trkpt lat="43.69247" lon="5.81633">
        <ele>452</ele>
        <time>2016-01-23T08:30:07.418Z</time>
      </trkpt>
      <trkpt lat="43.69254" lon="5.81635">
        <ele>453</ele>
        <time>2016-01-23T08:30:08.427Z</time>
      </trkpt>
      <trkpt lat="43.6926" lon="5.81638">
        <ele>453</ele>
        <time>2016-01-23T08:30:09.418Z</time>
      </trkpt>
      <trkpt lat="43.69266" lon="5.81641">
        <ele>452</ele>
        <time>2016-01-23T08:30:10.438Z</time>
      </trkpt>
      <trkpt lat="43.69271" lon="5.81645">
        <ele>452</ele>
        <time>2016-01-23T08:30:11.416Z</time>
      </trkpt>
      <trkpt lat="43.69276" lon="5.81647">
        <ele>451</ele>
        <time>2016-01-23T08:30:12.460Z</time>
      </trkpt>
      <trkpt lat="43.69281" lon="5.81646">
        <ele>451</ele>
        <time>2016-01-23T08:30:13.424Z</time>
      </trkpt>
      <trkpt lat="43.69285" lon="5.81647">
        <ele>451</ele>
        <time>2016-01-23T08:30:14.438Z</time>
      </trkpt>
      <trkpt lat="43.6929" lon="5.81648">
        <ele>451</ele>
        <time>2016-01-23T08:30:15.418Z</time>
      </trkpt>
      <trkpt lat="43.69297" lon="5.81649">
        <ele>451</ele>
        <time>2016-01-23T08:30:16.435Z</time>
      </trkpt>
      <trkpt lat="43.69302" lon="5.81649">
        <ele>451</ele>
        <time>2016-01-23T08:30:17.408Z</time>
      </trkpt>
      <trkpt lat="43.69309" lon="5.81645">
        <ele>451</ele>
        <time>2016-01-23T08:30:18.435Z</time>
      </trkpt>
      <trkpt lat="43.69314" lon="5.81644">
        <ele>449</ele>
        <time>2016-01-23T08:30:19.416Z</time>
      </trkpt>
      <trkpt lat="43.69319" lon="5.81645">
        <ele>449</ele>
        <time>2016-01-23T08:30:20.435Z</time>
      </trkpt>
      <trkpt lat="43.69325" lon="5.81646">
        <ele>449</ele>
        <time>2016-01-23T08:30:21.416Z</time>
      </trkpt>
      <trkpt lat="43.69331" lon="5.81647">
        <ele>448</ele>
        <time>2016-01-23T08:30:22.436Z</time>
      </trkpt>
      <trkpt lat="43.69336" lon="5.81649">
        <ele>447</ele>
        <time>2016-01-23T08:30:23.439Z</time>
      </trkpt>
      <trkpt lat="43.69343" lon="5.8165">
        <ele>447</ele>
        <time>2016-01-23T08:30:24.436Z</time>
      </trkpt>
      <trkpt lat="43.69348" lon="5.8165">
        <ele>447</ele>
        <time>2016-01-23T08:30:25.417Z</time>
      </trkpt>
      <trkpt lat="43.69354" lon="5.81652">
        <ele>446</ele>
        <time>2016-01-23T08:30:26.438Z</time>
      </trkpt>
      <trkpt lat="43.6936" lon="5.81653">
        <ele>445</ele>
        <time>2016-01-23T08:30:27.416Z</time>
      </trkpt>
      <trkpt lat="43.69366" lon="5.81654">
        <ele>445</ele>
        <time>2016-01-23T08:30:28.437Z</time>
      </trkpt>
      <trkpt lat="43.69371" lon="5.81654">
        <ele>444</ele>
        <time>2016-01-23T08:30:29.414Z</time>
      </trkpt>
      <trkpt lat="43.69376" lon="5.81655">
        <ele>444</ele>
        <time>2016-01-23T08:30:30.437Z</time>
      </trkpt>
      <trkpt lat="43.69381" lon="5.81656">
        <ele>444</ele>
        <time>2016-01-23T08:30:31.418Z</time>
      </trkpt>
      <trkpt lat="43.69387" lon="5.81654">
        <ele>443</ele>
        <time>2016-01-23T08:30:32.436Z</time>
      </trkpt>
      <trkpt lat="43.69392" lon="5.81651">
        <ele>442</ele>
        <time>2016-01-23T08:30:33.416Z</time>
      </trkpt>
      <trkpt lat="43.69398" lon="5.81647">
        <ele>442</ele>
        <time>2016-01-23T08:30:34.446Z</time>
      </trkpt>
      <trkpt lat="43.69403" lon="5.81643">
        <ele>442</ele>
        <time>2016-01-23T08:30:35.418Z</time>
      </trkpt>
      <trkpt lat="43.69408" lon="5.81638">
        <ele>442</ele>
        <time>2016-01-23T08:30:36.438Z</time>
      </trkpt>
      <trkpt lat="43.69413" lon="5.81633">
        <ele>441</ele>
        <time>2016-01-23T08:30:37.416Z</time>
      </trkpt>
      <trkpt lat="43.69418" lon="5.81629">
        <ele>441</ele>
        <time>2016-01-23T08:30:38.621Z</time>
      </trkpt>
      <trkpt lat="43.69423" lon="5.81626">
        <ele>441</ele>
        <time>2016-01-23T08:30:39.439Z</time>
      </trkpt>
      <trkpt lat="43.69429" lon="5.81621">
        <ele>440</ele>
        <time>2016-01-23T08:30:40.438Z</time>
      </trkpt>
      <trkpt lat="43.69435" lon="5.81617">
        <ele>440</ele>
        <time>2016-01-23T08:30:41.417Z</time>
      </trkpt>
      <trkpt lat="43.69441" lon="5.81615">
        <ele>440</ele>
        <time>2016-01-23T08:30:42.437Z</time>
      </trkpt>
      <trkpt lat="43.69448" lon="5.81613">
        <ele>439</ele>
        <time>2016-01-23T08:30:43.418Z</time>
      </trkpt>
      <trkpt lat="43.69454" lon="5.81613">
        <ele>439</ele>
        <time>2016-01-23T08:30:44.447Z</time>
      </trkpt>
      <trkpt lat="43.69461" lon="5.81613">
        <ele>439</ele>
        <time>2016-01-23T08:30:45.416Z</time>
      </trkpt>
      <trkpt lat="43.69467" lon="5.81614">
        <ele>439</ele>
        <time>2016-01-23T08:30:46.437Z</time>
      </trkpt>
      <trkpt lat="43.69474" lon="5.81614">
        <ele>439</ele>
        <time>2016-01-23T08:30:47.416Z</time>
      </trkpt>
      <trkpt lat="43.6948" lon="5.81613">
        <ele>438</ele>
        <time>2016-01-23T08:30:48.435Z</time>
      </trkpt>
      <trkpt lat="43.69487" lon="5.81611">
        <ele>437</ele>
        <time>2016-01-23T08:30:49.424Z</time>
      </trkpt>
      <trkpt lat="43.69493" lon="5.81608">
        <ele>437</ele>
        <time>2016-01-23T08:30:50.463Z</time>
      </trkpt>
      <trkpt lat="43.695" lon="5.81607">
        <ele>436</ele>
        <time>2016-01-23T08:30:51.417Z</time>
      </trkpt>
      <trkpt lat="43.69506" lon="5.81606">
        <ele>436</ele>
        <time>2016-01-23T08:30:52.436Z</time>
      </trkpt>
      <trkpt lat="43.69513" lon="5.81605">
        <ele>436</ele>
        <time>2016-01-23T08:30:53.416Z</time>
      </trkpt>
      <trkpt lat="43.69519" lon="5.81605">
        <ele>436</ele>
        <time>2016-01-23T08:30:54.437Z</time>
      </trkpt>
      <trkpt lat="43.69525" lon="5.81607">
        <ele>436</ele>
        <time>2016-01-23T08:30:55.416Z</time>
      </trkpt>
      <trkpt lat="43.6953" lon="5.81611">
        <ele>436</ele>
        <time>2016-01-23T08:30:56.437Z</time>
      </trkpt>
      <trkpt lat="43.69533" lon="5.81615">
        <ele>436</ele>
        <time>2016-01-23T08:30:57.415Z</time>
      </trkpt>
      <trkpt lat="43.69538" lon="5.81621">
        <ele>436</ele>
        <time>2016-01-23T08:30:58.436Z</time>
      </trkpt>
      <trkpt lat="43.69543" lon="5.81625">
        <ele>435</ele>
        <time>2016-01-23T08:30:59.423Z</time>
      </trkpt>
      <trkpt lat="43.69549" lon="5.81628">
        <ele>434</ele>
        <time>2016-01-23T08:31:00.630Z</time>
      </trkpt>
      <trkpt lat="43.69555" lon="5.8163">
        <ele>434</ele>
        <time>2016-01-23T08:31:01.438Z</time>
      </trkpt>
      <trkpt lat="43.6956" lon="5.81632">
        <ele>433</ele>
        <time>2016-01-23T08:31:02.444Z</time>
      </trkpt>
      <trkpt lat="43.69566" lon="5.81632">
        <ele>433</ele>
        <time>2016-01-23T08:31:03.416Z</time>
      </trkpt>
      <trkpt lat="43.69572" lon="5.81632">
        <ele>432</ele>
        <time>2016-01-23T08:31:04.465Z</time>
      </trkpt>
      <trkpt lat="43.69577" lon="5.8163">
        <ele>433</ele>
        <time>2016-01-23T08:31:05.424Z</time>
      </trkpt>
      <trkpt lat="43.69582" lon="5.81626">
        <ele>432</ele>
        <time>2016-01-23T08:31:06.435Z</time>
      </trkpt>
      <trkpt lat="43.69587" lon="5.81623">
        <ele>432</ele>
        <time>2016-01-23T08:31:07.424Z</time>
      </trkpt>
      <trkpt lat="43.69594" lon="5.81622">
        <ele>430</ele>
        <time>2016-01-23T08:31:08.435Z</time>
      </trkpt>
      <trkpt lat="43.69601" lon="5.81624">
        <ele>430</ele>
        <time>2016-01-23T08:31:09.624Z</time>
      </trkpt>
      <trkpt lat="43.69607" lon="5.81624">
        <ele>430</ele>
        <time>2016-01-23T08:31:10.439Z</time>
      </trkpt>
      <trkpt lat="43.69612" lon="5.81628">
        <ele>430</ele>
        <time>2016-01-23T08:31:11.417Z</time>
      </trkpt>
      <trkpt lat="43.69618" lon="5.81633">
        <ele>430</ele>
        <time>2016-01-23T08:31:12.438Z</time>
      </trkpt>
      <trkpt lat="43.69622" lon="5.81639">
        <ele>430</ele>
        <time>2016-01-23T08:31:13.423Z</time>
      </trkpt>
      <trkpt lat="43.69626" lon="5.81647">
        <ele>429</ele>
        <time>2016-01-23T08:31:14.437Z</time>
      </trkpt>
      <trkpt lat="43.69629" lon="5.81655">
        <ele>428</ele>
        <time>2016-01-23T08:31:15.417Z</time>
      </trkpt>
      <trkpt lat="43.69632" lon="5.81663">
        <ele>428</ele>
        <time>2016-01-23T08:31:16.429Z</time>
      </trkpt>
      <trkpt lat="43.69635" lon="5.81672">
        <ele>427</ele>
        <time>2016-01-23T08:31:17.444Z</time>
      </trkpt>
      <trkpt lat="43.69639" lon="5.81679">
        <ele>426</ele>
        <time>2016-01-23T08:31:18.440Z</time>
      </trkpt>
      <trkpt lat="43.69645" lon="5.81685">
        <ele>426</ele>
        <time>2016-01-23T08:31:19.421Z</time>
      </trkpt>
      <trkpt lat="43.69652" lon="5.81689">
        <ele>425</ele>
        <time>2016-01-23T08:31:20.444Z</time>
      </trkpt>
      <trkpt lat="43.69659" lon="5.81691">
        <ele>425</ele>
        <time>2016-01-23T08:31:21.421Z</time>
      </trkpt>
      <trkpt lat="43.69665" lon="5.81693">
        <ele>425</ele>
        <time>2016-01-23T08:31:22.443Z</time>
      </trkpt>
      <trkpt lat="43.69671" lon="5.81693">
        <ele>423</ele>
        <time>2016-01-23T08:31:23.418Z</time>
      </trkpt>
      <trkpt lat="43.69676" lon="5.81692">
        <ele>422</ele>
        <time>2016-01-23T08:31:24.442Z</time>
      </trkpt>
      <trkpt lat="43.6968" lon="5.81693">
        <ele>422</ele>
        <time>2016-01-23T08:31:25.416Z</time>
      </trkpt>
      <trkpt lat="43.69685" lon="5.81695">
        <ele>421</ele>
        <time>2016-01-23T08:31:26.440Z</time>
      </trkpt>
      <trkpt lat="43.69689" lon="5.81697">
        <ele>420</ele>
        <time>2016-01-23T08:31:27.416Z</time>
      </trkpt>
      <trkpt lat="43.69694" lon="5.81699">
        <ele>420</ele>
        <time>2016-01-23T08:31:28.483Z</time>
      </trkpt>
      <trkpt lat="43.697" lon="5.81699">
        <ele>420</ele>
        <time>2016-01-23T08:31:29.417Z</time>
      </trkpt>
      <trkpt lat="43.69706" lon="5.81699">
        <ele>419</ele>
        <time>2016-01-23T08:31:30.439Z</time>
      </trkpt>
      <trkpt lat="43.69712" lon="5.81699">
        <ele>418</ele>
        <time>2016-01-23T08:31:31.429Z</time>
      </trkpt>
      <trkpt lat="43.69718" lon="5.81699">
        <ele>418</ele>
        <time>2016-01-23T08:31:32.440Z</time>
      </trkpt>
      <trkpt lat="43.69724" lon="5.81701">
        <ele>418</ele>
        <time>2016-01-23T08:31:33.418Z</time>
      </trkpt>
      <trkpt lat="43.69728" lon="5.81705">
        <ele>417</ele>
        <time>2016-01-23T08:31:34.439Z</time>
      </trkpt>
      <trkpt lat="43.69731" lon="5.8171">
        <ele>417</ele>
        <time>2016-01-23T08:31:35.416Z</time>
      </trkpt>
      <trkpt lat="43.69734" lon="5.81717">
        <ele>416</ele>
        <time>2016-01-23T08:31:36.450Z</time>
      </trkpt>
      <trkpt lat="43.69736" lon="5.81723">
        <ele>416</ele>
        <time>2016-01-23T08:31:37.417Z</time>
      </trkpt>
      <trkpt lat="43.6974" lon="5.81729">
        <ele>416</ele>
        <time>2016-01-23T08:31:38.450Z</time>
      </trkpt>
      <trkpt lat="43.69743" lon="5.81735">
        <ele>416</ele>
        <time>2016-01-23T08:31:39.456Z</time>
      </trkpt>
      <trkpt lat="43.69746" lon="5.81742">
        <ele>416</ele>
        <time>2016-01-23T08:31:40.678Z</time>
      </trkpt>
      <trkpt lat="43.6975" lon="5.81748">
        <ele>416</ele>
        <time>2016-01-23T08:31:41.417Z</time>
      </trkpt>
      <trkpt lat="43.69754" lon="5.81753">
        <ele>416</ele>
        <time>2016-01-23T08:31:42.452Z</time>
      </trkpt>
      <trkpt lat="43.69758" lon="5.81758">
        <ele>414</ele>
        <time>2016-01-23T08:31:43.417Z</time>
      </trkpt>
      <trkpt lat="43.69762" lon="5.81763">
        <ele>413</ele>
        <time>2016-01-23T08:31:44.441Z</time>
      </trkpt>
      <trkpt lat="43.69767" lon="5.81768">
        <ele>412</ele>
        <time>2016-01-23T08:31:45.415Z</time>
      </trkpt>
      <trkpt lat="43.69771" lon="5.81772">
        <ele>411</ele>
        <time>2016-01-23T08:31:46.440Z</time>
      </trkpt>
      <trkpt lat="43.69776" lon="5.81776">
        <ele>410</ele>
        <time>2016-01-23T08:31:47.428Z</time>
      </trkpt>
      <trkpt lat="43.69782" lon="5.81781">
        <ele>409</ele>
        <time>2016-01-23T08:31:48.441Z</time>
      </trkpt>
      <trkpt lat="43.69788" lon="5.81784">
        <ele>408</ele>
        <time>2016-01-23T08:31:49.418Z</time>
      </trkpt>
      <trkpt lat="43.69794" lon="5.81787">
        <ele>408</ele>
        <time>2016-01-23T08:31:50.470Z</time>
      </trkpt>
      <trkpt lat="43.69801" lon="5.81791">
        <ele>407</ele>
        <time>2016-01-23T08:31:51.421Z</time>
      </trkpt>
      <trkpt lat="43.69807" lon="5.81793">
        <ele>406</ele>
        <time>2016-01-23T08:31:52.442Z</time>
      </trkpt>
      <trkpt lat="43.69813" lon="5.81795">
        <ele>406</ele>
        <time>2016-01-23T08:31:53.419Z</time>
      </trkpt>
      <trkpt lat="43.6982" lon="5.81797">
        <ele>406</ele>
        <time>2016-01-23T08:31:54.442Z</time>
      </trkpt>
      <trkpt lat="43.69826" lon="5.81797">
        <ele>406</ele>
        <time>2016-01-23T08:31:55.416Z</time>
      </trkpt>
      <trkpt lat="43.69832" lon="5.81796">
        <ele>406</ele>
        <time>2016-01-23T08:31:56.453Z</time>
      </trkpt>
      <trkpt lat="43.69839" lon="5.81796">
        <ele>405</ele>
        <time>2016-01-23T08:31:57.417Z</time>
      </trkpt>
      <trkpt lat="43.69845" lon="5.81796">
        <ele>404</ele>
        <time>2016-01-23T08:31:58.441Z</time>
      </trkpt>
      <trkpt lat="43.69852" lon="5.81796">
        <ele>405</ele>
        <time>2016-01-23T08:31:59.429Z</time>
      </trkpt>
      <trkpt lat="43.69857" lon="5.81795">
        <ele>406</ele>
        <time>2016-01-23T08:32:00.442Z</time>
      </trkpt>
      <trkpt lat="43.69863" lon="5.81795">
        <ele>405</ele>
        <time>2016-01-23T08:32:01.411Z</time>
      </trkpt>
      <trkpt lat="43.69869" lon="5.81795">
        <ele>405</ele>
        <time>2016-01-23T08:32:02.440Z</time>
      </trkpt>
      <trkpt lat="43.69874" lon="5.81797">
        <ele>405</ele>
        <time>2016-01-23T08:32:03.417Z</time>
      </trkpt>
      <trkpt lat="43.69879" lon="5.818">
        <ele>405</ele>
        <time>2016-01-23T08:32:04.439Z</time>
      </trkpt>
      <trkpt lat="43.69884" lon="5.818">
        <ele>404</ele>
        <time>2016-01-23T08:32:05.418Z</time>
      </trkpt>
      <trkpt lat="43.69889" lon="5.81799">
        <ele>404</ele>
        <time>2016-01-23T08:32:06.440Z</time>
      </trkpt>
      <trkpt lat="43.69893" lon="5.81796">
        <ele>404</ele>
        <time>2016-01-23T08:32:07.417Z</time>
      </trkpt>
      <trkpt lat="43.699" lon="5.81789">
        <ele>404</ele>
        <time>2016-01-23T08:32:09.530Z</time>
      </trkpt>
      <trkpt lat="43.69903" lon="5.81784">
        <ele>404</ele>
        <time>2016-01-23T08:32:10.418Z</time>
      </trkpt>
      <trkpt lat="43.69906" lon="5.81776">
        <ele>405</ele>
        <time>2016-01-23T08:32:12.471Z</time>
      </trkpt>
      <trkpt lat="43.69907" lon="5.81773">
        <ele>405</ele>
        <time>2016-01-23T08:32:13.427Z</time>
      </trkpt>
      <trkpt lat="43.69912" lon="5.81765">
        <ele>405</ele>
        <time>2016-01-23T08:32:16.466Z</time>
      </trkpt>
      <trkpt lat="43.69913" lon="5.81762">
        <ele>405</ele>
        <time>2016-01-23T08:32:17.418Z</time>
      </trkpt>
      <trkpt lat="43.69917" lon="5.81752">
        <ele>402</ele>
        <time>2016-01-23T08:32:21.443Z</time>
      </trkpt>
      <trkpt lat="43.69919" lon="5.81748">
        <ele>401</ele>
        <time>2016-01-23T08:32:22.650Z</time>
      </trkpt>
      <trkpt lat="43.69924" lon="5.81739">
        <ele>400</ele>
        <time>2016-01-23T08:32:24.435Z</time>
      </trkpt>
      <trkpt lat="43.69926" lon="5.81733">
        <ele>400</ele>
        <time>2016-01-23T08:32:25.417Z</time>
      </trkpt>
      <trkpt lat="43.6993" lon="5.81726">
        <ele>400</ele>
        <time>2016-01-23T08:32:26.438Z</time>
      </trkpt>
      <trkpt lat="43.69932" lon="5.8172">
        <ele>400</ele>
        <time>2016-01-23T08:32:27.418Z</time>
      </trkpt>
      <trkpt lat="43.69935" lon="5.8171">
        <ele>400</ele>
        <time>2016-01-23T08:32:29.439Z</time>
      </trkpt>
      <trkpt lat="43.69937" lon="5.81707">
        <ele>400</ele>
        <time>2016-01-23T08:32:30.418Z</time>
      </trkpt>
      <trkpt lat="43.69942" lon="5.81698">
        <ele>402</ele>
        <time>2016-01-23T08:32:34.446Z</time>
      </trkpt>
      <trkpt lat="43.69943" lon="5.81696">
        <ele>402</ele>
        <time>2016-01-23T08:32:35.417Z</time>
      </trkpt>
      <trkpt lat="43.69949" lon="5.8169">
        <ele>404</ele>
        <time>2016-01-23T08:32:39.446Z</time>
      </trkpt>
      <trkpt lat="43.69951" lon="5.81689">
        <ele>404</ele>
        <time>2016-01-23T08:32:40.417Z</time>
      </trkpt>
      <trkpt lat="43.69958" lon="5.81681">
        <ele>407</ele>
        <time>2016-01-23T08:32:45.439Z</time>
      </trkpt>
      <trkpt lat="43.69959" lon="5.8168">
        <ele>407</ele>
        <time>2016-01-23T08:32:46.417Z</time>
      </trkpt>
      <trkpt lat="43.69966" lon="5.81672">
        <ele>409</ele>
        <time>2016-01-23T08:32:51.446Z</time>
      </trkpt>
      <trkpt lat="43.69967" lon="5.81671">
        <ele>409</ele>
        <time>2016-01-23T08:32:52.418Z</time>
      </trkpt>
      <trkpt lat="43.69973" lon="5.81663">
        <ele>410</ele>
        <time>2016-01-23T08:32:57.440Z</time>
      </trkpt>
      <trkpt lat="43.69974" lon="5.81662">
        <ele>410</ele>
        <time>2016-01-23T08:32:58.422Z</time>
      </trkpt>
      <trkpt lat="43.6998" lon="5.81654">
        <ele>411</ele>
        <time>2016-01-23T08:33:03.438Z</time>
      </trkpt>
      <trkpt lat="43.69982" lon="5.81652">
        <ele>411</ele>
        <time>2016-01-23T08:33:04.417Z</time>
      </trkpt>
      <trkpt lat="43.69988" lon="5.81645">
        <ele>411</ele>
        <time>2016-01-23T08:33:09.439Z</time>
      </trkpt>
      <trkpt lat="43.6999" lon="5.81644">
        <ele>412</ele>
        <time>2016-01-23T08:33:10.427Z</time>
      </trkpt>
      <trkpt lat="43.69996" lon="5.81638">
        <ele>412</ele>
        <time>2016-01-23T08:33:14.453Z</time>
      </trkpt>
      <trkpt lat="43.69998" lon="5.81636">
        <ele>412</ele>
        <time>2016-01-23T08:33:15.415Z</time>
      </trkpt>
      <trkpt lat="43.70004" lon="5.81629">
        <ele>411</ele>
        <time>2016-01-23T08:33:18.525Z</time>
      </trkpt>
      <trkpt lat="43.70007" lon="5.81626">
        <ele>411</ele>
        <time>2016-01-23T08:33:19.415Z</time>
      </trkpt>
      <trkpt lat="43.70011" lon="5.81622">
        <ele>411</ele>
        <time>2016-01-23T08:33:20.444Z</time>
      </trkpt>
      <trkpt lat="43.70014" lon="5.81618">
        <ele>410</ele>
        <time>2016-01-23T08:33:21.419Z</time>
      </trkpt>
      <trkpt lat="43.70017" lon="5.8161">
        <ele>410</ele>
        <time>2016-01-23T08:33:22.666Z</time>
      </trkpt>
      <trkpt lat="43.70018" lon="5.81605">
        <ele>411</ele>
        <time>2016-01-23T08:33:23.419Z</time>
      </trkpt>
      <trkpt lat="43.70018" lon="5.81594">
        <ele>411</ele>
        <time>2016-01-23T08:33:26.442Z</time>
      </trkpt>
      <trkpt lat="43.70017" lon="5.81591">
        <ele>411</ele>
        <time>2016-01-23T08:33:27.419Z</time>
      </trkpt>
      <trkpt lat="43.70016" lon="5.81581">
        <ele>412</ele>
        <time>2016-01-23T08:33:31.443Z</time>
      </trkpt>
      <trkpt lat="43.70015" lon="5.81579">
        <ele>412</ele>
        <time>2016-01-23T08:33:32.420Z</time>
      </trkpt>
      <trkpt lat="43.70011" lon="5.81568">
        <ele>412</ele>
        <time>2016-01-23T08:33:37.444Z</time>
      </trkpt>
      <trkpt lat="43.7001" lon="5.81565">
        <ele>413</ele>
        <time>2016-01-23T08:33:38.419Z</time>
      </trkpt>
      <trkpt lat="43.70007" lon="5.81556">
        <ele>413</ele>
        <time>2016-01-23T08:33:42.454Z</time>
      </trkpt>
      <trkpt lat="43.70007" lon="5.81553">
        <ele>413</ele>
        <time>2016-01-23T08:33:43.420Z</time>
      </trkpt>
      <trkpt lat="43.70009" lon="5.81542">
        <ele>414</ele>
        <time>2016-01-23T08:33:48.445Z</time>
      </trkpt>
      <trkpt lat="43.7001" lon="5.8154">
        <ele>415</ele>
        <time>2016-01-23T08:33:49.420Z</time>
      </trkpt>
      <trkpt lat="43.70016" lon="5.81531">
        <ele>415</ele>
        <time>2016-01-23T08:33:55.442Z</time>
      </trkpt>
      <trkpt lat="43.70017" lon="5.8153">
        <ele>415</ele>
        <time>2016-01-23T08:33:56.419Z</time>
      </trkpt>
      <trkpt lat="43.70021" lon="5.81521">
        <ele>416</ele>
        <time>2016-01-23T08:34:01.443Z</time>
      </trkpt>
      <trkpt lat="43.70021" lon="5.81518">
        <ele>416</ele>
        <time>2016-01-23T08:34:02.419Z</time>
      </trkpt>
      <trkpt lat="43.70025" lon="5.81508">
        <ele>417</ele>
        <time>2016-01-23T08:34:07.445Z</time>
      </trkpt>
      <trkpt lat="43.70025" lon="5.81506">
        <ele>417</ele>
        <time>2016-01-23T08:34:08.421Z</time>
      </trkpt>
      <trkpt lat="43.70027" lon="5.81496">
        <ele>417</ele>
        <time>2016-01-23T08:34:13.442Z</time>
      </trkpt>
      <trkpt lat="43.70028" lon="5.81494">
        <ele>417</ele>
        <time>2016-01-23T08:34:14.420Z</time>
      </trkpt>
      <trkpt lat="43.7003" lon="5.81482">
        <ele>418</ele>
        <time>2016-01-23T08:34:20.444Z</time>
      </trkpt>
      <trkpt lat="43.7003" lon="5.8148">
        <ele>418</ele>
        <time>2016-01-23T08:34:21.432Z</time>
      </trkpt>
      <trkpt lat="43.70032" lon="5.8147">
        <ele>420</ele>
        <time>2016-01-23T08:34:41.443Z</time>
      </trkpt>
      <trkpt lat="43.70032" lon="5.81467">
        <ele>420</ele>
        <time>2016-01-23T08:34:42.420Z</time>
      </trkpt>
      <trkpt lat="43.70033" lon="5.81455">
        <ele>420</ele>
        <time>2016-01-23T08:34:46.445Z</time>
      </trkpt>
      <trkpt lat="43.70034" lon="5.81453">
        <ele>420</ele>
        <time>2016-01-23T08:34:47.431Z</time>
      </trkpt>
      <trkpt lat="43.70036" lon="5.81442">
        <ele>420</ele>
        <time>2016-01-23T08:34:53.443Z</time>
      </trkpt>
      <trkpt lat="43.70036" lon="5.8144">
        <ele>421</ele>
        <time>2016-01-23T08:34:54.419Z</time>
      </trkpt>
      <trkpt lat="43.70038" lon="5.8143">
        <ele>420</ele>
        <time>2016-01-23T08:35:00.469Z</time>
      </trkpt>
      <trkpt lat="43.70038" lon="5.81428">
        <ele>420</ele>
        <time>2016-01-23T08:35:01.419Z</time>
      </trkpt>
      <trkpt lat="43.70037" lon="5.81416">
        <ele>422</ele>
        <time>2016-01-23T08:35:07.443Z</time>
      </trkpt>
      <trkpt lat="43.70036" lon="5.81414">
        <ele>422</ele>
        <time>2016-01-23T08:35:08.423Z</time>
      </trkpt>
      <trkpt lat="43.7003" lon="5.81407">
        <ele>422</ele>
        <time>2016-01-23T08:35:13.444Z</time>
      </trkpt>
      <trkpt lat="43.70028" lon="5.81406">
        <ele>421</ele>
        <time>2016-01-23T08:35:14.419Z</time>
      </trkpt>
      <trkpt lat="43.7002" lon="5.81404">
        <ele>421</ele>
        <time>2016-01-23T08:35:17.444Z</time>
      </trkpt>
      <trkpt lat="43.70018" lon="5.81403">
        <ele>421</ele>
        <time>2016-01-23T08:35:18.420Z</time>
      </trkpt>
      <trkpt lat="43.70011" lon="5.81401">
        <ele>421</ele>
        <time>2016-01-23T08:35:21.443Z</time>
      </trkpt>
      <trkpt lat="43.70008" lon="5.814">
        <ele>421</ele>
        <time>2016-01-23T08:35:22.447Z</time>
      </trkpt>
      <trkpt lat="43.7" lon="5.81398">
        <ele>421</ele>
        <time>2016-01-23T08:35:25.446Z</time>
      </trkpt>
      <trkpt lat="43.69997" lon="5.81398">
        <ele>421</ele>
        <time>2016-01-23T08:35:26.433Z</time>
      </trkpt>
      <trkpt lat="43.69989" lon="5.81395">
        <ele>420</ele>
        <time>2016-01-23T08:35:29.446Z</time>
      </trkpt>
      <trkpt lat="43.69986" lon="5.81394">
        <ele>420</ele>
        <time>2016-01-23T08:35:30.421Z</time>
      </trkpt>
      <trkpt lat="43.69979" lon="5.81392">
        <ele>420</ele>
        <time>2016-01-23T08:35:32.444Z</time>
      </trkpt>
      <trkpt lat="43.69976" lon="5.81391">
        <ele>420</ele>
        <time>2016-01-23T08:35:33.447Z</time>
      </trkpt>
      <trkpt lat="43.69969" lon="5.81388">
        <ele>420</ele>
        <time>2016-01-23T08:35:35.502Z</time>
      </trkpt>
      <trkpt lat="43.69966" lon="5.81387">
        <ele>420</ele>
        <time>2016-01-23T08:35:36.420Z</time>
      </trkpt>
      <trkpt lat="43.69959" lon="5.81384">
        <ele>420</ele>
        <time>2016-01-23T08:35:38.447Z</time>
      </trkpt>
      <trkpt lat="43.69956" lon="5.81383">
        <ele>420</ele>
        <time>2016-01-23T08:35:39.420Z</time>
      </trkpt>
      <trkpt lat="43.69948" lon="5.81382">
        <ele>420</ele>
        <time>2016-01-23T08:35:42.444Z</time>
      </trkpt>
      <trkpt lat="43.69945" lon="5.81383">
        <ele>420</ele>
        <time>2016-01-23T08:35:43.420Z</time>
      </trkpt>
      <trkpt lat="43.69939" lon="5.81387">
        <ele>420</ele>
        <time>2016-01-23T08:35:46.522Z</time>
      </trkpt>
      <trkpt lat="43.69937" lon="5.81389">
        <ele>420</ele>
        <time>2016-01-23T08:35:47.423Z</time>
      </trkpt>
      <trkpt lat="43.69931" lon="5.81394">
        <ele>420</ele>
        <time>2016-01-23T08:35:50.443Z</time>
      </trkpt>
      <trkpt lat="43.69928" lon="5.81395">
        <ele>420</ele>
        <time>2016-01-23T08:35:51.419Z</time>
      </trkpt>
      <trkpt lat="43.6992" lon="5.81395">
        <ele>418</ele>
        <time>2016-01-23T08:36:08.442Z</time>
      </trkpt>
      <trkpt lat="43.69918" lon="5.81394">
        <ele>418</ele>
        <time>2016-01-23T08:36:09.420Z</time>
      </trkpt>
      <trkpt lat="43.6991" lon="5.81391">
        <ele>417</ele>
        <time>2016-01-23T08:36:15.446Z</time>
      </trkpt>
      <trkpt lat="43.69909" lon="5.8139">
        <ele>417</ele>
        <time>2016-01-23T08:36:16.421Z</time>
      </trkpt>
      <trkpt lat="43.69904" lon="5.81381">
        <ele>418</ele>
        <time>2016-01-23T08:36:22.443Z</time>
      </trkpt>
      <trkpt lat="43.69903" lon="5.81379">
        <ele>418</ele>
        <time>2016-01-23T08:36:23.422Z</time>
      </trkpt>
      <trkpt lat="43.699" lon="5.81369">
        <ele>419</ele>
        <time>2016-01-23T08:36:29.517Z</time>
      </trkpt>
      <trkpt lat="43.69899" lon="5.81368">
        <ele>420</ele>
        <time>2016-01-23T08:36:30.419Z</time>
      </trkpt>
      <trkpt lat="43.69893" lon="5.8136">
        <ele>420</ele>
        <time>2016-01-23T08:36:35.445Z</time>
      </trkpt>
      <trkpt lat="43.69891" lon="5.81359">
        <ele>420</ele>
        <time>2016-01-23T08:36:36.431Z</time>
      </trkpt>
      <trkpt lat="43.69883" lon="5.81356">
        <ele>421</ele>
        <time>2016-01-23T08:36:40.443Z</time>
      </trkpt>
      <trkpt lat="43.69882" lon="5.81355">
        <ele>421</ele>
        <time>2016-01-23T08:36:41.420Z</time>
      </trkpt>
      <trkpt lat="43.69873" lon="5.81354">
        <ele>421</ele>
        <time>2016-01-23T08:36:45.436Z</time>
      </trkpt>
      <trkpt lat="43.69871" lon="5.81353">
        <ele>421</ele>
        <time>2016-01-23T08:36:46.419Z</time>
      </trkpt>
      <trkpt lat="43.69866" lon="5.81346">
        <ele>421</ele>
        <time>2016-01-23T08:36:49.444Z</time>
      </trkpt>
      <trkpt lat="43.69865" lon="5.81343">
        <ele>421</ele>
        <time>2016-01-23T08:36:50.445Z</time>
      </trkpt>
      <trkpt lat="43.69862" lon="5.81334">
        <ele>421</ele>
        <time>2016-01-23T08:36:53.446Z</time>
      </trkpt>
      <trkpt lat="43.69861" lon="5.81331">
        <ele>421</ele>
        <time>2016-01-23T08:36:54.420Z</time>
      </trkpt>
      <trkpt lat="43.69857" lon="5.8132">
        <ele>422</ele>
        <time>2016-01-23T08:36:58.446Z</time>
      </trkpt>
      <trkpt lat="43.69856" lon="5.81318">
        <ele>422</ele>
        <time>2016-01-23T08:36:59.441Z</time>
      </trkpt>
      <trkpt lat="43.69851" lon="5.81309">
        <ele>422</ele>
        <time>2016-01-23T08:37:02.444Z</time>
      </trkpt>
      <trkpt lat="43.69849" lon="5.81305">
        <ele>422</ele>
        <time>2016-01-23T08:37:03.433Z</time>
      </trkpt>
      <trkpt lat="43.69846" lon="5.81298">
        <ele>422</ele>
        <time>2016-01-23T08:37:05.446Z</time>
      </trkpt>
      <trkpt lat="43.69844" lon="5.81294">
        <ele>421</ele>
        <time>2016-01-23T08:37:06.420Z</time>
      </trkpt>
      <trkpt lat="43.69841" lon="5.81286">
        <ele>421</ele>
        <time>2016-01-23T08:37:08.442Z</time>
      </trkpt>
      <trkpt lat="43.69839" lon="5.81282">
        <ele>421</ele>
        <time>2016-01-23T08:37:09.645Z</time>
      </trkpt>
      <trkpt lat="43.69835" lon="5.81275">
        <ele>421</ele>
        <time>2016-01-23T08:37:11.443Z</time>
      </trkpt>
      <trkpt lat="43.69833" lon="5.81271">
        <ele>421</ele>
        <time>2016-01-23T08:37:12.464Z</time>
      </trkpt>
      <trkpt lat="43.69829" lon="5.81264">
        <ele>421</ele>
        <time>2016-01-23T08:37:14.460Z</time>
      </trkpt>
      <trkpt lat="43.69827" lon="5.8126">
        <ele>421</ele>
        <time>2016-01-23T08:37:15.423Z</time>
      </trkpt>
      <trkpt lat="43.69822" lon="5.81254">
        <ele>421</ele>
        <time>2016-01-23T08:37:17.439Z</time>
      </trkpt>
      <trkpt lat="43.69819" lon="5.81252">
        <ele>421</ele>
        <time>2016-01-23T08:37:18.417Z</time>
      </trkpt>
      <trkpt lat="43.69814" lon="5.81246">
        <ele>421</ele>
        <time>2016-01-23T08:37:20.438Z</time>
      </trkpt>
      <trkpt lat="43.69811" lon="5.81243">
        <ele>421</ele>
        <time>2016-01-23T08:37:21.418Z</time>
      </trkpt>
      <trkpt lat="43.69807" lon="5.81235">
        <ele>422</ele>
        <time>2016-01-23T08:37:23.433Z</time>
      </trkpt>
      <trkpt lat="43.69806" lon="5.81231">
        <ele>422</ele>
        <time>2016-01-23T08:37:24.418Z</time>
      </trkpt>
      <trkpt lat="43.69804" lon="5.81223">
        <ele>422</ele>
        <time>2016-01-23T08:37:26.439Z</time>
      </trkpt>
      <trkpt lat="43.69804" lon="5.81218">
        <ele>422</ele>
        <time>2016-01-23T08:37:27.417Z</time>
      </trkpt>
      <trkpt lat="43.69805" lon="5.81207">
        <ele>422</ele>
        <time>2016-01-23T08:37:30.441Z</time>
      </trkpt>
      <trkpt lat="43.69806" lon="5.81204">
        <ele>422</ele>
        <time>2016-01-23T08:37:31.421Z</time>
      </trkpt>
      <trkpt lat="43.69809" lon="5.81193">
        <ele>423</ele>
        <time>2016-01-23T08:37:35.436Z</time>
      </trkpt>
      <trkpt lat="43.6981" lon="5.81191">
        <ele>423</ele>
        <time>2016-01-23T08:37:36.500Z</time>
      </trkpt>
      <trkpt lat="43.69813" lon="5.81182">
        <ele>423</ele>
        <time>2016-01-23T08:37:40.442Z</time>
      </trkpt>
      <trkpt lat="43.69814" lon="5.8118">
        <ele>424</ele>
        <time>2016-01-23T08:37:41.420Z</time>
      </trkpt>
      <trkpt lat="43.69816" lon="5.81171">
        <ele>426</ele>
        <time>2016-01-23T08:37:45.443Z</time>
      </trkpt>
      <trkpt lat="43.69817" lon="5.81168">
        <ele>426</ele>
        <time>2016-01-23T08:37:46.419Z</time>
      </trkpt>
      <trkpt lat="43.69818" lon="5.81156">
        <ele>427</ele>
        <time>2016-01-23T08:37:51.440Z</time>
      </trkpt>
      <trkpt lat="43.69818" lon="5.81153">
        <ele>428</ele>
        <time>2016-01-23T08:37:52.421Z</time>
      </trkpt>
      <trkpt lat="43.69818" lon="5.81143">
        <ele>430</ele>
        <time>2016-01-23T08:37:56.443Z</time>
      </trkpt>
      <trkpt lat="43.69817" lon="5.8114">
        <ele>430</ele>
        <time>2016-01-23T08:37:57.420Z</time>
      </trkpt>
      <trkpt lat="43.69815" lon="5.8113">
        <ele>431</ele>
        <time>2016-01-23T08:38:01.431Z</time>
      </trkpt>
      <trkpt lat="43.69815" lon="5.81128">
        <ele>432</ele>
        <time>2016-01-23T08:38:02.435Z</time>
      </trkpt>
      <trkpt lat="43.69811" lon="5.81118">
        <ele>432</ele>
        <time>2016-01-23T08:38:06.443Z</time>
      </trkpt>
      <trkpt lat="43.6981" lon="5.81116">
        <ele>433</ele>
        <time>2016-01-23T08:38:07.421Z</time>
      </trkpt>
      <trkpt lat="43.69806" lon="5.81107">
        <ele>433</ele>
        <time>2016-01-23T08:38:11.471Z</time>
      </trkpt>
      <trkpt lat="43.69805" lon="5.81104">
        <ele>433</ele>
        <time>2016-01-23T08:38:12.431Z</time>
      </trkpt>
      <trkpt lat="43.69801" lon="5.81095">
        <ele>433</ele>
        <time>2016-01-23T08:38:16.446Z</time>
      </trkpt>
      <trkpt lat="43.698" lon="5.81093">
        <ele>433</ele>
        <time>2016-01-23T08:38:17.421Z</time>
      </trkpt>
      <trkpt lat="43.69795" lon="5.81083">
        <ele>434</ele>
        <time>2016-01-23T08:38:21.676Z</time>
      </trkpt>
      <trkpt lat="43.69793" lon="5.81081">
        <ele>434</ele>
        <time>2016-01-23T08:38:22.448Z</time>
      </trkpt>
      <trkpt lat="43.69788" lon="5.81073">
        <ele>435</ele>
        <time>2016-01-23T08:38:26.442Z</time>
      </trkpt>
      <trkpt lat="43.69786" lon="5.81071">
        <ele>435</ele>
        <time>2016-01-23T08:38:27.431Z</time>
      </trkpt>
      <trkpt lat="43.6978" lon="5.81064">
        <ele>436</ele>
        <time>2016-01-23T08:38:31.443Z</time>
      </trkpt>
      <trkpt lat="43.69778" lon="5.81063">
        <ele>436</ele>
        <time>2016-01-23T08:38:32.417Z</time>
      </trkpt>
      <trkpt lat="43.69773" lon="5.81057">
        <ele>436</ele>
        <time>2016-01-23T08:38:36.442Z</time>
      </trkpt>
      <trkpt lat="43.69771" lon="5.81055">
        <ele>436</ele>
        <time>2016-01-23T08:38:37.420Z</time>
      </trkpt>
      <trkpt lat="43.69764" lon="5.81048">
        <ele>437</ele>
        <time>2016-01-23T08:38:42.444Z</time>
      </trkpt>
      <trkpt lat="43.69762" lon="5.81047">
        <ele>437</ele>
        <time>2016-01-23T08:38:43.432Z</time>
      </trkpt>
      <trkpt lat="43.69757" lon="5.81041">
        <ele>438</ele>
        <time>2016-01-23T08:38:47.666Z</time>
      </trkpt>
      <trkpt lat="43.69755" lon="5.81039">
        <ele>438</ele>
        <time>2016-01-23T08:38:48.417Z</time>
      </trkpt>
      <trkpt lat="43.6975" lon="5.81032">
        <ele>438</ele>
        <time>2016-01-23T08:38:52.444Z</time>
      </trkpt>
      <trkpt lat="43.69748" lon="5.81031">
        <ele>438</ele>
        <time>2016-01-23T08:38:53.430Z</time>
      </trkpt>
      <trkpt lat="43.69742" lon="5.81025">
        <ele>439</ele>
        <time>2016-01-23T08:38:57.444Z</time>
      </trkpt>
      <trkpt lat="43.69741" lon="5.81023">
        <ele>439</ele>
        <time>2016-01-23T08:38:58.420Z</time>
      </trkpt>
      <trkpt lat="43.69734" lon="5.81015">
        <ele>439</ele>
        <time>2016-01-23T08:39:03.456Z</time>
      </trkpt>
      <trkpt lat="43.69733" lon="5.81014">
        <ele>439</ele>
        <time>2016-01-23T08:39:04.420Z</time>
      </trkpt>
      <trkpt lat="43.69726" lon="5.81005">
        <ele>440</ele>
        <time>2016-01-23T08:39:09.444Z</time>
      </trkpt>
      <trkpt lat="43.69726" lon="5.81003">
        <ele>440</ele>
        <time>2016-01-23T08:39:10.420Z</time>
      </trkpt>
      <trkpt lat="43.69719" lon="5.80996">
        <ele>441</ele>
        <time>2016-01-23T08:39:15.451Z</time>
      </trkpt>
      <trkpt lat="43.69718" lon="5.80994">
        <ele>442</ele>
        <time>2016-01-23T08:39:16.419Z</time>
      </trkpt>
      <trkpt lat="43.69713" lon="5.80985">
        <ele>443</ele>
        <time>2016-01-23T08:39:21.445Z</time>
      </trkpt>
      <trkpt lat="43.69711" lon="5.80983">
        <ele>443</ele>
        <time>2016-01-23T08:39:22.448Z</time>
      </trkpt>
      <trkpt lat="43.69706" lon="5.80974">
        <ele>443</ele>
        <time>2016-01-23T08:39:27.443Z</time>
      </trkpt>
      <trkpt lat="43.69705" lon="5.80972">
        <ele>443</ele>
        <time>2016-01-23T08:39:28.432Z</time>
      </trkpt>
      <trkpt lat="43.697" lon="5.80962">
        <ele>444</ele>
        <time>2016-01-23T08:39:33.469Z</time>
      </trkpt>
      <trkpt lat="43.69699" lon="5.80961">
        <ele>444</ele>
        <time>2016-01-23T08:39:34.412Z</time>
      </trkpt>
      <trkpt lat="43.69694" lon="5.80953">
        <ele>445</ele>
        <time>2016-01-23T08:39:38.441Z</time>
      </trkpt>
      <trkpt lat="43.69693" lon="5.80951">
        <ele>445</ele>
        <time>2016-01-23T08:39:39.417Z</time>
      </trkpt>
      <trkpt lat="43.69687" lon="5.80943">
        <ele>446</ele>
        <time>2016-01-23T08:39:44.432Z</time>
      </trkpt>
      <trkpt lat="43.69685" lon="5.80941">
        <ele>446</ele>
        <time>2016-01-23T08:39:45.418Z</time>
      </trkpt>
      <trkpt lat="43.69679" lon="5.80933">
        <ele>447</ele>
        <time>2016-01-23T08:39:50.439Z</time>
      </trkpt>
      <trkpt lat="43.69678" lon="5.80932">
        <ele>447</ele>
        <time>2016-01-23T08:39:51.418Z</time>
      </trkpt>
      <trkpt lat="43.69674" lon="5.80921">
        <ele>447</ele>
        <time>2016-01-23T08:39:56.439Z</time>
      </trkpt>
      <trkpt lat="43.69673" lon="5.80919">
        <ele>447</ele>
        <time>2016-01-23T08:39:57.419Z</time>
      </trkpt>
      <trkpt lat="43.69674" lon="5.80908">
        <ele>449</ele>
        <time>2016-01-23T08:40:11.441Z</time>
      </trkpt>
      <trkpt lat="43.69674" lon="5.80906">
        <ele>450</ele>
        <time>2016-01-23T08:40:12.421Z</time>
      </trkpt>
      <trkpt lat="43.69673" lon="5.80895">
        <ele>450</ele>
        <time>2016-01-23T08:40:18.444Z</time>
      </trkpt>
      <trkpt lat="43.69673" lon="5.80893">
        <ele>451</ele>
        <time>2016-01-23T08:40:19.432Z</time>
      </trkpt>
      <trkpt lat="43.69674" lon="5.80881">
        <ele>452</ele>
        <time>2016-01-23T08:40:26.446Z</time>
      </trkpt>
      <trkpt lat="43.69674" lon="5.8088">
        <ele>452</ele>
        <time>2016-01-23T08:40:27.447Z</time>
      </trkpt>
      <trkpt lat="43.69674" lon="5.80869">
        <ele>453</ele>
        <time>2016-01-23T08:40:33.445Z</time>
      </trkpt>
      <trkpt lat="43.69674" lon="5.80867">
        <ele>453</ele>
        <time>2016-01-23T08:40:34.431Z</time>
      </trkpt>
      <trkpt lat="43.69674" lon="5.80856">
        <ele>455</ele>
        <time>2016-01-23T08:40:40.443Z</time>
      </trkpt>
      <trkpt lat="43.69675" lon="5.80854">
        <ele>454</ele>
        <time>2016-01-23T08:40:41.420Z</time>
      </trkpt>
      <trkpt lat="43.69674" lon="5.80843">
        <ele>455</ele>
        <time>2016-01-23T08:40:48.447Z</time>
      </trkpt>
      <trkpt lat="43.69675" lon="5.8084">
        <ele>455</ele>
        <time>2016-01-23T08:40:49.449Z</time>
      </trkpt>
      <trkpt lat="43.69674" lon="5.80828">
        <ele>456</ele>
        <time>2016-01-23T08:40:54.687Z</time>
      </trkpt>
      <trkpt lat="43.69674" lon="5.80825">
        <ele>456</ele>
        <time>2016-01-23T08:40:55.422Z</time>
      </trkpt>
      <trkpt lat="43.69673" lon="5.80815">
        <ele>457</ele>
        <time>2016-01-23T08:41:00.456Z</time>
      </trkpt>
      <trkpt lat="43.69673" lon="5.80813">
        <ele>458</ele>
        <time>2016-01-23T08:41:01.421Z</time>
      </trkpt>
      <trkpt lat="43.69672" lon="5.80802">
        <ele>458</ele>
        <time>2016-01-23T08:41:06.456Z</time>
      </trkpt>
      <trkpt lat="43.69671" lon="5.808">
        <ele>458</ele>
        <time>2016-01-23T08:41:07.424Z</time>
      </trkpt>
      <trkpt lat="43.69671" lon="5.80788">
        <ele>458</ele>
        <time>2016-01-23T08:41:12.443Z</time>
      </trkpt>
      <trkpt lat="43.69671" lon="5.80786">
        <ele>458</ele>
        <time>2016-01-23T08:41:13.421Z</time>
      </trkpt>
      <trkpt lat="43.69677" lon="5.80779">
        <ele>457</ele>
        <time>2016-01-23T08:41:17.447Z</time>
      </trkpt>
      <trkpt lat="43.69679" lon="5.80778">
        <ele>457</ele>
        <time>2016-01-23T08:41:18.421Z</time>
      </trkpt>
      <trkpt lat="43.69687" lon="5.80782">
        <ele>457</ele>
        <time>2016-01-23T08:41:23.444Z</time>
      </trkpt>
      <trkpt lat="43.69688" lon="5.80784">
        <ele>458</ele>
        <time>2016-01-23T08:41:24.422Z</time>
      </trkpt>
      <trkpt lat="43.69693" lon="5.80793">
        <ele>459</ele>
        <time>2016-01-23T08:41:29.445Z</time>
      </trkpt>
      <trkpt lat="43.69694" lon="5.80795">
        <ele>459</ele>
        <time>2016-01-23T08:41:30.423Z</time>
      </trkpt>
      <trkpt lat="43.69699" lon="5.80803">
        <ele>460</ele>
        <time>2016-01-23T08:41:34.444Z</time>
      </trkpt>
      <trkpt lat="43.697" lon="5.80805">
        <ele>459</ele>
        <time>2016-01-23T08:41:35.422Z</time>
      </trkpt>
      <trkpt lat="43.69706" lon="5.80813">
        <ele>459</ele>
        <time>2016-01-23T08:41:40.447Z</time>
      </trkpt>
      <trkpt lat="43.69707" lon="5.80815">
        <ele>459</ele>
        <time>2016-01-23T08:41:41.421Z</time>
      </trkpt>
      <trkpt lat="43.69712" lon="5.80823">
        <ele>459</ele>
        <time>2016-01-23T08:41:46.457Z</time>
      </trkpt>
      <trkpt lat="43.69713" lon="5.80824">
        <ele>458</ele>
        <time>2016-01-23T08:41:47.421Z</time>
      </trkpt>
      <trkpt lat="43.69719" lon="5.80831">
        <ele>458</ele>
        <time>2016-01-23T08:41:52.445Z</time>
      </trkpt>
      <trkpt lat="43.6972" lon="5.80833">
        <ele>458</ele>
        <time>2016-01-23T08:41:53.421Z</time>
      </trkpt>
      <trkpt lat="43.69727" lon="5.8084">
        <ele>460</ele>
        <time>2016-01-23T08:41:58.456Z</time>
      </trkpt>
      <trkpt lat="43.69729" lon="5.80842">
        <ele>460</ele>
        <time>2016-01-23T08:41:59.447Z</time>
      </trkpt>
      <trkpt lat="43.69735" lon="5.80847">
        <ele>460</ele>
        <time>2016-01-23T08:42:02.443Z</time>
      </trkpt>
      <trkpt lat="43.69737" lon="5.80848">
        <ele>460</ele>
        <time>2016-01-23T08:42:03.426Z</time>
      </trkpt>
      <trkpt lat="43.69744" lon="5.80853">
        <ele>459</ele>
        <time>2016-01-23T08:42:07.444Z</time>
      </trkpt>
      <trkpt lat="43.69746" lon="5.80855">
        <ele>459</ele>
        <time>2016-01-23T08:42:08.421Z</time>
      </trkpt>
      <trkpt lat="43.69753" lon="5.8086">
        <ele>460</ele>
        <time>2016-01-23T08:42:12.445Z</time>
      </trkpt>
      <trkpt lat="43.69755" lon="5.80862">
        <ele>460</ele>
        <time>2016-01-23T08:42:13.424Z</time>
      </trkpt>
      <trkpt lat="43.69761" lon="5.80868">
        <ele>460</ele>
        <time>2016-01-23T08:42:17.448Z</time>
      </trkpt>
      <trkpt lat="43.69763" lon="5.80869">
        <ele>460</ele>
        <time>2016-01-23T08:42:18.421Z</time>
      </trkpt>
      <trkpt lat="43.6977" lon="5.80876">
        <ele>461</ele>
        <time>2016-01-23T08:42:23.446Z</time>
      </trkpt>
      <trkpt lat="43.69772" lon="5.80878">
        <ele>461</ele>
        <time>2016-01-23T08:42:24.421Z</time>
      </trkpt>
      <trkpt lat="43.69778" lon="5.80883">
        <ele>461</ele>
        <time>2016-01-23T08:42:28.444Z</time>
      </trkpt>
      <trkpt lat="43.69779" lon="5.80884">
        <ele>461</ele>
        <time>2016-01-23T08:42:29.422Z</time>
      </trkpt>
      <trkpt lat="43.69787" lon="5.80891">
        <ele>462</ele>
        <time>2016-01-23T08:42:34.459Z</time>
      </trkpt>
      <trkpt lat="43.69788" lon="5.80892">
        <ele>461</ele>
        <time>2016-01-23T08:42:35.424Z</time>
      </trkpt>
      <trkpt lat="43.69796" lon="5.80898">
        <ele>462</ele>
        <time>2016-01-23T08:42:40.445Z</time>
      </trkpt>
      <trkpt lat="43.69797" lon="5.80899">
        <ele>462</ele>
        <time>2016-01-23T08:42:41.423Z</time>
      </trkpt>
      <trkpt lat="43.69804" lon="5.80903">
        <ele>462</ele>
        <time>2016-01-23T08:42:45.441Z</time>
      </trkpt>
      <trkpt lat="43.69806" lon="5.80904">
        <ele>462</ele>
        <time>2016-01-23T08:42:46.418Z</time>
      </trkpt>
      <trkpt lat="43.69813" lon="5.80909">
        <ele>462</ele>
        <time>2016-01-23T08:42:50.445Z</time>
      </trkpt>
      <trkpt lat="43.69814" lon="5.8091">
        <ele>462</ele>
        <time>2016-01-23T08:42:51.433Z</time>
      </trkpt>
      <trkpt lat="43.69822" lon="5.80913">
        <ele>462</ele>
        <time>2016-01-23T08:42:55.446Z</time>
      </trkpt>
      <trkpt lat="43.69824" lon="5.80914">
        <ele>462</ele>
        <time>2016-01-23T08:42:56.422Z</time>
      </trkpt>
      <trkpt lat="43.69831" lon="5.80918">
        <ele>463</ele>
        <time>2016-01-23T08:43:00.443Z</time>
      </trkpt>
      <trkpt lat="43.69833" lon="5.80918">
        <ele>463</ele>
        <time>2016-01-23T08:43:01.421Z</time>
      </trkpt>
      <trkpt lat="43.6984" lon="5.80923">
        <ele>463</ele>
        <time>2016-01-23T08:43:05.496Z</time>
      </trkpt>
      <trkpt lat="43.69841" lon="5.80923">
        <ele>464</ele>
        <time>2016-01-23T08:43:06.422Z</time>
      </trkpt>
      <trkpt lat="43.69849" lon="5.80925">
        <ele>463</ele>
        <time>2016-01-23T08:43:10.475Z</time>
      </trkpt>
      <trkpt lat="43.69851" lon="5.80924">
        <ele>464</ele>
        <time>2016-01-23T08:43:11.418Z</time>
      </trkpt>
      <trkpt lat="43.69856" lon="5.80917">
        <ele>464</ele>
        <time>2016-01-23T08:43:15.446Z</time>
      </trkpt>
      <trkpt lat="43.69856" lon="5.80914">
        <ele>464</ele>
        <time>2016-01-23T08:43:16.423Z</time>
      </trkpt>
      <trkpt lat="43.69852" lon="5.80904">
        <ele>464</ele>
        <time>2016-01-23T08:43:21.464Z</time>
      </trkpt>
      <trkpt lat="43.6985" lon="5.80902">
        <ele>464</ele>
        <time>2016-01-23T08:43:22.421Z</time>
      </trkpt>
      <trkpt lat="43.69843" lon="5.80896">
        <ele>465</ele>
        <time>2016-01-23T08:43:27.447Z</time>
      </trkpt>
      <trkpt lat="43.69842" lon="5.80894">
        <ele>465</ele>
        <time>2016-01-23T08:43:28.422Z</time>
      </trkpt>
      <trkpt lat="43.69835" lon="5.80887">
        <ele>466</ele>
        <time>2016-01-23T08:43:33.456Z</time>
      </trkpt>
      <trkpt lat="43.69834" lon="5.80885">
        <ele>466</ele>
        <time>2016-01-23T08:43:34.423Z</time>
      </trkpt>
      <trkpt lat="43.69829" lon="5.80877">
        <ele>467</ele>
        <time>2016-01-23T08:43:39.449Z</time>
      </trkpt>
      <trkpt lat="43.69828" lon="5.80875">
        <ele>468</ele>
        <time>2016-01-23T08:43:40.423Z</time>
      </trkpt>
      <trkpt lat="43.69823" lon="5.80866">
        <ele>470</ele>
        <time>2016-01-23T08:43:45.446Z</time>
      </trkpt>
      <trkpt lat="43.69823" lon="5.80864">
        <ele>470</ele>
        <time>2016-01-23T08:43:46.422Z</time>
      </trkpt>
      <trkpt lat="43.69818" lon="5.80853">
        <ele>471</ele>
        <time>2016-01-23T08:43:52.446Z</time>
      </trkpt>
      <trkpt lat="43.69818" lon="5.80852">
        <ele>471</ele>
        <time>2016-01-23T08:43:53.423Z</time>
      </trkpt>
      <trkpt lat="43.69814" lon="5.8084">
        <ele>473</ele>
        <time>2016-01-23T08:43:59.480Z</time>
      </trkpt>
      <trkpt lat="43.69813" lon="5.80838">
        <ele>473</ele>
        <time>2016-01-23T08:44:00.422Z</time>
      </trkpt>
      <trkpt lat="43.6981" lon="5.80827">
        <ele>474</ele>
        <time>2016-01-23T08:44:05.446Z</time>
      </trkpt>
      <trkpt lat="43.69809" lon="5.80825">
        <ele>474</ele>
        <time>2016-01-23T08:44:06.423Z</time>
      </trkpt>
      <trkpt lat="43.69806" lon="5.80815">
        <ele>475</ele>
        <time>2016-01-23T08:44:11.446Z</time>
      </trkpt>
      <trkpt lat="43.69806" lon="5.80814">
        <ele>475</ele>
        <time>2016-01-23T08:44:12.423Z</time>
      </trkpt>
      <trkpt lat="43.69805" lon="5.80801">
        <ele>475</ele>
        <time>2016-01-23T08:44:18.443Z</time>
      </trkpt>
      <trkpt lat="43.69805" lon="5.80799">
        <ele>475</ele>
        <time>2016-01-23T08:44:19.422Z</time>
      </trkpt>
      <trkpt lat="43.69805" lon="5.80788">
        <ele>474</ele>
        <time>2016-01-23T08:44:24.448Z</time>
      </trkpt>
      <trkpt lat="43.69806" lon="5.80786">
        <ele>474</ele>
        <time>2016-01-23T08:44:25.424Z</time>
      </trkpt>
      <trkpt lat="43.69807" lon="5.80775">
        <ele>474</ele>
        <time>2016-01-23T08:44:30.447Z</time>
      </trkpt>
      <trkpt lat="43.69807" lon="5.80773">
        <ele>475</ele>
        <time>2016-01-23T08:44:31.421Z</time>
      </trkpt>
      <trkpt lat="43.69808" lon="5.80762">
        <ele>475</ele>
        <time>2016-01-23T08:44:36.444Z</time>
      </trkpt>
      <trkpt lat="43.69808" lon="5.80759">
        <ele>475</ele>
        <time>2016-01-23T08:44:37.422Z</time>
      </trkpt>
      <trkpt lat="43.69811" lon="5.80748">
        <ele>476</ele>
        <time>2016-01-23T08:44:42.446Z</time>
      </trkpt>
      <trkpt lat="43.69812" lon="5.80745">
        <ele>476</ele>
        <time>2016-01-23T08:44:43.423Z</time>
      </trkpt>
      <trkpt lat="43.69814" lon="5.80735">
        <ele>476</ele>
        <time>2016-01-23T08:44:47.446Z</time>
      </trkpt>
      <trkpt lat="43.69815" lon="5.80732">
        <ele>476</ele>
        <time>2016-01-23T08:44:48.449Z</time>
      </trkpt>
      <trkpt lat="43.69818" lon="5.80723">
        <ele>477</ele>
        <time>2016-01-23T08:44:52.446Z</time>
      </trkpt>
      <trkpt lat="43.69818" lon="5.8072">
        <ele>477</ele>
        <time>2016-01-23T08:44:53.434Z</time>
      </trkpt>
      <trkpt lat="43.69821" lon="5.80711">
        <ele>476</ele>
        <time>2016-01-23T08:44:57.446Z</time>
      </trkpt>
      <trkpt lat="43.69822" lon="5.80708">
        <ele>476</ele>
        <time>2016-01-23T08:44:58.424Z</time>
      </trkpt>
      <trkpt lat="43.69825" lon="5.80697">
        <ele>475</ele>
        <time>2016-01-23T08:45:03.447Z</time>
      </trkpt>
      <trkpt lat="43.69826" lon="5.80695">
        <ele>475</ele>
        <time>2016-01-23T08:45:04.423Z</time>
      </trkpt>
      <trkpt lat="43.6983" lon="5.80687">
        <ele>473</ele>
        <time>2016-01-23T08:47:58.477Z</time>
      </trkpt>
      <trkpt lat="43.69831" lon="5.80685">
        <ele>474</ele>
        <time>2016-01-23T08:47:59.423Z</time>
      </trkpt>
      <trkpt lat="43.69836" lon="5.80678">
        <ele>474</ele>
        <time>2016-01-23T08:48:02.669Z</time>
      </trkpt>
      <trkpt lat="43.69838" lon="5.80676">
        <ele>473</ele>
        <time>2016-01-23T08:48:03.423Z</time>
      </trkpt>
      <trkpt lat="43.69841" lon="5.80665">
        <ele>474</ele>
        <time>2016-01-23T08:48:07.450Z</time>
      </trkpt>
      <trkpt lat="43.69841" lon="5.80661">
        <ele>473</ele>
        <time>2016-01-23T08:48:08.423Z</time>
      </trkpt>
      <trkpt lat="43.69844" lon="5.80651">
        <ele>472</ele>
        <time>2016-01-23T08:48:10.447Z</time>
      </trkpt>
      <trkpt lat="43.69846" lon="5.80648">
        <ele>472</ele>
        <time>2016-01-23T08:48:11.423Z</time>
      </trkpt>
      <trkpt lat="43.69853" lon="5.80648">
        <ele>472</ele>
        <time>2016-01-23T08:48:13.523Z</time>
      </trkpt>
      <trkpt lat="43.69856" lon="5.80649">
        <ele>472</ele>
        <time>2016-01-23T08:48:14.418Z</time>
      </trkpt>
      <trkpt lat="43.69862" lon="5.80657">
        <ele>472</ele>
        <time>2016-01-23T08:48:17.442Z</time>
      </trkpt>
      <trkpt lat="43.69864" lon="5.80659">
        <ele>472</ele>
        <time>2016-01-23T08:48:18.420Z</time>
      </trkpt>
      <trkpt lat="43.69872" lon="5.80664">
        <ele>473</ele>
        <time>2016-01-23T08:48:21.446Z</time>
      </trkpt>
      <trkpt lat="43.69874" lon="5.80667">
        <ele>473</ele>
        <time>2016-01-23T08:48:22.422Z</time>
      </trkpt>
      <trkpt lat="43.69881" lon="5.80672">
        <ele>473</ele>
        <time>2016-01-23T08:48:25.449Z</time>
      </trkpt>
      <trkpt lat="43.69883" lon="5.80671">
        <ele>472</ele>
        <time>2016-01-23T08:48:26.426Z</time>
      </trkpt>
      <trkpt lat="43.69889" lon="5.80667">
        <ele>471</ele>
        <time>2016-01-23T08:48:28.449Z</time>
      </trkpt>
      <trkpt lat="43.69893" lon="5.80665">
        <ele>471</ele>
        <time>2016-01-23T08:48:29.425Z</time>
      </trkpt>
      <trkpt lat="43.69896" lon="5.8066">
        <ele>471</ele>
        <time>2016-01-23T08:48:30.446Z</time>
      </trkpt>
      <trkpt lat="43.69899" lon="5.80655">
        <ele>470</ele>
        <time>2016-01-23T08:48:31.422Z</time>
      </trkpt>
      <trkpt lat="43.69904" lon="5.80647">
        <ele>469</ele>
        <time>2016-01-23T08:48:32.445Z</time>
      </trkpt>
      <trkpt lat="43.69909" lon="5.80643">
        <ele>469</ele>
        <time>2016-01-23T08:48:33.424Z</time>
      </trkpt>
      <trkpt lat="43.69913" lon="5.80638">
        <ele>468</ele>
        <time>2016-01-23T08:48:34.447Z</time>
      </trkpt>
      <trkpt lat="43.69916" lon="5.80634">
        <ele>468</ele>
        <time>2016-01-23T08:48:35.423Z</time>
      </trkpt>
      <trkpt lat="43.6992" lon="5.80629">
        <ele>467</ele>
        <time>2016-01-23T08:48:36.471Z</time>
      </trkpt>
      <trkpt lat="43.69925" lon="5.80624">
        <ele>466</ele>
        <time>2016-01-23T08:48:37.424Z</time>
      </trkpt>
      <trkpt lat="43.69929" lon="5.80619">
        <ele>465</ele>
        <time>2016-01-23T08:48:38.435Z</time>
      </trkpt>
      <trkpt lat="43.69934" lon="5.80613">
        <ele>465</ele>
        <time>2016-01-23T08:48:39.422Z</time>
      </trkpt>
      <trkpt lat="43.69939" lon="5.80607">
        <ele>464</ele>
        <time>2016-01-23T08:48:40.446Z</time>
      </trkpt>
      <trkpt lat="43.69942" lon="5.80603">
        <ele>464</ele>
        <time>2016-01-23T08:48:41.423Z</time>
      </trkpt>
      <trkpt lat="43.69947" lon="5.80599">
        <ele>463</ele>
        <time>2016-01-23T08:48:42.445Z</time>
      </trkpt>
      <trkpt lat="43.69951" lon="5.80594">
        <ele>463</ele>
        <time>2016-01-23T08:48:43.424Z</time>
      </trkpt>
      <trkpt lat="43.69955" lon="5.8059">
        <ele>463</ele>
        <time>2016-01-23T08:48:44.447Z</time>
      </trkpt>
      <trkpt lat="43.6996" lon="5.80586">
        <ele>463</ele>
        <time>2016-01-23T08:48:45.423Z</time>
      </trkpt>
      <trkpt lat="43.69964" lon="5.80583">
        <ele>462</ele>
        <time>2016-01-23T08:48:46.435Z</time>
      </trkpt>
      <trkpt lat="43.69968" lon="5.80577">
        <ele>462</ele>
        <time>2016-01-23T08:48:47.450Z</time>
      </trkpt>
      <trkpt lat="43.69971" lon="5.80571">
        <ele>462</ele>
        <time>2016-01-23T08:48:48.448Z</time>
      </trkpt>
      <trkpt lat="43.69974" lon="5.80567">
        <ele>462</ele>
        <time>2016-01-23T08:48:49.423Z</time>
      </trkpt>
      <trkpt lat="43.69977" lon="5.80562">
        <ele>462</ele>
        <time>2016-01-23T08:48:50.447Z</time>
      </trkpt>
      <trkpt lat="43.69982" lon="5.80557">
        <ele>462</ele>
        <time>2016-01-23T08:48:51.422Z</time>
      </trkpt>
      <trkpt lat="43.69987" lon="5.80554">
        <ele>463</ele>
        <time>2016-01-23T08:48:52.447Z</time>
      </trkpt>
      <trkpt lat="43.6999" lon="5.80549">
        <ele>462</ele>
        <time>2016-01-23T08:48:53.423Z</time>
      </trkpt>
      <trkpt lat="43.69996" lon="5.80542">
        <ele>462</ele>
        <time>2016-01-23T08:48:55.447Z</time>
      </trkpt>
      <trkpt lat="43.70001" lon="5.80539">
        <ele>462</ele>
        <time>2016-01-23T08:48:56.424Z</time>
      </trkpt>
      <trkpt lat="43.70006" lon="5.80532">
        <ele>463</ele>
        <time>2016-01-23T08:48:58.516Z</time>
      </trkpt>
      <trkpt lat="43.70009" lon="5.80529">
        <ele>462</ele>
        <time>2016-01-23T08:48:59.424Z</time>
      </trkpt>
      <trkpt lat="43.70015" lon="5.80525">
        <ele>463</ele>
        <time>2016-01-23T08:49:01.446Z</time>
      </trkpt>
      <trkpt lat="43.70017" lon="5.80522">
        <ele>463</ele>
        <time>2016-01-23T08:49:02.423Z</time>
      </trkpt>
      <trkpt lat="43.70022" lon="5.80517">
        <ele>463</ele>
        <time>2016-01-23T08:49:04.447Z</time>
      </trkpt>
      <trkpt lat="43.70025" lon="5.80514">
        <ele>463</ele>
        <time>2016-01-23T08:49:05.424Z</time>
      </trkpt>
      <trkpt lat="43.7003" lon="5.80509">
        <ele>463</ele>
        <time>2016-01-23T08:49:07.518Z</time>
      </trkpt>
      <trkpt lat="43.70032" lon="5.80507">
        <ele>463</ele>
        <time>2016-01-23T08:49:08.416Z</time>
      </trkpt>
      <trkpt lat="43.70037" lon="5.80501">
        <ele>462</ele>
        <time>2016-01-23T08:49:10.595Z</time>
      </trkpt>
      <trkpt lat="43.70039" lon="5.80498">
        <ele>462</ele>
        <time>2016-01-23T08:49:11.418Z</time>
      </trkpt>
      <trkpt lat="43.70045" lon="5.80491">
        <ele>461</ele>
        <time>2016-01-23T08:49:13.447Z</time>
      </trkpt>
      <trkpt lat="43.70049" lon="5.80487">
        <ele>461</ele>
        <time>2016-01-23T08:49:14.424Z</time>
      </trkpt>
      <trkpt lat="43.70053" lon="5.80478">
        <ele>460</ele>
        <time>2016-01-23T08:49:16.448Z</time>
      </trkpt>
      <trkpt lat="43.70054" lon="5.80472">
        <ele>459</ele>
        <time>2016-01-23T08:49:17.424Z</time>
      </trkpt>
      <trkpt lat="43.70061" lon="5.80465">
        <ele>457</ele>
        <time>2016-01-23T08:49:19.447Z</time>
      </trkpt>
      <trkpt lat="43.70066" lon="5.80461">
        <ele>456</ele>
        <time>2016-01-23T08:49:20.451Z</time>
      </trkpt>
      <trkpt lat="43.70069" lon="5.80456">
        <ele>456</ele>
        <time>2016-01-23T08:49:21.447Z</time>
      </trkpt>
      <trkpt lat="43.70072" lon="5.8045">
        <ele>455</ele>
        <time>2016-01-23T08:49:22.424Z</time>
      </trkpt>
      <trkpt lat="43.70075" lon="5.80445">
        <ele>454</ele>
        <time>2016-01-23T08:49:23.447Z</time>
      </trkpt>
      <trkpt lat="43.70077" lon="5.8044">
        <ele>454</ele>
        <time>2016-01-23T08:49:24.424Z</time>
      </trkpt>
      <trkpt lat="43.70081" lon="5.80432">
        <ele>452</ele>
        <time>2016-01-23T08:49:26.451Z</time>
      </trkpt>
      <trkpt lat="43.70085" lon="5.80429">
        <ele>452</ele>
        <time>2016-01-23T08:49:27.425Z</time>
      </trkpt>
      <trkpt lat="43.7009" lon="5.80426">
        <ele>451</ele>
        <time>2016-01-23T08:49:28.447Z</time>
      </trkpt>
      <trkpt lat="43.70093" lon="5.80423">
        <ele>450</ele>
        <time>2016-01-23T08:49:29.423Z</time>
      </trkpt>
      <trkpt lat="43.70097" lon="5.80419">
        <ele>449</ele>
        <time>2016-01-23T08:49:30.450Z</time>
      </trkpt>
      <trkpt lat="43.701" lon="5.80414">
        <ele>449</ele>
        <time>2016-01-23T08:49:31.448Z</time>
      </trkpt>
      <trkpt lat="43.70105" lon="5.80406">
        <ele>447</ele>
        <time>2016-01-23T08:49:33.445Z</time>
      </trkpt>
      <trkpt lat="43.70107" lon="5.80403">
        <ele>447</ele>
        <time>2016-01-23T08:49:34.443Z</time>
      </trkpt>
      <trkpt lat="43.70113" lon="5.80394">
        <ele>445</ele>
        <time>2016-01-23T08:49:37.443Z</time>
      </trkpt>
      <trkpt lat="43.70115" lon="5.80391">
        <ele>444</ele>
        <time>2016-01-23T08:49:38.422Z</time>
      </trkpt>
      <trkpt lat="43.70122" lon="5.80384">
        <ele>443</ele>
        <time>2016-01-23T08:49:41.439Z</time>
      </trkpt>
      <trkpt lat="43.70125" lon="5.80382">
        <ele>443</ele>
        <time>2016-01-23T08:49:42.444Z</time>
      </trkpt>
      <trkpt lat="43.70132" lon="5.80376">
        <ele>441</ele>
        <time>2016-01-23T08:49:44.442Z</time>
      </trkpt>
      <trkpt lat="43.70134" lon="5.80373">
        <ele>441</ele>
        <time>2016-01-23T08:49:45.422Z</time>
      </trkpt>
      <trkpt lat="43.7014" lon="5.80365">
        <ele>441</ele>
        <time>2016-01-23T08:49:47.442Z</time>
      </trkpt>
      <trkpt lat="43.70142" lon="5.80362">
        <ele>440</ele>
        <time>2016-01-23T08:49:48.421Z</time>
      </trkpt>
      <trkpt lat="43.70148" lon="5.80357">
        <ele>440</ele>
        <time>2016-01-23T08:49:50.441Z</time>
      </trkpt>
      <trkpt lat="43.70151" lon="5.80355">
        <ele>439</ele>
        <time>2016-01-23T08:49:51.420Z</time>
      </trkpt>
      <trkpt lat="43.70157" lon="5.80349">
        <ele>439</ele>
        <time>2016-01-23T08:49:53.465Z</time>
      </trkpt>
      <trkpt lat="43.70159" lon="5.80345">
        <ele>439</ele>
        <time>2016-01-23T08:49:54.422Z</time>
      </trkpt>
      <trkpt lat="43.70164" lon="5.80338">
        <ele>439</ele>
        <time>2016-01-23T08:49:56.438Z</time>
      </trkpt>
      <trkpt lat="43.70167" lon="5.80334">
        <ele>440</ele>
        <time>2016-01-23T08:49:57.423Z</time>
      </trkpt>
      <trkpt lat="43.70173" lon="5.80331">
        <ele>440</ele>
        <time>2016-01-23T08:49:59.441Z</time>
      </trkpt>
      <trkpt lat="43.70177" lon="5.80329">
        <ele>440</ele>
        <time>2016-01-23T08:50:00.423Z</time>
      </trkpt>
      <trkpt lat="43.70184" lon="5.80327">
        <ele>440</ele>
        <time>2016-01-23T08:50:02.443Z</time>
      </trkpt>
      <trkpt lat="43.70187" lon="5.80326">
        <ele>440</ele>
        <time>2016-01-23T08:50:03.422Z</time>
      </trkpt>
      <trkpt lat="43.70196" lon="5.80321">
        <ele>441</ele>
        <time>2016-01-23T08:50:06.444Z</time>
      </trkpt>
      <trkpt lat="43.70198" lon="5.80319">
        <ele>442</ele>
        <time>2016-01-23T08:50:07.422Z</time>
      </trkpt>
      <trkpt lat="43.70204" lon="5.80312">
        <ele>443</ele>
        <time>2016-01-23T08:50:10.447Z</time>
      </trkpt>
      <trkpt lat="43.70206" lon="5.8031">
        <ele>443</ele>
        <time>2016-01-23T08:50:11.423Z</time>
      </trkpt>
      <trkpt lat="43.70214" lon="5.8031">
        <ele>444</ele>
        <time>2016-01-23T08:50:15.490Z</time>
      </trkpt>
      <trkpt lat="43.70216" lon="5.8031">
        <ele>444</ele>
        <time>2016-01-23T08:50:16.424Z</time>
      </trkpt>
      <trkpt lat="43.70224" lon="5.80306">
        <ele>444</ele>
        <time>2016-01-23T08:50:20.447Z</time>
      </trkpt>
      <trkpt lat="43.70226" lon="5.80305">
        <ele>444</ele>
        <time>2016-01-23T08:50:21.653Z</time>
      </trkpt>
      <trkpt lat="43.70234" lon="5.80303">
        <ele>444</ele>
        <time>2016-01-23T08:50:26.448Z</time>
      </trkpt>
      <trkpt lat="43.70237" lon="5.80302">
        <ele>443</ele>
        <time>2016-01-23T08:50:27.424Z</time>
      </trkpt>
      <trkpt lat="43.70244" lon="5.80298">
        <ele>443</ele>
        <time>2016-01-23T08:50:29.458Z</time>
      </trkpt>
      <trkpt lat="43.70247" lon="5.80296">
        <ele>442</ele>
        <time>2016-01-23T08:50:30.425Z</time>
      </trkpt>
      <trkpt lat="43.70255" lon="5.80294">
        <ele>442</ele>
        <time>2016-01-23T08:50:32.448Z</time>
      </trkpt>
      <trkpt lat="43.70258" lon="5.80294">
        <ele>441</ele>
        <time>2016-01-23T08:50:33.424Z</time>
      </trkpt>
      <trkpt lat="43.70265" lon="5.80293">
        <ele>440</ele>
        <time>2016-01-23T08:50:35.448Z</time>
      </trkpt>
      <trkpt lat="43.7027" lon="5.80292">
        <ele>439</ele>
        <time>2016-01-23T08:50:36.425Z</time>
      </trkpt>
      <trkpt lat="43.70277" lon="5.80293">
        <ele>439</ele>
        <time>2016-01-23T08:50:37.474Z</time>
      </trkpt>
      <trkpt lat="43.70282" lon="5.80293">
        <ele>438</ele>
        <time>2016-01-23T08:50:38.423Z</time>
      </trkpt>
      <trkpt lat="43.70288" lon="5.80293">
        <ele>437</ele>
        <time>2016-01-23T08:50:39.457Z</time>
      </trkpt>
      <trkpt lat="43.70294" lon="5.80293">
        <ele>436</ele>
        <time>2016-01-23T08:50:40.428Z</time>
      </trkpt>
      <trkpt lat="43.70302" lon="5.80296">
        <ele>435</ele>
        <time>2016-01-23T08:50:42.458Z</time>
      </trkpt>
      <trkpt lat="43.70307" lon="5.80296">
        <ele>435</ele>
        <time>2016-01-23T08:50:43.425Z</time>
      </trkpt>
      <trkpt lat="43.70313" lon="5.80296">
        <ele>435</ele>
        <time>2016-01-23T08:50:44.449Z</time>
      </trkpt>
      <trkpt lat="43.70319" lon="5.80296">
        <ele>434</ele>
        <time>2016-01-23T08:50:45.435Z</time>
      </trkpt>
      <trkpt lat="43.70325" lon="5.80295">
        <ele>434</ele>
        <time>2016-01-23T08:50:46.448Z</time>
      </trkpt>
      <trkpt lat="43.7033" lon="5.80295">
        <ele>434</ele>
        <time>2016-01-23T08:50:47.424Z</time>
      </trkpt>
      <trkpt lat="43.70336" lon="5.80296">
        <ele>434</ele>
        <time>2016-01-23T08:50:48.476Z</time>
      </trkpt>
      <trkpt lat="43.70341" lon="5.80295">
        <ele>434</ele>
        <time>2016-01-23T08:50:49.425Z</time>
      </trkpt>
      <trkpt lat="43.70346" lon="5.80295">
        <ele>433</ele>
        <time>2016-01-23T08:50:50.456Z</time>
      </trkpt>
      <trkpt lat="43.70352" lon="5.80296">
        <ele>433</ele>
        <time>2016-01-23T08:50:51.424Z</time>
      </trkpt>
      <trkpt lat="43.70357" lon="5.80299">
        <ele>433</ele>
        <time>2016-01-23T08:50:52.448Z</time>
      </trkpt>
      <trkpt lat="43.70362" lon="5.80304">
        <ele>432</ele>
        <time>2016-01-23T08:50:53.425Z</time>
      </trkpt>
      <trkpt lat="43.70367" lon="5.80307">
        <ele>431</ele>
        <time>2016-01-23T08:50:54.448Z</time>
      </trkpt>
      <trkpt lat="43.70372" lon="5.80312">
        <ele>429</ele>
        <time>2016-01-23T08:50:55.424Z</time>
      </trkpt>
      <trkpt lat="43.70377" lon="5.80316">
        <ele>428</ele>
        <time>2016-01-23T08:50:56.447Z</time>
      </trkpt>
      <trkpt lat="43.70381" lon="5.80319">
        <ele>428</ele>
        <time>2016-01-23T08:50:57.423Z</time>
      </trkpt>
      <trkpt lat="43.70388" lon="5.80324">
        <ele>426</ele>
        <time>2016-01-23T08:50:59.475Z</time>
      </trkpt>
      <trkpt lat="43.70391" lon="5.80328">
        <ele>425</ele>
        <time>2016-01-23T08:51:00.423Z</time>
      </trkpt>
      <trkpt lat="43.70399" lon="5.80333">
        <ele>423</ele>
        <time>2016-01-23T08:51:02.449Z</time>
      </trkpt>
      <trkpt lat="43.70402" lon="5.80335">
        <ele>423</ele>
        <time>2016-01-23T08:51:03.435Z</time>
      </trkpt>
      <trkpt lat="43.70405" lon="5.80338">
        <ele>422</ele>
        <time>2016-01-23T08:51:04.447Z</time>
      </trkpt>
      <trkpt lat="43.7041" lon="5.80342">
        <ele>422</ele>
        <time>2016-01-23T08:51:05.425Z</time>
      </trkpt>
      <trkpt lat="43.70415" lon="5.80347">
        <ele>421</ele>
        <time>2016-01-23T08:51:06.678Z</time>
      </trkpt>
      <trkpt lat="43.70421" lon="5.80352">
        <ele>420</ele>
        <time>2016-01-23T08:51:07.424Z</time>
      </trkpt>
      <trkpt lat="43.70426" lon="5.80356">
        <ele>419</ele>
        <time>2016-01-23T08:51:08.447Z</time>
      </trkpt>
      <trkpt lat="43.70432" lon="5.80361">
        <ele>418</ele>
        <time>2016-01-23T08:51:09.424Z</time>
      </trkpt>
      <trkpt lat="43.70437" lon="5.80365">
        <ele>417</ele>
        <time>2016-01-23T08:51:10.474Z</time>
      </trkpt>
      <trkpt lat="43.70441" lon="5.80369">
        <ele>417</ele>
        <time>2016-01-23T08:51:11.424Z</time>
      </trkpt>
      <trkpt lat="43.70446" lon="5.80374">
        <ele>415</ele>
        <time>2016-01-23T08:51:12.451Z</time>
      </trkpt>
      <trkpt lat="43.7045" lon="5.80377">
        <ele>416</ele>
        <time>2016-01-23T08:51:13.425Z</time>
      </trkpt>
      <trkpt lat="43.70457" lon="5.80382">
        <ele>415</ele>
        <time>2016-01-23T08:51:15.446Z</time>
      </trkpt>
      <trkpt lat="43.70459" lon="5.80385">
        <ele>414</ele>
        <time>2016-01-23T08:51:16.423Z</time>
      </trkpt>
      <trkpt lat="43.70465" lon="5.80393">
        <ele>414</ele>
        <time>2016-01-23T08:51:18.448Z</time>
      </trkpt>
      <trkpt lat="43.70468" lon="5.80397">
        <ele>413</ele>
        <time>2016-01-23T08:51:19.425Z</time>
      </trkpt>
      <trkpt lat="43.70475" lon="5.80404">
        <ele>413</ele>
        <time>2016-01-23T08:51:21.476Z</time>
      </trkpt>
      <trkpt lat="43.70478" lon="5.80406">
        <ele>413</ele>
        <time>2016-01-23T08:51:22.425Z</time>
      </trkpt>
      <trkpt lat="43.70483" lon="5.80415">
        <ele>412</ele>
        <time>2016-01-23T08:51:25.449Z</time>
      </trkpt>
      <trkpt lat="43.70485" lon="5.80417">
        <ele>412</ele>
        <time>2016-01-23T08:51:26.426Z</time>
      </trkpt>
      <trkpt lat="43.7049" lon="5.8042">
        <ele>411</ele>
        <time>2016-01-23T08:51:28.448Z</time>
      </trkpt>
      <trkpt lat="43.70493" lon="5.80421">
        <ele>411</ele>
        <time>2016-01-23T08:51:29.427Z</time>
      </trkpt>
      <trkpt lat="43.70498" lon="5.80424">
        <ele>411</ele>
        <time>2016-01-23T08:51:30.450Z</time>
      </trkpt>
      <trkpt lat="43.70503" lon="5.80429">
        <ele>410</ele>
        <time>2016-01-23T08:51:31.421Z</time>
      </trkpt>
      <trkpt lat="43.70507" lon="5.80434">
        <ele>410</ele>
        <time>2016-01-23T08:51:32.447Z</time>
      </trkpt>
      <trkpt lat="43.70512" lon="5.80436">
        <ele>409</ele>
        <time>2016-01-23T08:51:33.435Z</time>
      </trkpt>
      <trkpt lat="43.70519" lon="5.80444">
        <ele>408</ele>
        <time>2016-01-23T08:51:35.449Z</time>
      </trkpt>
      <trkpt lat="43.70524" lon="5.80446">
        <ele>408</ele>
        <time>2016-01-23T08:51:36.424Z</time>
      </trkpt>
      <trkpt lat="43.7053" lon="5.80454">
        <ele>406</ele>
        <time>2016-01-23T08:51:38.459Z</time>
      </trkpt>
      <trkpt lat="43.70533" lon="5.80458">
        <ele>406</ele>
        <time>2016-01-23T08:51:39.424Z</time>
      </trkpt>
      <trkpt lat="43.70536" lon="5.80462">
        <ele>406</ele>
        <time>2016-01-23T08:51:40.452Z</time>
      </trkpt>
      <trkpt lat="43.7054" lon="5.80466">
        <ele>406</ele>
        <time>2016-01-23T08:51:41.424Z</time>
      </trkpt>
      <trkpt lat="43.70548" lon="5.80472">
        <ele>406</ele>
        <time>2016-01-23T08:51:43.449Z</time>
      </trkpt>
      <trkpt lat="43.70551" lon="5.80475">
        <ele>406</ele>
        <time>2016-01-23T08:51:44.424Z</time>
      </trkpt>
      <trkpt lat="43.70556" lon="5.80481">
        <ele>406</ele>
        <time>2016-01-23T08:51:46.525Z</time>
      </trkpt>
      <trkpt lat="43.7056" lon="5.80483">
        <ele>406</ele>
        <time>2016-01-23T08:51:47.423Z</time>
      </trkpt>
      <trkpt lat="43.70568" lon="5.80488">
        <ele>406</ele>
        <time>2016-01-23T08:51:49.448Z</time>
      </trkpt>
      <trkpt lat="43.70571" lon="5.80489">
        <ele>405</ele>
        <time>2016-01-23T08:51:50.425Z</time>
      </trkpt>
      <trkpt lat="43.70576" lon="5.8049">
        <ele>405</ele>
        <time>2016-01-23T08:51:51.448Z</time>
      </trkpt>
      <trkpt lat="43.7058" lon="5.80492">
        <ele>405</ele>
        <time>2016-01-23T08:51:52.646Z</time>
      </trkpt>
      <trkpt lat="43.70585" lon="5.80493">
        <ele>405</ele>
        <time>2016-01-23T08:51:53.447Z</time>
      </trkpt>
      <trkpt lat="43.7059" lon="5.80493">
        <ele>404</ele>
        <time>2016-01-23T08:51:54.436Z</time>
      </trkpt>
      <trkpt lat="43.70597" lon="5.80487">
        <ele>405</ele>
        <time>2016-01-23T08:51:57.447Z</time>
      </trkpt>
      <trkpt lat="43.70599" lon="5.80487">
        <ele>405</ele>
        <time>2016-01-23T08:51:58.434Z</time>
      </trkpt>
      <trkpt lat="43.70606" lon="5.80484">
        <ele>402</ele>
        <time>2016-01-23T08:52:45.447Z</time>
      </trkpt>
      <trkpt lat="43.70608" lon="5.80482">
        <ele>402</ele>
        <time>2016-01-23T08:52:46.424Z</time>
      </trkpt>
      <trkpt lat="43.70614" lon="5.80478">
        <ele>402</ele>
        <time>2016-01-23T08:52:48.447Z</time>
      </trkpt>
      <trkpt lat="43.70617" lon="5.80477">
        <ele>402</ele>
        <time>2016-01-23T08:52:49.437Z</time>
      </trkpt>
      <trkpt lat="43.70623" lon="5.80475">
        <ele>401</ele>
        <time>2016-01-23T08:52:51.448Z</time>
      </trkpt>
      <trkpt lat="43.70626" lon="5.80473">
        <ele>401</ele>
        <time>2016-01-23T08:52:52.425Z</time>
      </trkpt>
      <trkpt lat="43.70632" lon="5.80469">
        <ele>401</ele>
        <time>2016-01-23T08:52:54.448Z</time>
      </trkpt>
      <trkpt lat="43.70636" lon="5.80466">
        <ele>401</ele>
        <time>2016-01-23T08:52:55.424Z</time>
      </trkpt>
      <trkpt lat="43.70643" lon="5.80459">
        <ele>401</ele>
        <time>2016-01-23T08:52:57.447Z</time>
      </trkpt>
      <trkpt lat="43.70646" lon="5.80456">
        <ele>400</ele>
        <time>2016-01-23T08:52:58.424Z</time>
      </trkpt>
      <trkpt lat="43.70652" lon="5.80452">
        <ele>400</ele>
        <time>2016-01-23T08:52:59.448Z</time>
      </trkpt>
      <trkpt lat="43.70655" lon="5.80448">
        <ele>399</ele>
        <time>2016-01-23T08:53:00.426Z</time>
      </trkpt>
      <trkpt lat="43.7066" lon="5.80445">
        <ele>399</ele>
        <time>2016-01-23T08:53:01.447Z</time>
      </trkpt>
      <trkpt lat="43.70664" lon="5.80441">
        <ele>398</ele>
        <time>2016-01-23T08:53:02.425Z</time>
      </trkpt>
      <trkpt lat="43.70668" lon="5.80436">
        <ele>397</ele>
        <time>2016-01-23T08:53:03.447Z</time>
      </trkpt>
      <trkpt lat="43.70672" lon="5.80431">
        <ele>397</ele>
        <time>2016-01-23T08:53:04.450Z</time>
      </trkpt>
      <trkpt lat="43.70677" lon="5.80427">
        <ele>396</ele>
        <time>2016-01-23T08:53:05.447Z</time>
      </trkpt>
      <trkpt lat="43.70682" lon="5.80422">
        <ele>396</ele>
        <time>2016-01-23T08:53:06.423Z</time>
      </trkpt>
      <trkpt lat="43.70688" lon="5.80417">
        <ele>395</ele>
        <time>2016-01-23T08:53:07.447Z</time>
      </trkpt>
      <trkpt lat="43.70694" lon="5.80413">
        <ele>394</ele>
        <time>2016-01-23T08:53:08.424Z</time>
      </trkpt>
      <trkpt lat="43.707" lon="5.80408">
        <ele>394</ele>
        <time>2016-01-23T08:53:09.447Z</time>
      </trkpt>
      <trkpt lat="43.70705" lon="5.80403">
        <ele>393</ele>
        <time>2016-01-23T08:53:10.425Z</time>
      </trkpt>
      <trkpt lat="43.70711" lon="5.80398">
        <ele>393</ele>
        <time>2016-01-23T08:53:11.447Z</time>
      </trkpt>
      <trkpt lat="43.70716" lon="5.80392">
        <ele>392</ele>
        <time>2016-01-23T08:53:12.424Z</time>
      </trkpt>
      <trkpt lat="43.70722" lon="5.80388">
        <ele>391</ele>
        <time>2016-01-23T08:53:13.447Z</time>
      </trkpt>
      <trkpt lat="43.70728" lon="5.80382">
        <ele>390</ele>
        <time>2016-01-23T08:53:14.434Z</time>
      </trkpt>
      <trkpt lat="43.70733" lon="5.80377">
        <ele>389</ele>
        <time>2016-01-23T08:53:15.448Z</time>
      </trkpt>
      <trkpt lat="43.70737" lon="5.80375">
        <ele>389</ele>
        <time>2016-01-23T08:53:16.424Z</time>
      </trkpt>
      <trkpt lat="43.70742" lon="5.80372">
        <ele>388</ele>
        <time>2016-01-23T08:53:17.447Z</time>
      </trkpt>
      <trkpt lat="43.70747" lon="5.80369">
        <ele>387</ele>
        <time>2016-01-23T08:53:18.642Z</time>
      </trkpt>
      <trkpt lat="43.70751" lon="5.80363">
        <ele>386</ele>
        <time>2016-01-23T08:53:19.439Z</time>
      </trkpt>
      <trkpt lat="43.70757" lon="5.80357">
        <ele>385</ele>
        <time>2016-01-23T08:53:20.450Z</time>
      </trkpt>
      <trkpt lat="43.70761" lon="5.80353">
        <ele>384</ele>
        <time>2016-01-23T08:53:21.447Z</time>
      </trkpt>
      <trkpt lat="43.70765" lon="5.80348">
        <ele>383</ele>
        <time>2016-01-23T08:53:22.426Z</time>
      </trkpt>
      <trkpt lat="43.7077" lon="5.80344">
        <ele>383</ele>
        <time>2016-01-23T08:53:23.447Z</time>
      </trkpt>
      <trkpt lat="43.70774" lon="5.80342">
        <ele>382</ele>
        <time>2016-01-23T08:53:24.425Z</time>
      </trkpt>
      <trkpt lat="43.70778" lon="5.80338">
        <ele>382</ele>
        <time>2016-01-23T08:53:25.448Z</time>
      </trkpt>
      <trkpt lat="43.70782" lon="5.80334">
        <ele>381</ele>
        <time>2016-01-23T08:53:26.434Z</time>
      </trkpt>
      <trkpt lat="43.70786" lon="5.80329">
        <ele>380</ele>
        <time>2016-01-23T08:53:27.448Z</time>
      </trkpt>
      <trkpt lat="43.70791" lon="5.80325">
        <ele>379</ele>
        <time>2016-01-23T08:53:28.426Z</time>
      </trkpt>
      <trkpt lat="43.70799" lon="5.80319">
        <ele>378</ele>
        <time>2016-01-23T08:53:30.448Z</time>
      </trkpt>
      <trkpt lat="43.70801" lon="5.80318">
        <ele>378</ele>
        <time>2016-01-23T08:53:31.450Z</time>
      </trkpt>
      <trkpt lat="43.70809" lon="5.80314">
        <ele>377</ele>
        <time>2016-01-23T08:53:34.449Z</time>
      </trkpt>
      <trkpt lat="43.70811" lon="5.80315">
        <ele>376</ele>
        <time>2016-01-23T08:53:35.425Z</time>
      </trkpt>
      <trkpt lat="43.70816" lon="5.80324">
        <ele>374</ele>
        <time>2016-01-23T08:53:37.451Z</time>
      </trkpt>
      <trkpt lat="43.70817" lon="5.80328">
        <ele>373</ele>
        <time>2016-01-23T08:53:38.428Z</time>
      </trkpt>
      <trkpt lat="43.70822" lon="5.80337">
        <ele>371</ele>
        <time>2016-01-23T08:53:40.449Z</time>
      </trkpt>
      <trkpt lat="43.70824" lon="5.80342">
        <ele>370</ele>
        <time>2016-01-23T08:53:41.423Z</time>
      </trkpt>
      <trkpt lat="43.70829" lon="5.80349">
        <ele>369</ele>
        <time>2016-01-23T08:53:43.447Z</time>
      </trkpt>
      <trkpt lat="43.70831" lon="5.80353">
        <ele>368</ele>
        <time>2016-01-23T08:53:44.424Z</time>
      </trkpt>
      <trkpt lat="43.70836" lon="5.80363">
        <ele>365</ele>
        <time>2016-01-23T08:53:47.448Z</time>
      </trkpt>
      <trkpt lat="43.70838" lon="5.80366">
        <ele>365</ele>
        <time>2016-01-23T08:53:48.424Z</time>
      </trkpt>
      <trkpt lat="43.70844" lon="5.80375">
        <ele>363</ele>
        <time>2016-01-23T08:53:50.451Z</time>
      </trkpt>
      <trkpt lat="43.70847" lon="5.8038">
        <ele>362</ele>
        <time>2016-01-23T08:53:51.425Z</time>
      </trkpt>
      <trkpt lat="43.70852" lon="5.80389">
        <ele>360</ele>
        <time>2016-01-23T08:53:53.474Z</time>
      </trkpt>
      <trkpt lat="43.70853" lon="5.80394">
        <ele>360</ele>
        <time>2016-01-23T08:53:54.423Z</time>
      </trkpt>
      <trkpt lat="43.70857" lon="5.80403">
        <ele>357</ele>
        <time>2016-01-23T08:53:57.448Z</time>
      </trkpt>
      <trkpt lat="43.70857" lon="5.80407">
        <ele>356</ele>
        <time>2016-01-23T08:53:58.424Z</time>
      </trkpt>
      <trkpt lat="43.70861" lon="5.80417">
        <ele>353</ele>
        <time>2016-01-23T08:54:00.459Z</time>
      </trkpt>
      <trkpt lat="43.70863" lon="5.80422">
        <ele>352</ele>
        <time>2016-01-23T08:54:01.425Z</time>
      </trkpt>
      <trkpt lat="43.70865" lon="5.80429">
        <ele>352</ele>
        <time>2016-01-23T08:54:02.448Z</time>
      </trkpt>
      <trkpt lat="43.70868" lon="5.80435">
        <ele>352</ele>
        <time>2016-01-23T08:54:03.424Z</time>
      </trkpt>
      <trkpt lat="43.70872" lon="5.80443">
        <ele>351</ele>
        <time>2016-01-23T08:54:05.466Z</time>
      </trkpt>
      <trkpt lat="43.70874" lon="5.80445">
        <ele>350</ele>
        <time>2016-01-23T08:54:06.425Z</time>
      </trkpt>
      <trkpt lat="43.70883" lon="5.80445">
        <ele>348</ele>
        <time>2016-01-23T08:54:09.450Z</time>
      </trkpt>
      <trkpt lat="43.70885" lon="5.80445">
        <ele>347</ele>
        <time>2016-01-23T08:54:10.435Z</time>
      </trkpt>
      <trkpt lat="43.70891" lon="5.80439">
        <ele>346</ele>
        <time>2016-01-23T08:54:24.458Z</time>
      </trkpt>
      <trkpt lat="43.70893" lon="5.80436">
        <ele>346</ele>
        <time>2016-01-23T08:54:25.425Z</time>
      </trkpt>
      <trkpt lat="43.70896" lon="5.80428">
        <ele>345</ele>
        <time>2016-01-23T08:54:27.458Z</time>
      </trkpt>
      <trkpt lat="43.70898" lon="5.80423">
        <ele>345</ele>
        <time>2016-01-23T08:54:28.425Z</time>
      </trkpt>
      <trkpt lat="43.709" lon="5.80414">
        <ele>345</ele>
        <time>2016-01-23T08:54:30.687Z</time>
      </trkpt>
      <trkpt lat="43.70902" lon="5.8041">
        <ele>345</ele>
        <time>2016-01-23T08:54:31.450Z</time>
      </trkpt>
      <trkpt lat="43.70905" lon="5.80401">
        <ele>345</ele>
        <time>2016-01-23T08:54:33.446Z</time>
      </trkpt>
      <trkpt lat="43.70906" lon="5.80396">
        <ele>345</ele>
        <time>2016-01-23T08:54:34.423Z</time>
      </trkpt>
      <trkpt lat="43.70908" lon="5.80388">
        <ele>345</ele>
        <time>2016-01-23T08:54:36.448Z</time>
      </trkpt>
      <trkpt lat="43.70909" lon="5.80384">
        <ele>345</ele>
        <time>2016-01-23T08:54:37.426Z</time>
      </trkpt>
      <trkpt lat="43.70913" lon="5.80376">
        <ele>345</ele>
        <time>2016-01-23T08:54:39.449Z</time>
      </trkpt>
      <trkpt lat="43.70915" lon="5.80373">
        <ele>345</ele>
        <time>2016-01-23T08:54:40.425Z</time>
      </trkpt>
      <trkpt lat="43.70919" lon="5.80362">
        <ele>345</ele>
        <time>2016-01-23T08:54:44.448Z</time>
      </trkpt>
      <trkpt lat="43.7092" lon="5.8036">
        <ele>344</ele>
        <time>2016-01-23T08:54:45.426Z</time>
      </trkpt>
      <trkpt lat="43.70924" lon="5.8035">
        <ele>345</ele>
        <time>2016-01-23T08:54:49.466Z</time>
      </trkpt>
      <trkpt lat="43.70925" lon="5.80348">
        <ele>345</ele>
        <time>2016-01-23T08:54:50.426Z</time>
      </trkpt>
      <trkpt lat="43.7093" lon="5.80338">
        <ele>344</ele>
        <time>2016-01-23T08:54:54.448Z</time>
      </trkpt>
      <trkpt lat="43.70931" lon="5.80335">
        <ele>344</ele>
        <time>2016-01-23T08:54:55.425Z</time>
      </trkpt>
      <trkpt lat="43.70935" lon="5.80326">
        <ele>344</ele>
        <time>2016-01-23T08:54:58.449Z</time>
      </trkpt>
      <trkpt lat="43.70936" lon="5.80323">
        <ele>344</ele>
        <time>2016-01-23T08:54:59.425Z</time>
      </trkpt>
      <trkpt lat="43.7094" lon="5.80314">
        <ele>344</ele>
        <time>2016-01-23T08:55:02.448Z</time>
      </trkpt>
      <trkpt lat="43.70941" lon="5.80311">
        <ele>344</ele>
        <time>2016-01-23T08:55:03.436Z</time>
      </trkpt>
      <trkpt lat="43.70945" lon="5.80301">
        <ele>345</ele>
        <time>2016-01-23T08:55:06.680Z</time>
      </trkpt>
      <trkpt lat="43.70946" lon="5.80298">
        <ele>345</ele>
        <time>2016-01-23T08:55:07.426Z</time>
      </trkpt>
      <trkpt lat="43.70948" lon="5.80287">
        <ele>344</ele>
        <time>2016-01-23T08:55:10.448Z</time>
      </trkpt>
      <trkpt lat="43.70948" lon="5.80283">
        <ele>344</ele>
        <time>2016-01-23T08:55:11.425Z</time>
      </trkpt>
      <trkpt lat="43.70948" lon="5.80273">
        <ele>345</ele>
        <time>2016-01-23T08:55:14.450Z</time>
      </trkpt>
      <trkpt lat="43.70948" lon="5.80269">
        <ele>345</ele>
        <time>2016-01-23T08:55:15.459Z</time>
      </trkpt>
      <trkpt lat="43.70948" lon="5.80259">
        <ele>346</ele>
        <time>2016-01-23T08:55:18.669Z</time>
      </trkpt>
      <trkpt lat="43.70948" lon="5.80256">
        <ele>347</ele>
        <time>2016-01-23T08:55:19.423Z</time>
      </trkpt>
      <trkpt lat="43.70948" lon="5.80245">
        <ele>347</ele>
        <time>2016-01-23T08:55:22.430Z</time>
      </trkpt>
      <trkpt lat="43.70949" lon="5.80242">
        <ele>347</ele>
        <time>2016-01-23T08:55:23.424Z</time>
      </trkpt>
      <trkpt lat="43.70952" lon="5.80234">
        <ele>347</ele>
        <time>2016-01-23T08:55:26.480Z</time>
      </trkpt>
      <trkpt lat="43.70954" lon="5.80231">
        <ele>347</ele>
        <time>2016-01-23T08:55:27.425Z</time>
      </trkpt>
      <trkpt lat="43.7096" lon="5.80229">
        <ele>347</ele>
        <time>2016-01-23T08:55:30.444Z</time>
      </trkpt>
      <trkpt lat="43.70963" lon="5.80228">
        <ele>347</ele>
        <time>2016-01-23T08:55:31.431Z</time>
      </trkpt>
      <trkpt lat="43.70968" lon="5.80224">
        <ele>347</ele>
        <time>2016-01-23T08:55:33.445Z</time>
      </trkpt>
      <trkpt lat="43.70971" lon="5.80222">
        <ele>347</ele>
        <time>2016-01-23T08:55:34.422Z</time>
      </trkpt>
      <trkpt lat="43.70976" lon="5.80216">
        <ele>346</ele>
        <time>2016-01-23T08:55:36.445Z</time>
      </trkpt>
      <trkpt lat="43.70979" lon="5.80213">
        <ele>346</ele>
        <time>2016-01-23T08:55:37.448Z</time>
      </trkpt>
      <trkpt lat="43.70985" lon="5.80205">
        <ele>345</ele>
        <time>2016-01-23T08:55:39.445Z</time>
      </trkpt>
      <trkpt lat="43.70988" lon="5.80202">
        <ele>346</ele>
        <time>2016-01-23T08:55:40.424Z</time>
      </trkpt>
      <trkpt lat="43.70993" lon="5.80194">
        <ele>345</ele>
        <time>2016-01-23T08:55:42.442Z</time>
      </trkpt>
      <trkpt lat="43.70996" lon="5.80192">
        <ele>345</ele>
        <time>2016-01-23T08:55:43.422Z</time>
      </trkpt>
      <trkpt lat="43.71004" lon="5.80188">
        <ele>344</ele>
        <time>2016-01-23T08:55:45.452Z</time>
      </trkpt>
      <trkpt lat="43.71008" lon="5.80186">
        <ele>344</ele>
        <time>2016-01-23T08:55:46.424Z</time>
      </trkpt>
      <trkpt lat="43.71015" lon="5.80178">
        <ele>344</ele>
        <time>2016-01-23T08:55:48.469Z</time>
      </trkpt>
      <trkpt lat="43.71017" lon="5.80174">
        <ele>344</ele>
        <time>2016-01-23T08:55:49.423Z</time>
      </trkpt>
      <trkpt lat="43.71022" lon="5.80166">
        <ele>344</ele>
        <time>2016-01-23T08:55:52.443Z</time>
      </trkpt>
      <trkpt lat="43.71023" lon="5.80164">
        <ele>345</ele>
        <time>2016-01-23T08:55:53.637Z</time>
      </trkpt>
      <trkpt lat="43.71028" lon="5.80157">
        <ele>345</ele>
        <time>2016-01-23T08:55:56.443Z</time>
      </trkpt>
      <trkpt lat="43.7103" lon="5.80155">
        <ele>345</ele>
        <time>2016-01-23T08:55:57.423Z</time>
      </trkpt>
      <trkpt lat="43.71036" lon="5.8015">
        <ele>345</ele>
        <time>2016-01-23T08:56:00.443Z</time>
      </trkpt>
      <trkpt lat="43.71038" lon="5.80148">
        <ele>345</ele>
        <time>2016-01-23T08:56:01.422Z</time>
      </trkpt>
      <trkpt lat="43.71045" lon="5.80145">
        <ele>345</ele>
        <time>2016-01-23T08:56:04.469Z</time>
      </trkpt>
      <trkpt lat="43.71048" lon="5.80143">
        <ele>345</ele>
        <time>2016-01-23T08:56:05.424Z</time>
      </trkpt>
      <trkpt lat="43.71055" lon="5.80145">
        <ele>345</ele>
        <time>2016-01-23T08:56:08.443Z</time>
      </trkpt>
      <trkpt lat="43.71056" lon="5.80148">
        <ele>345</ele>
        <time>2016-01-23T08:56:09.424Z</time>
      </trkpt>
      <trkpt lat="43.71061" lon="5.80155">
        <ele>345</ele>
        <time>2016-01-23T08:56:11.443Z</time>
      </trkpt>
      <trkpt lat="43.71063" lon="5.80158">
        <ele>345</ele>
        <time>2016-01-23T08:56:12.424Z</time>
      </trkpt>
      <trkpt lat="43.71068" lon="5.80164">
        <ele>345</ele>
        <time>2016-01-23T08:56:14.444Z</time>
      </trkpt>
      <trkpt lat="43.7107" lon="5.80167">
        <ele>345</ele>
        <time>2016-01-23T08:56:15.456Z</time>
      </trkpt>
      <trkpt lat="43.71076" lon="5.80173">
        <ele>344</ele>
        <time>2016-01-23T08:56:17.444Z</time>
      </trkpt>
      <trkpt lat="43.71078" lon="5.80176">
        <ele>344</ele>
        <time>2016-01-23T08:56:18.433Z</time>
      </trkpt>
      <trkpt lat="43.71084" lon="5.80183">
        <ele>344</ele>
        <time>2016-01-23T08:56:20.445Z</time>
      </trkpt>
      <trkpt lat="43.71087" lon="5.80187">
        <ele>344</ele>
        <time>2016-01-23T08:56:21.424Z</time>
      </trkpt>
      <trkpt lat="43.71092" lon="5.80193">
        <ele>343</ele>
        <time>2016-01-23T08:56:23.443Z</time>
      </trkpt>
      <trkpt lat="43.71096" lon="5.80197">
        <ele>343</ele>
        <time>2016-01-23T08:56:24.424Z</time>
      </trkpt>
      <trkpt lat="43.71101" lon="5.80203">
        <ele>342</ele>
        <time>2016-01-23T08:56:26.491Z</time>
      </trkpt>
      <trkpt lat="43.71105" lon="5.80207">
        <ele>342</ele>
        <time>2016-01-23T08:56:27.423Z</time>
      </trkpt>
      <trkpt lat="43.71111" lon="5.80214">
        <ele>341</ele>
        <time>2016-01-23T08:56:29.451Z</time>
      </trkpt>
      <trkpt lat="43.71113" lon="5.80217">
        <ele>341</ele>
        <time>2016-01-23T08:56:30.423Z</time>
      </trkpt>
      <trkpt lat="43.71119" lon="5.80226">
        <ele>342</ele>
        <time>2016-01-23T08:56:35.445Z</time>
      </trkpt>
      <trkpt lat="43.7112" lon="5.80227">
        <ele>342</ele>
        <time>2016-01-23T08:56:36.429Z</time>
      </trkpt>
      <trkpt lat="43.71125" lon="5.80233">
        <ele>341</ele>
        <time>2016-01-23T08:56:40.443Z</time>
      </trkpt>
      <trkpt lat="43.71127" lon="5.80236">
        <ele>342</ele>
        <time>2016-01-23T08:56:41.423Z</time>
      </trkpt>
      <trkpt lat="43.71133" lon="5.80241">
        <ele>342</ele>
        <time>2016-01-23T08:56:43.509Z</time>
      </trkpt>
      <trkpt lat="43.71136" lon="5.80244">
        <ele>342</ele>
        <time>2016-01-23T08:56:44.426Z</time>
      </trkpt>
      <trkpt lat="43.71143" lon="5.80251">
        <ele>342</ele>
        <time>2016-01-23T08:56:47.443Z</time>
      </trkpt>
      <trkpt lat="43.71144" lon="5.80254">
        <ele>342</ele>
        <time>2016-01-23T08:56:48.445Z</time>
      </trkpt>
      <trkpt lat="43.71149" lon="5.8026">
        <ele>342</ele>
        <time>2016-01-23T08:56:51.443Z</time>
      </trkpt>
      <trkpt lat="43.71151" lon="5.80262">
        <ele>342</ele>
        <time>2016-01-23T08:56:52.425Z</time>
      </trkpt>
      <trkpt lat="43.71156" lon="5.80269">
        <ele>342</ele>
        <time>2016-01-23T08:56:55.453Z</time>
      </trkpt>
      <trkpt lat="43.71158" lon="5.80271">
        <ele>342</ele>
        <time>2016-01-23T08:56:56.424Z</time>
      </trkpt>
      <trkpt lat="43.71165" lon="5.80278">
        <ele>343</ele>
        <time>2016-01-23T08:57:00.458Z</time>
      </trkpt>
      <trkpt lat="43.71166" lon="5.8028">
        <ele>343</ele>
        <time>2016-01-23T08:57:01.424Z</time>
      </trkpt>
      <trkpt lat="43.71173" lon="5.80287">
        <ele>343</ele>
        <time>2016-01-23T08:57:05.445Z</time>
      </trkpt>
      <trkpt lat="43.71175" lon="5.80289">
        <ele>344</ele>
        <time>2016-01-23T08:57:06.422Z</time>
      </trkpt>
      <trkpt lat="43.7118" lon="5.80299">
        <ele>344</ele>
        <time>2016-01-23T08:57:10.460Z</time>
      </trkpt>
      <trkpt lat="43.7118" lon="5.80302">
        <ele>344</ele>
        <time>2016-01-23T08:57:11.428Z</time>
      </trkpt>
      <trkpt lat="43.71179" lon="5.80311">
        <ele>345</ele>
        <time>2016-01-23T08:57:14.450Z</time>
      </trkpt>
      <trkpt lat="43.71177" lon="5.80314">
        <ele>345</ele>
        <time>2016-01-23T08:57:15.452Z</time>
      </trkpt>
      <trkpt lat="43.71172" lon="5.80322">
        <ele>347</ele>
        <time>2016-01-23T08:57:19.447Z</time>
      </trkpt>
      <trkpt lat="43.7117" lon="5.80324">
        <ele>347</ele>
        <time>2016-01-23T08:57:20.426Z</time>
      </trkpt>
      <trkpt lat="43.71166" lon="5.80333">
        <ele>348</ele>
        <time>2016-01-23T08:57:24.450Z</time>
      </trkpt>
      <trkpt lat="43.71165" lon="5.80336">
        <ele>348</ele>
        <time>2016-01-23T08:57:25.426Z</time>
      </trkpt>
      <trkpt lat="43.71162" lon="5.80347">
        <ele>348</ele>
        <time>2016-01-23T08:57:29.449Z</time>
      </trkpt>
      <trkpt lat="43.71162" lon="5.8035">
        <ele>348</ele>
        <time>2016-01-23T08:57:30.426Z</time>
      </trkpt>
      <trkpt lat="43.71159" lon="5.80361">
        <ele>348</ele>
        <time>2016-01-23T08:57:34.449Z</time>
      </trkpt>
      <trkpt lat="43.71158" lon="5.80364">
        <ele>348</ele>
        <time>2016-01-23T08:57:35.426Z</time>
      </trkpt>
      <trkpt lat="43.71155" lon="5.80375">
        <ele>347</ele>
        <time>2016-01-23T08:57:39.449Z</time>
      </trkpt>
      <trkpt lat="43.71155" lon="5.80378">
        <ele>347</ele>
        <time>2016-01-23T08:57:40.436Z</time>
      </trkpt>
      <trkpt lat="43.71152" lon="5.8039">
        <ele>347</ele>
        <time>2016-01-23T08:57:44.669Z</time>
      </trkpt>
      <trkpt lat="43.71151" lon="5.80392">
        <ele>346</ele>
        <time>2016-01-23T08:57:45.425Z</time>
      </trkpt>
      <trkpt lat="43.71148" lon="5.80402">
        <ele>346</ele>
        <time>2016-01-23T08:57:49.460Z</time>
      </trkpt>
      <trkpt lat="43.71148" lon="5.80404">
        <ele>346</ele>
        <time>2016-01-23T08:57:50.425Z</time>
      </trkpt>
      <trkpt lat="43.71149" lon="5.80416">
        <ele>346</ele>
        <time>2016-01-23T08:57:54.449Z</time>
      </trkpt>
      <trkpt lat="43.7115" lon="5.8042">
        <ele>346</ele>
        <time>2016-01-23T08:57:55.425Z</time>
      </trkpt>
      <trkpt lat="43.71153" lon="5.80431">
        <ele>346</ele>
        <time>2016-01-23T08:57:58.449Z</time>
      </trkpt>
      <trkpt lat="43.71154" lon="5.80434">
        <ele>346</ele>
        <time>2016-01-23T08:57:59.427Z</time>
      </trkpt>
      <trkpt lat="43.71158" lon="5.80444">
        <ele>346</ele>
        <time>2016-01-23T08:58:02.448Z</time>
      </trkpt>
      <trkpt lat="43.71159" lon="5.80447">
        <ele>346</ele>
        <time>2016-01-23T08:58:03.425Z</time>
      </trkpt>
      <trkpt lat="43.71163" lon="5.80455">
        <ele>347</ele>
        <time>2016-01-23T08:58:06.445Z</time>
      </trkpt>
      <trkpt lat="43.71164" lon="5.80458">
        <ele>346</ele>
        <time>2016-01-23T08:58:07.426Z</time>
      </trkpt>
      <trkpt lat="43.71168" lon="5.80468">
        <ele>346</ele>
        <time>2016-01-23T08:58:11.449Z</time>
      </trkpt>
      <trkpt lat="43.71169" lon="5.8047">
        <ele>347</ele>
        <time>2016-01-23T08:58:12.417Z</time>
      </trkpt>
      <trkpt lat="43.71173" lon="5.8048">
        <ele>348</ele>
        <time>2016-01-23T08:58:16.451Z</time>
      </trkpt>
      <trkpt lat="43.71174" lon="5.80482">
        <ele>348</ele>
        <time>2016-01-23T08:58:17.428Z</time>
      </trkpt>
      <trkpt lat="43.71177" lon="5.80492">
        <ele>349</ele>
        <time>2016-01-23T08:58:21.678Z</time>
      </trkpt>
      <trkpt lat="43.71178" lon="5.80495">
        <ele>349</ele>
        <time>2016-01-23T08:58:22.427Z</time>
      </trkpt>
      <trkpt lat="43.71181" lon="5.80504">
        <ele>349</ele>
        <time>2016-01-23T08:58:26.479Z</time>
      </trkpt>
      <trkpt lat="43.71183" lon="5.80507">
        <ele>350</ele>
        <time>2016-01-23T08:58:27.436Z</time>
      </trkpt>
      <trkpt lat="43.71187" lon="5.80515">
        <ele>351</ele>
        <time>2016-01-23T08:58:31.450Z</time>
      </trkpt>
      <trkpt lat="43.71189" lon="5.80517">
        <ele>351</ele>
        <time>2016-01-23T08:58:32.428Z</time>
      </trkpt>
      <trkpt lat="43.71194" lon="5.80524">
        <ele>351</ele>
        <time>2016-01-23T08:58:36.450Z</time>
      </trkpt>
      <trkpt lat="43.71196" lon="5.80526">
        <ele>352</ele>
        <time>2016-01-23T08:58:37.453Z</time>
      </trkpt>
      <trkpt lat="43.71202" lon="5.80533">
        <ele>352</ele>
        <time>2016-01-23T08:58:41.451Z</time>
      </trkpt>
      <trkpt lat="43.71203" lon="5.80534">
        <ele>352</ele>
        <time>2016-01-23T08:58:42.428Z</time>
      </trkpt>
      <trkpt lat="43.71209" lon="5.80541">
        <ele>353</ele>
        <time>2016-01-23T08:58:46.450Z</time>
      </trkpt>
      <trkpt lat="43.7121" lon="5.80543">
        <ele>353</ele>
        <time>2016-01-23T08:58:47.427Z</time>
      </trkpt>
      <trkpt lat="43.71216" lon="5.80552">
        <ele>355</ele>
        <time>2016-01-23T08:58:52.460Z</time>
      </trkpt>
      <trkpt lat="43.71218" lon="5.80554">
        <ele>355</ele>
        <time>2016-01-23T08:58:53.422Z</time>
      </trkpt>
      <trkpt lat="43.71223" lon="5.80561">
        <ele>356</ele>
        <time>2016-01-23T08:58:57.467Z</time>
      </trkpt>
      <trkpt lat="43.71225" lon="5.80562">
        <ele>356</ele>
        <time>2016-01-23T08:58:58.439Z</time>
      </trkpt>
      <trkpt lat="43.71231" lon="5.80569">
        <ele>357</ele>
        <time>2016-01-23T08:59:02.445Z</time>
      </trkpt>
      <trkpt lat="43.71233" lon="5.80571">
        <ele>357</ele>
        <time>2016-01-23T08:59:03.432Z</time>
      </trkpt>
      <trkpt lat="43.71241" lon="5.80576">
        <ele>358</ele>
        <time>2016-01-23T08:59:07.442Z</time>
      </trkpt>
      <trkpt lat="43.71243" lon="5.80577">
        <ele>358</ele>
        <time>2016-01-23T08:59:08.424Z</time>
      </trkpt>
      <trkpt lat="43.71251" lon="5.80581">
        <ele>359</ele>
        <time>2016-01-23T08:59:12.444Z</time>
      </trkpt>
      <trkpt lat="43.71253" lon="5.80581">
        <ele>359</ele>
        <time>2016-01-23T08:59:13.424Z</time>
      </trkpt>
      <trkpt lat="43.71261" lon="5.80584">
        <ele>360</ele>
        <time>2016-01-23T08:59:17.444Z</time>
      </trkpt>
      <trkpt lat="43.71263" lon="5.80585">
        <ele>360</ele>
        <time>2016-01-23T08:59:18.424Z</time>
      </trkpt>
      <trkpt lat="43.7127" lon="5.80587">
        <ele>362</ele>
        <time>2016-01-23T08:59:22.445Z</time>
      </trkpt>
      <trkpt lat="43.71273" lon="5.80588">
        <ele>361</ele>
        <time>2016-01-23T08:59:23.424Z</time>
      </trkpt>
      <trkpt lat="43.71281" lon="5.80591">
        <ele>363</ele>
        <time>2016-01-23T08:59:27.444Z</time>
      </trkpt>
      <trkpt lat="43.71283" lon="5.80592">
        <ele>362</ele>
        <time>2016-01-23T08:59:28.423Z</time>
      </trkpt>
      <trkpt lat="43.71291" lon="5.80596">
        <ele>362</ele>
        <time>2016-01-23T08:59:32.436Z</time>
      </trkpt>
      <trkpt lat="43.71293" lon="5.80596">
        <ele>363</ele>
        <time>2016-01-23T08:59:33.425Z</time>
      </trkpt>
      <trkpt lat="43.713" lon="5.806">
        <ele>363</ele>
        <time>2016-01-23T08:59:37.453Z</time>
      </trkpt>
      <trkpt lat="43.71302" lon="5.80601">
        <ele>364</ele>
        <time>2016-01-23T08:59:38.427Z</time>
      </trkpt>
      <trkpt lat="43.7131" lon="5.80606">
        <ele>365</ele>
        <time>2016-01-23T08:59:42.471Z</time>
      </trkpt>
      <trkpt lat="43.71312" lon="5.80607">
        <ele>365</ele>
        <time>2016-01-23T08:59:43.425Z</time>
      </trkpt>
      <trkpt lat="43.7132" lon="5.80611">
        <ele>366</ele>
        <time>2016-01-23T08:59:47.453Z</time>
      </trkpt>
      <trkpt lat="43.71322" lon="5.80612">
        <ele>366</ele>
        <time>2016-01-23T08:59:48.426Z</time>
      </trkpt>
      <trkpt lat="43.7133" lon="5.80616">
        <ele>366</ele>
        <time>2016-01-23T08:59:52.445Z</time>
      </trkpt>
      <trkpt lat="43.71332" lon="5.80617">
        <ele>366</ele>
        <time>2016-01-23T08:59:53.448Z</time>
      </trkpt>
      <trkpt lat="43.71339" lon="5.8062">
        <ele>368</ele>
        <time>2016-01-23T08:59:58.486Z</time>
      </trkpt>
      <trkpt lat="43.71341" lon="5.80621">
        <ele>369</ele>
        <time>2016-01-23T08:59:59.424Z</time>
      </trkpt>
      <trkpt lat="43.71348" lon="5.80625">
        <ele>370</ele>
        <time>2016-01-23T09:00:03.448Z</time>
      </trkpt>
      <trkpt lat="43.7135" lon="5.80627">
        <ele>370</ele>
        <time>2016-01-23T09:00:04.452Z</time>
      </trkpt>
      <trkpt lat="43.71357" lon="5.80631">
        <ele>370</ele>
        <time>2016-01-23T09:00:07.450Z</time>
      </trkpt>
      <trkpt lat="43.71359" lon="5.80633">
        <ele>370</ele>
        <time>2016-01-23T09:00:08.427Z</time>
      </trkpt>
      <trkpt lat="43.71365" lon="5.80639">
        <ele>370</ele>
        <time>2016-01-23T09:00:11.449Z</time>
      </trkpt>
      <trkpt lat="43.71366" lon="5.80641">
        <ele>370</ele>
        <time>2016-01-23T09:00:12.427Z</time>
      </trkpt>
      <trkpt lat="43.71372" lon="5.8065">
        <ele>370</ele>
        <time>2016-01-23T09:00:16.450Z</time>
      </trkpt>
      <trkpt lat="43.71374" lon="5.80652">
        <ele>370</ele>
        <time>2016-01-23T09:00:17.425Z</time>
      </trkpt>
      <trkpt lat="43.71378" lon="5.80663">
        <ele>370</ele>
        <time>2016-01-23T09:00:21.446Z</time>
      </trkpt>
      <trkpt lat="43.71379" lon="5.80665">
        <ele>370</ele>
        <time>2016-01-23T09:00:22.429Z</time>
      </trkpt>
      <trkpt lat="43.71382" lon="5.80675">
        <ele>370</ele>
        <time>2016-01-23T09:00:27.448Z</time>
      </trkpt>
      <trkpt lat="43.71383" lon="5.80677">
        <ele>370</ele>
        <time>2016-01-23T09:00:28.426Z</time>
      </trkpt>
      <trkpt lat="43.71385" lon="5.80688">
        <ele>370</ele>
        <time>2016-01-23T09:00:32.450Z</time>
      </trkpt>
      <trkpt lat="43.71385" lon="5.8069">
        <ele>371</ele>
        <time>2016-01-23T09:00:33.425Z</time>
      </trkpt>
      <trkpt lat="43.71386" lon="5.80702">
        <ele>371</ele>
        <time>2016-01-23T09:00:38.686Z</time>
      </trkpt>
      <trkpt lat="43.71387" lon="5.80704">
        <ele>371</ele>
        <time>2016-01-23T09:00:39.426Z</time>
      </trkpt>
      <trkpt lat="43.71388" lon="5.80716">
        <ele>372</ele>
        <time>2016-01-23T09:00:44.451Z</time>
      </trkpt>
      <trkpt lat="43.71388" lon="5.80718">
        <ele>372</ele>
        <time>2016-01-23T09:00:45.426Z</time>
      </trkpt>
      <trkpt lat="43.7139" lon="5.8073">
        <ele>373</ele>
        <time>2016-01-23T09:00:50.457Z</time>
      </trkpt>
      <trkpt lat="43.71391" lon="5.80732">
        <ele>373</ele>
        <time>2016-01-23T09:00:51.429Z</time>
      </trkpt>
      <trkpt lat="43.71394" lon="5.80741">
        <ele>374</ele>
        <time>2016-01-23T09:00:56.452Z</time>
      </trkpt>
      <trkpt lat="43.71395" lon="5.80742">
        <ele>374</ele>
        <time>2016-01-23T09:00:57.427Z</time>
      </trkpt>
      <trkpt lat="43.71401" lon="5.8075">
        <ele>375</ele>
        <time>2016-01-23T09:01:02.449Z</time>
      </trkpt>
      <trkpt lat="43.71403" lon="5.80751">
        <ele>375</ele>
        <time>2016-01-23T09:01:03.438Z</time>
      </trkpt>
      <trkpt lat="43.7141" lon="5.80756">
        <ele>376</ele>
        <time>2016-01-23T09:01:08.451Z</time>
      </trkpt>
      <trkpt lat="43.71412" lon="5.80757">
        <ele>376</ele>
        <time>2016-01-23T09:01:09.428Z</time>
      </trkpt>
      <trkpt lat="43.71419" lon="5.80759">
        <ele>378</ele>
        <time>2016-01-23T09:01:13.459Z</time>
      </trkpt>
      <trkpt lat="43.71421" lon="5.8076">
        <ele>377</ele>
        <time>2016-01-23T09:01:14.426Z</time>
      </trkpt>
      <trkpt lat="43.71428" lon="5.80763">
        <ele>377</ele>
        <time>2016-01-23T09:01:18.450Z</time>
      </trkpt>
      <trkpt lat="43.7143" lon="5.80763">
        <ele>378</ele>
        <time>2016-01-23T09:01:19.427Z</time>
      </trkpt>
      <trkpt lat="43.71438" lon="5.80766">
        <ele>378</ele>
        <time>2016-01-23T09:01:23.448Z</time>
      </trkpt>
      <trkpt lat="43.71439" lon="5.80767">
        <ele>378</ele>
        <time>2016-01-23T09:01:24.426Z</time>
      </trkpt>
      <trkpt lat="43.71447" lon="5.80769">
        <ele>377</ele>
        <time>2016-01-23T09:01:28.449Z</time>
      </trkpt>
      <trkpt lat="43.71449" lon="5.80769">
        <ele>378</ele>
        <time>2016-01-23T09:01:29.429Z</time>
      </trkpt>
      <trkpt lat="43.71457" lon="5.80771">
        <ele>377</ele>
        <time>2016-01-23T09:01:33.449Z</time>
      </trkpt>
      <trkpt lat="43.71459" lon="5.80771">
        <ele>377</ele>
        <time>2016-01-23T09:01:34.426Z</time>
      </trkpt>
      <trkpt lat="43.71467" lon="5.80773">
        <ele>378</ele>
        <time>2016-01-23T09:01:38.528Z</time>
      </trkpt>
      <trkpt lat="43.71468" lon="5.80773">
        <ele>378</ele>
        <time>2016-01-23T09:01:39.428Z</time>
      </trkpt>
      <trkpt lat="43.71477" lon="5.80773">
        <ele>378</ele>
        <time>2016-01-23T09:01:44.450Z</time>
      </trkpt>
      <trkpt lat="43.71479" lon="5.80774">
        <ele>378</ele>
        <time>2016-01-23T09:01:45.427Z</time>
      </trkpt>
      <trkpt lat="43.71487" lon="5.80775">
        <ele>379</ele>
        <time>2016-01-23T09:01:50.455Z</time>
      </trkpt>
      <trkpt lat="43.71488" lon="5.80776">
        <ele>379</ele>
        <time>2016-01-23T09:01:51.426Z</time>
      </trkpt>
      <trkpt lat="43.71496" lon="5.80776">
        <ele>380</ele>
        <time>2016-01-23T09:01:56.462Z</time>
      </trkpt>
      <trkpt lat="43.71498" lon="5.80776">
        <ele>381</ele>
        <time>2016-01-23T09:01:57.428Z</time>
      </trkpt>
      <trkpt lat="43.71506" lon="5.80779">
        <ele>382</ele>
        <time>2016-01-23T09:02:02.448Z</time>
      </trkpt>
      <trkpt lat="43.71508" lon="5.80779">
        <ele>383</ele>
        <time>2016-01-23T09:02:03.426Z</time>
      </trkpt>
      <trkpt lat="43.71515" lon="5.80785">
        <ele>383</ele>
        <time>2016-01-23T09:02:08.450Z</time>
      </trkpt>
      <trkpt lat="43.71517" lon="5.80786">
        <ele>383</ele>
        <time>2016-01-23T09:02:09.427Z</time>
      </trkpt>
      <trkpt lat="43.71524" lon="5.80792">
        <ele>385</ele>
        <time>2016-01-23T09:02:14.462Z</time>
      </trkpt>
      <trkpt lat="43.71525" lon="5.80794">
        <ele>385</ele>
        <time>2016-01-23T09:02:15.464Z</time>
      </trkpt>
      <trkpt lat="43.71533" lon="5.80799">
        <ele>386</ele>
        <time>2016-01-23T09:02:20.462Z</time>
      </trkpt>
      <trkpt lat="43.71535" lon="5.80799">
        <ele>386</ele>
        <time>2016-01-23T09:02:21.429Z</time>
      </trkpt>
      <trkpt lat="43.71542" lon="5.80803">
        <ele>387</ele>
        <time>2016-01-23T09:02:26.476Z</time>
      </trkpt>
      <trkpt lat="43.71543" lon="5.80803">
        <ele>387</ele>
        <time>2016-01-23T09:02:27.427Z</time>
      </trkpt>
      <trkpt lat="43.71551" lon="5.80805">
        <ele>389</ele>
        <time>2016-01-23T09:02:33.453Z</time>
      </trkpt>
      <trkpt lat="43.71553" lon="5.80806">
        <ele>389</ele>
        <time>2016-01-23T09:02:34.428Z</time>
      </trkpt>
      <trkpt lat="43.71561" lon="5.80808">
        <ele>390</ele>
        <time>2016-01-23T09:02:40.450Z</time>
      </trkpt>
      <trkpt lat="43.71562" lon="5.80808">
        <ele>390</ele>
        <time>2016-01-23T09:02:41.427Z</time>
      </trkpt>
      <trkpt lat="43.7157" lon="5.8081">
        <ele>391</ele>
        <time>2016-01-23T09:02:47.452Z</time>
      </trkpt>
      <trkpt lat="43.71571" lon="5.80811">
        <ele>391</ele>
        <time>2016-01-23T09:02:48.427Z</time>
      </trkpt>
      <trkpt lat="43.7158" lon="5.80811">
        <ele>392</ele>
        <time>2016-01-23T09:02:55.450Z</time>
      </trkpt>
      <trkpt lat="43.71581" lon="5.80811">
        <ele>392</ele>
        <time>2016-01-23T09:02:56.428Z</time>
      </trkpt>
      <trkpt lat="43.7159" lon="5.80808">
        <ele>393</ele>
        <time>2016-01-23T09:03:03.451Z</time>
      </trkpt>
      <trkpt lat="43.71591" lon="5.80807">
        <ele>393</ele>
        <time>2016-01-23T09:03:04.440Z</time>
      </trkpt>
      <trkpt lat="43.71599" lon="5.80807">
        <ele>394</ele>
        <time>2016-01-23T09:03:11.450Z</time>
      </trkpt>
      <trkpt lat="43.71601" lon="5.80807">
        <ele>394</ele>
        <time>2016-01-23T09:03:12.428Z</time>
      </trkpt>
      <trkpt lat="43.71609" lon="5.80806">
        <ele>396</ele>
        <time>2016-01-23T09:03:18.451Z</time>
      </trkpt>
      <trkpt lat="43.7161" lon="5.80806">
        <ele>396</ele>
        <time>2016-01-23T09:03:19.427Z</time>
      </trkpt>
      <trkpt lat="43.71619" lon="5.80806">
        <ele>396</ele>
        <time>2016-01-23T09:03:25.494Z</time>
      </trkpt>
      <trkpt lat="43.71621" lon="5.80806">
        <ele>396</ele>
        <time>2016-01-23T09:03:26.426Z</time>
      </trkpt>
      <trkpt lat="43.71629" lon="5.80805">
        <ele>397</ele>
        <time>2016-01-23T09:03:32.450Z</time>
      </trkpt>
      <trkpt lat="43.71631" lon="5.80805">
        <ele>397</ele>
        <time>2016-01-23T09:03:33.427Z</time>
      </trkpt>
      <trkpt lat="43.71639" lon="5.80801">
        <ele>397</ele>
        <time>2016-01-23T09:03:39.453Z</time>
      </trkpt>
      <trkpt lat="43.71639" lon="5.80799">
        <ele>397</ele>
        <time>2016-01-23T09:03:40.426Z</time>
      </trkpt>
      <trkpt lat="43.71637" lon="5.80789">
        <ele>396</ele>
        <time>2016-01-23T09:03:46.464Z</time>
      </trkpt>
      <trkpt lat="43.71637" lon="5.80787">
        <ele>396</ele>
        <time>2016-01-23T09:03:47.453Z</time>
      </trkpt>
      <trkpt lat="43.71632" lon="5.80777">
        <ele>397</ele>
        <time>2016-01-23T09:03:53.452Z</time>
      </trkpt>
      <trkpt lat="43.71631" lon="5.80775">
        <ele>397</ele>
        <time>2016-01-23T09:03:54.427Z</time>
      </trkpt>
      <trkpt lat="43.71626" lon="5.80764">
        <ele>397</ele>
        <time>2016-01-23T09:03:59.449Z</time>
      </trkpt>
      <trkpt lat="43.71626" lon="5.80762">
        <ele>397</ele>
        <time>2016-01-23T09:04:00.426Z</time>
      </trkpt>
      <trkpt lat="43.71623" lon="5.80752">
        <ele>397</ele>
        <time>2016-01-23T09:04:04.451Z</time>
      </trkpt>
      <trkpt lat="43.71622" lon="5.80748">
        <ele>397</ele>
        <time>2016-01-23T09:04:05.440Z</time>
      </trkpt>
      <trkpt lat="43.71619" lon="5.80739">
        <ele>397</ele>
        <time>2016-01-23T09:04:08.449Z</time>
      </trkpt>
      <trkpt lat="43.71618" lon="5.80735">
        <ele>397</ele>
        <time>2016-01-23T09:04:09.450Z</time>
      </trkpt>
      <trkpt lat="43.71614" lon="5.80726">
        <ele>397</ele>
        <time>2016-01-23T09:04:12.452Z</time>
      </trkpt>
      <trkpt lat="43.71613" lon="5.80722">
        <ele>397</ele>
        <time>2016-01-23T09:04:13.428Z</time>
      </trkpt>
      <trkpt lat="43.71608" lon="5.80712">
        <ele>396</ele>
        <time>2016-01-23T09:04:16.451Z</time>
      </trkpt>
      <trkpt lat="43.71607" lon="5.80709">
        <ele>396</ele>
        <time>2016-01-23T09:04:17.428Z</time>
      </trkpt>
      <trkpt lat="43.71603" lon="5.807">
        <ele>396</ele>
        <time>2016-01-23T09:04:20.475Z</time>
      </trkpt>
      <trkpt lat="43.71602" lon="5.80696">
        <ele>396</ele>
        <time>2016-01-23T09:04:21.428Z</time>
      </trkpt>
      <trkpt lat="43.71598" lon="5.80685">
        <ele>395</ele>
        <time>2016-01-23T09:04:24.463Z</time>
      </trkpt>
      <trkpt lat="43.71597" lon="5.80682">
        <ele>395</ele>
        <time>2016-01-23T09:04:25.428Z</time>
      </trkpt>
      <trkpt lat="43.71595" lon="5.80674">
        <ele>396</ele>
        <time>2016-01-23T09:04:27.451Z</time>
      </trkpt>
      <trkpt lat="43.71594" lon="5.8067">
        <ele>396</ele>
        <time>2016-01-23T09:04:28.427Z</time>
      </trkpt>
      <trkpt lat="43.71591" lon="5.80658">
        <ele>395</ele>
        <time>2016-01-23T09:04:31.476Z</time>
      </trkpt>
      <trkpt lat="43.7159" lon="5.80654">
        <ele>396</ele>
        <time>2016-01-23T09:04:32.429Z</time>
      </trkpt>
      <trkpt lat="43.71587" lon="5.80643">
        <ele>396</ele>
        <time>2016-01-23T09:04:35.451Z</time>
      </trkpt>
      <trkpt lat="43.71586" lon="5.8064">
        <ele>396</ele>
        <time>2016-01-23T09:04:36.428Z</time>
      </trkpt>
      <trkpt lat="43.71583" lon="5.80629">
        <ele>396</ele>
        <time>2016-01-23T09:04:39.450Z</time>
      </trkpt>
      <trkpt lat="43.71582" lon="5.80625">
        <ele>396</ele>
        <time>2016-01-23T09:04:40.428Z</time>
      </trkpt>
      <trkpt lat="43.7158" lon="5.80615">
        <ele>397</ele>
        <time>2016-01-23T09:04:43.463Z</time>
      </trkpt>
      <trkpt lat="43.71579" lon="5.80611">
        <ele>397</ele>
        <time>2016-01-23T09:04:44.429Z</time>
      </trkpt>
      <trkpt lat="43.71576" lon="5.806">
        <ele>397</ele>
        <time>2016-01-23T09:04:47.451Z</time>
      </trkpt>
      <trkpt lat="43.71575" lon="5.80596">
        <ele>397</ele>
        <time>2016-01-23T09:04:48.426Z</time>
      </trkpt>
      <trkpt lat="43.71573" lon="5.80586">
        <ele>398</ele>
        <time>2016-01-23T09:04:51.448Z</time>
      </trkpt>
      <trkpt lat="43.71573" lon="5.80582">
        <ele>398</ele>
        <time>2016-01-23T09:04:52.427Z</time>
      </trkpt>
      <trkpt lat="43.71571" lon="5.80571">
        <ele>399</ele>
        <time>2016-01-23T09:04:55.451Z</time>
      </trkpt>
      <trkpt lat="43.7157" lon="5.80567">
        <ele>399</ele>
        <time>2016-01-23T09:04:56.428Z</time>
      </trkpt>
      <trkpt lat="43.71567" lon="5.80556">
        <ele>399</ele>
        <time>2016-01-23T09:04:59.452Z</time>
      </trkpt>
      <trkpt lat="43.71566" lon="5.80552">
        <ele>399</ele>
        <time>2016-01-23T09:05:00.436Z</time>
      </trkpt>
      <trkpt lat="43.71563" lon="5.80542">
        <ele>398</ele>
        <time>2016-01-23T09:05:02.451Z</time>
      </trkpt>
      <trkpt lat="43.71561" lon="5.80536">
        <ele>397</ele>
        <time>2016-01-23T09:05:03.429Z</time>
      </trkpt>
      <trkpt lat="43.71559" lon="5.80527">
        <ele>397</ele>
        <time>2016-01-23T09:05:04.451Z</time>
      </trkpt>
      <trkpt lat="43.71557" lon="5.80521">
        <ele>397</ele>
        <time>2016-01-23T09:05:05.428Z</time>
      </trkpt>
      <trkpt lat="43.71555" lon="5.80514">
        <ele>396</ele>
        <time>2016-01-23T09:05:06.452Z</time>
      </trkpt>
      <trkpt lat="43.71554" lon="5.80509">
        <ele>396</ele>
        <time>2016-01-23T09:05:07.430Z</time>
      </trkpt>
      <trkpt lat="43.71552" lon="5.80504">
        <ele>395</ele>
        <time>2016-01-23T09:05:08.451Z</time>
      </trkpt>
      <trkpt lat="43.7155" lon="5.80497">
        <ele>395</ele>
        <time>2016-01-23T09:05:09.466Z</time>
      </trkpt>
      <trkpt lat="43.71548" lon="5.80492">
        <ele>394</ele>
        <time>2016-01-23T09:05:10.463Z</time>
      </trkpt>
      <trkpt lat="43.71545" lon="5.80485">
        <ele>393</ele>
        <time>2016-01-23T09:05:11.426Z</time>
      </trkpt>
      <trkpt lat="43.7154" lon="5.80477">
        <ele>392</ele>
        <time>2016-01-23T09:05:12.459Z</time>
      </trkpt>
      <trkpt lat="43.71536" lon="5.80471">
        <ele>391</ele>
        <time>2016-01-23T09:05:13.429Z</time>
      </trkpt>
      <trkpt lat="43.71531" lon="5.80463">
        <ele>390</ele>
        <time>2016-01-23T09:05:14.450Z</time>
      </trkpt>
      <trkpt lat="43.71527" lon="5.80455">
        <ele>391</ele>
        <time>2016-01-23T09:05:15.439Z</time>
      </trkpt>
      <trkpt lat="43.71524" lon="5.80447">
        <ele>390</ele>
        <time>2016-01-23T09:05:16.450Z</time>
      </trkpt>
      <trkpt lat="43.71524" lon="5.80436">
        <ele>391</ele>
        <time>2016-01-23T09:05:17.436Z</time>
      </trkpt>
      <trkpt lat="43.71526" lon="5.80428">
        <ele>391</ele>
        <time>2016-01-23T09:05:18.451Z</time>
      </trkpt>
      <trkpt lat="43.71527" lon="5.8042">
        <ele>391</ele>
        <time>2016-01-23T09:05:19.428Z</time>
      </trkpt>
      <trkpt lat="43.71529" lon="5.80414">
        <ele>392</ele>
        <time>2016-01-23T09:05:20.493Z</time>
      </trkpt>
      <trkpt lat="43.7153" lon="5.80407">
        <ele>392</ele>
        <time>2016-01-23T09:05:21.428Z</time>
      </trkpt>
      <trkpt lat="43.71532" lon="5.804">
        <ele>393</ele>
        <time>2016-01-23T09:05:22.443Z</time>
      </trkpt>
      <trkpt lat="43.71533" lon="5.80394">
        <ele>393</ele>
        <time>2016-01-23T09:05:23.439Z</time>
      </trkpt>
      <trkpt lat="43.71535" lon="5.80385">
        <ele>393</ele>
        <time>2016-01-23T09:05:25.451Z</time>
      </trkpt>
      <trkpt lat="43.71536" lon="5.80382">
        <ele>393</ele>
        <time>2016-01-23T09:05:26.427Z</time>
      </trkpt>
      <trkpt lat="43.7154" lon="5.80373">
        <ele>393</ele>
        <time>2016-01-23T09:05:29.452Z</time>
      </trkpt>
      <trkpt lat="43.71542" lon="5.80369">
        <ele>393</ele>
        <time>2016-01-23T09:05:30.429Z</time>
      </trkpt>
      <trkpt lat="43.71547" lon="5.80359">
        <ele>393</ele>
        <time>2016-01-23T09:05:33.452Z</time>
      </trkpt>
      <trkpt lat="43.71548" lon="5.80356">
        <ele>394</ele>
        <time>2016-01-23T09:05:34.429Z</time>
      </trkpt>
      <trkpt lat="43.7155" lon="5.80347">
        <ele>393</ele>
        <time>2016-01-23T09:05:36.455Z</time>
      </trkpt>
      <trkpt lat="43.71551" lon="5.80343">
        <ele>394</ele>
        <time>2016-01-23T09:05:37.430Z</time>
      </trkpt>
      <trkpt lat="43.71551" lon="5.80334">
        <ele>394</ele>
        <time>2016-01-23T09:05:39.463Z</time>
      </trkpt>
      <trkpt lat="43.71551" lon="5.80329">
        <ele>394</ele>
        <time>2016-01-23T09:05:40.429Z</time>
      </trkpt>
      <trkpt lat="43.71551" lon="5.8032">
        <ele>394</ele>
        <time>2016-01-23T09:05:42.491Z</time>
      </trkpt>
      <trkpt lat="43.71551" lon="5.80316">
        <ele>394</ele>
        <time>2016-01-23T09:05:43.429Z</time>
      </trkpt>
      <trkpt lat="43.71551" lon="5.80307">
        <ele>395</ele>
        <time>2016-01-23T09:05:45.463Z</time>
      </trkpt>
      <trkpt lat="43.71551" lon="5.80303">
        <ele>395</ele>
        <time>2016-01-23T09:05:46.428Z</time>
      </trkpt>
      <trkpt lat="43.71553" lon="5.80295">
        <ele>394</ele>
        <time>2016-01-23T09:05:48.449Z</time>
      </trkpt>
      <trkpt lat="43.71554" lon="5.8029">
        <ele>394</ele>
        <time>2016-01-23T09:05:49.428Z</time>
      </trkpt>
      <trkpt lat="43.71556" lon="5.80282">
        <ele>395</ele>
        <time>2016-01-23T09:05:51.453Z</time>
      </trkpt>
      <trkpt lat="43.71557" lon="5.80277">
        <ele>395</ele>
        <time>2016-01-23T09:05:52.431Z</time>
      </trkpt>
      <trkpt lat="43.71559" lon="5.80269">
        <ele>395</ele>
        <time>2016-01-23T09:05:54.441Z</time>
      </trkpt>
      <trkpt lat="43.7156" lon="5.80264">
        <ele>395</ele>
        <time>2016-01-23T09:05:55.428Z</time>
      </trkpt>
      <trkpt lat="43.71562" lon="5.80255">
        <ele>395</ele>
        <time>2016-01-23T09:05:57.450Z</time>
      </trkpt>
      <trkpt lat="43.71562" lon="5.8025">
        <ele>395</ele>
        <time>2016-01-23T09:05:58.426Z</time>
      </trkpt>
      <trkpt lat="43.71563" lon="5.80241">
        <ele>396</ele>
        <time>2016-01-23T09:06:00.451Z</time>
      </trkpt>
      <trkpt lat="43.71564" lon="5.80237">
        <ele>396</ele>
        <time>2016-01-23T09:06:01.428Z</time>
      </trkpt>
      <trkpt lat="43.71565" lon="5.80227">
        <ele>396</ele>
        <time>2016-01-23T09:06:03.451Z</time>
      </trkpt>
      <trkpt lat="43.71565" lon="5.80223">
        <ele>396</ele>
        <time>2016-01-23T09:06:04.464Z</time>
      </trkpt>
      <trkpt lat="43.71564" lon="5.80214">
        <ele>396</ele>
        <time>2016-01-23T09:06:06.450Z</time>
      </trkpt>
      <trkpt lat="43.71564" lon="5.8021">
        <ele>397</ele>
        <time>2016-01-23T09:06:07.431Z</time>
      </trkpt>
      <trkpt lat="43.71563" lon="5.80199">
        <ele>397</ele>
        <time>2016-01-23T09:06:09.450Z</time>
      </trkpt>
      <trkpt lat="43.71563" lon="5.80193">
        <ele>397</ele>
        <time>2016-01-23T09:06:10.448Z</time>
      </trkpt>
      <trkpt lat="43.71563" lon="5.80183">
        <ele>397</ele>
        <time>2016-01-23T09:06:12.469Z</time>
      </trkpt>
      <trkpt lat="43.71563" lon="5.80178">
        <ele>397</ele>
        <time>2016-01-23T09:06:13.428Z</time>
      </trkpt>
      <trkpt lat="43.71565" lon="5.80169">
        <ele>397</ele>
        <time>2016-01-23T09:06:15.476Z</time>
      </trkpt>
      <trkpt lat="43.71567" lon="5.80164">
        <ele>397</ele>
        <time>2016-01-23T09:06:16.428Z</time>
      </trkpt>
      <trkpt lat="43.7157" lon="5.80156">
        <ele>397</ele>
        <time>2016-01-23T09:06:18.451Z</time>
      </trkpt>
      <trkpt lat="43.71571" lon="5.80151">
        <ele>397</ele>
        <time>2016-01-23T09:06:19.428Z</time>
      </trkpt>
      <trkpt lat="43.71574" lon="5.80142">
        <ele>397</ele>
        <time>2016-01-23T09:06:21.452Z</time>
      </trkpt>
      <trkpt lat="43.71575" lon="5.80138">
        <ele>397</ele>
        <time>2016-01-23T09:06:22.430Z</time>
      </trkpt>
      <trkpt lat="43.71579" lon="5.80128">
        <ele>397</ele>
        <time>2016-01-23T09:06:24.452Z</time>
      </trkpt>
      <trkpt lat="43.71579" lon="5.80123">
        <ele>397</ele>
        <time>2016-01-23T09:06:25.432Z</time>
      </trkpt>
      <trkpt lat="43.71579" lon="5.80113">
        <ele>397</ele>
        <time>2016-01-23T09:06:27.453Z</time>
      </trkpt>
      <trkpt lat="43.71579" lon="5.80107">
        <ele>397</ele>
        <time>2016-01-23T09:06:28.428Z</time>
      </trkpt>
      <trkpt lat="43.71579" lon="5.80097">
        <ele>397</ele>
        <time>2016-01-23T09:06:30.451Z</time>
      </trkpt>
      <trkpt lat="43.71579" lon="5.80091">
        <ele>397</ele>
        <time>2016-01-23T09:06:31.428Z</time>
      </trkpt>
      <trkpt lat="43.71579" lon="5.8008">
        <ele>398</ele>
        <time>2016-01-23T09:06:33.451Z</time>
      </trkpt>
      <trkpt lat="43.71579" lon="5.80074">
        <ele>398</ele>
        <time>2016-01-23T09:06:34.440Z</time>
      </trkpt>
      <trkpt lat="43.71579" lon="5.80063">
        <ele>398</ele>
        <time>2016-01-23T09:06:36.440Z</time>
      </trkpt>
      <trkpt lat="43.7158" lon="5.80057">
        <ele>398</ele>
        <time>2016-01-23T09:06:37.437Z</time>
      </trkpt>
      <trkpt lat="43.7158" lon="5.80045">
        <ele>398</ele>
        <time>2016-01-23T09:06:39.464Z</time>
      </trkpt>
      <trkpt lat="43.7158" lon="5.80039">
        <ele>397</ele>
        <time>2016-01-23T09:06:40.428Z</time>
      </trkpt>
      <trkpt lat="43.7158" lon="5.80028">
        <ele>397</ele>
        <time>2016-01-23T09:06:42.476Z</time>
      </trkpt>
      <trkpt lat="43.7158" lon="5.80023">
        <ele>397</ele>
        <time>2016-01-23T09:06:43.427Z</time>
      </trkpt>
      <trkpt lat="43.7158" lon="5.80015">
        <ele>396</ele>
        <time>2016-01-23T09:06:44.451Z</time>
      </trkpt>
      <trkpt lat="43.7158" lon="5.80008">
        <ele>396</ele>
        <time>2016-01-23T09:06:45.428Z</time>
      </trkpt>
      <trkpt lat="43.7158" lon="5.80002">
        <ele>396</ele>
        <time>2016-01-23T09:06:46.451Z</time>
      </trkpt>
      <trkpt lat="43.71581" lon="5.79996">
        <ele>396</ele>
        <time>2016-01-23T09:06:47.429Z</time>
      </trkpt>
      <trkpt lat="43.71581" lon="5.79989">
        <ele>395</ele>
        <time>2016-01-23T09:06:48.451Z</time>
      </trkpt>
      <trkpt lat="43.71581" lon="5.79982">
        <ele>395</ele>
        <time>2016-01-23T09:06:49.429Z</time>
      </trkpt>
      <trkpt lat="43.71581" lon="5.79975">
        <ele>395</ele>
        <time>2016-01-23T09:06:50.457Z</time>
      </trkpt>
      <trkpt lat="43.7158" lon="5.79969">
        <ele>395</ele>
        <time>2016-01-23T09:06:51.441Z</time>
      </trkpt>
      <trkpt lat="43.71579" lon="5.79957">
        <ele>395</ele>
        <time>2016-01-23T09:06:53.481Z</time>
      </trkpt>
      <trkpt lat="43.71579" lon="5.79953">
        <ele>395</ele>
        <time>2016-01-23T09:06:54.640Z</time>
      </trkpt>
      <trkpt lat="43.71578" lon="5.79941">
        <ele>395</ele>
        <time>2016-01-23T09:06:56.451Z</time>
      </trkpt>
      <trkpt lat="43.71578" lon="5.79936">
        <ele>395</ele>
        <time>2016-01-23T09:06:57.430Z</time>
      </trkpt>
      <trkpt lat="43.71577" lon="5.79924">
        <ele>395</ele>
        <time>2016-01-23T09:06:59.454Z</time>
      </trkpt>
      <trkpt lat="43.71577" lon="5.79917">
        <ele>395</ele>
        <time>2016-01-23T09:07:00.428Z</time>
      </trkpt>
      <trkpt lat="43.71576" lon="5.7991">
        <ele>395</ele>
        <time>2016-01-23T09:07:01.452Z</time>
      </trkpt>
      <trkpt lat="43.71576" lon="5.79904">
        <ele>394</ele>
        <time>2016-01-23T09:07:02.441Z</time>
      </trkpt>
      <trkpt lat="43.71575" lon="5.79897">
        <ele>394</ele>
        <time>2016-01-23T09:07:03.451Z</time>
      </trkpt>
      <trkpt lat="43.71575" lon="5.7989">
        <ele>394</ele>
        <time>2016-01-23T09:07:04.453Z</time>
      </trkpt>
      <trkpt lat="43.71575" lon="5.79883">
        <ele>394</ele>
        <time>2016-01-23T09:07:05.682Z</time>
      </trkpt>
      <trkpt lat="43.71574" lon="5.79875">
        <ele>394</ele>
        <time>2016-01-23T09:07:06.428Z</time>
      </trkpt>
      <trkpt lat="43.71574" lon="5.79869">
        <ele>393</ele>
        <time>2016-01-23T09:07:07.441Z</time>
      </trkpt>
      <trkpt lat="43.71574" lon="5.79863">
        <ele>393</ele>
        <time>2016-01-23T09:07:08.440Z</time>
      </trkpt>
      <trkpt lat="43.71573" lon="5.79855">
        <ele>393</ele>
        <time>2016-01-23T09:07:09.453Z</time>
      </trkpt>
      <trkpt lat="43.71573" lon="5.79848">
        <ele>393</ele>
        <time>2016-01-23T09:07:10.429Z</time>
      </trkpt>
      <trkpt lat="43.71574" lon="5.79842">
        <ele>393</ele>
        <time>2016-01-23T09:07:11.451Z</time>
      </trkpt>
      <trkpt lat="43.71575" lon="5.79836">
        <ele>393</ele>
        <time>2016-01-23T09:07:12.428Z</time>
      </trkpt>
      <trkpt lat="43.71575" lon="5.79829">
        <ele>393</ele>
        <time>2016-01-23T09:07:13.450Z</time>
      </trkpt>
      <trkpt lat="43.71575" lon="5.79822">
        <ele>393</ele>
        <time>2016-01-23T09:07:14.427Z</time>
      </trkpt>
      <trkpt lat="43.71577" lon="5.7981">
        <ele>393</ele>
        <time>2016-01-23T09:07:16.450Z</time>
      </trkpt>
      <trkpt lat="43.71578" lon="5.79804">
        <ele>394</ele>
        <time>2016-01-23T09:07:17.428Z</time>
      </trkpt>
      <trkpt lat="43.7158" lon="5.79792">
        <ele>394</ele>
        <time>2016-01-23T09:07:19.453Z</time>
      </trkpt>
      <trkpt lat="43.71581" lon="5.79787">
        <ele>394</ele>
        <time>2016-01-23T09:07:20.428Z</time>
      </trkpt>
      <trkpt lat="43.71583" lon="5.79778">
        <ele>393</ele>
        <time>2016-01-23T09:07:22.453Z</time>
      </trkpt>
      <trkpt lat="43.71583" lon="5.79774">
        <ele>393</ele>
        <time>2016-01-23T09:07:23.430Z</time>
      </trkpt>
      <trkpt lat="43.71582" lon="5.79765">
        <ele>393</ele>
        <time>2016-01-23T09:07:25.464Z</time>
      </trkpt>
      <trkpt lat="43.7158" lon="5.79761">
        <ele>394</ele>
        <time>2016-01-23T09:07:26.454Z</time>
      </trkpt>
      <trkpt lat="43.71575" lon="5.79752">
        <ele>394</ele>
        <time>2016-01-23T09:07:28.454Z</time>
      </trkpt>
      <trkpt lat="43.71573" lon="5.79748">
        <ele>394</ele>
        <time>2016-01-23T09:07:29.431Z</time>
      </trkpt>
      <trkpt lat="43.71569" lon="5.79739">
        <ele>395</ele>
        <time>2016-01-23T09:07:31.454Z</time>
      </trkpt>
      <trkpt lat="43.71567" lon="5.79734">
        <ele>395</ele>
        <time>2016-01-23T09:07:32.428Z</time>
      </trkpt>
      <trkpt lat="43.71565" lon="5.79723">
        <ele>395</ele>
        <time>2016-01-23T09:07:34.453Z</time>
      </trkpt>
      <trkpt lat="43.71564" lon="5.79718">
        <ele>395</ele>
        <time>2016-01-23T09:07:35.442Z</time>
      </trkpt>
      <trkpt lat="43.71561" lon="5.79707">
        <ele>394</ele>
        <time>2016-01-23T09:07:37.477Z</time>
      </trkpt>
      <trkpt lat="43.71558" lon="5.79701">
        <ele>393</ele>
        <time>2016-01-23T09:07:38.428Z</time>
      </trkpt>
      <trkpt lat="43.71555" lon="5.79694">
        <ele>393</ele>
        <time>2016-01-23T09:07:39.453Z</time>
      </trkpt>
      <trkpt lat="43.71552" lon="5.79688">
        <ele>393</ele>
        <time>2016-01-23T09:07:40.431Z</time>
      </trkpt>
      <trkpt lat="43.7155" lon="5.79682">
        <ele>393</ele>
        <time>2016-01-23T09:07:41.452Z</time>
      </trkpt>
      <trkpt lat="43.71549" lon="5.79676">
        <ele>393</ele>
        <time>2016-01-23T09:07:42.428Z</time>
      </trkpt>
      <trkpt lat="43.71548" lon="5.79669">
        <ele>392</ele>
        <time>2016-01-23T09:07:43.451Z</time>
      </trkpt>
      <trkpt lat="43.71548" lon="5.79662">
        <ele>393</ele>
        <time>2016-01-23T09:07:44.428Z</time>
      </trkpt>
      <trkpt lat="43.71549" lon="5.79651">
        <ele>392</ele>
        <time>2016-01-23T09:07:46.451Z</time>
      </trkpt>
      <trkpt lat="43.71549" lon="5.79645">
        <ele>392</ele>
        <time>2016-01-23T09:07:47.439Z</time>
      </trkpt>
      <trkpt lat="43.71548" lon="5.79634">
        <ele>393</ele>
        <time>2016-01-23T09:07:49.453Z</time>
      </trkpt>
      <trkpt lat="43.71548" lon="5.7963">
        <ele>393</ele>
        <time>2016-01-23T09:07:50.429Z</time>
      </trkpt>
      <trkpt lat="43.7155" lon="5.79621">
        <ele>394</ele>
        <time>2016-01-23T09:07:53.452Z</time>
      </trkpt>
      <trkpt lat="43.71552" lon="5.79619">
        <ele>394</ele>
        <time>2016-01-23T09:07:54.428Z</time>
      </trkpt>
      <trkpt lat="43.7156" lon="5.79613">
        <ele>392</ele>
        <time>2016-01-23T09:07:57.451Z</time>
      </trkpt>
      <trkpt lat="43.71563" lon="5.79609">
        <ele>392</ele>
        <time>2016-01-23T09:07:58.429Z</time>
      </trkpt>
      <trkpt lat="43.71568" lon="5.796">
        <ele>392</ele>
        <time>2016-01-23T09:08:00.452Z</time>
      </trkpt>
      <trkpt lat="43.71569" lon="5.79596">
        <ele>392</ele>
        <time>2016-01-23T09:08:01.430Z</time>
      </trkpt>
      <trkpt lat="43.71573" lon="5.79587">
        <ele>392</ele>
        <time>2016-01-23T09:08:03.506Z</time>
      </trkpt>
      <trkpt lat="43.71575" lon="5.79582">
        <ele>392</ele>
        <time>2016-01-23T09:08:04.452Z</time>
      </trkpt>
      <trkpt lat="43.71577" lon="5.79572">
        <ele>392</ele>
        <time>2016-01-23T09:08:06.452Z</time>
      </trkpt>
      <trkpt lat="43.71578" lon="5.79567">
        <ele>392</ele>
        <time>2016-01-23T09:08:07.428Z</time>
      </trkpt>
      <trkpt lat="43.7158" lon="5.79558">
        <ele>392</ele>
        <time>2016-01-23T09:08:09.445Z</time>
      </trkpt>
      <trkpt lat="43.71581" lon="5.79552">
        <ele>391</ele>
        <time>2016-01-23T09:08:10.432Z</time>
      </trkpt>
      <trkpt lat="43.71581" lon="5.79542">
        <ele>391</ele>
        <time>2016-01-23T09:08:12.496Z</time>
      </trkpt>
      <trkpt lat="43.71582" lon="5.79537">
        <ele>391</ele>
        <time>2016-01-23T09:08:13.429Z</time>
      </trkpt>
      <trkpt lat="43.71582" lon="5.79527">
        <ele>391</ele>
        <time>2016-01-23T09:08:15.469Z</time>
      </trkpt>
      <trkpt lat="43.71582" lon="5.79521">
        <ele>390</ele>
        <time>2016-01-23T09:08:16.429Z</time>
      </trkpt>
      <trkpt lat="43.71582" lon="5.79511">
        <ele>391</ele>
        <time>2016-01-23T09:08:18.451Z</time>
      </trkpt>
      <trkpt lat="43.71582" lon="5.79506">
        <ele>391</ele>
        <time>2016-01-23T09:08:19.430Z</time>
      </trkpt>
      <trkpt lat="43.71583" lon="5.79495">
        <ele>391</ele>
        <time>2016-01-23T09:08:21.450Z</time>
      </trkpt>
      <trkpt lat="43.71583" lon="5.7949">
        <ele>391</ele>
        <time>2016-01-23T09:08:22.429Z</time>
      </trkpt>
      <trkpt lat="43.71583" lon="5.7948">
        <ele>391</ele>
        <time>2016-01-23T09:08:24.452Z</time>
      </trkpt>
      <trkpt lat="43.71584" lon="5.79477">
        <ele>391</ele>
        <time>2016-01-23T09:08:25.429Z</time>
      </trkpt>
      <trkpt lat="43.71583" lon="5.79465">
        <ele>391</ele>
        <time>2016-01-23T09:08:28.449Z</time>
      </trkpt>
      <trkpt lat="43.71582" lon="5.79461">
        <ele>390</ele>
        <time>2016-01-23T09:08:29.430Z</time>
      </trkpt>
      <trkpt lat="43.71575" lon="5.79455">
        <ele>391</ele>
        <time>2016-01-23T09:08:32.451Z</time>
      </trkpt>
      <trkpt lat="43.71572" lon="5.79455">
        <ele>391</ele>
        <time>2016-01-23T09:08:33.428Z</time>
      </trkpt>
      <trkpt lat="43.71565" lon="5.79457">
        <ele>391</ele>
        <time>2016-01-23T09:08:36.451Z</time>
      </trkpt>
      <trkpt lat="43.71562" lon="5.79458">
        <ele>391</ele>
        <time>2016-01-23T09:08:37.452Z</time>
      </trkpt>
      <trkpt lat="43.71555" lon="5.79459">
        <ele>391</ele>
        <time>2016-01-23T09:08:40.455Z</time>
      </trkpt>
      <trkpt lat="43.71553" lon="5.7946">
        <ele>391</ele>
        <time>2016-01-23T09:08:41.429Z</time>
      </trkpt>
      <trkpt lat="43.71544" lon="5.79458">
        <ele>390</ele>
        <time>2016-01-23T09:10:28.448Z</time>
      </trkpt>
      <trkpt lat="43.71543" lon="5.79456">
        <ele>390</ele>
        <time>2016-01-23T09:10:29.430Z</time>
      </trkpt>
      <trkpt lat="43.71539" lon="5.79448">
        <ele>389</ele>
        <time>2016-01-23T09:10:32.453Z</time>
      </trkpt>
      <trkpt lat="43.71538" lon="5.79444">
        <ele>390</ele>
        <time>2016-01-23T09:10:33.430Z</time>
      </trkpt>
      <trkpt lat="43.71536" lon="5.79435">
        <ele>389</ele>
        <time>2016-01-23T09:10:35.454Z</time>
      </trkpt>
      <trkpt lat="43.71535" lon="5.79431">
        <ele>389</ele>
        <time>2016-01-23T09:10:36.430Z</time>
      </trkpt>
      <trkpt lat="43.71533" lon="5.79422">
        <ele>388</ele>
        <time>2016-01-23T09:10:38.452Z</time>
      </trkpt>
      <trkpt lat="43.71532" lon="5.79415">
        <ele>387</ele>
        <time>2016-01-23T09:10:39.430Z</time>
      </trkpt>
      <trkpt lat="43.71532" lon="5.79405">
        <ele>386</ele>
        <time>2016-01-23T09:10:40.452Z</time>
      </trkpt>
      <trkpt lat="43.71531" lon="5.794">
        <ele>385</ele>
        <time>2016-01-23T09:10:41.429Z</time>
      </trkpt>
      <trkpt lat="43.71534" lon="5.7939">
        <ele>384</ele>
        <time>2016-01-23T09:10:43.453Z</time>
      </trkpt>
      <trkpt lat="43.71535" lon="5.79384">
        <ele>383</ele>
        <time>2016-01-23T09:10:44.430Z</time>
      </trkpt>
      <trkpt lat="43.71538" lon="5.79374">
        <ele>382</ele>
        <time>2016-01-23T09:10:46.453Z</time>
      </trkpt>
      <trkpt lat="43.71541" lon="5.79369">
        <ele>381</ele>
        <time>2016-01-23T09:10:47.429Z</time>
      </trkpt>
      <trkpt lat="43.71544" lon="5.79363">
        <ele>381</ele>
        <time>2016-01-23T09:10:48.453Z</time>
      </trkpt>
      <trkpt lat="43.71548" lon="5.79358">
        <ele>380</ele>
        <time>2016-01-23T09:10:49.428Z</time>
      </trkpt>
      <trkpt lat="43.71551" lon="5.79352">
        <ele>380</ele>
        <time>2016-01-23T09:10:50.547Z</time>
      </trkpt>
      <trkpt lat="43.71553" lon="5.79345">
        <ele>379</ele>
        <time>2016-01-23T09:10:51.430Z</time>
      </trkpt>
      <trkpt lat="43.71554" lon="5.79337">
        <ele>378</ele>
        <time>2016-01-23T09:10:52.453Z</time>
      </trkpt>
      <trkpt lat="43.71554" lon="5.7933">
        <ele>378</ele>
        <time>2016-01-23T09:10:53.453Z</time>
      </trkpt>
      <trkpt lat="43.71552" lon="5.7932">
        <ele>377</ele>
        <time>2016-01-23T09:10:55.465Z</time>
      </trkpt>
      <trkpt lat="43.71552" lon="5.79314">
        <ele>377</ele>
        <time>2016-01-23T09:10:56.429Z</time>
      </trkpt>
      <trkpt lat="43.71551" lon="5.79303">
        <ele>378</ele>
        <time>2016-01-23T09:10:58.458Z</time>
      </trkpt>
      <trkpt lat="43.7155" lon="5.79298">
        <ele>378</ele>
        <time>2016-01-23T09:10:59.430Z</time>
      </trkpt>
      <trkpt lat="43.71553" lon="5.79286">
        <ele>378</ele>
        <time>2016-01-23T09:11:01.453Z</time>
      </trkpt>
      <trkpt lat="43.71554" lon="5.79281">
        <ele>378</ele>
        <time>2016-01-23T09:11:02.431Z</time>
      </trkpt>
      <trkpt lat="43.71554" lon="5.79269">
        <ele>377</ele>
        <time>2016-01-23T09:11:04.476Z</time>
      </trkpt>
      <trkpt lat="43.71553" lon="5.79264">
        <ele>378</ele>
        <time>2016-01-23T09:11:05.430Z</time>
      </trkpt>
      <trkpt lat="43.71552" lon="5.79253">
        <ele>376</ele>
        <time>2016-01-23T09:11:07.453Z</time>
      </trkpt>
      <trkpt lat="43.71552" lon="5.79248">
        <ele>375</ele>
        <time>2016-01-23T09:11:08.428Z</time>
      </trkpt>
      <trkpt lat="43.71554" lon="5.79237">
        <ele>373</ele>
        <time>2016-01-23T09:11:10.453Z</time>
      </trkpt>
      <trkpt lat="43.71557" lon="5.79233">
        <ele>373</ele>
        <time>2016-01-23T09:11:11.431Z</time>
      </trkpt>
      <trkpt lat="43.71563" lon="5.79227">
        <ele>372</ele>
        <time>2016-01-23T09:11:13.457Z</time>
      </trkpt>
      <trkpt lat="43.71566" lon="5.79222">
        <ele>372</ele>
        <time>2016-01-23T09:11:14.434Z</time>
      </trkpt>
      <trkpt lat="43.71568" lon="5.79214">
        <ele>371</ele>
        <time>2016-01-23T09:11:15.478Z</time>
      </trkpt>
      <trkpt lat="43.71571" lon="5.79208">
        <ele>372</ele>
        <time>2016-01-23T09:11:16.430Z</time>
      </trkpt>
      <trkpt lat="43.71574" lon="5.79199">
        <ele>372</ele>
        <time>2016-01-23T09:11:18.463Z</time>
      </trkpt>
      <trkpt lat="43.71576" lon="5.79196">
        <ele>372</ele>
        <time>2016-01-23T09:11:19.431Z</time>
      </trkpt>
      <trkpt lat="43.71581" lon="5.79189">
        <ele>372</ele>
        <time>2016-01-23T09:11:21.452Z</time>
      </trkpt>
      <trkpt lat="43.71584" lon="5.79185">
        <ele>372</ele>
        <time>2016-01-23T09:11:22.430Z</time>
      </trkpt>
      <trkpt lat="43.71588" lon="5.79179">
        <ele>372</ele>
        <time>2016-01-23T09:11:24.454Z</time>
      </trkpt>
      <trkpt lat="43.7159" lon="5.79175">
        <ele>372</ele>
        <time>2016-01-23T09:11:25.430Z</time>
      </trkpt>
      <trkpt lat="43.71593" lon="5.79167">
        <ele>372</ele>
        <time>2016-01-23T09:11:27.453Z</time>
      </trkpt>
      <trkpt lat="43.71595" lon="5.79163">
        <ele>372</ele>
        <time>2016-01-23T09:11:28.428Z</time>
      </trkpt>
      <trkpt lat="43.71599" lon="5.79155">
        <ele>372</ele>
        <time>2016-01-23T09:11:30.454Z</time>
      </trkpt>
      <trkpt lat="43.71601" lon="5.79151">
        <ele>372</ele>
        <time>2016-01-23T09:11:31.430Z</time>
      </trkpt>
      <trkpt lat="43.71606" lon="5.79143">
        <ele>372</ele>
        <time>2016-01-23T09:11:33.452Z</time>
      </trkpt>
      <trkpt lat="43.71608" lon="5.79139">
        <ele>372</ele>
        <time>2016-01-23T09:11:34.431Z</time>
      </trkpt>
      <trkpt lat="43.71612" lon="5.79129">
        <ele>371</ele>
        <time>2016-01-23T09:11:36.454Z</time>
      </trkpt>
      <trkpt lat="43.71613" lon="5.7912">
        <ele>371</ele>
        <time>2016-01-23T09:11:37.456Z</time>
      </trkpt>
      <trkpt lat="43.71613" lon="5.79112">
        <ele>371</ele>
        <time>2016-01-23T09:11:38.445Z</time>
      </trkpt>
      <trkpt lat="43.71612" lon="5.79106">
        <ele>371</ele>
        <time>2016-01-23T09:11:39.432Z</time>
      </trkpt>
      <trkpt lat="43.71614" lon="5.79095">
        <ele>370</ele>
        <time>2016-01-23T09:11:41.454Z</time>
      </trkpt>
      <trkpt lat="43.71614" lon="5.79091">
        <ele>369</ele>
        <time>2016-01-23T09:11:42.430Z</time>
      </trkpt>
      <trkpt lat="43.71611" lon="5.79081">
        <ele>369</ele>
        <time>2016-01-23T09:11:45.454Z</time>
      </trkpt>
      <trkpt lat="43.7161" lon="5.79076">
        <ele>369</ele>
        <time>2016-01-23T09:11:46.430Z</time>
      </trkpt>
      <trkpt lat="43.71605" lon="5.79067">
        <ele>368</ele>
        <time>2016-01-23T09:11:48.703Z</time>
      </trkpt>
      <trkpt lat="43.71603" lon="5.79063">
        <ele>367</ele>
        <time>2016-01-23T09:11:49.425Z</time>
      </trkpt>
      <trkpt lat="43.71599" lon="5.79055">
        <ele>366</ele>
        <time>2016-01-23T09:16:00.456Z</time>
      </trkpt>
      <trkpt lat="43.716" lon="5.79051">
        <ele>366</ele>
        <time>2016-01-23T09:16:01.432Z</time>
      </trkpt>
      <trkpt lat="43.71604" lon="5.79044">
        <ele>365</ele>
        <time>2016-01-23T09:16:03.455Z</time>
      </trkpt>
      <trkpt lat="43.71607" lon="5.79041">
        <ele>364</ele>
        <time>2016-01-23T09:16:04.431Z</time>
      </trkpt>
      <trkpt lat="43.71612" lon="5.79036">
        <ele>363</ele>
        <time>2016-01-23T09:16:06.455Z</time>
      </trkpt>
      <trkpt lat="43.71615" lon="5.79033">
        <ele>362</ele>
        <time>2016-01-23T09:16:07.433Z</time>
      </trkpt>
      <trkpt lat="43.71622" lon="5.7903">
        <ele>362</ele>
        <time>2016-01-23T09:16:09.455Z</time>
      </trkpt>
      <trkpt lat="43.71625" lon="5.79028">
        <ele>361</ele>
        <time>2016-01-23T09:16:10.431Z</time>
      </trkpt>
      <trkpt lat="43.71628" lon="5.7902">
        <ele>360</ele>
        <time>2016-01-23T09:16:12.454Z</time>
      </trkpt>
      <trkpt lat="43.7163" lon="5.79016">
        <ele>359</ele>
        <time>2016-01-23T09:16:13.432Z</time>
      </trkpt>
      <trkpt lat="43.71632" lon="5.79013">
        <ele>358</ele>
        <time>2016-01-23T09:16:14.454Z</time>
      </trkpt>
      <trkpt lat="43.71636" lon="5.79007">
        <ele>358</ele>
        <time>2016-01-23T09:16:15.442Z</time>
      </trkpt>
      <trkpt lat="43.71639" lon="5.78997">
        <ele>357</ele>
        <time>2016-01-23T09:16:17.458Z</time>
      </trkpt>
      <trkpt lat="43.7164" lon="5.78991">
        <ele>357</ele>
        <time>2016-01-23T09:16:18.458Z</time>
      </trkpt>
      <trkpt lat="43.71641" lon="5.78983">
        <ele>356</ele>
        <time>2016-01-23T09:16:19.456Z</time>
      </trkpt>
      <trkpt lat="43.71642" lon="5.78976">
        <ele>355</ele>
        <time>2016-01-23T09:16:20.436Z</time>
      </trkpt>
      <trkpt lat="43.71642" lon="5.78967">
        <ele>355</ele>
        <time>2016-01-23T09:16:22.454Z</time>
      </trkpt>
      <trkpt lat="43.71643" lon="5.78963">
        <ele>355</ele>
        <time>2016-01-23T09:16:23.435Z</time>
      </trkpt>
      <trkpt lat="43.71643" lon="5.78954">
        <ele>355</ele>
        <time>2016-01-23T09:16:25.456Z</time>
      </trkpt>
      <trkpt lat="43.71642" lon="5.7895">
        <ele>355</ele>
        <time>2016-01-23T09:16:26.432Z</time>
      </trkpt>
      <trkpt lat="43.71639" lon="5.78939">
        <ele>353</ele>
        <time>2016-01-23T09:16:30.466Z</time>
      </trkpt>
      <trkpt lat="43.7164" lon="5.78937">
        <ele>353</ele>
        <time>2016-01-23T09:16:31.431Z</time>
      </trkpt>
      <trkpt lat="43.71648" lon="5.78933">
        <ele>352</ele>
        <time>2016-01-23T09:16:35.455Z</time>
      </trkpt>
      <trkpt lat="43.71649" lon="5.7893">
        <ele>351</ele>
        <time>2016-01-23T09:16:36.431Z</time>
      </trkpt>
      <trkpt lat="43.71655" lon="5.78922">
        <ele>348</ele>
        <time>2016-01-23T09:16:39.455Z</time>
      </trkpt>
      <trkpt lat="43.71655" lon="5.78918">
        <ele>348</ele>
        <time>2016-01-23T09:16:40.456Z</time>
      </trkpt>
      <trkpt lat="43.71648" lon="5.78909">
        <ele>349</ele>
        <time>2016-01-23T09:16:43.455Z</time>
      </trkpt>
      <trkpt lat="43.71646" lon="5.78908">
        <ele>350</ele>
        <time>2016-01-23T09:16:44.432Z</time>
      </trkpt>
      <trkpt lat="43.71639" lon="5.78907">
        <ele>349</ele>
        <time>2016-01-23T09:16:47.456Z</time>
      </trkpt>
      <trkpt lat="43.71637" lon="5.78907">
        <ele>349</ele>
        <time>2016-01-23T09:16:48.434Z</time>
      </trkpt>
      <trkpt lat="43.71628" lon="5.78907">
        <ele>347</ele>
        <time>2016-01-23T09:16:51.487Z</time>
      </trkpt>
      <trkpt lat="43.71626" lon="5.78907">
        <ele>347</ele>
        <time>2016-01-23T09:16:52.431Z</time>
      </trkpt>
      <trkpt lat="43.71618" lon="5.78911">
        <ele>346</ele>
        <time>2016-01-23T09:16:55.455Z</time>
      </trkpt>
      <trkpt lat="43.71614" lon="5.78914">
        <ele>345</ele>
        <time>2016-01-23T09:16:56.433Z</time>
      </trkpt>
      <trkpt lat="43.71607" lon="5.78917">
        <ele>344</ele>
        <time>2016-01-23T09:16:58.453Z</time>
      </trkpt>
      <trkpt lat="43.71604" lon="5.78918">
        <ele>343</ele>
        <time>2016-01-23T09:16:59.431Z</time>
      </trkpt>
      <trkpt lat="43.71596" lon="5.78922">
        <ele>341</ele>
        <time>2016-01-23T09:17:03.455Z</time>
      </trkpt>
      <trkpt lat="43.71594" lon="5.78924">
        <ele>340</ele>
        <time>2016-01-23T09:17:04.431Z</time>
      </trkpt>
      <trkpt lat="43.71588" lon="5.78929">
        <ele>337</ele>
        <time>2016-01-23T09:17:07.455Z</time>
      </trkpt>
      <trkpt lat="43.71584" lon="5.78929">
        <ele>336</ele>
        <time>2016-01-23T09:17:08.431Z</time>
      </trkpt>
      <trkpt lat="43.71577" lon="5.78929">
        <ele>336</ele>
        <time>2016-01-23T09:17:10.453Z</time>
      </trkpt>
      <trkpt lat="43.71573" lon="5.78931">
        <ele>336</ele>
        <time>2016-01-23T09:17:11.432Z</time>
      </trkpt>
      <trkpt lat="43.71565" lon="5.78932">
        <ele>334</ele>
        <time>2016-01-23T09:17:13.455Z</time>
      </trkpt>
      <trkpt lat="43.71561" lon="5.78932">
        <ele>333</ele>
        <time>2016-01-23T09:17:14.431Z</time>
      </trkpt>
      <trkpt lat="43.71554" lon="5.78938">
        <ele>333</ele>
        <time>2016-01-23T09:17:16.462Z</time>
      </trkpt>
      <trkpt lat="43.71552" lon="5.78943">
        <ele>333</ele>
        <time>2016-01-23T09:17:17.431Z</time>
      </trkpt>
      <trkpt lat="43.71546" lon="5.78949">
        <ele>333</ele>
        <time>2016-01-23T09:17:19.454Z</time>
      </trkpt>
      <trkpt lat="43.71542" lon="5.78948">
        <ele>332</ele>
        <time>2016-01-23T09:17:20.432Z</time>
      </trkpt>
      <trkpt lat="43.71534" lon="5.78949">
        <ele>331</ele>
        <time>2016-01-23T09:17:22.453Z</time>
      </trkpt>
      <trkpt lat="43.71531" lon="5.78948">
        <ele>331</ele>
        <time>2016-01-23T09:17:23.442Z</time>
      </trkpt>
      <trkpt lat="43.71533" lon="5.78938">
        <ele>333</ele>
        <time>2016-01-23T09:17:26.456Z</time>
      </trkpt>
      <trkpt lat="43.71534" lon="5.78935">
        <ele>333</ele>
        <time>2016-01-23T09:17:27.431Z</time>
      </trkpt>
      <trkpt lat="43.71537" lon="5.78923">
        <ele>334</ele>
        <time>2016-01-23T09:17:30.454Z</time>
      </trkpt>
      <trkpt lat="43.71539" lon="5.78919">
        <ele>334</ele>
        <time>2016-01-23T09:17:31.433Z</time>
      </trkpt>
      <trkpt lat="43.71541" lon="5.78911">
        <ele>334</ele>
        <time>2016-01-23T09:17:33.464Z</time>
      </trkpt>
      <trkpt lat="43.71543" lon="5.78907">
        <ele>333</ele>
        <time>2016-01-23T09:17:34.452Z</time>
      </trkpt>
      <trkpt lat="43.71546" lon="5.78899">
        <ele>333</ele>
        <time>2016-01-23T09:17:36.457Z</time>
      </trkpt>
      <trkpt lat="43.71547" lon="5.78895">
        <ele>333</ele>
        <time>2016-01-23T09:17:37.430Z</time>
      </trkpt>
      <trkpt lat="43.71551" lon="5.78887">
        <ele>333</ele>
        <time>2016-01-23T09:17:39.482Z</time>
      </trkpt>
      <trkpt lat="43.71553" lon="5.78882">
        <ele>333</ele>
        <time>2016-01-23T09:17:40.431Z</time>
      </trkpt>
      <trkpt lat="43.71558" lon="5.78872">
        <ele>332</ele>
        <time>2016-01-23T09:17:42.453Z</time>
      </trkpt>
      <trkpt lat="43.7156" lon="5.78868">
        <ele>332</ele>
        <time>2016-01-23T09:17:43.432Z</time>
      </trkpt>
      <trkpt lat="43.71566" lon="5.78859">
        <ele>332</ele>
        <time>2016-01-23T09:17:45.457Z</time>
      </trkpt>
      <trkpt lat="43.71569" lon="5.78856">
        <ele>332</ele>
        <time>2016-01-23T09:17:46.435Z</time>
      </trkpt>
      <trkpt lat="43.71576" lon="5.7885">
        <ele>332</ele>
        <time>2016-01-23T09:17:48.454Z</time>
      </trkpt>
      <trkpt lat="43.7158" lon="5.78848">
        <ele>331</ele>
        <time>2016-01-23T09:17:49.432Z</time>
      </trkpt>
      <trkpt lat="43.71588" lon="5.78845">
        <ele>331</ele>
        <time>2016-01-23T09:17:51.457Z</time>
      </trkpt>
      <trkpt lat="43.71592" lon="5.78844">
        <ele>331</ele>
        <time>2016-01-23T09:17:52.434Z</time>
      </trkpt>
      <trkpt lat="43.716" lon="5.78839">
        <ele>331</ele>
        <time>2016-01-23T09:17:54.458Z</time>
      </trkpt>
      <trkpt lat="43.71603" lon="5.78835">
        <ele>331</ele>
        <time>2016-01-23T09:17:55.444Z</time>
      </trkpt>
      <trkpt lat="43.71609" lon="5.78827">
        <ele>329</ele>
        <time>2016-01-23T09:17:57.455Z</time>
      </trkpt>
      <trkpt lat="43.71613" lon="5.78819">
        <ele>329</ele>
        <time>2016-01-23T09:17:58.432Z</time>
      </trkpt>
      <trkpt lat="43.71617" lon="5.78813">
        <ele>328</ele>
        <time>2016-01-23T09:17:59.456Z</time>
      </trkpt>
      <trkpt lat="43.71619" lon="5.78806">
        <ele>328</ele>
        <time>2016-01-23T09:18:00.432Z</time>
      </trkpt>
      <trkpt lat="43.71624" lon="5.78799">
        <ele>327</ele>
        <time>2016-01-23T09:18:02.466Z</time>
      </trkpt>
      <trkpt lat="43.71626" lon="5.78797">
        <ele>327</ele>
        <time>2016-01-23T09:18:03.432Z</time>
      </trkpt>
      <trkpt lat="43.71618" lon="5.78796">
        <ele>327</ele>
        <time>2016-01-23T09:18:20.457Z</time>
      </trkpt>
      <trkpt lat="43.71615" lon="5.78797">
        <ele>327</ele>
        <time>2016-01-23T09:18:21.442Z</time>
      </trkpt>
      <trkpt lat="43.71607" lon="5.78797">
        <ele>327</ele>
        <time>2016-01-23T09:18:24.468Z</time>
      </trkpt>
      <trkpt lat="43.71604" lon="5.78797">
        <ele>327</ele>
        <time>2016-01-23T09:18:25.429Z</time>
      </trkpt>
      <trkpt lat="43.71599" lon="5.78788">
        <ele>326</ele>
        <time>2016-01-23T09:18:28.448Z</time>
      </trkpt>
      <trkpt lat="43.71599" lon="5.78784">
        <ele>326</ele>
        <time>2016-01-23T09:18:29.430Z</time>
      </trkpt>
      <trkpt lat="43.71597" lon="5.78773">
        <ele>325</ele>
        <time>2016-01-23T09:18:32.449Z</time>
      </trkpt>
      <trkpt lat="43.71598" lon="5.78769">
        <ele>325</ele>
        <time>2016-01-23T09:18:33.431Z</time>
      </trkpt>
      <trkpt lat="43.71601" lon="5.78759">
        <ele>326</ele>
        <time>2016-01-23T09:18:36.449Z</time>
      </trkpt>
      <trkpt lat="43.71602" lon="5.78756">
        <ele>326</ele>
        <time>2016-01-23T09:18:37.428Z</time>
      </trkpt>
      <trkpt lat="43.71601" lon="5.78744">
        <ele>327</ele>
        <time>2016-01-23T09:18:42.449Z</time>
      </trkpt>
      <trkpt lat="43.716" lon="5.78742">
        <ele>327</ele>
        <time>2016-01-23T09:18:43.431Z</time>
      </trkpt>
      <trkpt lat="43.71597" lon="5.7873">
        <ele>327</ele>
        <time>2016-01-23T09:18:48.448Z</time>
      </trkpt>
      <trkpt lat="43.71597" lon="5.78728">
        <ele>327</ele>
        <time>2016-01-23T09:18:49.429Z</time>
      </trkpt>
      <trkpt lat="43.71605" lon="5.78725">
        <ele>326</ele>
        <time>2016-01-23T09:18:55.450Z</time>
      </trkpt>
      <trkpt lat="43.71607" lon="5.78727">
        <ele>326</ele>
        <time>2016-01-23T09:18:56.429Z</time>
      </trkpt>
      <trkpt lat="43.71611" lon="5.78733">
        <ele>326</ele>
        <time>2016-01-23T09:18:59.457Z</time>
      </trkpt>
      <trkpt lat="43.71613" lon="5.78737">
        <ele>326</ele>
        <time>2016-01-23T09:19:00.431Z</time>
      </trkpt>
      <trkpt lat="43.71616" lon="5.78745">
        <ele>326</ele>
        <time>2016-01-23T09:19:02.449Z</time>
      </trkpt>
      <trkpt lat="43.71618" lon="5.78749">
        <ele>326</ele>
        <time>2016-01-23T09:19:03.431Z</time>
      </trkpt>
      <trkpt lat="43.71622" lon="5.78756">
        <ele>326</ele>
        <time>2016-01-23T09:19:05.449Z</time>
      </trkpt>
      <trkpt lat="43.71625" lon="5.78761">
        <ele>326</ele>
        <time>2016-01-23T09:19:06.429Z</time>
      </trkpt>
      <trkpt lat="43.71632" lon="5.78767">
        <ele>326</ele>
        <time>2016-01-23T09:19:08.511Z</time>
      </trkpt>
      <trkpt lat="43.71636" lon="5.78767">
        <ele>326</ele>
        <time>2016-01-23T09:19:09.428Z</time>
      </trkpt>
      <trkpt lat="43.71641" lon="5.78765">
        <ele>326</ele>
        <time>2016-01-23T09:19:10.450Z</time>
      </trkpt>
      <trkpt lat="43.71644" lon="5.78761">
        <ele>325</ele>
        <time>2016-01-23T09:19:11.429Z</time>
      </trkpt>
      <trkpt lat="43.71648" lon="5.78751">
        <ele>325</ele>
        <time>2016-01-23T09:19:12.449Z</time>
      </trkpt>
      <trkpt lat="43.71651" lon="5.78747">
        <ele>325</ele>
        <time>2016-01-23T09:19:13.430Z</time>
      </trkpt>
      <trkpt lat="43.71654" lon="5.78742">
        <ele>325</ele>
        <time>2016-01-23T09:19:14.449Z</time>
      </trkpt>
      <trkpt lat="43.71658" lon="5.78737">
        <ele>325</ele>
        <time>2016-01-23T09:19:15.425Z</time>
      </trkpt>
      <trkpt lat="43.71665" lon="5.7873">
        <ele>326</ele>
        <time>2016-01-23T09:19:17.456Z</time>
      </trkpt>
      <trkpt lat="43.71668" lon="5.78725">
        <ele>325</ele>
        <time>2016-01-23T09:19:18.448Z</time>
      </trkpt>
      <trkpt lat="43.71671" lon="5.78721">
        <ele>325</ele>
        <time>2016-01-23T09:19:19.449Z</time>
      </trkpt>
      <trkpt lat="43.71675" lon="5.78716">
        <ele>325</ele>
        <time>2016-01-23T09:19:20.429Z</time>
      </trkpt>
      <trkpt lat="43.7168" lon="5.78707">
        <ele>325</ele>
        <time>2016-01-23T09:19:22.450Z</time>
      </trkpt>
      <trkpt lat="43.71683" lon="5.78702">
        <ele>325</ele>
        <time>2016-01-23T09:19:23.430Z</time>
      </trkpt>
      <trkpt lat="43.71685" lon="5.78697">
        <ele>324</ele>
        <time>2016-01-23T09:19:24.451Z</time>
      </trkpt>
      <trkpt lat="43.71688" lon="5.78691">
        <ele>324</ele>
        <time>2016-01-23T09:19:25.427Z</time>
      </trkpt>
      <trkpt lat="43.71691" lon="5.78685">
        <ele>324</ele>
        <time>2016-01-23T09:19:26.449Z</time>
      </trkpt>
      <trkpt lat="43.71693" lon="5.78678">
        <ele>323</ele>
        <time>2016-01-23T09:19:27.429Z</time>
      </trkpt>
      <trkpt lat="43.71697" lon="5.78668">
        <ele>323</ele>
        <time>2016-01-23T09:19:29.471Z</time>
      </trkpt>
      <trkpt lat="43.717" lon="5.78663">
        <ele>323</ele>
        <time>2016-01-23T09:19:30.431Z</time>
      </trkpt>
      <trkpt lat="43.71702" lon="5.78657">
        <ele>322</ele>
        <time>2016-01-23T09:19:31.451Z</time>
      </trkpt>
      <trkpt lat="43.71704" lon="5.78651">
        <ele>322</ele>
        <time>2016-01-23T09:19:32.430Z</time>
      </trkpt>
      <trkpt lat="43.71708" lon="5.7864">
        <ele>321</ele>
        <time>2016-01-23T09:19:34.547Z</time>
      </trkpt>
      <trkpt lat="43.71709" lon="5.78637">
        <ele>320</ele>
        <time>2016-01-23T09:19:35.430Z</time>
      </trkpt>
      <trkpt lat="43.71711" lon="5.7863">
        <ele>320</ele>
        <time>2016-01-23T09:19:36.469Z</time>
      </trkpt>
      <trkpt lat="43.71714" lon="5.78621">
        <ele>319</ele>
        <time>2016-01-23T09:19:37.433Z</time>
      </trkpt>
      <trkpt lat="43.71717" lon="5.78615">
        <ele>319</ele>
        <time>2016-01-23T09:19:38.452Z</time>
      </trkpt>
      <trkpt lat="43.71719" lon="5.78611">
        <ele>318</ele>
        <time>2016-01-23T09:19:39.434Z</time>
      </trkpt>
      <trkpt lat="43.71722" lon="5.78605">
        <ele>319</ele>
        <time>2016-01-23T09:19:40.469Z</time>
      </trkpt>
      <trkpt lat="43.71725" lon="5.78598">
        <ele>318</ele>
        <time>2016-01-23T09:19:41.422Z</time>
      </trkpt>
      <trkpt lat="43.71728" lon="5.78589">
        <ele>317</ele>
        <time>2016-01-23T09:19:43.447Z</time>
      </trkpt>
      <trkpt lat="43.71731" lon="5.78583">
        <ele>317</ele>
        <time>2016-01-23T09:19:44.429Z</time>
      </trkpt>
      <trkpt lat="43.71734" lon="5.78578">
        <ele>317</ele>
        <time>2016-01-23T09:19:45.520Z</time>
      </trkpt>
      <trkpt lat="43.71736" lon="5.78573">
        <ele>318</ele>
        <time>2016-01-23T09:19:46.427Z</time>
      </trkpt>
      <trkpt lat="43.71742" lon="5.78564">
        <ele>319</ele>
        <time>2016-01-23T09:19:48.454Z</time>
      </trkpt>
      <trkpt lat="43.71745" lon="5.78559">
        <ele>319</ele>
        <time>2016-01-23T09:19:49.432Z</time>
      </trkpt>
      <trkpt lat="43.71748" lon="5.78554">
        <ele>319</ele>
        <time>2016-01-23T09:19:50.481Z</time>
      </trkpt>
      <trkpt lat="43.71751" lon="5.78548">
        <ele>319</ele>
        <time>2016-01-23T09:19:51.431Z</time>
      </trkpt>
      <trkpt lat="43.71755" lon="5.78542">
        <ele>319</ele>
        <time>2016-01-23T09:19:52.457Z</time>
      </trkpt>
      <trkpt lat="43.71758" lon="5.78537">
        <ele>318</ele>
        <time>2016-01-23T09:19:53.433Z</time>
      </trkpt>
      <trkpt lat="43.71762" lon="5.78531">
        <ele>318</ele>
        <time>2016-01-23T09:19:54.453Z</time>
      </trkpt>
      <trkpt lat="43.71765" lon="5.78524">
        <ele>318</ele>
        <time>2016-01-23T09:19:55.432Z</time>
      </trkpt>
      <trkpt lat="43.71767" lon="5.78517">
        <ele>318</ele>
        <time>2016-01-23T09:19:56.668Z</time>
      </trkpt>
      <trkpt lat="43.71768" lon="5.7851">
        <ele>318</ele>
        <time>2016-01-23T09:19:57.431Z</time>
      </trkpt>
      <trkpt lat="43.71768" lon="5.78503">
        <ele>318</ele>
        <time>2016-01-23T09:19:58.444Z</time>
      </trkpt>
      <trkpt lat="43.71768" lon="5.78497">
        <ele>318</ele>
        <time>2016-01-23T09:19:59.432Z</time>
      </trkpt>
      <trkpt lat="43.71767" lon="5.7849">
        <ele>318</ele>
        <time>2016-01-23T09:20:00.454Z</time>
      </trkpt>
      <trkpt lat="43.71766" lon="5.78484">
        <ele>318</ele>
        <time>2016-01-23T09:20:01.433Z</time>
      </trkpt>
      <trkpt lat="43.71765" lon="5.78472">
        <ele>318</ele>
        <time>2016-01-23T09:20:03.455Z</time>
      </trkpt>
      <trkpt lat="43.71764" lon="5.78466">
        <ele>318</ele>
        <time>2016-01-23T09:20:04.433Z</time>
      </trkpt>
      <trkpt lat="43.71764" lon="5.7846">
        <ele>318</ele>
        <time>2016-01-23T09:20:05.451Z</time>
      </trkpt>
      <trkpt lat="43.71763" lon="5.78454">
        <ele>318</ele>
        <time>2016-01-23T09:20:06.429Z</time>
      </trkpt>
      <trkpt lat="43.71763" lon="5.78448">
        <ele>318</ele>
        <time>2016-01-23T09:20:07.471Z</time>
      </trkpt>
      <trkpt lat="43.71762" lon="5.78441">
        <ele>318</ele>
        <time>2016-01-23T09:20:08.438Z</time>
      </trkpt>
      <trkpt lat="43.71761" lon="5.78429">
        <ele>317</ele>
        <time>2016-01-23T09:20:10.449Z</time>
      </trkpt>
      <trkpt lat="43.7176" lon="5.78424">
        <ele>318</ele>
        <time>2016-01-23T09:20:11.430Z</time>
      </trkpt>
      <trkpt lat="43.71758" lon="5.78412">
        <ele>318</ele>
        <time>2016-01-23T09:20:13.457Z</time>
      </trkpt>
      <trkpt lat="43.71758" lon="5.78407">
        <ele>319</ele>
        <time>2016-01-23T09:20:14.431Z</time>
      </trkpt>
      <trkpt lat="43.71758" lon="5.78401">
        <ele>320</ele>
        <time>2016-01-23T09:20:15.450Z</time>
      </trkpt>
      <trkpt lat="43.71757" lon="5.78393">
        <ele>319</ele>
        <time>2016-01-23T09:20:16.429Z</time>
      </trkpt>
      <trkpt lat="43.71754" lon="5.78387">
        <ele>318</ele>
        <time>2016-01-23T09:20:17.451Z</time>
      </trkpt>
      <trkpt lat="43.71754" lon="5.78381">
        <ele>318</ele>
        <time>2016-01-23T09:20:18.461Z</time>
      </trkpt>
      <trkpt lat="43.71753" lon="5.78374">
        <ele>318</ele>
        <time>2016-01-23T09:20:19.453Z</time>
      </trkpt>
      <trkpt lat="43.71753" lon="5.78367">
        <ele>317</ele>
        <time>2016-01-23T09:20:20.431Z</time>
      </trkpt>
      <trkpt lat="43.71753" lon="5.78359">
        <ele>317</ele>
        <time>2016-01-23T09:20:21.450Z</time>
      </trkpt>
      <trkpt lat="43.71753" lon="5.78354">
        <ele>317</ele>
        <time>2016-01-23T09:20:22.431Z</time>
      </trkpt>
      <trkpt lat="43.71752" lon="5.78348">
        <ele>318</ele>
        <time>2016-01-23T09:20:23.452Z</time>
      </trkpt>
      <trkpt lat="43.71752" lon="5.78341">
        <ele>318</ele>
        <time>2016-01-23T09:20:24.429Z</time>
      </trkpt>
      <trkpt lat="43.71751" lon="5.78335">
        <ele>318</ele>
        <time>2016-01-23T09:20:25.457Z</time>
      </trkpt>
      <trkpt lat="43.71751" lon="5.78329">
        <ele>319</ele>
        <time>2016-01-23T09:20:26.429Z</time>
      </trkpt>
      <trkpt lat="43.7175" lon="5.78322">
        <ele>318</ele>
        <time>2016-01-23T09:20:27.446Z</time>
      </trkpt>
      <trkpt lat="43.7175" lon="5.78316">
        <ele>319</ele>
        <time>2016-01-23T09:20:28.427Z</time>
      </trkpt>
      <trkpt lat="43.71749" lon="5.78305">
        <ele>320</ele>
        <time>2016-01-23T09:20:30.450Z</time>
      </trkpt>
      <trkpt lat="43.71749" lon="5.783">
        <ele>320</ele>
        <time>2016-01-23T09:20:31.429Z</time>
      </trkpt>
      <trkpt lat="43.71748" lon="5.78293">
        <ele>320</ele>
        <time>2016-01-23T09:20:32.450Z</time>
      </trkpt>
      <trkpt lat="43.71748" lon="5.78286">
        <ele>319</ele>
        <time>2016-01-23T09:20:33.431Z</time>
      </trkpt>
      <trkpt lat="43.71747" lon="5.78279">
        <ele>319</ele>
        <time>2016-01-23T09:20:34.472Z</time>
      </trkpt>
      <trkpt lat="43.71748" lon="5.78273">
        <ele>319</ele>
        <time>2016-01-23T09:20:35.431Z</time>
      </trkpt>
      <trkpt lat="43.71747" lon="5.78262">
        <ele>320</ele>
        <time>2016-01-23T09:20:37.454Z</time>
      </trkpt>
      <trkpt lat="43.71747" lon="5.78257">
        <ele>320</ele>
        <time>2016-01-23T09:20:38.429Z</time>
      </trkpt>
      <trkpt lat="43.71745" lon="5.78249">
        <ele>320</ele>
        <time>2016-01-23T09:20:39.451Z</time>
      </trkpt>
      <trkpt lat="43.71745" lon="5.78242">
        <ele>321</ele>
        <time>2016-01-23T09:20:40.435Z</time>
      </trkpt>
      <trkpt lat="43.71744" lon="5.78231">
        <ele>321</ele>
        <time>2016-01-23T09:20:42.462Z</time>
      </trkpt>
      <trkpt lat="43.71744" lon="5.78224">
        <ele>322</ele>
        <time>2016-01-23T09:20:43.431Z</time>
      </trkpt>
      <trkpt lat="43.71742" lon="5.78212">
        <ele>321</ele>
        <time>2016-01-23T09:20:45.480Z</time>
      </trkpt>
      <trkpt lat="43.71742" lon="5.78206">
        <ele>321</ele>
        <time>2016-01-23T09:20:46.432Z</time>
      </trkpt>
      <trkpt lat="43.71742" lon="5.78201">
        <ele>321</ele>
        <time>2016-01-23T09:20:47.468Z</time>
      </trkpt>
      <trkpt lat="43.71744" lon="5.78194">
        <ele>320</ele>
        <time>2016-01-23T09:20:48.432Z</time>
      </trkpt>
      <trkpt lat="43.71748" lon="5.7819">
        <ele>321</ele>
        <time>2016-01-23T09:20:49.454Z</time>
      </trkpt>
      <trkpt lat="43.71752" lon="5.78187">
        <ele>320</ele>
        <time>2016-01-23T09:20:50.433Z</time>
      </trkpt>
      <trkpt lat="43.71757" lon="5.78186">
        <ele>320</ele>
        <time>2016-01-23T09:20:51.456Z</time>
      </trkpt>
      <trkpt lat="43.71762" lon="5.78185">
        <ele>321</ele>
        <time>2016-01-23T09:20:52.431Z</time>
      </trkpt>
      <trkpt lat="43.71767" lon="5.78185">
        <ele>321</ele>
        <time>2016-01-23T09:20:53.454Z</time>
      </trkpt>
      <trkpt lat="43.71771" lon="5.78184">
        <ele>321</ele>
        <time>2016-01-23T09:20:54.443Z</time>
      </trkpt>
      <trkpt lat="43.71776" lon="5.78184">
        <ele>321</ele>
        <time>2016-01-23T09:20:55.454Z</time>
      </trkpt>
      <trkpt lat="43.71781" lon="5.78182">
        <ele>321</ele>
        <time>2016-01-23T09:20:56.429Z</time>
      </trkpt>
      <trkpt lat="43.71785" lon="5.78182">
        <ele>321</ele>
        <time>2016-01-23T09:20:57.456Z</time>
      </trkpt>
      <trkpt lat="43.7179" lon="5.7818">
        <ele>321</ele>
        <time>2016-01-23T09:20:58.433Z</time>
      </trkpt>
      <trkpt lat="43.71799" lon="5.78179">
        <ele>321</ele>
        <time>2016-01-23T09:21:00.457Z</time>
      </trkpt>
      <trkpt lat="43.71804" lon="5.78178">
        <ele>320</ele>
        <time>2016-01-23T09:21:01.457Z</time>
      </trkpt>
      <trkpt lat="43.71813" lon="5.78177">
        <ele>321</ele>
        <time>2016-01-23T09:21:03.456Z</time>
      </trkpt>
      <trkpt lat="43.71817" lon="5.78176">
        <ele>321</ele>
        <time>2016-01-23T09:21:04.432Z</time>
      </trkpt>
      <trkpt lat="43.71826" lon="5.78174">
        <ele>321</ele>
        <time>2016-01-23T09:21:06.455Z</time>
      </trkpt>
      <trkpt lat="43.7183" lon="5.78173">
        <ele>320</ele>
        <time>2016-01-23T09:21:07.433Z</time>
      </trkpt>
      <trkpt lat="43.71835" lon="5.78171">
        <ele>320</ele>
        <time>2016-01-23T09:21:08.455Z</time>
      </trkpt>
      <trkpt lat="43.7184" lon="5.78171">
        <ele>320</ele>
        <time>2016-01-23T09:21:09.431Z</time>
      </trkpt>
      <trkpt lat="43.71844" lon="5.7817">
        <ele>320</ele>
        <time>2016-01-23T09:21:10.456Z</time>
      </trkpt>
      <trkpt lat="43.71849" lon="5.7817">
        <ele>320</ele>
        <time>2016-01-23T09:21:11.434Z</time>
      </trkpt>
      <trkpt lat="43.71854" lon="5.78169">
        <ele>320</ele>
        <time>2016-01-23T09:21:12.494Z</time>
      </trkpt>
      <trkpt lat="43.71858" lon="5.78168">
        <ele>320</ele>
        <time>2016-01-23T09:21:13.428Z</time>
      </trkpt>
      <trkpt lat="43.71863" lon="5.78167">
        <ele>320</ele>
        <time>2016-01-23T09:21:14.455Z</time>
      </trkpt>
      <trkpt lat="43.71867" lon="5.78166">
        <ele>320</ele>
        <time>2016-01-23T09:21:15.443Z</time>
      </trkpt>
      <trkpt lat="43.71876" lon="5.78165">
        <ele>320</ele>
        <time>2016-01-23T09:21:17.458Z</time>
      </trkpt>
      <trkpt lat="43.7188" lon="5.78165">
        <ele>320</ele>
        <time>2016-01-23T09:21:18.445Z</time>
      </trkpt>
      <trkpt lat="43.71885" lon="5.78164">
        <ele>320</ele>
        <time>2016-01-23T09:21:19.457Z</time>
      </trkpt>
      <trkpt lat="43.71889" lon="5.78164">
        <ele>320</ele>
        <time>2016-01-23T09:21:20.433Z</time>
      </trkpt>
      <trkpt lat="43.71898" lon="5.78168">
        <ele>320</ele>
        <time>2016-01-23T09:21:22.450Z</time>
      </trkpt>
      <trkpt lat="43.71902" lon="5.78172">
        <ele>320</ele>
        <time>2016-01-23T09:21:23.431Z</time>
      </trkpt>
      <trkpt lat="43.71904" lon="5.78177">
        <ele>320</ele>
        <time>2016-01-23T09:21:24.450Z</time>
      </trkpt>
      <trkpt lat="43.71907" lon="5.78182">
        <ele>319</ele>
        <time>2016-01-23T09:21:25.430Z</time>
      </trkpt>
      <trkpt lat="43.71911" lon="5.78192">
        <ele>319</ele>
        <time>2016-01-23T09:21:27.453Z</time>
      </trkpt>
      <trkpt lat="43.71913" lon="5.78198">
        <ele>320</ele>
        <time>2016-01-23T09:21:28.438Z</time>
      </trkpt>
      <trkpt lat="43.71916" lon="5.78203">
        <ele>319</ele>
        <time>2016-01-23T09:21:29.450Z</time>
      </trkpt>
      <trkpt lat="43.71918" lon="5.7821">
        <ele>319</ele>
        <time>2016-01-23T09:21:30.431Z</time>
      </trkpt>
      <trkpt lat="43.71922" lon="5.78221">
        <ele>319</ele>
        <time>2016-01-23T09:21:32.451Z</time>
      </trkpt>
      <trkpt lat="43.71924" lon="5.78226">
        <ele>319</ele>
        <time>2016-01-23T09:21:33.431Z</time>
      </trkpt>
      <trkpt lat="43.71927" lon="5.78236">
        <ele>319</ele>
        <time>2016-01-23T09:21:35.452Z</time>
      </trkpt>
      <trkpt lat="43.7193" lon="5.78242">
        <ele>319</ele>
        <time>2016-01-23T09:21:36.430Z</time>
      </trkpt>
      <trkpt lat="43.71933" lon="5.78253">
        <ele>319</ele>
        <time>2016-01-23T09:21:38.630Z</time>
      </trkpt>
      <trkpt lat="43.71935" lon="5.78259">
        <ele>319</ele>
        <time>2016-01-23T09:21:39.431Z</time>
      </trkpt>
      <trkpt lat="43.71936" lon="5.7827">
        <ele>319</ele>
        <time>2016-01-23T09:21:41.454Z</time>
      </trkpt>
      <trkpt lat="43.71937" lon="5.78275">
        <ele>319</ele>
        <time>2016-01-23T09:21:42.431Z</time>
      </trkpt>
      <trkpt lat="43.71939" lon="5.78286">
        <ele>320</ele>
        <time>2016-01-23T09:21:44.451Z</time>
      </trkpt>
      <trkpt lat="43.7194" lon="5.78291">
        <ele>319</ele>
        <time>2016-01-23T09:21:45.449Z</time>
      </trkpt>
      <trkpt lat="43.71941" lon="5.78303">
        <ele>319</ele>
        <time>2016-01-23T09:21:47.451Z</time>
      </trkpt>
      <trkpt lat="43.71942" lon="5.78307">
        <ele>319</ele>
        <time>2016-01-23T09:21:48.431Z</time>
      </trkpt>
      <trkpt lat="43.71944" lon="5.78318">
        <ele>319</ele>
        <time>2016-01-23T09:21:50.451Z</time>
      </trkpt>
      <trkpt lat="43.71945" lon="5.78323">
        <ele>319</ele>
        <time>2016-01-23T09:21:51.427Z</time>
      </trkpt>
      <trkpt lat="43.71948" lon="5.78334">
        <ele>320</ele>
        <time>2016-01-23T09:21:53.452Z</time>
      </trkpt>
      <trkpt lat="43.71949" lon="5.7834">
        <ele>320</ele>
        <time>2016-01-23T09:21:54.430Z</time>
      </trkpt>
      <trkpt lat="43.71952" lon="5.7835">
        <ele>319</ele>
        <time>2016-01-23T09:21:56.450Z</time>
      </trkpt>
      <trkpt lat="43.71954" lon="5.78356">
        <ele>319</ele>
        <time>2016-01-23T09:21:57.430Z</time>
      </trkpt>
      <trkpt lat="43.71956" lon="5.78367">
        <ele>318</ele>
        <time>2016-01-23T09:21:59.451Z</time>
      </trkpt>
      <trkpt lat="43.71957" lon="5.78373">
        <ele>319</ele>
        <time>2016-01-23T09:22:00.431Z</time>
      </trkpt>
      <trkpt lat="43.7196" lon="5.78384">
        <ele>318</ele>
        <time>2016-01-23T09:22:02.450Z</time>
      </trkpt>
      <trkpt lat="43.71961" lon="5.7839">
        <ele>318</ele>
        <time>2016-01-23T09:22:03.430Z</time>
      </trkpt>
      <trkpt lat="43.71962" lon="5.78401">
        <ele>319</ele>
        <time>2016-01-23T09:22:05.451Z</time>
      </trkpt>
      <trkpt lat="43.71963" lon="5.78407">
        <ele>319</ele>
        <time>2016-01-23T09:22:06.437Z</time>
      </trkpt>
      <trkpt lat="43.71964" lon="5.78418">
        <ele>319</ele>
        <time>2016-01-23T09:22:08.451Z</time>
      </trkpt>
      <trkpt lat="43.71964" lon="5.78424">
        <ele>319</ele>
        <time>2016-01-23T09:22:09.432Z</time>
      </trkpt>
      <trkpt lat="43.71965" lon="5.78435">
        <ele>319</ele>
        <time>2016-01-23T09:22:11.449Z</time>
      </trkpt>
      <trkpt lat="43.71965" lon="5.78441">
        <ele>318</ele>
        <time>2016-01-23T09:22:12.452Z</time>
      </trkpt>
      <trkpt lat="43.71964" lon="5.78452">
        <ele>318</ele>
        <time>2016-01-23T09:22:14.451Z</time>
      </trkpt>
      <trkpt lat="43.71964" lon="5.78458">
        <ele>318</ele>
        <time>2016-01-23T09:22:15.430Z</time>
      </trkpt>
      <trkpt lat="43.71963" lon="5.7847">
        <ele>319</ele>
        <time>2016-01-23T09:22:17.459Z</time>
      </trkpt>
      <trkpt lat="43.71963" lon="5.78477">
        <ele>319</ele>
        <time>2016-01-23T09:22:18.430Z</time>
      </trkpt>
      <trkpt lat="43.71961" lon="5.78488">
        <ele>318</ele>
        <time>2016-01-23T09:22:20.450Z</time>
      </trkpt>
      <trkpt lat="43.7196" lon="5.78495">
        <ele>318</ele>
        <time>2016-01-23T09:22:21.430Z</time>
      </trkpt>
      <trkpt lat="43.71959" lon="5.78506">
        <ele>319</ele>
        <time>2016-01-23T09:22:23.473Z</time>
      </trkpt>
      <trkpt lat="43.71959" lon="5.78513">
        <ele>319</ele>
        <time>2016-01-23T09:22:24.432Z</time>
      </trkpt>
      <trkpt lat="43.71962" lon="5.78523">
        <ele>319</ele>
        <time>2016-01-23T09:22:26.446Z</time>
      </trkpt>
      <trkpt lat="43.71964" lon="5.78529">
        <ele>319</ele>
        <time>2016-01-23T09:22:27.430Z</time>
      </trkpt>
      <trkpt lat="43.71967" lon="5.78534">
        <ele>319</ele>
        <time>2016-01-23T09:22:28.451Z</time>
      </trkpt>
      <trkpt lat="43.71969" lon="5.78539">
        <ele>319</ele>
        <time>2016-01-23T09:22:29.445Z</time>
      </trkpt>
      <trkpt lat="43.71975" lon="5.78549">
        <ele>319</ele>
        <time>2016-01-23T09:22:31.450Z</time>
      </trkpt>
      <trkpt lat="43.71978" lon="5.78554">
        <ele>319</ele>
        <time>2016-01-23T09:22:32.430Z</time>
      </trkpt>
      <trkpt lat="43.71981" lon="5.78559">
        <ele>319</ele>
        <time>2016-01-23T09:22:33.451Z</time>
      </trkpt>
      <trkpt lat="43.71983" lon="5.78565">
        <ele>319</ele>
        <time>2016-01-23T09:22:34.467Z</time>
      </trkpt>
      <trkpt lat="43.71988" lon="5.78575">
        <ele>319</ele>
        <time>2016-01-23T09:22:36.451Z</time>
      </trkpt>
      <trkpt lat="43.7199" lon="5.7858">
        <ele>318</ele>
        <time>2016-01-23T09:22:37.432Z</time>
      </trkpt>
      <trkpt lat="43.71994" lon="5.78591">
        <ele>317</ele>
        <time>2016-01-23T09:22:39.451Z</time>
      </trkpt>
      <trkpt lat="43.71996" lon="5.78597">
        <ele>318</ele>
        <time>2016-01-23T09:22:40.431Z</time>
      </trkpt>
      <trkpt lat="43.72" lon="5.78608">
        <ele>317</ele>
        <time>2016-01-23T09:22:42.452Z</time>
      </trkpt>
      <trkpt lat="43.72002" lon="5.78613">
        <ele>317</ele>
        <time>2016-01-23T09:22:43.431Z</time>
      </trkpt>
      <trkpt lat="43.72004" lon="5.78619">
        <ele>317</ele>
        <time>2016-01-23T09:22:44.451Z</time>
      </trkpt>
      <trkpt lat="43.72005" lon="5.78625">
        <ele>317</ele>
        <time>2016-01-23T09:22:45.452Z</time>
      </trkpt>
      <trkpt lat="43.72008" lon="5.78637">
        <ele>317</ele>
        <time>2016-01-23T09:22:47.452Z</time>
      </trkpt>
      <trkpt lat="43.7201" lon="5.78643">
        <ele>317</ele>
        <time>2016-01-23T09:22:48.431Z</time>
      </trkpt>
      <trkpt lat="43.72011" lon="5.78648">
        <ele>317</ele>
        <time>2016-01-23T09:22:49.451Z</time>
      </trkpt>
      <trkpt lat="43.72013" lon="5.78655">
        <ele>317</ele>
        <time>2016-01-23T09:22:50.438Z</time>
      </trkpt>
      <trkpt lat="43.72014" lon="5.78661">
        <ele>317</ele>
        <time>2016-01-23T09:22:51.451Z</time>
      </trkpt>
      <trkpt lat="43.72016" lon="5.78667">
        <ele>317</ele>
        <time>2016-01-23T09:22:52.431Z</time>
      </trkpt>
      <trkpt lat="43.72017" lon="5.78674">
        <ele>317</ele>
        <time>2016-01-23T09:22:53.450Z</time>
      </trkpt>
      <trkpt lat="43.72019" lon="5.78679">
        <ele>317</ele>
        <time>2016-01-23T09:22:54.427Z</time>
      </trkpt>
      <trkpt lat="43.7202" lon="5.78686">
        <ele>318</ele>
        <time>2016-01-23T09:22:55.451Z</time>
      </trkpt>
      <trkpt lat="43.72022" lon="5.78693">
        <ele>318</ele>
        <time>2016-01-23T09:22:56.453Z</time>
      </trkpt>
      <trkpt lat="43.72024" lon="5.78705">
        <ele>318</ele>
        <time>2016-01-23T09:22:58.451Z</time>
      </trkpt>
      <trkpt lat="43.72024" lon="5.78711">
        <ele>318</ele>
        <time>2016-01-23T09:22:59.427Z</time>
      </trkpt>
      <trkpt lat="43.72023" lon="5.78717">
        <ele>319</ele>
        <time>2016-01-23T09:23:00.485Z</time>
      </trkpt>
      <trkpt lat="43.72023" lon="5.78723">
        <ele>319</ele>
        <time>2016-01-23T09:23:01.437Z</time>
      </trkpt>
      <trkpt lat="43.72022" lon="5.78735">
        <ele>319</ele>
        <time>2016-01-23T09:23:03.514Z</time>
      </trkpt>
      <trkpt lat="43.7202" lon="5.78742">
        <ele>319</ele>
        <time>2016-01-23T09:23:04.430Z</time>
      </trkpt>
      <trkpt lat="43.72019" lon="5.78753">
        <ele>319</ele>
        <time>2016-01-23T09:23:06.448Z</time>
      </trkpt>
      <trkpt lat="43.72018" lon="5.7876">
        <ele>319</ele>
        <time>2016-01-23T09:23:07.453Z</time>
      </trkpt>
      <trkpt lat="43.72017" lon="5.78766">
        <ele>320</ele>
        <time>2016-01-23T09:23:08.451Z</time>
      </trkpt>
      <trkpt lat="43.72016" lon="5.78773">
        <ele>319</ele>
        <time>2016-01-23T09:23:09.432Z</time>
      </trkpt>
      <trkpt lat="43.72016" lon="5.7878">
        <ele>320</ele>
        <time>2016-01-23T09:23:10.451Z</time>
      </trkpt>
      <trkpt lat="43.72016" lon="5.78786">
        <ele>320</ele>
        <time>2016-01-23T09:23:11.428Z</time>
      </trkpt>
      <trkpt lat="43.72016" lon="5.78793">
        <ele>320</ele>
        <time>2016-01-23T09:23:12.485Z</time>
      </trkpt>
      <trkpt lat="43.72016" lon="5.78799">
        <ele>320</ele>
        <time>2016-01-23T09:23:13.432Z</time>
      </trkpt>
      <trkpt lat="43.72016" lon="5.78806">
        <ele>321</ele>
        <time>2016-01-23T09:23:14.462Z</time>
      </trkpt>
      <trkpt lat="43.72017" lon="5.78812">
        <ele>321</ele>
        <time>2016-01-23T09:23:15.432Z</time>
      </trkpt>
      <trkpt lat="43.72017" lon="5.78818">
        <ele>321</ele>
        <time>2016-01-23T09:23:16.455Z</time>
      </trkpt>
      <trkpt lat="43.72018" lon="5.78825">
        <ele>320</ele>
        <time>2016-01-23T09:23:17.433Z</time>
      </trkpt>
      <trkpt lat="43.7202" lon="5.78836">
        <ele>320</ele>
        <time>2016-01-23T09:23:19.451Z</time>
      </trkpt>
      <trkpt lat="43.72021" lon="5.78844">
        <ele>320</ele>
        <time>2016-01-23T09:23:20.494Z</time>
      </trkpt>
      <trkpt lat="43.72022" lon="5.78855">
        <ele>320</ele>
        <time>2016-01-23T09:23:22.451Z</time>
      </trkpt>
      <trkpt lat="43.72023" lon="5.78862">
        <ele>320</ele>
        <time>2016-01-23T09:23:23.626Z</time>
      </trkpt>
      <trkpt lat="43.72024" lon="5.78868">
        <ele>320</ele>
        <time>2016-01-23T09:23:24.453Z</time>
      </trkpt>
      <trkpt lat="43.72025" lon="5.78874">
        <ele>320</ele>
        <time>2016-01-23T09:23:25.432Z</time>
      </trkpt>
      <trkpt lat="43.72029" lon="5.78886">
        <ele>320</ele>
        <time>2016-01-23T09:23:27.451Z</time>
      </trkpt>
      <trkpt lat="43.72031" lon="5.78892">
        <ele>319</ele>
        <time>2016-01-23T09:23:28.440Z</time>
      </trkpt>
      <trkpt lat="43.72034" lon="5.78903">
        <ele>319</ele>
        <time>2016-01-23T09:23:30.450Z</time>
      </trkpt>
      <trkpt lat="43.72035" lon="5.78909">
        <ele>320</ele>
        <time>2016-01-23T09:23:31.430Z</time>
      </trkpt>
      <trkpt lat="43.72037" lon="5.78915">
        <ele>320</ele>
        <time>2016-01-23T09:23:32.449Z</time>
      </trkpt>
      <trkpt lat="43.7204" lon="5.78921">
        <ele>320</ele>
        <time>2016-01-23T09:23:33.432Z</time>
      </trkpt>
      <trkpt lat="43.72044" lon="5.78931">
        <ele>320</ele>
        <time>2016-01-23T09:23:35.459Z</time>
      </trkpt>
      <trkpt lat="43.72045" lon="5.78937">
        <ele>320</ele>
        <time>2016-01-23T09:23:36.448Z</time>
      </trkpt>
      <trkpt lat="43.72049" lon="5.78947">
        <ele>321</ele>
        <time>2016-01-23T09:23:38.451Z</time>
      </trkpt>
      <trkpt lat="43.72051" lon="5.78953">
        <ele>321</ele>
        <time>2016-01-23T09:23:39.431Z</time>
      </trkpt>
      <trkpt lat="43.72054" lon="5.78962">
        <ele>321</ele>
        <time>2016-01-23T09:23:41.451Z</time>
      </trkpt>
      <trkpt lat="43.72056" lon="5.78967">
        <ele>321</ele>
        <time>2016-01-23T09:23:42.434Z</time>
      </trkpt>
      <trkpt lat="43.7206" lon="5.78978">
        <ele>321</ele>
        <time>2016-01-23T09:23:44.451Z</time>
      </trkpt>
      <trkpt lat="43.72061" lon="5.78983">
        <ele>321</ele>
        <time>2016-01-23T09:23:45.452Z</time>
      </trkpt>
      <trkpt lat="43.72064" lon="5.78993">
        <ele>321</ele>
        <time>2016-01-23T09:23:47.453Z</time>
      </trkpt>
      <trkpt lat="43.72066" lon="5.78999">
        <ele>321</ele>
        <time>2016-01-23T09:23:48.440Z</time>
      </trkpt>
      <trkpt lat="43.72068" lon="5.79009">
        <ele>321</ele>
        <time>2016-01-23T09:23:50.451Z</time>
      </trkpt>
      <trkpt lat="43.7207" lon="5.79014">
        <ele>321</ele>
        <time>2016-01-23T09:23:51.430Z</time>
      </trkpt>
      <trkpt lat="43.72072" lon="5.79024">
        <ele>321</ele>
        <time>2016-01-23T09:23:53.452Z</time>
      </trkpt>
      <trkpt lat="43.72074" lon="5.7903">
        <ele>321</ele>
        <time>2016-01-23T09:23:54.431Z</time>
      </trkpt>
      <trkpt lat="43.72076" lon="5.79041">
        <ele>321</ele>
        <time>2016-01-23T09:23:56.473Z</time>
      </trkpt>
      <trkpt lat="43.72077" lon="5.79047">
        <ele>321</ele>
        <time>2016-01-23T09:23:57.434Z</time>
      </trkpt>
      <trkpt lat="43.72078" lon="5.79053">
        <ele>321</ele>
        <time>2016-01-23T09:23:58.448Z</time>
      </trkpt>
      <trkpt lat="43.7208" lon="5.79059">
        <ele>321</ele>
        <time>2016-01-23T09:23:59.430Z</time>
      </trkpt>
      <trkpt lat="43.72082" lon="5.79071">
        <ele>321</ele>
        <time>2016-01-23T09:24:01.450Z</time>
      </trkpt>
      <trkpt lat="43.72083" lon="5.79077">
        <ele>321</ele>
        <time>2016-01-23T09:24:02.431Z</time>
      </trkpt>
      <trkpt lat="43.72086" lon="5.79089">
        <ele>321</ele>
        <time>2016-01-23T09:24:04.457Z</time>
      </trkpt>
      <trkpt lat="43.72087" lon="5.79096">
        <ele>321</ele>
        <time>2016-01-23T09:24:05.432Z</time>
      </trkpt>
      <trkpt lat="43.72088" lon="5.79108">
        <ele>321</ele>
        <time>2016-01-23T09:24:07.473Z</time>
      </trkpt>
      <trkpt lat="43.72089" lon="5.79114">
        <ele>321</ele>
        <time>2016-01-23T09:24:08.431Z</time>
      </trkpt>
      <trkpt lat="43.7209" lon="5.79126">
        <ele>321</ele>
        <time>2016-01-23T09:24:10.451Z</time>
      </trkpt>
      <trkpt lat="43.7209" lon="5.79132">
        <ele>321</ele>
        <time>2016-01-23T09:24:11.433Z</time>
      </trkpt>
      <trkpt lat="43.72089" lon="5.79144">
        <ele>321</ele>
        <time>2016-01-23T09:24:13.459Z</time>
      </trkpt>
      <trkpt lat="43.7209" lon="5.7915">
        <ele>321</ele>
        <time>2016-01-23T09:24:14.432Z</time>
      </trkpt>
      <trkpt lat="43.72088" lon="5.79162">
        <ele>322</ele>
        <time>2016-01-23T09:24:16.458Z</time>
      </trkpt>
      <trkpt lat="43.72088" lon="5.79167">
        <ele>322</ele>
        <time>2016-01-23T09:24:17.435Z</time>
      </trkpt>
      <trkpt lat="43.72087" lon="5.79179">
        <ele>321</ele>
        <time>2016-01-23T09:24:19.452Z</time>
      </trkpt>
      <trkpt lat="43.72086" lon="5.79185">
        <ele>321</ele>
        <time>2016-01-23T09:24:20.431Z</time>
      </trkpt>
      <trkpt lat="43.72084" lon="5.79195">
        <ele>321</ele>
        <time>2016-01-23T09:25:03.457Z</time>
      </trkpt>
      <trkpt lat="43.72084" lon="5.79197">
        <ele>321</ele>
        <time>2016-01-23T09:25:04.444Z</time>
      </trkpt>
      <trkpt lat="43.72085" lon="5.79208">
        <ele>322</ele>
        <time>2016-01-23T09:25:09.456Z</time>
      </trkpt>
      <trkpt lat="43.72084" lon="5.79212">
        <ele>321</ele>
        <time>2016-01-23T09:25:10.433Z</time>
      </trkpt>
      <trkpt lat="43.72084" lon="5.79221">
        <ele>321</ele>
        <time>2016-01-23T09:25:12.458Z</time>
      </trkpt>
      <trkpt lat="43.72083" lon="5.79225">
        <ele>321</ele>
        <time>2016-01-23T09:25:13.434Z</time>
      </trkpt>
      <trkpt lat="43.72083" lon="5.79235">
        <ele>322</ele>
        <time>2016-01-23T09:25:15.459Z</time>
      </trkpt>
      <trkpt lat="43.72084" lon="5.7924">
        <ele>322</ele>
        <time>2016-01-23T09:25:16.432Z</time>
      </trkpt>
      <trkpt lat="43.72085" lon="5.79251">
        <ele>322</ele>
        <time>2016-01-23T09:25:18.458Z</time>
      </trkpt>
      <trkpt lat="43.72086" lon="5.79256">
        <ele>323</ele>
        <time>2016-01-23T09:25:19.432Z</time>
      </trkpt>
      <trkpt lat="43.72088" lon="5.79265">
        <ele>323</ele>
        <time>2016-01-23T09:25:21.458Z</time>
      </trkpt>
      <trkpt lat="43.72088" lon="5.79269">
        <ele>323</ele>
        <time>2016-01-23T09:25:22.434Z</time>
      </trkpt>
      <trkpt lat="43.72089" lon="5.79278">
        <ele>323</ele>
        <time>2016-01-23T09:25:24.457Z</time>
      </trkpt>
      <trkpt lat="43.7209" lon="5.79283">
        <ele>323</ele>
        <time>2016-01-23T09:25:25.434Z</time>
      </trkpt>
      <trkpt lat="43.72091" lon="5.79293">
        <ele>323</ele>
        <time>2016-01-23T09:25:27.466Z</time>
      </trkpt>
      <trkpt lat="43.72091" lon="5.79298">
        <ele>323</ele>
        <time>2016-01-23T09:25:28.433Z</time>
      </trkpt>
      <trkpt lat="43.72093" lon="5.79308">
        <ele>323</ele>
        <time>2016-01-23T09:25:30.457Z</time>
      </trkpt>
      <trkpt lat="43.72093" lon="5.79312">
        <ele>323</ele>
        <time>2016-01-23T09:25:31.429Z</time>
      </trkpt>
      <trkpt lat="43.72095" lon="5.79322">
        <ele>323</ele>
        <time>2016-01-23T09:25:33.458Z</time>
      </trkpt>
      <trkpt lat="43.72095" lon="5.79327">
        <ele>323</ele>
        <time>2016-01-23T09:25:34.434Z</time>
      </trkpt>
      <trkpt lat="43.72097" lon="5.79337">
        <ele>323</ele>
        <time>2016-01-23T09:25:36.456Z</time>
      </trkpt>
      <trkpt lat="43.72098" lon="5.79341">
        <ele>323</ele>
        <time>2016-01-23T09:25:37.433Z</time>
      </trkpt>
      <trkpt lat="43.72099" lon="5.79351">
        <ele>323</ele>
        <time>2016-01-23T09:25:39.482Z</time>
      </trkpt>
      <trkpt lat="43.721" lon="5.79355">
        <ele>323</ele>
        <time>2016-01-23T09:25:40.433Z</time>
      </trkpt>
      <trkpt lat="43.72102" lon="5.79365">
        <ele>323</ele>
        <time>2016-01-23T09:25:42.463Z</time>
      </trkpt>
      <trkpt lat="43.72103" lon="5.79369">
        <ele>324</ele>
        <time>2016-01-23T09:25:43.434Z</time>
      </trkpt>
      <trkpt lat="43.72106" lon="5.79379">
        <ele>324</ele>
        <time>2016-01-23T09:25:45.459Z</time>
      </trkpt>
      <trkpt lat="43.72107" lon="5.79384">
        <ele>324</ele>
        <time>2016-01-23T09:25:46.433Z</time>
      </trkpt>
      <trkpt lat="43.72109" lon="5.79393">
        <ele>323</ele>
        <time>2016-01-23T09:25:48.456Z</time>
      </trkpt>
      <trkpt lat="43.7211" lon="5.79398">
        <ele>323</ele>
        <time>2016-01-23T09:25:49.438Z</time>
      </trkpt>
      <trkpt lat="43.72112" lon="5.79408">
        <ele>323</ele>
        <time>2016-01-23T09:25:51.456Z</time>
      </trkpt>
      <trkpt lat="43.72113" lon="5.79413">
        <ele>323</ele>
        <time>2016-01-23T09:25:52.435Z</time>
      </trkpt>
      <trkpt lat="43.72116" lon="5.79423">
        <ele>323</ele>
        <time>2016-01-23T09:25:54.460Z</time>
      </trkpt>
      <trkpt lat="43.72117" lon="5.79428">
        <ele>323</ele>
        <time>2016-01-23T09:25:55.433Z</time>
      </trkpt>
      <trkpt lat="43.72119" lon="5.79438">
        <ele>323</ele>
        <time>2016-01-23T09:25:57.456Z</time>
      </trkpt>
      <trkpt lat="43.7212" lon="5.79443">
        <ele>323</ele>
        <time>2016-01-23T09:25:58.432Z</time>
      </trkpt>
      <trkpt lat="43.72123" lon="5.79453">
        <ele>323</ele>
        <time>2016-01-23T09:26:00.461Z</time>
      </trkpt>
      <trkpt lat="43.72124" lon="5.79458">
        <ele>323</ele>
        <time>2016-01-23T09:26:01.672Z</time>
      </trkpt>
      <trkpt lat="43.72126" lon="5.79468">
        <ele>323</ele>
        <time>2016-01-23T09:26:03.458Z</time>
      </trkpt>
      <trkpt lat="43.72127" lon="5.79473">
        <ele>323</ele>
        <time>2016-01-23T09:26:04.434Z</time>
      </trkpt>
      <trkpt lat="43.72129" lon="5.79483">
        <ele>322</ele>
        <time>2016-01-23T09:26:06.458Z</time>
      </trkpt>
      <trkpt lat="43.72131" lon="5.79487">
        <ele>322</ele>
        <time>2016-01-23T09:26:07.435Z</time>
      </trkpt>
      <trkpt lat="43.72133" lon="5.79497">
        <ele>322</ele>
        <time>2016-01-23T09:26:09.451Z</time>
      </trkpt>
      <trkpt lat="43.72134" lon="5.79502">
        <ele>322</ele>
        <time>2016-01-23T09:26:10.434Z</time>
      </trkpt>
      <trkpt lat="43.72137" lon="5.79512">
        <ele>322</ele>
        <time>2016-01-23T09:26:12.706Z</time>
      </trkpt>
      <trkpt lat="43.72138" lon="5.79517">
        <ele>322</ele>
        <time>2016-01-23T09:26:13.445Z</time>
      </trkpt>
      <trkpt lat="43.72141" lon="5.79527">
        <ele>322</ele>
        <time>2016-01-23T09:26:15.456Z</time>
      </trkpt>
      <trkpt lat="43.72142" lon="5.79532">
        <ele>322</ele>
        <time>2016-01-23T09:26:16.433Z</time>
      </trkpt>
      <trkpt lat="43.72144" lon="5.79543">
        <ele>322</ele>
        <time>2016-01-23T09:26:18.457Z</time>
      </trkpt>
      <trkpt lat="43.72146" lon="5.79548">
        <ele>322</ele>
        <time>2016-01-23T09:26:19.434Z</time>
      </trkpt>
      <trkpt lat="43.72148" lon="5.79558">
        <ele>322</ele>
        <time>2016-01-23T09:26:21.458Z</time>
      </trkpt>
      <trkpt lat="43.72149" lon="5.79563">
        <ele>322</ele>
        <time>2016-01-23T09:26:22.435Z</time>
      </trkpt>
      <trkpt lat="43.72152" lon="5.79574">
        <ele>322</ele>
        <time>2016-01-23T09:26:24.687Z</time>
      </trkpt>
      <trkpt lat="43.72153" lon="5.79579">
        <ele>322</ele>
        <time>2016-01-23T09:26:25.435Z</time>
      </trkpt>
      <trkpt lat="43.72155" lon="5.79585">
        <ele>322</ele>
        <time>2016-01-23T09:26:26.460Z</time>
      </trkpt>
      <trkpt lat="43.72156" lon="5.79591">
        <ele>322</ele>
        <time>2016-01-23T09:26:27.433Z</time>
      </trkpt>
      <trkpt lat="43.72157" lon="5.79597">
        <ele>322</ele>
        <time>2016-01-23T09:26:28.458Z</time>
      </trkpt>
      <trkpt lat="43.72159" lon="5.79603">
        <ele>322</ele>
        <time>2016-01-23T09:26:29.446Z</time>
      </trkpt>
      <trkpt lat="43.72162" lon="5.79614">
        <ele>322</ele>
        <time>2016-01-23T09:26:31.459Z</time>
      </trkpt>
      <trkpt lat="43.72163" lon="5.79619">
        <ele>322</ele>
        <time>2016-01-23T09:26:32.436Z</time>
      </trkpt>
      <trkpt lat="43.72166" lon="5.7963">
        <ele>322</ele>
        <time>2016-01-23T09:26:34.458Z</time>
      </trkpt>
      <trkpt lat="43.72167" lon="5.79636">
        <ele>322</ele>
        <time>2016-01-23T09:26:35.434Z</time>
      </trkpt>
      <trkpt lat="43.7217" lon="5.79646">
        <ele>322</ele>
        <time>2016-01-23T09:26:37.457Z</time>
      </trkpt>
      <trkpt lat="43.72171" lon="5.79651">
        <ele>323</ele>
        <time>2016-01-23T09:26:38.460Z</time>
      </trkpt>
      <trkpt lat="43.72173" lon="5.79663">
        <ele>323</ele>
        <time>2016-01-23T09:26:40.457Z</time>
      </trkpt>
      <trkpt lat="43.72174" lon="5.79668">
        <ele>322</ele>
        <time>2016-01-23T09:26:41.435Z</time>
      </trkpt>
      <trkpt lat="43.72177" lon="5.79678">
        <ele>322</ele>
        <time>2016-01-23T09:26:43.459Z</time>
      </trkpt>
      <trkpt lat="43.72178" lon="5.79684">
        <ele>322</ele>
        <time>2016-01-23T09:26:44.433Z</time>
      </trkpt>
      <trkpt lat="43.72181" lon="5.79695">
        <ele>323</ele>
        <time>2016-01-23T09:26:46.456Z</time>
      </trkpt>
      <trkpt lat="43.72182" lon="5.797">
        <ele>323</ele>
        <time>2016-01-23T09:26:47.433Z</time>
      </trkpt>
      <trkpt lat="43.72185" lon="5.79711">
        <ele>323</ele>
        <time>2016-01-23T09:26:49.483Z</time>
      </trkpt>
      <trkpt lat="43.72186" lon="5.79717">
        <ele>323</ele>
        <time>2016-01-23T09:26:50.435Z</time>
      </trkpt>
      <trkpt lat="43.72189" lon="5.79727">
        <ele>323</ele>
        <time>2016-01-23T09:26:52.458Z</time>
      </trkpt>
      <trkpt lat="43.7219" lon="5.79733">
        <ele>323</ele>
        <time>2016-01-23T09:26:53.436Z</time>
      </trkpt>
      <trkpt lat="43.72193" lon="5.79743">
        <ele>323</ele>
        <time>2016-01-23T09:26:55.460Z</time>
      </trkpt>
      <trkpt lat="43.72194" lon="5.79749">
        <ele>323</ele>
        <time>2016-01-23T09:26:56.436Z</time>
      </trkpt>
      <trkpt lat="43.72197" lon="5.79759">
        <ele>323</ele>
        <time>2016-01-23T09:26:58.471Z</time>
      </trkpt>
      <trkpt lat="43.72198" lon="5.79764">
        <ele>323</ele>
        <time>2016-01-23T09:26:59.435Z</time>
      </trkpt>
      <trkpt lat="43.72201" lon="5.79775">
        <ele>323</ele>
        <time>2016-01-23T09:27:01.461Z</time>
      </trkpt>
      <trkpt lat="43.72202" lon="5.7978">
        <ele>323</ele>
        <time>2016-01-23T09:27:02.434Z</time>
      </trkpt>
      <trkpt lat="43.72205" lon="5.79791">
        <ele>323</ele>
        <time>2016-01-23T09:27:04.459Z</time>
      </trkpt>
      <trkpt lat="43.72206" lon="5.79795">
        <ele>324</ele>
        <time>2016-01-23T09:27:05.433Z</time>
      </trkpt>
      <trkpt lat="43.72208" lon="5.79806">
        <ele>324</ele>
        <time>2016-01-23T09:27:07.456Z</time>
      </trkpt>
      <trkpt lat="43.72209" lon="5.7981">
        <ele>324</ele>
        <time>2016-01-23T09:27:08.445Z</time>
      </trkpt>
      <trkpt lat="43.72212" lon="5.7982">
        <ele>324</ele>
        <time>2016-01-23T09:27:10.459Z</time>
      </trkpt>
      <trkpt lat="43.72213" lon="5.79825">
        <ele>324</ele>
        <time>2016-01-23T09:27:11.459Z</time>
      </trkpt>
      <trkpt lat="43.72216" lon="5.79835">
        <ele>324</ele>
        <time>2016-01-23T09:27:13.457Z</time>
      </trkpt>
      <trkpt lat="43.72217" lon="5.7984">
        <ele>324</ele>
        <time>2016-01-23T09:27:14.433Z</time>
      </trkpt>
      <trkpt lat="43.72219" lon="5.79851">
        <ele>325</ele>
        <time>2016-01-23T09:27:16.457Z</time>
      </trkpt>
      <trkpt lat="43.7222" lon="5.79857">
        <ele>325</ele>
        <time>2016-01-23T09:27:17.434Z</time>
      </trkpt>
      <trkpt lat="43.72223" lon="5.79866">
        <ele>325</ele>
        <time>2016-01-23T09:27:19.457Z</time>
      </trkpt>
      <trkpt lat="43.72225" lon="5.79872">
        <ele>325</ele>
        <time>2016-01-23T09:27:20.435Z</time>
      </trkpt>
      <trkpt lat="43.72227" lon="5.79883">
        <ele>325</ele>
        <time>2016-01-23T09:27:22.483Z</time>
      </trkpt>
      <trkpt lat="43.72228" lon="5.79888">
        <ele>325</ele>
        <time>2016-01-23T09:27:23.433Z</time>
      </trkpt>
      <trkpt lat="43.72231" lon="5.79898">
        <ele>325</ele>
        <time>2016-01-23T09:27:25.456Z</time>
      </trkpt>
      <trkpt lat="43.72232" lon="5.79903">
        <ele>325</ele>
        <time>2016-01-23T09:27:26.434Z</time>
      </trkpt>
      <trkpt lat="43.72235" lon="5.79914">
        <ele>325</ele>
        <time>2016-01-23T09:27:28.457Z</time>
      </trkpt>
      <trkpt lat="43.72237" lon="5.79919">
        <ele>325</ele>
        <time>2016-01-23T09:27:29.434Z</time>
      </trkpt>
      <trkpt lat="43.72239" lon="5.7993">
        <ele>325</ele>
        <time>2016-01-23T09:27:31.485Z</time>
      </trkpt>
      <trkpt lat="43.72241" lon="5.79935">
        <ele>325</ele>
        <time>2016-01-23T09:27:32.435Z</time>
      </trkpt>
      <trkpt lat="43.72243" lon="5.79946">
        <ele>325</ele>
        <time>2016-01-23T09:27:34.457Z</time>
      </trkpt>
      <trkpt lat="43.72244" lon="5.79952">
        <ele>324</ele>
        <time>2016-01-23T09:27:35.434Z</time>
      </trkpt>
      <trkpt lat="43.72247" lon="5.79962">
        <ele>325</ele>
        <time>2016-01-23T09:27:37.458Z</time>
      </trkpt>
      <trkpt lat="43.72249" lon="5.79968">
        <ele>325</ele>
        <time>2016-01-23T09:27:38.446Z</time>
      </trkpt>
      <trkpt lat="43.72251" lon="5.79978">
        <ele>325</ele>
        <time>2016-01-23T09:27:40.459Z</time>
      </trkpt>
      <trkpt lat="43.72253" lon="5.79984">
        <ele>325</ele>
        <time>2016-01-23T09:27:41.434Z</time>
      </trkpt>
      <trkpt lat="43.72255" lon="5.79993">
        <ele>324</ele>
        <time>2016-01-23T09:27:43.468Z</time>
      </trkpt>
      <trkpt lat="43.72256" lon="5.79998">
        <ele>324</ele>
        <time>2016-01-23T09:27:44.434Z</time>
      </trkpt>
      <trkpt lat="43.72258" lon="5.80007">
        <ele>324</ele>
        <time>2016-01-23T09:27:46.459Z</time>
      </trkpt>
      <trkpt lat="43.72259" lon="5.80012">
        <ele>325</ele>
        <time>2016-01-23T09:27:47.434Z</time>
      </trkpt>
      <trkpt lat="43.72261" lon="5.80022">
        <ele>325</ele>
        <time>2016-01-23T09:27:49.483Z</time>
      </trkpt>
      <trkpt lat="43.72263" lon="5.80026">
        <ele>325</ele>
        <time>2016-01-23T09:27:50.435Z</time>
      </trkpt>
      <trkpt lat="43.72265" lon="5.80036">
        <ele>325</ele>
        <time>2016-01-23T09:27:52.457Z</time>
      </trkpt>
      <trkpt lat="43.72266" lon="5.80041">
        <ele>325</ele>
        <time>2016-01-23T09:27:53.433Z</time>
      </trkpt>
      <trkpt lat="43.72268" lon="5.8005">
        <ele>325</ele>
        <time>2016-01-23T09:27:55.458Z</time>
      </trkpt>
      <trkpt lat="43.72269" lon="5.80054">
        <ele>325</ele>
        <time>2016-01-23T09:27:56.435Z</time>
      </trkpt>
      <trkpt lat="43.72271" lon="5.80062">
        <ele>325</ele>
        <time>2016-01-23T09:27:58.457Z</time>
      </trkpt>
      <trkpt lat="43.72272" lon="5.80067">
        <ele>325</ele>
        <time>2016-01-23T09:27:59.433Z</time>
      </trkpt>
      <trkpt lat="43.72274" lon="5.80076">
        <ele>325</ele>
        <time>2016-01-23T09:28:01.470Z</time>
      </trkpt>
      <trkpt lat="43.72275" lon="5.80081">
        <ele>325</ele>
        <time>2016-01-23T09:28:02.433Z</time>
      </trkpt>
      <trkpt lat="43.72277" lon="5.80091">
        <ele>325</ele>
        <time>2016-01-23T09:28:04.457Z</time>
      </trkpt>
      <trkpt lat="43.72278" lon="5.80096">
        <ele>325</ele>
        <time>2016-01-23T09:28:05.435Z</time>
      </trkpt>
      <trkpt lat="43.72281" lon="5.80105">
        <ele>325</ele>
        <time>2016-01-23T09:28:07.458Z</time>
      </trkpt>
      <trkpt lat="43.72282" lon="5.8011">
        <ele>325</ele>
        <time>2016-01-23T09:28:08.435Z</time>
      </trkpt>
      <trkpt lat="43.72284" lon="5.80121">
        <ele>325</ele>
        <time>2016-01-23T09:28:10.458Z</time>
      </trkpt>
      <trkpt lat="43.72285" lon="5.80126">
        <ele>325</ele>
        <time>2016-01-23T09:28:11.458Z</time>
      </trkpt>
      <trkpt lat="43.72287" lon="5.80136">
        <ele>325</ele>
        <time>2016-01-23T09:28:13.457Z</time>
      </trkpt>
      <trkpt lat="43.72288" lon="5.80141">
        <ele>325</ele>
        <time>2016-01-23T09:28:14.434Z</time>
      </trkpt>
      <trkpt lat="43.7229" lon="5.80152">
        <ele>325</ele>
        <time>2016-01-23T09:28:16.458Z</time>
      </trkpt>
      <trkpt lat="43.7229" lon="5.80157">
        <ele>325</ele>
        <time>2016-01-23T09:28:17.435Z</time>
      </trkpt>
      <trkpt lat="43.72289" lon="5.80168">
        <ele>325</ele>
        <time>2016-01-23T09:28:19.463Z</time>
      </trkpt>
      <trkpt lat="43.72288" lon="5.80174">
        <ele>326</ele>
        <time>2016-01-23T09:28:20.426Z</time>
      </trkpt>
      <trkpt lat="43.72285" lon="5.80183">
        <ele>326</ele>
        <time>2016-01-23T09:28:22.450Z</time>
      </trkpt>
      <trkpt lat="43.72283" lon="5.80187">
        <ele>326</ele>
        <time>2016-01-23T09:28:23.434Z</time>
      </trkpt>
      <trkpt lat="43.72276" lon="5.80188">
        <ele>326</ele>
        <time>2016-01-23T09:28:25.456Z</time>
      </trkpt>
      <trkpt lat="43.72273" lon="5.80188">
        <ele>325</ele>
        <time>2016-01-23T09:28:26.434Z</time>
      </trkpt>
      <trkpt lat="43.72265" lon="5.8019">
        <ele>325</ele>
        <time>2016-01-23T09:28:28.529Z</time>
      </trkpt>
      <trkpt lat="43.72261" lon="5.80192">
        <ele>325</ele>
        <time>2016-01-23T09:28:29.436Z</time>
      </trkpt>
      <trkpt lat="43.72254" lon="5.80196">
        <ele>326</ele>
        <time>2016-01-23T09:28:31.457Z</time>
      </trkpt>
      <trkpt lat="43.7225" lon="5.80199">
        <ele>325</ele>
        <time>2016-01-23T09:28:32.458Z</time>
      </trkpt>
      <trkpt lat="43.72243" lon="5.80203">
        <ele>326</ele>
        <time>2016-01-23T09:28:34.457Z</time>
      </trkpt>
      <trkpt lat="43.7224" lon="5.80206">
        <ele>326</ele>
        <time>2016-01-23T09:28:35.438Z</time>
      </trkpt>
      <trkpt lat="43.72232" lon="5.80211">
        <ele>326</ele>
        <time>2016-01-23T09:28:37.458Z</time>
      </trkpt>
      <trkpt lat="43.72228" lon="5.80213">
        <ele>326</ele>
        <time>2016-01-23T09:28:38.435Z</time>
      </trkpt>
      <trkpt lat="43.7222" lon="5.80218">
        <ele>325</ele>
        <time>2016-01-23T09:28:40.467Z</time>
      </trkpt>
      <trkpt lat="43.72217" lon="5.8022">
        <ele>325</ele>
        <time>2016-01-23T09:28:41.434Z</time>
      </trkpt>
      <trkpt lat="43.72208" lon="5.80225">
        <ele>325</ele>
        <time>2016-01-23T09:28:43.459Z</time>
      </trkpt>
      <trkpt lat="43.72205" lon="5.80228">
        <ele>325</ele>
        <time>2016-01-23T09:28:44.436Z</time>
      </trkpt>
      <trkpt lat="43.72197" lon="5.80233">
        <ele>325</ele>
        <time>2016-01-23T09:28:46.458Z</time>
      </trkpt>
      <trkpt lat="43.72193" lon="5.80236">
        <ele>324</ele>
        <time>2016-01-23T09:28:47.438Z</time>
      </trkpt>
      <trkpt lat="43.72185" lon="5.80241">
        <ele>324</ele>
        <time>2016-01-23T09:28:49.459Z</time>
      </trkpt>
      <trkpt lat="43.72181" lon="5.80244">
        <ele>325</ele>
        <time>2016-01-23T09:28:50.435Z</time>
      </trkpt>
      <trkpt lat="43.72173" lon="5.80249">
        <ele>325</ele>
        <time>2016-01-23T09:28:52.459Z</time>
      </trkpt>
      <trkpt lat="43.7217" lon="5.80253">
        <ele>325</ele>
        <time>2016-01-23T09:28:53.445Z</time>
      </trkpt>
      <trkpt lat="43.7217" lon="5.80262">
        <ele>325</ele>
        <time>2016-01-23T09:28:57.459Z</time>
      </trkpt>
      <trkpt lat="43.72171" lon="5.80265">
        <ele>325</ele>
        <time>2016-01-23T09:28:58.435Z</time>
      </trkpt>
      <trkpt lat="43.72175" lon="5.80274">
        <ele>325</ele>
        <time>2016-01-23T09:29:00.441Z</time>
      </trkpt>
      <trkpt lat="43.72177" lon="5.80279">
        <ele>325</ele>
        <time>2016-01-23T09:29:01.433Z</time>
      </trkpt>
      <trkpt lat="43.72181" lon="5.80288">
        <ele>325</ele>
        <time>2016-01-23T09:29:03.456Z</time>
      </trkpt>
      <trkpt lat="43.72183" lon="5.80293">
        <ele>325</ele>
        <time>2016-01-23T09:29:04.435Z</time>
      </trkpt>
      <trkpt lat="43.72187" lon="5.80303">
        <ele>325</ele>
        <time>2016-01-23T09:29:06.461Z</time>
      </trkpt>
      <trkpt lat="43.72189" lon="5.80308">
        <ele>325</ele>
        <time>2016-01-23T09:29:07.435Z</time>
      </trkpt>
      <trkpt lat="43.72193" lon="5.80319">
        <ele>325</ele>
        <time>2016-01-23T09:29:09.458Z</time>
      </trkpt>
      <trkpt lat="43.72195" lon="5.80323">
        <ele>325</ele>
        <time>2016-01-23T09:29:10.471Z</time>
      </trkpt>
      <trkpt lat="43.72199" lon="5.80334">
        <ele>325</ele>
        <time>2016-01-23T09:29:12.458Z</time>
      </trkpt>
      <trkpt lat="43.72201" lon="5.80339">
        <ele>325</ele>
        <time>2016-01-23T09:29:13.434Z</time>
      </trkpt>
      <trkpt lat="43.72205" lon="5.80349">
        <ele>325</ele>
        <time>2016-01-23T09:29:15.469Z</time>
      </trkpt>
      <trkpt lat="43.72207" lon="5.80354">
        <ele>324</ele>
        <time>2016-01-23T09:29:16.436Z</time>
      </trkpt>
      <trkpt lat="43.7221" lon="5.80364">
        <ele>324</ele>
        <time>2016-01-23T09:29:18.458Z</time>
      </trkpt>
      <trkpt lat="43.72213" lon="5.80369">
        <ele>324</ele>
        <time>2016-01-23T09:29:19.436Z</time>
      </trkpt>
      <trkpt lat="43.72217" lon="5.80379">
        <ele>325</ele>
        <time>2016-01-23T09:29:21.483Z</time>
      </trkpt>
      <trkpt lat="43.72219" lon="5.80384">
        <ele>325</ele>
        <time>2016-01-23T09:29:22.435Z</time>
      </trkpt>
      <trkpt lat="43.72223" lon="5.80394">
        <ele>325</ele>
        <time>2016-01-23T09:29:24.457Z</time>
      </trkpt>
      <trkpt lat="43.72225" lon="5.804">
        <ele>325</ele>
        <time>2016-01-23T09:29:25.435Z</time>
      </trkpt>
      <trkpt lat="43.72229" lon="5.8041">
        <ele>325</ele>
        <time>2016-01-23T09:29:27.458Z</time>
      </trkpt>
      <trkpt lat="43.72232" lon="5.80415">
        <ele>325</ele>
        <time>2016-01-23T09:29:28.446Z</time>
      </trkpt>
      <trkpt lat="43.72236" lon="5.80426">
        <ele>325</ele>
        <time>2016-01-23T09:29:30.458Z</time>
      </trkpt>
      <trkpt lat="43.72238" lon="5.80431">
        <ele>325</ele>
        <time>2016-01-23T09:29:31.435Z</time>
      </trkpt>
      <trkpt lat="43.72242" lon="5.80441">
        <ele>325</ele>
        <time>2016-01-23T09:29:33.468Z</time>
      </trkpt>
      <trkpt lat="43.72244" lon="5.80446">
        <ele>325</ele>
        <time>2016-01-23T09:29:34.436Z</time>
      </trkpt>
      <trkpt lat="43.72248" lon="5.80457">
        <ele>325</ele>
        <time>2016-01-23T09:29:36.451Z</time>
      </trkpt>
      <trkpt lat="43.7225" lon="5.80462">
        <ele>325</ele>
        <time>2016-01-23T09:29:37.437Z</time>
      </trkpt>
      <trkpt lat="43.72254" lon="5.80472">
        <ele>325</ele>
        <time>2016-01-23T09:29:39.462Z</time>
      </trkpt>
      <trkpt lat="43.72256" lon="5.80477">
        <ele>325</ele>
        <time>2016-01-23T09:29:40.443Z</time>
      </trkpt>
      <trkpt lat="43.72259" lon="5.80487">
        <ele>325</ele>
        <time>2016-01-23T09:29:42.451Z</time>
      </trkpt>
      <trkpt lat="43.72261" lon="5.80492">
        <ele>325</ele>
        <time>2016-01-23T09:29:43.433Z</time>
      </trkpt>
      <trkpt lat="43.72265" lon="5.80502">
        <ele>325</ele>
        <time>2016-01-23T09:29:45.513Z</time>
      </trkpt>
      <trkpt lat="43.72267" lon="5.80507">
        <ele>325</ele>
        <time>2016-01-23T09:29:46.434Z</time>
      </trkpt>
      <trkpt lat="43.72271" lon="5.80517">
        <ele>325</ele>
        <time>2016-01-23T09:29:48.446Z</time>
      </trkpt>
      <trkpt lat="43.72273" lon="5.80522">
        <ele>325</ele>
        <time>2016-01-23T09:29:49.434Z</time>
      </trkpt>
      <trkpt lat="43.72277" lon="5.80532">
        <ele>325</ele>
        <time>2016-01-23T09:29:51.452Z</time>
      </trkpt>
      <trkpt lat="43.72279" lon="5.80537">
        <ele>325</ele>
        <time>2016-01-23T09:29:52.436Z</time>
      </trkpt>
      <trkpt lat="43.72283" lon="5.80547">
        <ele>325</ele>
        <time>2016-01-23T09:29:54.455Z</time>
      </trkpt>
      <trkpt lat="43.72285" lon="5.80552">
        <ele>325</ele>
        <time>2016-01-23T09:29:55.433Z</time>
      </trkpt>
      <trkpt lat="43.72289" lon="5.80562">
        <ele>325</ele>
        <time>2016-01-23T09:29:57.452Z</time>
      </trkpt>
      <trkpt lat="43.7229" lon="5.80566">
        <ele>325</ele>
        <time>2016-01-23T09:29:58.433Z</time>
      </trkpt>
      <trkpt lat="43.72294" lon="5.80576">
        <ele>325</ele>
        <time>2016-01-23T09:30:00.454Z</time>
      </trkpt>
      <trkpt lat="43.72296" lon="5.80581">
        <ele>325</ele>
        <time>2016-01-23T09:30:01.432Z</time>
      </trkpt>
      <trkpt lat="43.72299" lon="5.80591">
        <ele>326</ele>
        <time>2016-01-23T09:30:03.452Z</time>
      </trkpt>
      <trkpt lat="43.72301" lon="5.80595">
        <ele>325</ele>
        <time>2016-01-23T09:30:04.454Z</time>
      </trkpt>
      <trkpt lat="43.72305" lon="5.80604">
        <ele>325</ele>
        <time>2016-01-23T09:30:06.453Z</time>
      </trkpt>
      <trkpt lat="43.72306" lon="5.80608">
        <ele>325</ele>
        <time>2016-01-23T09:30:07.433Z</time>
      </trkpt>
      <trkpt lat="43.72308" lon="5.80618">
        <ele>325</ele>
        <time>2016-01-23T09:30:10.451Z</time>
      </trkpt>
      <trkpt lat="43.72306" lon="5.80622">
        <ele>324</ele>
        <time>2016-01-23T09:30:11.432Z</time>
      </trkpt>
      <trkpt lat="43.723" lon="5.80629">
        <ele>324</ele>
        <time>2016-01-23T09:30:13.454Z</time>
      </trkpt>
      <trkpt lat="43.72296" lon="5.80631">
        <ele>324</ele>
        <time>2016-01-23T09:30:14.434Z</time>
      </trkpt>
      <trkpt lat="43.72289" lon="5.80638">
        <ele>324</ele>
        <time>2016-01-23T09:30:16.452Z</time>
      </trkpt>
      <trkpt lat="43.72286" lon="5.8064">
        <ele>324</ele>
        <time>2016-01-23T09:30:17.434Z</time>
      </trkpt>
      <trkpt lat="43.7228" lon="5.80645">
        <ele>324</ele>
        <time>2016-01-23T09:30:19.460Z</time>
      </trkpt>
      <trkpt lat="43.72277" lon="5.80648">
        <ele>324</ele>
        <time>2016-01-23T09:30:20.432Z</time>
      </trkpt>
      <trkpt lat="43.72272" lon="5.80653">
        <ele>323</ele>
        <time>2016-01-23T09:30:22.452Z</time>
      </trkpt>
      <trkpt lat="43.72269" lon="5.80655">
        <ele>324</ele>
        <time>2016-01-23T09:30:23.434Z</time>
      </trkpt>
      <trkpt lat="43.72264" lon="5.8066">
        <ele>324</ele>
        <time>2016-01-23T09:30:25.454Z</time>
      </trkpt>
      <trkpt lat="43.72262" lon="5.80663">
        <ele>324</ele>
        <time>2016-01-23T09:30:26.436Z</time>
      </trkpt>
      <trkpt lat="43.72256" lon="5.80669">
        <ele>324</ele>
        <time>2016-01-23T09:30:28.452Z</time>
      </trkpt>
      <trkpt lat="43.72254" lon="5.80672">
        <ele>324</ele>
        <time>2016-01-23T09:30:29.440Z</time>
      </trkpt>
      <trkpt lat="43.72249" lon="5.80678">
        <ele>324</ele>
        <time>2016-01-23T09:30:31.918Z</time>
      </trkpt>
      <trkpt lat="43.72246" lon="5.80681">
        <ele>324</ele>
        <time>2016-01-23T09:30:32.439Z</time>
      </trkpt>
      <trkpt lat="43.72241" lon="5.80686">
        <ele>325</ele>
        <time>2016-01-23T09:30:34.449Z</time>
      </trkpt>
      <trkpt lat="43.72239" lon="5.80689">
        <ele>325</ele>
        <time>2016-01-23T09:30:35.429Z</time>
      </trkpt>
      <trkpt lat="43.72234" lon="5.80695">
        <ele>324</ele>
        <time>2016-01-23T09:30:37.605Z</time>
      </trkpt>
      <trkpt lat="43.72232" lon="5.80698">
        <ele>323</ele>
        <time>2016-01-23T09:30:38.428Z</time>
      </trkpt>
      <trkpt lat="43.72227" lon="5.80704">
        <ele>323</ele>
        <time>2016-01-23T09:30:40.443Z</time>
      </trkpt>
      <trkpt lat="43.72225" lon="5.80707">
        <ele>323</ele>
        <time>2016-01-23T09:30:41.515Z</time>
      </trkpt>
      <trkpt lat="43.7222" lon="5.80713">
        <ele>325</ele>
        <time>2016-01-23T09:30:43.610Z</time>
      </trkpt>
      <trkpt lat="43.72218" lon="5.80717">
        <ele>325</ele>
        <time>2016-01-23T09:30:44.436Z</time>
      </trkpt>
      <trkpt lat="43.72215" lon="5.80724">
        <ele>325</ele>
        <time>2016-01-23T09:30:46.439Z</time>
      </trkpt>
      <trkpt lat="43.72214" lon="5.80728">
        <ele>324</ele>
        <time>2016-01-23T09:30:47.458Z</time>
      </trkpt>
      <trkpt lat="43.72216" lon="5.80737">
        <ele>324</ele>
        <time>2016-01-23T09:30:49.630Z</time>
      </trkpt>
      <trkpt lat="43.72218" lon="5.80741">
        <ele>324</ele>
        <time>2016-01-23T09:30:50.433Z</time>
      </trkpt>
      <trkpt lat="43.72221" lon="5.80748">
        <ele>324</ele>
        <time>2016-01-23T09:30:52.516Z</time>
      </trkpt>
      <trkpt lat="43.72222" lon="5.80752">
        <ele>324</ele>
        <time>2016-01-23T09:30:53.434Z</time>
      </trkpt>
      <trkpt lat="43.72221" lon="5.8076">
        <ele>325</ele>
        <time>2016-01-23T09:30:55.458Z</time>
      </trkpt>
      <trkpt lat="43.7222" lon="5.80765">
        <ele>326</ele>
        <time>2016-01-23T09:30:56.435Z</time>
      </trkpt>
      <trkpt lat="43.72217" lon="5.80772">
        <ele>326</ele>
        <time>2016-01-23T09:30:58.456Z</time>
      </trkpt>
      <trkpt lat="43.72217" lon="5.80776">
        <ele>326</ele>
        <time>2016-01-23T09:30:59.434Z</time>
      </trkpt>
      <trkpt lat="43.72217" lon="5.80785">
        <ele>326</ele>
        <time>2016-01-23T09:31:01.456Z</time>
      </trkpt>
      <trkpt lat="43.72218" lon="5.80789">
        <ele>327</ele>
        <time>2016-01-23T09:31:02.433Z</time>
      </trkpt>
      <trkpt lat="43.72221" lon="5.80797">
        <ele>328</ele>
        <time>2016-01-23T09:31:04.462Z</time>
      </trkpt>
      <trkpt lat="43.72223" lon="5.80801">
        <ele>328</ele>
        <time>2016-01-23T09:31:05.437Z</time>
      </trkpt>
      <trkpt lat="43.72226" lon="5.8081">
        <ele>328</ele>
        <time>2016-01-23T09:31:07.461Z</time>
      </trkpt>
      <trkpt lat="43.72228" lon="5.80814">
        <ele>328</ele>
        <time>2016-01-23T09:31:08.436Z</time>
      </trkpt>
      <trkpt lat="43.72232" lon="5.80823">
        <ele>328</ele>
        <time>2016-01-23T09:31:10.460Z</time>
      </trkpt>
      <trkpt lat="43.72234" lon="5.80827">
        <ele>328</ele>
        <time>2016-01-23T09:31:11.435Z</time>
      </trkpt>
      <trkpt lat="43.72237" lon="5.80836">
        <ele>327</ele>
        <time>2016-01-23T09:31:13.461Z</time>
      </trkpt>
      <trkpt lat="43.72239" lon="5.8084">
        <ele>327</ele>
        <time>2016-01-23T09:31:14.437Z</time>
      </trkpt>
      <trkpt lat="43.72243" lon="5.80849">
        <ele>327</ele>
        <time>2016-01-23T09:31:16.460Z</time>
      </trkpt>
      <trkpt lat="43.72246" lon="5.80854">
        <ele>327</ele>
        <time>2016-01-23T09:31:17.436Z</time>
      </trkpt>
      <trkpt lat="43.72251" lon="5.80863">
        <ele>328</ele>
        <time>2016-01-23T09:31:19.485Z</time>
      </trkpt>
      <trkpt lat="43.72254" lon="5.80867">
        <ele>328</ele>
        <time>2016-01-23T09:31:20.436Z</time>
      </trkpt>
      <trkpt lat="43.72258" lon="5.80875">
        <ele>328</ele>
        <time>2016-01-23T09:31:22.460Z</time>
      </trkpt>
      <trkpt lat="43.72261" lon="5.8088">
        <ele>328</ele>
        <time>2016-01-23T09:31:23.435Z</time>
      </trkpt>
      <trkpt lat="43.72266" lon="5.80888">
        <ele>328</ele>
        <time>2016-01-23T09:31:25.460Z</time>
      </trkpt>
      <trkpt lat="43.72268" lon="5.80892">
        <ele>328</ele>
        <time>2016-01-23T09:31:26.436Z</time>
      </trkpt>
      <trkpt lat="43.72273" lon="5.80902">
        <ele>328</ele>
        <time>2016-01-23T09:31:28.459Z</time>
      </trkpt>
      <trkpt lat="43.72275" lon="5.80906">
        <ele>328</ele>
        <time>2016-01-23T09:31:29.436Z</time>
      </trkpt>
      <trkpt lat="43.7228" lon="5.80914">
        <ele>328</ele>
        <time>2016-01-23T09:31:31.461Z</time>
      </trkpt>
      <trkpt lat="43.72282" lon="5.80918">
        <ele>328</ele>
        <time>2016-01-23T09:31:32.436Z</time>
      </trkpt>
      <trkpt lat="43.72287" lon="5.80927">
        <ele>328</ele>
        <time>2016-01-23T09:31:34.461Z</time>
      </trkpt>
      <trkpt lat="43.7229" lon="5.80931">
        <ele>328</ele>
        <time>2016-01-23T09:31:35.437Z</time>
      </trkpt>
      <trkpt lat="43.72293" lon="5.8094">
        <ele>329</ele>
        <time>2016-01-23T09:31:37.489Z</time>
      </trkpt>
      <trkpt lat="43.72295" lon="5.80946">
        <ele>329</ele>
        <time>2016-01-23T09:31:38.431Z</time>
      </trkpt>
      <trkpt lat="43.72294" lon="5.80957">
        <ele>329</ele>
        <time>2016-01-23T09:31:40.461Z</time>
      </trkpt>
      <trkpt lat="43.72293" lon="5.80962">
        <ele>329</ele>
        <time>2016-01-23T09:31:41.460Z</time>
      </trkpt>
      <trkpt lat="43.7229" lon="5.80971">
        <ele>329</ele>
        <time>2016-01-23T09:31:43.538Z</time>
      </trkpt>
      <trkpt lat="43.72289" lon="5.80976">
        <ele>328</ele>
        <time>2016-01-23T09:31:44.437Z</time>
      </trkpt>
      <trkpt lat="43.72286" lon="5.80984">
        <ele>328</ele>
        <time>2016-01-23T09:31:46.455Z</time>
      </trkpt>
      <trkpt lat="43.72285" lon="5.80988">
        <ele>329</ele>
        <time>2016-01-23T09:31:47.435Z</time>
      </trkpt>
      <trkpt lat="43.72282" lon="5.80997">
        <ele>329</ele>
        <time>2016-01-23T09:31:49.460Z</time>
      </trkpt>
      <trkpt lat="43.7228" lon="5.81">
        <ele>329</ele>
        <time>2016-01-23T09:31:50.436Z</time>
      </trkpt>
      <trkpt lat="43.72277" lon="5.81008">
        <ele>330</ele>
        <time>2016-01-23T09:31:52.487Z</time>
      </trkpt>
      <trkpt lat="43.72276" lon="5.81012">
        <ele>330</ele>
        <time>2016-01-23T09:31:53.437Z</time>
      </trkpt>
      <trkpt lat="43.72273" lon="5.81023">
        <ele>330</ele>
        <time>2016-01-23T09:31:56.460Z</time>
      </trkpt>
      <trkpt lat="43.72272" lon="5.81027">
        <ele>330</ele>
        <time>2016-01-23T09:31:57.433Z</time>
      </trkpt>
      <trkpt lat="43.72269" lon="5.81034">
        <ele>330</ele>
        <time>2016-01-23T09:31:59.460Z</time>
      </trkpt>
      <trkpt lat="43.72267" lon="5.81038">
        <ele>330</ele>
        <time>2016-01-23T09:32:00.439Z</time>
      </trkpt>
      <trkpt lat="43.72263" lon="5.81044">
        <ele>330</ele>
        <time>2016-01-23T09:32:02.461Z</time>
      </trkpt>
      <trkpt lat="43.72261" lon="5.81048">
        <ele>330</ele>
        <time>2016-01-23T09:32:03.461Z</time>
      </trkpt>
      <trkpt lat="43.7226" lon="5.81054">
        <ele>330</ele>
        <time>2016-01-23T09:32:04.459Z</time>
      </trkpt>
      <trkpt lat="43.72261" lon="5.81063">
        <ele>330</ele>
        <time>2016-01-23T09:32:05.436Z</time>
      </trkpt>
      <trkpt lat="43.72261" lon="5.81069">
        <ele>329</ele>
        <time>2016-01-23T09:32:06.461Z</time>
      </trkpt>
      <trkpt lat="43.72261" lon="5.81076">
        <ele>329</ele>
        <time>2016-01-23T09:32:07.436Z</time>
      </trkpt>
      <trkpt lat="43.72261" lon="5.81084">
        <ele>329</ele>
        <time>2016-01-23T09:32:08.467Z</time>
      </trkpt>
      <trkpt lat="43.7226" lon="5.8109">
        <ele>330</ele>
        <time>2016-01-23T09:32:09.438Z</time>
      </trkpt>
      <trkpt lat="43.72259" lon="5.81097">
        <ele>330</ele>
        <time>2016-01-23T09:32:10.633Z</time>
      </trkpt>
      <trkpt lat="43.72258" lon="5.81103">
        <ele>331</ele>
        <time>2016-01-23T09:32:11.436Z</time>
      </trkpt>
      <trkpt lat="43.72256" lon="5.81115">
        <ele>332</ele>
        <time>2016-01-23T09:32:13.460Z</time>
      </trkpt>
      <trkpt lat="43.72255" lon="5.8112">
        <ele>332</ele>
        <time>2016-01-23T09:32:14.434Z</time>
      </trkpt>
      <trkpt lat="43.72254" lon="5.81131">
        <ele>333</ele>
        <time>2016-01-23T09:32:16.460Z</time>
      </trkpt>
      <trkpt lat="43.72253" lon="5.81136">
        <ele>333</ele>
        <time>2016-01-23T09:32:17.435Z</time>
      </trkpt>
      <trkpt lat="43.72252" lon="5.81146">
        <ele>334</ele>
        <time>2016-01-23T09:32:19.487Z</time>
      </trkpt>
      <trkpt lat="43.72251" lon="5.8115">
        <ele>334</ele>
        <time>2016-01-23T09:32:20.436Z</time>
      </trkpt>
      <trkpt lat="43.7225" lon="5.81159">
        <ele>334</ele>
        <time>2016-01-23T09:32:22.516Z</time>
      </trkpt>
      <trkpt lat="43.72249" lon="5.81164">
        <ele>334</ele>
        <time>2016-01-23T09:32:23.506Z</time>
      </trkpt>
      <trkpt lat="43.72247" lon="5.81172">
        <ele>335</ele>
        <time>2016-01-23T09:32:25.458Z</time>
      </trkpt>
      <trkpt lat="43.72246" lon="5.81177">
        <ele>335</ele>
        <time>2016-01-23T09:32:26.435Z</time>
      </trkpt>
      <trkpt lat="43.72245" lon="5.81186">
        <ele>335</ele>
        <time>2016-01-23T09:32:28.469Z</time>
      </trkpt>
      <trkpt lat="43.72245" lon="5.81191">
        <ele>335</ele>
        <time>2016-01-23T09:32:29.435Z</time>
      </trkpt>
      <trkpt lat="43.72243" lon="5.81199">
        <ele>336</ele>
        <time>2016-01-23T09:32:31.471Z</time>
      </trkpt>
      <trkpt lat="43.72242" lon="5.81204">
        <ele>337</ele>
        <time>2016-01-23T09:32:32.456Z</time>
      </trkpt>
      <trkpt lat="43.72241" lon="5.81212">
        <ele>338</ele>
        <time>2016-01-23T09:32:34.498Z</time>
      </trkpt>
      <trkpt lat="43.7224" lon="5.81216">
        <ele>338</ele>
        <time>2016-01-23T09:32:35.459Z</time>
      </trkpt>
      <trkpt lat="43.72239" lon="5.81225">
        <ele>338</ele>
        <time>2016-01-23T09:32:37.461Z</time>
      </trkpt>
      <trkpt lat="43.72238" lon="5.81229">
        <ele>339</ele>
        <time>2016-01-23T09:32:38.436Z</time>
      </trkpt>
      <trkpt lat="43.72237" lon="5.81237">
        <ele>340</ele>
        <time>2016-01-23T09:32:40.488Z</time>
      </trkpt>
      <trkpt lat="43.72236" lon="5.81241">
        <ele>341</ele>
        <time>2016-01-23T09:32:41.439Z</time>
      </trkpt>
      <trkpt lat="43.72234" lon="5.81253">
        <ele>343</ele>
        <time>2016-01-23T09:32:44.462Z</time>
      </trkpt>
      <trkpt lat="43.72232" lon="5.81257">
        <ele>343</ele>
        <time>2016-01-23T09:32:45.436Z</time>
      </trkpt>
      <trkpt lat="43.72228" lon="5.81263">
        <ele>343</ele>
        <time>2016-01-23T09:32:47.461Z</time>
      </trkpt>
      <trkpt lat="43.72225" lon="5.81265">
        <ele>343</ele>
        <time>2016-01-23T09:32:48.436Z</time>
      </trkpt>
      <trkpt lat="43.72219" lon="5.81268">
        <ele>343</ele>
        <time>2016-01-23T09:32:50.462Z</time>
      </trkpt>
      <trkpt lat="43.72216" lon="5.81269">
        <ele>343</ele>
        <time>2016-01-23T09:32:51.463Z</time>
      </trkpt>
      <trkpt lat="43.7221" lon="5.81271">
        <ele>343</ele>
        <time>2016-01-23T09:32:53.460Z</time>
      </trkpt>
      <trkpt lat="43.72206" lon="5.81272">
        <ele>343</ele>
        <time>2016-01-23T09:32:54.436Z</time>
      </trkpt>
      <trkpt lat="43.722" lon="5.81275">
        <ele>342</ele>
        <time>2016-01-23T09:32:56.460Z</time>
      </trkpt>
      <trkpt lat="43.72196" lon="5.81276">
        <ele>342</ele>
        <time>2016-01-23T09:32:57.435Z</time>
      </trkpt>
      <trkpt lat="43.72189" lon="5.81278">
        <ele>343</ele>
        <time>2016-01-23T09:32:59.473Z</time>
      </trkpt>
      <trkpt lat="43.72186" lon="5.81279">
        <ele>343</ele>
        <time>2016-01-23T09:33:00.436Z</time>
      </trkpt>
      <trkpt lat="43.7218" lon="5.81282">
        <ele>344</ele>
        <time>2016-01-23T09:33:02.486Z</time>
      </trkpt>
      <trkpt lat="43.72176" lon="5.81283">
        <ele>344</ele>
        <time>2016-01-23T09:33:03.437Z</time>
      </trkpt>
      <trkpt lat="43.72169" lon="5.81285">
        <ele>343</ele>
        <time>2016-01-23T09:33:05.530Z</time>
      </trkpt>
      <trkpt lat="43.72166" lon="5.81286">
        <ele>344</ele>
        <time>2016-01-23T09:33:06.436Z</time>
      </trkpt>
      <trkpt lat="43.72159" lon="5.81287">
        <ele>343</ele>
        <time>2016-01-23T09:33:08.460Z</time>
      </trkpt>
      <trkpt lat="43.72155" lon="5.81288">
        <ele>343</ele>
        <time>2016-01-23T09:33:09.436Z</time>
      </trkpt>
      <trkpt lat="43.72149" lon="5.81288">
        <ele>343</ele>
        <time>2016-01-23T09:33:11.461Z</time>
      </trkpt>
      <trkpt lat="43.72145" lon="5.81289">
        <ele>343</ele>
        <time>2016-01-23T09:33:12.438Z</time>
      </trkpt>
      <trkpt lat="43.72139" lon="5.8129">
        <ele>344</ele>
        <time>2016-01-23T09:33:14.460Z</time>
      </trkpt>
      <trkpt lat="43.72136" lon="5.81291">
        <ele>344</ele>
        <time>2016-01-23T09:33:15.435Z</time>
      </trkpt>
      <trkpt lat="43.72127" lon="5.81291">
        <ele>344</ele>
        <time>2016-01-23T09:33:20.461Z</time>
      </trkpt>
      <trkpt lat="43.72126" lon="5.81292">
        <ele>344</ele>
        <time>2016-01-23T09:33:21.437Z</time>
      </trkpt>
      <trkpt lat="43.72119" lon="5.81296">
        <ele>344</ele>
        <time>2016-01-23T09:33:28.471Z</time>
      </trkpt>
      <trkpt lat="43.72117" lon="5.81296">
        <ele>344</ele>
        <time>2016-01-23T09:33:29.461Z</time>
      </trkpt>
      <trkpt lat="43.72109" lon="5.81297">
        <ele>345</ele>
        <time>2016-01-23T09:33:34.459Z</time>
      </trkpt>
      <trkpt lat="43.72107" lon="5.81298">
        <ele>345</ele>
        <time>2016-01-23T09:33:35.437Z</time>
      </trkpt>
      <trkpt lat="43.721" lon="5.81301">
        <ele>346</ele>
        <time>2016-01-23T09:33:39.461Z</time>
      </trkpt>
      <trkpt lat="43.72098" lon="5.81302">
        <ele>346</ele>
        <time>2016-01-23T09:33:40.437Z</time>
      </trkpt>
      <trkpt lat="43.7209" lon="5.81307">
        <ele>346</ele>
        <time>2016-01-23T09:33:45.486Z</time>
      </trkpt>
      <trkpt lat="43.72088" lon="5.81308">
        <ele>346</ele>
        <time>2016-01-23T09:33:46.436Z</time>
      </trkpt>
      <trkpt lat="43.7208" lon="5.81314">
        <ele>347</ele>
        <time>2016-01-23T09:33:51.461Z</time>
      </trkpt>
      <trkpt lat="43.72079" lon="5.81315">
        <ele>347</ele>
        <time>2016-01-23T09:33:52.437Z</time>
      </trkpt>
      <trkpt lat="43.72071" lon="5.81319">
        <ele>349</ele>
        <time>2016-01-23T09:33:57.461Z</time>
      </trkpt>
      <trkpt lat="43.7207" lon="5.8132">
        <ele>349</ele>
        <time>2016-01-23T09:33:58.438Z</time>
      </trkpt>
      <trkpt lat="43.72063" lon="5.81326">
        <ele>350</ele>
        <time>2016-01-23T09:34:04.468Z</time>
      </trkpt>
      <trkpt lat="43.72062" lon="5.81327">
        <ele>350</ele>
        <time>2016-01-23T09:34:05.438Z</time>
      </trkpt>
      <trkpt lat="43.72055" lon="5.81333">
        <ele>353</ele>
        <time>2016-01-23T09:34:12.453Z</time>
      </trkpt>
      <trkpt lat="43.72054" lon="5.81334">
        <ele>353</ele>
        <time>2016-01-23T09:34:13.433Z</time>
      </trkpt>
      <trkpt lat="43.72048" lon="5.81341">
        <ele>354</ele>
        <time>2016-01-23T09:34:19.455Z</time>
      </trkpt>
      <trkpt lat="43.72047" lon="5.81342">
        <ele>354</ele>
        <time>2016-01-23T09:34:20.435Z</time>
      </trkpt>
      <trkpt lat="43.72039" lon="5.81349">
        <ele>354</ele>
        <time>2016-01-23T09:34:26.457Z</time>
      </trkpt>
      <trkpt lat="43.72038" lon="5.8135">
        <ele>354</ele>
        <time>2016-01-23T09:34:27.436Z</time>
      </trkpt>
      <trkpt lat="43.72031" lon="5.81357">
        <ele>355</ele>
        <time>2016-01-23T09:34:32.456Z</time>
      </trkpt>
      <trkpt lat="43.7203" lon="5.81358">
        <ele>355</ele>
        <time>2016-01-23T09:34:33.434Z</time>
      </trkpt>
      <trkpt lat="43.72023" lon="5.81365">
        <ele>355</ele>
        <time>2016-01-23T09:34:39.456Z</time>
      </trkpt>
      <trkpt lat="43.72022" lon="5.81366">
        <ele>356</ele>
        <time>2016-01-23T09:34:40.456Z</time>
      </trkpt>
      <trkpt lat="43.72015" lon="5.81374">
        <ele>358</ele>
        <time>2016-01-23T09:34:47.455Z</time>
      </trkpt>
      <trkpt lat="43.72014" lon="5.81375">
        <ele>358</ele>
        <time>2016-01-23T09:34:48.435Z</time>
      </trkpt>
      <trkpt lat="43.72008" lon="5.81383">
        <ele>361</ele>
        <time>2016-01-23T09:34:55.456Z</time>
      </trkpt>
      <trkpt lat="43.72007" lon="5.81384">
        <ele>361</ele>
        <time>2016-01-23T09:34:56.434Z</time>
      </trkpt>
      <trkpt lat="43.72" lon="5.81393">
        <ele>362</ele>
        <time>2016-01-23T09:35:05.456Z</time>
      </trkpt>
      <trkpt lat="43.71999" lon="5.81394">
        <ele>362</ele>
        <time>2016-01-23T09:35:06.437Z</time>
      </trkpt>
      <trkpt lat="43.71992" lon="5.814">
        <ele>362</ele>
        <time>2016-01-23T09:35:12.455Z</time>
      </trkpt>
      <trkpt lat="43.71991" lon="5.81401">
        <ele>362</ele>
        <time>2016-01-23T09:35:13.436Z</time>
      </trkpt>
      <trkpt lat="43.71984" lon="5.81408">
        <ele>364</ele>
        <time>2016-01-23T09:35:21.455Z</time>
      </trkpt>
      <trkpt lat="43.71983" lon="5.81409">
        <ele>364</ele>
        <time>2016-01-23T09:35:22.435Z</time>
      </trkpt>
      <trkpt lat="43.71976" lon="5.81417">
        <ele>366</ele>
        <time>2016-01-23T09:35:29.651Z</time>
      </trkpt>
      <trkpt lat="43.71975" lon="5.81418">
        <ele>367</ele>
        <time>2016-01-23T09:35:30.431Z</time>
      </trkpt>
      <trkpt lat="43.71968" lon="5.81425">
        <ele>367</ele>
        <time>2016-01-23T09:35:37.456Z</time>
      </trkpt>
      <trkpt lat="43.71967" lon="5.81426">
        <ele>367</ele>
        <time>2016-01-23T09:35:38.436Z</time>
      </trkpt>
      <trkpt lat="43.7196" lon="5.81433">
        <ele>369</ele>
        <time>2016-01-23T09:35:45.455Z</time>
      </trkpt>
      <trkpt lat="43.71959" lon="5.81434">
        <ele>369</ele>
        <time>2016-01-23T09:35:46.437Z</time>
      </trkpt>
      <trkpt lat="43.71953" lon="5.81441">
        <ele>368</ele>
        <time>2016-01-23T09:35:52.523Z</time>
      </trkpt>
      <trkpt lat="43.71952" lon="5.81442">
        <ele>368</ele>
        <time>2016-01-23T09:35:53.432Z</time>
      </trkpt>
      <trkpt lat="43.71945" lon="5.81448">
        <ele>369</ele>
        <time>2016-01-23T09:35:59.461Z</time>
      </trkpt>
      <trkpt lat="43.71944" lon="5.81449">
        <ele>370</ele>
        <time>2016-01-23T09:36:00.438Z</time>
      </trkpt>
      <trkpt lat="43.71938" lon="5.81456">
        <ele>371</ele>
        <time>2016-01-23T09:36:06.462Z</time>
      </trkpt>
      <trkpt lat="43.71937" lon="5.81457">
        <ele>371</ele>
        <time>2016-01-23T09:36:07.439Z</time>
      </trkpt>
      <trkpt lat="43.7193" lon="5.81464">
        <ele>370</ele>
        <time>2016-01-23T09:36:13.463Z</time>
      </trkpt>
      <trkpt lat="43.71929" lon="5.81465">
        <ele>371</ele>
        <time>2016-01-23T09:36:14.437Z</time>
      </trkpt>
      <trkpt lat="43.71923" lon="5.81471">
        <ele>373</ele>
        <time>2016-01-23T09:36:21.462Z</time>
      </trkpt>
      <trkpt lat="43.71922" lon="5.81472">
        <ele>374</ele>
        <time>2016-01-23T09:36:22.439Z</time>
      </trkpt>
      <trkpt lat="43.71914" lon="5.81479">
        <ele>375</ele>
        <time>2016-01-23T09:36:29.489Z</time>
      </trkpt>
      <trkpt lat="43.71913" lon="5.81479">
        <ele>375</ele>
        <time>2016-01-23T09:36:30.437Z</time>
      </trkpt>
      <trkpt lat="43.71906" lon="5.81485">
        <ele>376</ele>
        <time>2016-01-23T09:36:37.462Z</time>
      </trkpt>
      <trkpt lat="43.71905" lon="5.81486">
        <ele>376</ele>
        <time>2016-01-23T09:36:38.450Z</time>
      </trkpt>
      <trkpt lat="43.71899" lon="5.81493">
        <ele>378</ele>
        <time>2016-01-23T09:36:45.463Z</time>
      </trkpt>
      <trkpt lat="43.71898" lon="5.81494">
        <ele>378</ele>
        <time>2016-01-23T09:36:46.438Z</time>
      </trkpt>
      <trkpt lat="43.71892" lon="5.81503">
        <ele>379</ele>
        <time>2016-01-23T09:36:54.461Z</time>
      </trkpt>
      <trkpt lat="43.71891" lon="5.81504">
        <ele>379</ele>
        <time>2016-01-23T09:36:55.438Z</time>
      </trkpt>
      <trkpt lat="43.71885" lon="5.81512">
        <ele>381</ele>
        <time>2016-01-23T09:37:02.487Z</time>
      </trkpt>
      <trkpt lat="43.71885" lon="5.81513">
        <ele>381</ele>
        <time>2016-01-23T09:37:03.437Z</time>
      </trkpt>
      <trkpt lat="43.71879" lon="5.81521">
        <ele>381</ele>
        <time>2016-01-23T09:37:10.461Z</time>
      </trkpt>
      <trkpt lat="43.71878" lon="5.81522">
        <ele>381</ele>
        <time>2016-01-23T09:37:11.436Z</time>
      </trkpt>
      <trkpt lat="43.71872" lon="5.81531">
        <ele>383</ele>
        <time>2016-01-23T09:37:20.461Z</time>
      </trkpt>
      <trkpt lat="43.71871" lon="5.81531">
        <ele>383</ele>
        <time>2016-01-23T09:37:21.438Z</time>
      </trkpt>
      <trkpt lat="43.71864" lon="5.81539">
        <ele>386</ele>
        <time>2016-01-23T09:37:30.461Z</time>
      </trkpt>
      <trkpt lat="43.71864" lon="5.81539">
        <ele>386</ele>
        <time>2016-01-23T09:37:31.438Z</time>
      </trkpt>
      <trkpt lat="43.71856" lon="5.81542">
        <ele>388</ele>
        <time>2016-01-23T09:37:40.461Z</time>
      </trkpt>
      <trkpt lat="43.71855" lon="5.81542">
        <ele>388</ele>
        <time>2016-01-23T09:37:41.437Z</time>
      </trkpt>
      <trkpt lat="43.71847" lon="5.81546">
        <ele>389</ele>
        <time>2016-01-23T09:37:49.459Z</time>
      </trkpt>
      <trkpt lat="43.71846" lon="5.81546">
        <ele>389</ele>
        <time>2016-01-23T09:37:50.437Z</time>
      </trkpt>
      <trkpt lat="43.71838" lon="5.81551">
        <ele>391</ele>
        <time>2016-01-23T09:37:58.461Z</time>
      </trkpt>
      <trkpt lat="43.71837" lon="5.81552">
        <ele>391</ele>
        <time>2016-01-23T09:37:59.433Z</time>
      </trkpt>
      <trkpt lat="43.71829" lon="5.81554">
        <ele>392</ele>
        <time>2016-01-23T09:38:07.458Z</time>
      </trkpt>
      <trkpt lat="43.71827" lon="5.81554">
        <ele>393</ele>
        <time>2016-01-23T09:38:08.436Z</time>
      </trkpt>
      <trkpt lat="43.7182" lon="5.81556">
        <ele>395</ele>
        <time>2016-01-23T09:38:15.526Z</time>
      </trkpt>
      <trkpt lat="43.71818" lon="5.81557">
        <ele>394</ele>
        <time>2016-01-23T09:38:16.438Z</time>
      </trkpt>
      <trkpt lat="43.71811" lon="5.8156">
        <ele>396</ele>
        <time>2016-01-23T09:38:23.487Z</time>
      </trkpt>
      <trkpt lat="43.71809" lon="5.8156">
        <ele>396</ele>
        <time>2016-01-23T09:38:24.437Z</time>
      </trkpt>
      <trkpt lat="43.71802" lon="5.81563">
        <ele>396</ele>
        <time>2016-01-23T09:38:31.462Z</time>
      </trkpt>
      <trkpt lat="43.718" lon="5.81564">
        <ele>396</ele>
        <time>2016-01-23T09:38:32.438Z</time>
      </trkpt>
      <trkpt lat="43.71793" lon="5.81566">
        <ele>398</ele>
        <time>2016-01-23T09:38:39.485Z</time>
      </trkpt>
      <trkpt lat="43.71792" lon="5.81567">
        <ele>398</ele>
        <time>2016-01-23T09:38:40.436Z</time>
      </trkpt>
      <trkpt lat="43.71784" lon="5.8157">
        <ele>399</ele>
        <time>2016-01-23T09:38:47.461Z</time>
      </trkpt>
      <trkpt lat="43.71783" lon="5.8157">
        <ele>399</ele>
        <time>2016-01-23T09:38:48.437Z</time>
      </trkpt>
      <trkpt lat="43.71774" lon="5.81574">
        <ele>399</ele>
        <time>2016-01-23T09:38:56.460Z</time>
      </trkpt>
      <trkpt lat="43.71773" lon="5.81574">
        <ele>399</ele>
        <time>2016-01-23T09:38:57.437Z</time>
      </trkpt>
      <trkpt lat="43.71765" lon="5.81578">
        <ele>401</ele>
        <time>2016-01-23T09:39:04.467Z</time>
      </trkpt>
      <trkpt lat="43.71764" lon="5.81579">
        <ele>401</ele>
        <time>2016-01-23T09:39:05.436Z</time>
      </trkpt>
      <trkpt lat="43.71756" lon="5.81584">
        <ele>403</ele>
        <time>2016-01-23T09:39:12.493Z</time>
      </trkpt>
      <trkpt lat="43.71755" lon="5.81585">
        <ele>403</ele>
        <time>2016-01-23T09:39:13.437Z</time>
      </trkpt>
      <trkpt lat="43.71748" lon="5.81589">
        <ele>406</ele>
        <time>2016-01-23T09:39:20.460Z</time>
      </trkpt>
      <trkpt lat="43.71747" lon="5.81589">
        <ele>406</ele>
        <time>2016-01-23T09:39:21.437Z</time>
      </trkpt>
      <trkpt lat="43.71739" lon="5.81594">
        <ele>406</ele>
        <time>2016-01-23T09:39:27.461Z</time>
      </trkpt>
      <trkpt lat="43.71738" lon="5.81595">
        <ele>406</ele>
        <time>2016-01-23T09:39:28.437Z</time>
      </trkpt>
      <trkpt lat="43.71731" lon="5.81601">
        <ele>407</ele>
        <time>2016-01-23T09:39:35.473Z</time>
      </trkpt>
      <trkpt lat="43.7173" lon="5.81602">
        <ele>408</ele>
        <time>2016-01-23T09:39:36.437Z</time>
      </trkpt>
      <trkpt lat="43.71723" lon="5.8161">
        <ele>409</ele>
        <time>2016-01-23T09:39:44.463Z</time>
      </trkpt>
      <trkpt lat="43.71722" lon="5.81611">
        <ele>409</ele>
        <time>2016-01-23T09:39:45.465Z</time>
      </trkpt>
      <trkpt lat="43.71714" lon="5.81617">
        <ele>411</ele>
        <time>2016-01-23T09:39:52.462Z</time>
      </trkpt>
      <trkpt lat="43.71713" lon="5.81618">
        <ele>410</ele>
        <time>2016-01-23T09:39:53.438Z</time>
      </trkpt>
      <trkpt lat="43.71706" lon="5.81625">
        <ele>411</ele>
        <time>2016-01-23T09:40:00.451Z</time>
      </trkpt>
      <trkpt lat="43.71705" lon="5.81626">
        <ele>411</ele>
        <time>2016-01-23T09:40:01.436Z</time>
      </trkpt>
      <trkpt lat="43.71699" lon="5.81633">
        <ele>411</ele>
        <time>2016-01-23T09:40:07.488Z</time>
      </trkpt>
      <trkpt lat="43.71698" lon="5.81635">
        <ele>411</ele>
        <time>2016-01-23T09:40:08.438Z</time>
      </trkpt>
      <trkpt lat="43.71692" lon="5.81643">
        <ele>414</ele>
        <time>2016-01-23T09:40:15.462Z</time>
      </trkpt>
      <trkpt lat="43.71691" lon="5.81644">
        <ele>413</ele>
        <time>2016-01-23T09:40:16.437Z</time>
      </trkpt>
      <trkpt lat="43.71686" lon="5.81652">
        <ele>414</ele>
        <time>2016-01-23T09:40:22.462Z</time>
      </trkpt>
      <trkpt lat="43.71685" lon="5.81654">
        <ele>414</ele>
        <time>2016-01-23T09:40:23.462Z</time>
      </trkpt>
      <trkpt lat="43.71679" lon="5.8166">
        <ele>414</ele>
        <time>2016-01-23T09:40:29.462Z</time>
      </trkpt>
      <trkpt lat="43.71678" lon="5.81661">
        <ele>414</ele>
        <time>2016-01-23T09:40:30.437Z</time>
      </trkpt>
      <trkpt lat="43.71672" lon="5.81669">
        <ele>417</ele>
        <time>2016-01-23T09:40:36.468Z</time>
      </trkpt>
      <trkpt lat="43.71671" lon="5.8167">
        <ele>416</ele>
        <time>2016-01-23T09:40:37.466Z</time>
      </trkpt>
      <trkpt lat="43.71665" lon="5.81678">
        <ele>418</ele>
        <time>2016-01-23T09:40:44.455Z</time>
      </trkpt>
      <trkpt lat="43.71664" lon="5.81679">
        <ele>418</ele>
        <time>2016-01-23T09:40:45.433Z</time>
      </trkpt>
      <trkpt lat="43.71659" lon="5.81688">
        <ele>417</ele>
        <time>2016-01-23T09:40:51.457Z</time>
      </trkpt>
      <trkpt lat="43.71658" lon="5.8169">
        <ele>417</ele>
        <time>2016-01-23T09:40:52.438Z</time>
      </trkpt>
      <trkpt lat="43.71653" lon="5.81698">
        <ele>417</ele>
        <time>2016-01-23T09:40:57.457Z</time>
      </trkpt>
      <trkpt lat="43.71651" lon="5.81699">
        <ele>417</ele>
        <time>2016-01-23T09:40:58.437Z</time>
      </trkpt>
      <trkpt lat="43.71645" lon="5.81708">
        <ele>418</ele>
        <time>2016-01-23T09:41:04.463Z</time>
      </trkpt>
      <trkpt lat="43.71645" lon="5.81709">
        <ele>418</ele>
        <time>2016-01-23T09:41:05.437Z</time>
      </trkpt>
      <trkpt lat="43.71637" lon="5.81715">
        <ele>418</ele>
        <time>2016-01-23T09:41:12.478Z</time>
      </trkpt>
      <trkpt lat="43.71636" lon="5.81717">
        <ele>418</ele>
        <time>2016-01-23T09:41:13.436Z</time>
      </trkpt>
      <trkpt lat="43.7163" lon="5.81723">
        <ele>419</ele>
        <time>2016-01-23T09:41:18.455Z</time>
      </trkpt>
      <trkpt lat="43.71628" lon="5.81724">
        <ele>419</ele>
        <time>2016-01-23T09:41:19.437Z</time>
      </trkpt>
      <trkpt lat="43.71621" lon="5.81729">
        <ele>419</ele>
        <time>2016-01-23T09:41:23.478Z</time>
      </trkpt>
      <trkpt lat="43.7162" lon="5.81731">
        <ele>419</ele>
        <time>2016-01-23T09:41:24.436Z</time>
      </trkpt>
      <trkpt lat="43.71612" lon="5.81736">
        <ele>420</ele>
        <time>2016-01-23T09:41:29.445Z</time>
      </trkpt>
      <trkpt lat="43.7161" lon="5.81737">
        <ele>421</ele>
        <time>2016-01-23T09:41:30.437Z</time>
      </trkpt>
      <trkpt lat="43.71603" lon="5.81743">
        <ele>421</ele>
        <time>2016-01-23T09:41:35.461Z</time>
      </trkpt>
      <trkpt lat="43.71601" lon="5.81745">
        <ele>421</ele>
        <time>2016-01-23T09:41:36.446Z</time>
      </trkpt>
      <trkpt lat="43.71594" lon="5.81751">
        <ele>422</ele>
        <time>2016-01-23T09:41:41.461Z</time>
      </trkpt>
      <trkpt lat="43.71593" lon="5.81752">
        <ele>423</ele>
        <time>2016-01-23T09:41:42.438Z</time>
      </trkpt>
      <trkpt lat="43.71585" lon="5.81757">
        <ele>423</ele>
        <time>2016-01-23T09:41:47.483Z</time>
      </trkpt>
      <trkpt lat="43.71584" lon="5.81758">
        <ele>423</ele>
        <time>2016-01-23T09:41:48.438Z</time>
      </trkpt>
      <trkpt lat="43.71576" lon="5.81763">
        <ele>424</ele>
        <time>2016-01-23T09:41:53.461Z</time>
      </trkpt>
      <trkpt lat="43.71575" lon="5.81764">
        <ele>424</ele>
        <time>2016-01-23T09:41:54.438Z</time>
      </trkpt>
      <trkpt lat="43.71568" lon="5.81769">
        <ele>426</ele>
        <time>2016-01-23T09:41:59.463Z</time>
      </trkpt>
      <trkpt lat="43.71566" lon="5.8177">
        <ele>426</ele>
        <time>2016-01-23T09:42:00.435Z</time>
      </trkpt>
      <trkpt lat="43.7156" lon="5.81777">
        <ele>426</ele>
        <time>2016-01-23T09:42:05.461Z</time>
      </trkpt>
      <trkpt lat="43.71559" lon="5.81779">
        <ele>426</ele>
        <time>2016-01-23T09:42:06.438Z</time>
      </trkpt>
      <trkpt lat="43.71553" lon="5.81786">
        <ele>427</ele>
        <time>2016-01-23T09:42:11.462Z</time>
      </trkpt>
      <trkpt lat="43.71551" lon="5.81788">
        <ele>426</ele>
        <time>2016-01-23T09:42:12.463Z</time>
      </trkpt>
      <trkpt lat="43.71545" lon="5.81796">
        <ele>425</ele>
        <time>2016-01-23T09:42:47.461Z</time>
      </trkpt>
      <trkpt lat="43.71544" lon="5.81796">
        <ele>426</ele>
        <time>2016-01-23T09:42:48.440Z</time>
      </trkpt>
      <trkpt lat="43.71537" lon="5.81803">
        <ele>428</ele>
        <time>2016-01-23T09:49:48.493Z</time>
      </trkpt>
      <trkpt lat="43.71536" lon="5.81804">
        <ele>428</ele>
        <time>2016-01-23T09:49:49.440Z</time>
      </trkpt>
      <trkpt lat="43.71531" lon="5.81811">
        <ele>428</ele>
        <time>2016-01-23T09:49:53.464Z</time>
      </trkpt>
      <trkpt lat="43.7153" lon="5.81813">
        <ele>429</ele>
        <time>2016-01-23T09:49:54.440Z</time>
      </trkpt>
      <trkpt lat="43.71523" lon="5.8182">
        <ele>429</ele>
        <time>2016-01-23T09:49:59.465Z</time>
      </trkpt>
      <trkpt lat="43.71521" lon="5.81822">
        <ele>429</ele>
        <time>2016-01-23T09:50:00.441Z</time>
      </trkpt>
      <trkpt lat="43.71516" lon="5.8183">
        <ele>428</ele>
        <time>2016-01-23T09:50:05.464Z</time>
      </trkpt>
      <trkpt lat="43.71515" lon="5.81832">
        <ele>428</ele>
        <time>2016-01-23T09:50:06.441Z</time>
      </trkpt>
      <trkpt lat="43.7151" lon="5.8184">
        <ele>427</ele>
        <time>2016-01-23T09:50:10.516Z</time>
      </trkpt>
      <trkpt lat="43.71509" lon="5.81842">
        <ele>427</ele>
        <time>2016-01-23T09:50:11.501Z</time>
      </trkpt>
      <trkpt lat="43.71504" lon="5.81849">
        <ele>427</ele>
        <time>2016-01-23T09:50:15.491Z</time>
      </trkpt>
      <trkpt lat="43.71502" lon="5.81851">
        <ele>427</ele>
        <time>2016-01-23T09:50:16.443Z</time>
      </trkpt>
      <trkpt lat="43.71496" lon="5.81857">
        <ele>427</ele>
        <time>2016-01-23T09:50:20.464Z</time>
      </trkpt>
      <trkpt lat="43.71494" lon="5.81859">
        <ele>427</ele>
        <time>2016-01-23T09:50:21.453Z</time>
      </trkpt>
      <trkpt lat="43.71488" lon="5.81867">
        <ele>428</ele>
        <time>2016-01-23T09:50:26.501Z</time>
      </trkpt>
      <trkpt lat="43.71487" lon="5.81869">
        <ele>428</ele>
        <time>2016-01-23T09:50:27.443Z</time>
      </trkpt>
      <trkpt lat="43.71482" lon="5.81879">
        <ele>429</ele>
        <time>2016-01-23T09:50:32.448Z</time>
      </trkpt>
      <trkpt lat="43.71481" lon="5.8188">
        <ele>430</ele>
        <time>2016-01-23T09:50:33.434Z</time>
      </trkpt>
      <trkpt lat="43.71474" lon="5.81887">
        <ele>431</ele>
        <time>2016-01-23T09:50:40.468Z</time>
      </trkpt>
      <trkpt lat="43.71473" lon="5.81887">
        <ele>431</ele>
        <time>2016-01-23T09:50:41.441Z</time>
      </trkpt>
      <trkpt lat="43.71465" lon="5.81893">
        <ele>432</ele>
        <time>2016-01-23T09:50:52.462Z</time>
      </trkpt>
      <trkpt lat="43.71464" lon="5.81894">
        <ele>432</ele>
        <time>2016-01-23T09:50:53.440Z</time>
      </trkpt>
      <trkpt lat="43.71457" lon="5.81901">
        <ele>435</ele>
        <time>2016-01-23T09:51:01.455Z</time>
      </trkpt>
      <trkpt lat="43.71456" lon="5.81901">
        <ele>435</ele>
        <time>2016-01-23T09:51:02.442Z</time>
      </trkpt>
      <trkpt lat="43.7145" lon="5.8191">
        <ele>435</ele>
        <time>2016-01-23T09:51:10.465Z</time>
      </trkpt>
      <trkpt lat="43.71449" lon="5.81911">
        <ele>435</ele>
        <time>2016-01-23T09:51:11.442Z</time>
      </trkpt>
      <trkpt lat="43.71442" lon="5.81919">
        <ele>435</ele>
        <time>2016-01-23T09:51:18.466Z</time>
      </trkpt>
      <trkpt lat="43.71441" lon="5.8192">
        <ele>436</ele>
        <time>2016-01-23T09:51:19.440Z</time>
      </trkpt>
      <trkpt lat="43.71435" lon="5.81929">
        <ele>438</ele>
        <time>2016-01-23T09:51:26.465Z</time>
      </trkpt>
      <trkpt lat="43.71435" lon="5.8193">
        <ele>438</ele>
        <time>2016-01-23T09:51:27.441Z</time>
      </trkpt>
      <trkpt lat="43.71429" lon="5.81938">
        <ele>439</ele>
        <time>2016-01-23T09:51:33.493Z</time>
      </trkpt>
      <trkpt lat="43.71428" lon="5.81939">
        <ele>439</ele>
        <time>2016-01-23T09:51:34.443Z</time>
      </trkpt>
      <trkpt lat="43.71421" lon="5.81947">
        <ele>441</ele>
        <time>2016-01-23T09:51:41.466Z</time>
      </trkpt>
      <trkpt lat="43.7142" lon="5.81947">
        <ele>441</ele>
        <time>2016-01-23T09:51:42.441Z</time>
      </trkpt>
      <trkpt lat="43.71412" lon="5.81952">
        <ele>442</ele>
        <time>2016-01-23T09:51:49.469Z</time>
      </trkpt>
      <trkpt lat="43.71411" lon="5.81953">
        <ele>442</ele>
        <time>2016-01-23T09:51:50.442Z</time>
      </trkpt>
      <trkpt lat="43.71404" lon="5.8196">
        <ele>442</ele>
        <time>2016-01-23T09:51:57.468Z</time>
      </trkpt>
      <trkpt lat="43.71403" lon="5.81961">
        <ele>443</ele>
        <time>2016-01-23T09:51:58.468Z</time>
      </trkpt>
      <trkpt lat="43.71395" lon="5.81966">
        <ele>443</ele>
        <time>2016-01-23T09:52:05.461Z</time>
      </trkpt>
      <trkpt lat="43.71394" lon="5.81967">
        <ele>444</ele>
        <time>2016-01-23T09:52:06.443Z</time>
      </trkpt>
      <trkpt lat="43.71388" lon="5.81975">
        <ele>445</ele>
        <time>2016-01-23T09:52:13.469Z</time>
      </trkpt>
      <trkpt lat="43.71387" lon="5.81976">
        <ele>444</ele>
        <time>2016-01-23T09:52:14.444Z</time>
      </trkpt>
      <trkpt lat="43.71379" lon="5.81981">
        <ele>445</ele>
        <time>2016-01-23T09:52:20.491Z</time>
      </trkpt>
      <trkpt lat="43.71377" lon="5.81982">
        <ele>445</ele>
        <time>2016-01-23T09:52:21.443Z</time>
      </trkpt>
      <trkpt lat="43.71371" lon="5.81988">
        <ele>446</ele>
        <time>2016-01-23T09:52:27.478Z</time>
      </trkpt>
      <trkpt lat="43.7137" lon="5.81989">
        <ele>446</ele>
        <time>2016-01-23T09:52:28.442Z</time>
      </trkpt>
      <trkpt lat="43.71362" lon="5.81995">
        <ele>446</ele>
        <time>2016-01-23T09:52:34.466Z</time>
      </trkpt>
      <trkpt lat="43.71361" lon="5.81996">
        <ele>447</ele>
        <time>2016-01-23T09:52:35.441Z</time>
      </trkpt>
      <trkpt lat="43.71354" lon="5.82001">
        <ele>447</ele>
        <time>2016-01-23T09:52:41.467Z</time>
      </trkpt>
      <trkpt lat="43.71352" lon="5.82002">
        <ele>448</ele>
        <time>2016-01-23T09:52:42.441Z</time>
      </trkpt>
      <trkpt lat="43.71345" lon="5.82007">
        <ele>448</ele>
        <time>2016-01-23T09:52:48.468Z</time>
      </trkpt>
      <trkpt lat="43.71344" lon="5.82008">
        <ele>448</ele>
        <time>2016-01-23T09:52:49.440Z</time>
      </trkpt>
      <trkpt lat="43.71336" lon="5.82013">
        <ele>449</ele>
        <time>2016-01-23T09:52:55.693Z</time>
      </trkpt>
      <trkpt lat="43.71335" lon="5.82014">
        <ele>449</ele>
        <time>2016-01-23T09:52:56.452Z</time>
      </trkpt>
      <trkpt lat="43.71328" lon="5.82018">
        <ele>449</ele>
        <time>2016-01-23T09:53:01.466Z</time>
      </trkpt>
      <trkpt lat="43.71326" lon="5.82019">
        <ele>449</ele>
        <time>2016-01-23T09:53:02.443Z</time>
      </trkpt>
      <trkpt lat="43.71319" lon="5.82023">
        <ele>451</ele>
        <time>2016-01-23T09:53:07.467Z</time>
      </trkpt>
      <trkpt lat="43.71317" lon="5.82024">
        <ele>452</ele>
        <time>2016-01-23T09:53:08.686Z</time>
      </trkpt>
      <trkpt lat="43.71309" lon="5.82026">
        <ele>454</ele>
        <time>2016-01-23T09:53:13.466Z</time>
      </trkpt>
      <trkpt lat="43.71307" lon="5.82026">
        <ele>454</ele>
        <time>2016-01-23T09:53:14.441Z</time>
      </trkpt>
      <trkpt lat="43.71299" lon="5.82029">
        <ele>454</ele>
        <time>2016-01-23T09:53:18.465Z</time>
      </trkpt>
      <trkpt lat="43.71298" lon="5.8203">
        <ele>454</ele>
        <time>2016-01-23T09:53:19.468Z</time>
      </trkpt>
      <trkpt lat="43.71289" lon="5.82032">
        <ele>456</ele>
        <time>2016-01-23T09:53:24.465Z</time>
      </trkpt>
      <trkpt lat="43.71287" lon="5.82032">
        <ele>457</ele>
        <time>2016-01-23T09:53:25.443Z</time>
      </trkpt>
      <trkpt lat="43.71279" lon="5.82034">
        <ele>456</ele>
        <time>2016-01-23T09:53:29.466Z</time>
      </trkpt>
      <trkpt lat="43.71277" lon="5.82035">
        <ele>457</ele>
        <time>2016-01-23T09:53:30.479Z</time>
      </trkpt>
      <trkpt lat="43.71269" lon="5.82037">
        <ele>459</ele>
        <time>2016-01-23T09:53:35.467Z</time>
      </trkpt>
      <trkpt lat="43.71267" lon="5.82036">
        <ele>460</ele>
        <time>2016-01-23T09:53:36.437Z</time>
      </trkpt>
      <trkpt lat="43.71259" lon="5.82037">
        <ele>462</ele>
        <time>2016-01-23T09:53:42.465Z</time>
      </trkpt>
      <trkpt lat="43.71257" lon="5.82038">
        <ele>462</ele>
        <time>2016-01-23T09:53:43.441Z</time>
      </trkpt>
      <trkpt lat="43.71249" lon="5.82039">
        <ele>462</ele>
        <time>2016-01-23T09:53:47.467Z</time>
      </trkpt>
      <trkpt lat="43.71247" lon="5.82039">
        <ele>462</ele>
        <time>2016-01-23T09:53:48.442Z</time>
      </trkpt>
      <trkpt lat="43.7124" lon="5.82041">
        <ele>462</ele>
        <time>2016-01-23T09:53:51.466Z</time>
      </trkpt>
      <trkpt lat="43.71238" lon="5.82041">
        <ele>462</ele>
        <time>2016-01-23T09:53:52.465Z</time>
      </trkpt>
      <trkpt lat="43.7123" lon="5.82043">
        <ele>463</ele>
        <time>2016-01-23T09:53:56.466Z</time>
      </trkpt>
      <trkpt lat="43.71227" lon="5.82043">
        <ele>463</ele>
        <time>2016-01-23T09:53:57.442Z</time>
      </trkpt>
      <trkpt lat="43.71219" lon="5.82045">
        <ele>463</ele>
        <time>2016-01-23T09:54:01.466Z</time>
      </trkpt>
      <trkpt lat="43.71217" lon="5.82045">
        <ele>463</ele>
        <time>2016-01-23T09:54:02.443Z</time>
      </trkpt>
      <trkpt lat="43.71209" lon="5.82046">
        <ele>464</ele>
        <time>2016-01-23T09:54:06.467Z</time>
      </trkpt>
      <trkpt lat="43.71207" lon="5.82046">
        <ele>464</ele>
        <time>2016-01-23T09:54:07.442Z</time>
      </trkpt>
      <trkpt lat="43.712" lon="5.82048">
        <ele>464</ele>
        <time>2016-01-23T09:54:11.478Z</time>
      </trkpt>
      <trkpt lat="43.71198" lon="5.82048">
        <ele>464</ele>
        <time>2016-01-23T09:54:12.441Z</time>
      </trkpt>
      <trkpt lat="43.7119" lon="5.8205">
        <ele>463</ele>
        <time>2016-01-23T09:54:16.477Z</time>
      </trkpt>
      <trkpt lat="43.71189" lon="5.8205">
        <ele>463</ele>
        <time>2016-01-23T09:54:17.441Z</time>
      </trkpt>
      <trkpt lat="43.7118" lon="5.82052">
        <ele>462</ele>
        <time>2016-01-23T09:54:21.459Z</time>
      </trkpt>
      <trkpt lat="43.71179" lon="5.82053">
        <ele>463</ele>
        <time>2016-01-23T09:54:22.441Z</time>
      </trkpt>
      <trkpt lat="43.7117" lon="5.82056">
        <ele>464</ele>
        <time>2016-01-23T09:54:26.479Z</time>
      </trkpt>
      <trkpt lat="43.71169" lon="5.82056">
        <ele>463</ele>
        <time>2016-01-23T09:54:27.443Z</time>
      </trkpt>
      <trkpt lat="43.71161" lon="5.82061">
        <ele>463</ele>
        <time>2016-01-23T09:54:32.467Z</time>
      </trkpt>
      <trkpt lat="43.71159" lon="5.82062">
        <ele>464</ele>
        <time>2016-01-23T09:54:33.443Z</time>
      </trkpt>
      <trkpt lat="43.71151" lon="5.82066">
        <ele>463</ele>
        <time>2016-01-23T09:54:37.467Z</time>
      </trkpt>
      <trkpt lat="43.71149" lon="5.82066">
        <ele>464</ele>
        <time>2016-01-23T09:54:38.454Z</time>
      </trkpt>
      <trkpt lat="43.71142" lon="5.82067">
        <ele>464</ele>
        <time>2016-01-23T09:54:41.468Z</time>
      </trkpt>
      <trkpt lat="43.7114" lon="5.82068">
        <ele>463</ele>
        <time>2016-01-23T09:54:42.445Z</time>
      </trkpt>
      <trkpt lat="43.71132" lon="5.82073">
        <ele>464</ele>
        <time>2016-01-23T09:54:45.466Z</time>
      </trkpt>
      <trkpt lat="43.7113" lon="5.82075">
        <ele>464</ele>
        <time>2016-01-23T09:54:46.468Z</time>
      </trkpt>
      <trkpt lat="43.71122" lon="5.8208">
        <ele>464</ele>
        <time>2016-01-23T09:54:49.467Z</time>
      </trkpt>
      <trkpt lat="43.7112" lon="5.82081">
        <ele>463</ele>
        <time>2016-01-23T09:54:50.442Z</time>
      </trkpt>
      <trkpt lat="43.71113" lon="5.82087">
        <ele>464</ele>
        <time>2016-01-23T09:54:56.466Z</time>
      </trkpt>
      <trkpt lat="43.71112" lon="5.82087">
        <ele>464</ele>
        <time>2016-01-23T09:54:57.468Z</time>
      </trkpt>
      <trkpt lat="43.71103" lon="5.82092">
        <ele>462</ele>
        <time>2016-01-23T09:55:12.469Z</time>
      </trkpt>
      <trkpt lat="43.71103" lon="5.82092">
        <ele>462</ele>
        <time>2016-01-23T09:55:13.446Z</time>
      </trkpt>
      <trkpt lat="43.71104" lon="5.82102">
        <ele>463</ele>
        <time>2016-01-23T09:55:35.496Z</time>
      </trkpt>
      <trkpt lat="43.71103" lon="5.82105">
        <ele>463</ele>
        <time>2016-01-23T09:55:36.444Z</time>
      </trkpt>
      <trkpt lat="43.71099" lon="5.82115">
        <ele>464</ele>
        <time>2016-01-23T09:55:40.683Z</time>
      </trkpt>
      <trkpt lat="43.71098" lon="5.82117">
        <ele>464</ele>
        <time>2016-01-23T09:55:41.448Z</time>
      </trkpt>
      <trkpt lat="43.71095" lon="5.82127">
        <ele>465</ele>
        <time>2016-01-23T09:55:45.545Z</time>
      </trkpt>
      <trkpt lat="43.71095" lon="5.8213">
        <ele>465</ele>
        <time>2016-01-23T09:55:46.442Z</time>
      </trkpt>
      <trkpt lat="43.71095" lon="5.8214">
        <ele>466</ele>
        <time>2016-01-23T09:55:50.479Z</time>
      </trkpt>
      <trkpt lat="43.71096" lon="5.82142">
        <ele>466</ele>
        <time>2016-01-23T09:55:51.467Z</time>
      </trkpt>
      <trkpt lat="43.71098" lon="5.82153">
        <ele>467</ele>
        <time>2016-01-23T09:55:56.487Z</time>
      </trkpt>
      <trkpt lat="43.71098" lon="5.82155">
        <ele>467</ele>
        <time>2016-01-23T09:55:57.445Z</time>
      </trkpt>
      <trkpt lat="43.71102" lon="5.82163">
        <ele>468</ele>
        <time>2016-01-23T09:56:02.467Z</time>
      </trkpt>
      <trkpt lat="43.71103" lon="5.82165">
        <ele>468</ele>
        <time>2016-01-23T09:56:03.455Z</time>
      </trkpt>
      <trkpt lat="43.71108" lon="5.82174">
        <ele>469</ele>
        <time>2016-01-23T09:56:08.466Z</time>
      </trkpt>
      <trkpt lat="43.71109" lon="5.82175">
        <ele>469</ele>
        <time>2016-01-23T09:56:09.442Z</time>
      </trkpt>
      <trkpt lat="43.71115" lon="5.82184">
        <ele>470</ele>
        <time>2016-01-23T09:56:14.468Z</time>
      </trkpt>
      <trkpt lat="43.71116" lon="5.82186">
        <ele>470</ele>
        <time>2016-01-23T09:56:15.456Z</time>
      </trkpt>
      <trkpt lat="43.71119" lon="5.82197">
        <ele>471</ele>
        <time>2016-01-23T09:56:21.459Z</time>
      </trkpt>
      <trkpt lat="43.7112" lon="5.82199">
        <ele>471</ele>
        <time>2016-01-23T09:56:22.441Z</time>
      </trkpt>
      <trkpt lat="43.71121" lon="5.82211">
        <ele>472</ele>
        <time>2016-01-23T09:56:28.461Z</time>
      </trkpt>
      <trkpt lat="43.7112" lon="5.82213">
        <ele>472</ele>
        <time>2016-01-23T09:56:29.461Z</time>
      </trkpt>
      <trkpt lat="43.71119" lon="5.82225">
        <ele>473</ele>
        <time>2016-01-23T09:56:35.463Z</time>
      </trkpt>
      <trkpt lat="43.71118" lon="5.82227">
        <ele>473</ele>
        <time>2016-01-23T09:56:36.444Z</time>
      </trkpt>
      <trkpt lat="43.71115" lon="5.82237">
        <ele>474</ele>
        <time>2016-01-23T09:56:41.463Z</time>
      </trkpt>
      <trkpt lat="43.71115" lon="5.82239">
        <ele>474</ele>
        <time>2016-01-23T09:56:42.443Z</time>
      </trkpt>
      <trkpt lat="43.7111" lon="5.82248">
        <ele>476</ele>
        <time>2016-01-23T09:56:47.462Z</time>
      </trkpt>
      <trkpt lat="43.71108" lon="5.8225">
        <ele>476</ele>
        <time>2016-01-23T09:56:48.441Z</time>
      </trkpt>
      <trkpt lat="43.71102" lon="5.82257">
        <ele>476</ele>
        <time>2016-01-23T09:56:52.462Z</time>
      </trkpt>
      <trkpt lat="43.711" lon="5.82259">
        <ele>476</ele>
        <time>2016-01-23T09:56:53.436Z</time>
      </trkpt>
      <trkpt lat="43.71096" lon="5.82267">
        <ele>476</ele>
        <time>2016-01-23T09:56:57.468Z</time>
      </trkpt>
      <trkpt lat="43.71094" lon="5.82269">
        <ele>476</ele>
        <time>2016-01-23T09:56:58.443Z</time>
      </trkpt>
      <trkpt lat="43.71089" lon="5.82277">
        <ele>476</ele>
        <time>2016-01-23T09:57:02.507Z</time>
      </trkpt>
      <trkpt lat="43.71087" lon="5.8228">
        <ele>476</ele>
        <time>2016-01-23T09:57:03.443Z</time>
      </trkpt>
      <trkpt lat="43.71084" lon="5.82289">
        <ele>476</ele>
        <time>2016-01-23T09:57:06.466Z</time>
      </trkpt>
      <trkpt lat="43.71084" lon="5.82292">
        <ele>477</ele>
        <time>2016-01-23T09:57:07.442Z</time>
      </trkpt>
      <trkpt lat="43.71082" lon="5.82303">
        <ele>476</ele>
        <time>2016-01-23T09:57:10.468Z</time>
      </trkpt>
      <trkpt lat="43.71082" lon="5.82306">
        <ele>476</ele>
        <time>2016-01-23T09:57:11.444Z</time>
      </trkpt>
      <trkpt lat="43.71084" lon="5.82317">
        <ele>475</ele>
        <time>2016-01-23T09:57:14.459Z</time>
      </trkpt>
      <trkpt lat="43.71085" lon="5.8232">
        <ele>475</ele>
        <time>2016-01-23T09:57:15.444Z</time>
      </trkpt>
      <trkpt lat="43.71088" lon="5.8233">
        <ele>475</ele>
        <time>2016-01-23T09:57:18.464Z</time>
      </trkpt>
      <trkpt lat="43.71089" lon="5.82334">
        <ele>475</ele>
        <time>2016-01-23T09:57:19.439Z</time>
      </trkpt>
      <trkpt lat="43.71094" lon="5.82343">
        <ele>475</ele>
        <time>2016-01-23T09:57:22.468Z</time>
      </trkpt>
      <trkpt lat="43.71095" lon="5.82346">
        <ele>474</ele>
        <time>2016-01-23T09:57:23.446Z</time>
      </trkpt>
      <trkpt lat="43.711" lon="5.82355">
        <ele>474</ele>
        <time>2016-01-23T09:57:27.469Z</time>
      </trkpt>
      <trkpt lat="43.711" lon="5.82357">
        <ele>474</ele>
        <time>2016-01-23T09:57:28.442Z</time>
      </trkpt>
      <trkpt lat="43.71105" lon="5.82366">
        <ele>478</ele>
        <time>2016-01-23T09:58:53.470Z</time>
      </trkpt>
      <trkpt lat="43.71106" lon="5.82368">
        <ele>479</ele>
        <time>2016-01-23T09:58:54.445Z</time>
      </trkpt>
      <trkpt lat="43.7111" lon="5.82377">
        <ele>478</ele>
        <time>2016-01-23T09:58:58.469Z</time>
      </trkpt>
      <trkpt lat="43.71111" lon="5.82379">
        <ele>478</ele>
        <time>2016-01-23T09:58:59.456Z</time>
      </trkpt>
      <trkpt lat="43.71116" lon="5.82388">
        <ele>478</ele>
        <time>2016-01-23T09:59:03.468Z</time>
      </trkpt>
      <trkpt lat="43.71118" lon="5.8239">
        <ele>478</ele>
        <time>2016-01-23T09:59:04.453Z</time>
      </trkpt>
      <trkpt lat="43.71123" lon="5.82396">
        <ele>478</ele>
        <time>2016-01-23T09:59:07.491Z</time>
      </trkpt>
      <trkpt lat="43.71125" lon="5.82398">
        <ele>479</ele>
        <time>2016-01-23T09:59:08.444Z</time>
      </trkpt>
      <trkpt lat="43.71132" lon="5.82403">
        <ele>479</ele>
        <time>2016-01-23T09:59:11.470Z</time>
      </trkpt>
      <trkpt lat="43.71134" lon="5.82405">
        <ele>478</ele>
        <time>2016-01-23T09:59:12.471Z</time>
      </trkpt>
      <trkpt lat="43.71142" lon="5.8241">
        <ele>478</ele>
        <time>2016-01-23T09:59:14.457Z</time>
      </trkpt>
      <trkpt lat="43.71147" lon="5.82412">
        <ele>478</ele>
        <time>2016-01-23T09:59:15.444Z</time>
      </trkpt>
      <trkpt lat="43.71153" lon="5.82414">
        <ele>477</ele>
        <time>2016-01-23T09:59:16.468Z</time>
      </trkpt>
      <trkpt lat="43.71158" lon="5.82416">
        <ele>477</ele>
        <time>2016-01-23T09:59:17.444Z</time>
      </trkpt>
      <trkpt lat="43.71163" lon="5.82418">
        <ele>477</ele>
        <time>2016-01-23T09:59:18.457Z</time>
      </trkpt>
      <trkpt lat="43.71167" lon="5.8242">
        <ele>476</ele>
        <time>2016-01-23T09:59:19.446Z</time>
      </trkpt>
      <trkpt lat="43.71172" lon="5.82423">
        <ele>477</ele>
        <time>2016-01-23T09:59:20.456Z</time>
      </trkpt>
      <trkpt lat="43.71176" lon="5.82426">
        <ele>477</ele>
        <time>2016-01-23T09:59:21.444Z</time>
      </trkpt>
      <trkpt lat="43.71179" lon="5.8243">
        <ele>477</ele>
        <time>2016-01-23T09:59:22.469Z</time>
      </trkpt>
      <trkpt lat="43.71182" lon="5.82435">
        <ele>477</ele>
        <time>2016-01-23T09:59:23.443Z</time>
      </trkpt>
      <trkpt lat="43.71184" lon="5.8244">
        <ele>477</ele>
        <time>2016-01-23T09:59:24.496Z</time>
      </trkpt>
      <trkpt lat="43.71187" lon="5.82445">
        <ele>477</ele>
        <time>2016-01-23T09:59:25.445Z</time>
      </trkpt>
      <trkpt lat="43.71192" lon="5.82454">
        <ele>477</ele>
        <time>2016-01-23T09:59:27.503Z</time>
      </trkpt>
      <trkpt lat="43.71196" lon="5.82458">
        <ele>476</ele>
        <time>2016-01-23T09:59:28.471Z</time>
      </trkpt>
      <trkpt lat="43.71201" lon="5.82466">
        <ele>477</ele>
        <time>2016-01-23T09:59:30.470Z</time>
      </trkpt>
      <trkpt lat="43.71204" lon="5.8247">
        <ele>476</ele>
        <time>2016-01-23T09:59:31.446Z</time>
      </trkpt>
      <trkpt lat="43.71208" lon="5.82477">
        <ele>475</ele>
        <time>2016-01-23T09:59:33.469Z</time>
      </trkpt>
      <trkpt lat="43.7121" lon="5.82481">
        <ele>476</ele>
        <time>2016-01-23T09:59:34.445Z</time>
      </trkpt>
      <trkpt lat="43.71213" lon="5.8249">
        <ele>476</ele>
        <time>2016-01-23T09:59:36.464Z</time>
      </trkpt>
      <trkpt lat="43.71214" lon="5.82495">
        <ele>476</ele>
        <time>2016-01-23T09:59:37.446Z</time>
      </trkpt>
      <trkpt lat="43.71214" lon="5.82505">
        <ele>475</ele>
        <time>2016-01-23T09:59:39.497Z</time>
      </trkpt>
      <trkpt lat="43.71213" lon="5.8251">
        <ele>475</ele>
        <time>2016-01-23T09:59:40.448Z</time>
      </trkpt>
      <trkpt lat="43.71213" lon="5.82519">
        <ele>475</ele>
        <time>2016-01-23T09:59:42.465Z</time>
      </trkpt>
      <trkpt lat="43.71213" lon="5.82524">
        <ele>475</ele>
        <time>2016-01-23T09:59:43.444Z</time>
      </trkpt>
      <trkpt lat="43.71213" lon="5.82533">
        <ele>475</ele>
        <time>2016-01-23T09:59:45.466Z</time>
      </trkpt>
      <trkpt lat="43.71213" lon="5.82537">
        <ele>475</ele>
        <time>2016-01-23T09:59:46.444Z</time>
      </trkpt>
      <trkpt lat="43.71213" lon="5.82546">
        <ele>476</ele>
        <time>2016-01-23T09:59:48.465Z</time>
      </trkpt>
      <trkpt lat="43.71213" lon="5.8255">
        <ele>476</ele>
        <time>2016-01-23T09:59:49.444Z</time>
      </trkpt>
      <trkpt lat="43.71213" lon="5.82559">
        <ele>475</ele>
        <time>2016-01-23T09:59:51.464Z</time>
      </trkpt>
      <trkpt lat="43.71213" lon="5.82563">
        <ele>475</ele>
        <time>2016-01-23T09:59:52.442Z</time>
      </trkpt>
      <trkpt lat="43.71213" lon="5.82572">
        <ele>475</ele>
        <time>2016-01-23T09:59:54.471Z</time>
      </trkpt>
      <trkpt lat="43.71213" lon="5.82576">
        <ele>475</ele>
        <time>2016-01-23T09:59:55.442Z</time>
      </trkpt>
      <trkpt lat="43.71214" lon="5.82588">
        <ele>475</ele>
        <time>2016-01-23T09:59:58.463Z</time>
      </trkpt>
      <trkpt lat="43.71215" lon="5.82592">
        <ele>475</ele>
        <time>2016-01-23T09:59:59.451Z</time>
      </trkpt>
      <trkpt lat="43.71217" lon="5.826">
        <ele>475</ele>
        <time>2016-01-23T10:00:01.488Z</time>
      </trkpt>
      <trkpt lat="43.71219" lon="5.82605">
        <ele>474</ele>
        <time>2016-01-23T10:00:02.443Z</time>
      </trkpt>
      <trkpt lat="43.71222" lon="5.82613">
        <ele>474</ele>
        <time>2016-01-23T10:00:04.463Z</time>
      </trkpt>
      <trkpt lat="43.71224" lon="5.82617">
        <ele>474</ele>
        <time>2016-01-23T10:00:05.443Z</time>
      </trkpt>
      <trkpt lat="43.71227" lon="5.82626">
        <ele>473</ele>
        <time>2016-01-23T10:00:07.463Z</time>
      </trkpt>
      <trkpt lat="43.71229" lon="5.8263">
        <ele>473</ele>
        <time>2016-01-23T10:00:08.442Z</time>
      </trkpt>
      <trkpt lat="43.71233" lon="5.82638">
        <ele>473</ele>
        <time>2016-01-23T10:00:10.465Z</time>
      </trkpt>
      <trkpt lat="43.71234" lon="5.82643">
        <ele>473</ele>
        <time>2016-01-23T10:00:11.443Z</time>
      </trkpt>
      <trkpt lat="43.71238" lon="5.82652">
        <ele>474</ele>
        <time>2016-01-23T10:00:13.471Z</time>
      </trkpt>
      <trkpt lat="43.71239" lon="5.82656">
        <ele>474</ele>
        <time>2016-01-23T10:00:14.442Z</time>
      </trkpt>
      <trkpt lat="43.71242" lon="5.82665">
        <ele>474</ele>
        <time>2016-01-23T10:00:16.464Z</time>
      </trkpt>
      <trkpt lat="43.71244" lon="5.8267">
        <ele>473</ele>
        <time>2016-01-23T10:00:17.443Z</time>
      </trkpt>
      <trkpt lat="43.71246" lon="5.8268">
        <ele>473</ele>
        <time>2016-01-23T10:00:19.538Z</time>
      </trkpt>
      <trkpt lat="43.71248" lon="5.82685">
        <ele>473</ele>
        <time>2016-01-23T10:00:20.433Z</time>
      </trkpt>
      <trkpt lat="43.71251" lon="5.82696">
        <ele>473</ele>
        <time>2016-01-23T10:00:22.469Z</time>
      </trkpt>
      <trkpt lat="43.71252" lon="5.82701">
        <ele>474</ele>
        <time>2016-01-23T10:00:23.446Z</time>
      </trkpt>
      <trkpt lat="43.71257" lon="5.82712">
        <ele>474</ele>
        <time>2016-01-23T10:00:25.465Z</time>
      </trkpt>
      <trkpt lat="43.71259" lon="5.82717">
        <ele>473</ele>
        <time>2016-01-23T10:00:26.445Z</time>
      </trkpt>
      <trkpt lat="43.71263" lon="5.82727">
        <ele>474</ele>
        <time>2016-01-23T10:00:28.497Z</time>
      </trkpt>
      <trkpt lat="43.71266" lon="5.82732">
        <ele>475</ele>
        <time>2016-01-23T10:00:29.456Z</time>
      </trkpt>
      <trkpt lat="43.71271" lon="5.8274">
        <ele>475</ele>
        <time>2016-01-23T10:00:31.516Z</time>
      </trkpt>
      <trkpt lat="43.71274" lon="5.82744">
        <ele>476</ele>
        <time>2016-01-23T10:00:32.428Z</time>
      </trkpt>
      <trkpt lat="43.7128" lon="5.82752">
        <ele>476</ele>
        <time>2016-01-23T10:00:34.464Z</time>
      </trkpt>
      <trkpt lat="43.71281" lon="5.82756">
        <ele>474</ele>
        <time>2016-01-23T10:00:35.430Z</time>
      </trkpt>
      <trkpt lat="43.71273" lon="5.82761">
        <ele>471</ele>
        <time>2016-01-23T10:00:47.465Z</time>
      </trkpt>
      <trkpt lat="43.71272" lon="5.82763">
        <ele>471</ele>
        <time>2016-01-23T10:00:48.442Z</time>
      </trkpt>
      <trkpt lat="43.71268" lon="5.82772">
        <ele>473</ele>
        <time>2016-01-23T10:00:52.699Z</time>
      </trkpt>
      <trkpt lat="43.71267" lon="5.82775">
        <ele>473</ele>
        <time>2016-01-23T10:00:53.444Z</time>
      </trkpt>
      <trkpt lat="43.71264" lon="5.82785">
        <ele>471</ele>
        <time>2016-01-23T10:00:57.469Z</time>
      </trkpt>
      <trkpt lat="43.71262" lon="5.82792">
        <ele>470</ele>
        <time>2016-01-23T10:00:58.445Z</time>
      </trkpt>
      <trkpt lat="43.71258" lon="5.82802">
        <ele>469</ele>
        <time>2016-01-23T10:01:00.469Z</time>
      </trkpt>
      <trkpt lat="43.71254" lon="5.82807">
        <ele>469</ele>
        <time>2016-01-23T10:01:01.439Z</time>
      </trkpt>
      <trkpt lat="43.71254" lon="5.82807">
        <ele>469</ele>
        <time>2016-01-23T10:01:01.462Z</time>
      </trkpt>
      <trkpt lat="43.71246" lon="5.82816">
        <ele>464</ele>
        <time>2016-01-23T10:01:02.443Z</time>
      </trkpt>
      <trkpt lat="43.71238" lon="5.82821">
        <ele>463</ele>
        <time>2016-01-23T10:01:04.688Z</time>
      </trkpt>
      <trkpt lat="43.71234" lon="5.82825">
        <ele>461</ele>
        <time>2016-01-23T10:01:05.442Z</time>
      </trkpt>
      <trkpt lat="43.7123" lon="5.82829">
        <ele>461</ele>
        <time>2016-01-23T10:01:06.470Z</time>
      </trkpt>
      <trkpt lat="43.71223" lon="5.82833">
        <ele>458</ele>
        <time>2016-01-23T10:01:07.445Z</time>
      </trkpt>
      <trkpt lat="43.71217" lon="5.82838">
        <ele>456</ele>
        <time>2016-01-23T10:01:08.468Z</time>
      </trkpt>
      <trkpt lat="43.71211" lon="5.82842">
        <ele>455</ele>
        <time>2016-01-23T10:01:09.434Z</time>
      </trkpt>
      <trkpt lat="43.71206" lon="5.82845">
        <ele>454</ele>
        <time>2016-01-23T10:01:10.496Z</time>
      </trkpt>
      <trkpt lat="43.71201" lon="5.8285">
        <ele>452</ele>
        <time>2016-01-23T10:01:11.455Z</time>
      </trkpt>
      <trkpt lat="43.71196" lon="5.82856">
        <ele>451</ele>
        <time>2016-01-23T10:01:12.473Z</time>
      </trkpt>
      <trkpt lat="43.71192" lon="5.82861">
        <ele>450</ele>
        <time>2016-01-23T10:01:13.444Z</time>
      </trkpt>
      <trkpt lat="43.71188" lon="5.82867">
        <ele>450</ele>
        <time>2016-01-23T10:01:14.469Z</time>
      </trkpt>
      <trkpt lat="43.71184" lon="5.82874">
        <ele>448</ele>
        <time>2016-01-23T10:01:15.699Z</time>
      </trkpt>
      <trkpt lat="43.71181" lon="5.82882">
        <ele>448</ele>
        <time>2016-01-23T10:01:16.469Z</time>
      </trkpt>
      <trkpt lat="43.71176" lon="5.82891">
        <ele>445</ele>
        <time>2016-01-23T10:01:17.445Z</time>
      </trkpt>
      <trkpt lat="43.71174" lon="5.82899">
        <ele>445</ele>
        <time>2016-01-23T10:01:18.471Z</time>
      </trkpt>
      <trkpt lat="43.71171" lon="5.82907">
        <ele>444</ele>
        <time>2016-01-23T10:01:19.443Z</time>
      </trkpt>
      <trkpt lat="43.71168" lon="5.82915">
        <ele>443</ele>
        <time>2016-01-23T10:01:20.470Z</time>
      </trkpt>
      <trkpt lat="43.71167" lon="5.82924">
        <ele>441</ele>
        <time>2016-01-23T10:01:21.446Z</time>
      </trkpt>
      <trkpt lat="43.71166" lon="5.82933">
        <ele>441</ele>
        <time>2016-01-23T10:01:22.456Z</time>
      </trkpt>
      <trkpt lat="43.71166" lon="5.82944">
        <ele>439</ele>
        <time>2016-01-23T10:01:23.443Z</time>
      </trkpt>
      <trkpt lat="43.71165" lon="5.82956">
        <ele>438</ele>
        <time>2016-01-23T10:01:24.461Z</time>
      </trkpt>
      <trkpt lat="43.71164" lon="5.82967">
        <ele>437</ele>
        <time>2016-01-23T10:01:25.443Z</time>
      </trkpt>
      <trkpt lat="43.71162" lon="5.82977">
        <ele>435</ele>
        <time>2016-01-23T10:01:26.501Z</time>
      </trkpt>
      <trkpt lat="43.7116" lon="5.82986">
        <ele>435</ele>
        <time>2016-01-23T10:01:27.445Z</time>
      </trkpt>
      <trkpt lat="43.71156" lon="5.82997">
        <ele>433</ele>
        <time>2016-01-23T10:01:28.471Z</time>
      </trkpt>
      <trkpt lat="43.71154" lon="5.83007">
        <ele>432</ele>
        <time>2016-01-23T10:01:29.454Z</time>
      </trkpt>
      <trkpt lat="43.7115" lon="5.83015">
        <ele>431</ele>
        <time>2016-01-23T10:01:30.468Z</time>
      </trkpt>
      <trkpt lat="43.71145" lon="5.83023">
        <ele>431</ele>
        <time>2016-01-23T10:01:31.444Z</time>
      </trkpt>
      <trkpt lat="43.7114" lon="5.83031">
        <ele>430</ele>
        <time>2016-01-23T10:01:32.467Z</time>
      </trkpt>
      <trkpt lat="43.71137" lon="5.83042">
        <ele>428</ele>
        <time>2016-01-23T10:01:33.442Z</time>
      </trkpt>
      <trkpt lat="43.71133" lon="5.83052">
        <ele>427</ele>
        <time>2016-01-23T10:01:34.470Z</time>
      </trkpt>
      <trkpt lat="43.71129" lon="5.83062">
        <ele>427</ele>
        <time>2016-01-23T10:01:35.447Z</time>
      </trkpt>
      <trkpt lat="43.71126" lon="5.83073">
        <ele>426</ele>
        <time>2016-01-23T10:01:36.554Z</time>
      </trkpt>
      <trkpt lat="43.71122" lon="5.83082">
        <ele>425</ele>
        <time>2016-01-23T10:01:37.439Z</time>
      </trkpt>
      <trkpt lat="43.71118" lon="5.83093">
        <ele>421</ele>
        <time>2016-01-23T10:01:38.459Z</time>
      </trkpt>
      <trkpt lat="43.71115" lon="5.83102">
        <ele>420</ele>
        <time>2016-01-23T10:01:39.442Z</time>
      </trkpt>
      <trkpt lat="43.71112" lon="5.83111">
        <ele>420</ele>
        <time>2016-01-23T10:01:40.455Z</time>
      </trkpt>
      <trkpt lat="43.71109" lon="5.83121">
        <ele>418</ele>
        <time>2016-01-23T10:01:41.433Z</time>
      </trkpt>
      <trkpt lat="43.71105" lon="5.83128">
        <ele>417</ele>
        <time>2016-01-23T10:01:42.659Z</time>
      </trkpt>
      <trkpt lat="43.71102" lon="5.83136">
        <ele>417</ele>
        <time>2016-01-23T10:01:43.442Z</time>
      </trkpt>
      <trkpt lat="43.71098" lon="5.83143">
        <ele>415</ele>
        <time>2016-01-23T10:01:44.531Z</time>
      </trkpt>
      <trkpt lat="43.71096" lon="5.8315">
        <ele>413</ele>
        <time>2016-01-23T10:01:45.440Z</time>
      </trkpt>
      <trkpt lat="43.71093" lon="5.83159">
        <ele>412</ele>
        <time>2016-01-23T10:01:46.466Z</time>
      </trkpt>
      <trkpt lat="43.71089" lon="5.83165">
        <ele>412</ele>
        <time>2016-01-23T10:01:47.453Z</time>
      </trkpt>
      <trkpt lat="43.71085" lon="5.8317">
        <ele>411</ele>
        <time>2016-01-23T10:01:48.465Z</time>
      </trkpt>
      <trkpt lat="43.71079" lon="5.83174">
        <ele>409</ele>
        <time>2016-01-23T10:01:49.443Z</time>
      </trkpt>
      <trkpt lat="43.71073" lon="5.83179">
        <ele>409</ele>
        <time>2016-01-23T10:01:50.472Z</time>
      </trkpt>
      <trkpt lat="43.71067" lon="5.83184">
        <ele>407</ele>
        <time>2016-01-23T10:01:51.442Z</time>
      </trkpt>
      <trkpt lat="43.71061" lon="5.8319">
        <ele>406</ele>
        <time>2016-01-23T10:01:52.496Z</time>
      </trkpt>
      <trkpt lat="43.71056" lon="5.83194">
        <ele>405</ele>
        <time>2016-01-23T10:01:53.476Z</time>
      </trkpt>
      <trkpt lat="43.71052" lon="5.83203">
        <ele>403</ele>
        <time>2016-01-23T10:01:55.458Z</time>
      </trkpt>
      <trkpt lat="43.71052" lon="5.83207">
        <ele>403</ele>
        <time>2016-01-23T10:01:56.444Z</time>
      </trkpt>
      <trkpt lat="43.71045" lon="5.83214">
        <ele>402</ele>
        <time>2016-01-23T10:02:23.476Z</time>
      </trkpt>
      <trkpt lat="43.71044" lon="5.83214">
        <ele>402</ele>
        <time>2016-01-23T10:02:24.457Z</time>
      </trkpt>
      <trkpt lat="43.71037" lon="5.83212">
        <ele>401</ele>
        <time>2016-01-23T10:02:27.471Z</time>
      </trkpt>
      <trkpt lat="43.71035" lon="5.83211">
        <ele>401</ele>
        <time>2016-01-23T10:02:28.446Z</time>
      </trkpt>
      <trkpt lat="43.71026" lon="5.83209">
        <ele>401</ele>
        <time>2016-01-23T10:02:31.517Z</time>
      </trkpt>
      <trkpt lat="43.71022" lon="5.83208">
        <ele>400</ele>
        <time>2016-01-23T10:02:32.446Z</time>
      </trkpt>
      <trkpt lat="43.71014" lon="5.83208">
        <ele>400</ele>
        <time>2016-01-23T10:02:34.481Z</time>
      </trkpt>
      <trkpt lat="43.7101" lon="5.83208">
        <ele>399</ele>
        <time>2016-01-23T10:02:35.448Z</time>
      </trkpt>
      <trkpt lat="43.71002" lon="5.83208">
        <ele>398</ele>
        <time>2016-01-23T10:02:37.472Z</time>
      </trkpt>
      <trkpt lat="43.70999" lon="5.83208">
        <ele>398</ele>
        <time>2016-01-23T10:02:38.446Z</time>
      </trkpt>
      <trkpt lat="43.70991" lon="5.83209">
        <ele>397</ele>
        <time>2016-01-23T10:02:40.471Z</time>
      </trkpt>
      <trkpt lat="43.70988" lon="5.8321">
        <ele>397</ele>
        <time>2016-01-23T10:02:41.448Z</time>
      </trkpt>
      <trkpt lat="43.7098" lon="5.83209">
        <ele>396</ele>
        <time>2016-01-23T10:02:43.486Z</time>
      </trkpt>
      <trkpt lat="43.70976" lon="5.83206">
        <ele>395</ele>
        <time>2016-01-23T10:02:44.448Z</time>
      </trkpt>
      <trkpt lat="43.70974" lon="5.83198">
        <ele>395</ele>
        <time>2016-01-23T10:02:45.471Z</time>
      </trkpt>
      <trkpt lat="43.70972" lon="5.83194">
        <ele>395</ele>
        <time>2016-01-23T10:02:46.448Z</time>
      </trkpt>
      <trkpt lat="43.70968" lon="5.83185">
        <ele>394</ele>
        <time>2016-01-23T10:02:48.474Z</time>
      </trkpt>
      <trkpt lat="43.70965" lon="5.83181">
        <ele>394</ele>
        <time>2016-01-23T10:02:49.448Z</time>
      </trkpt>
      <trkpt lat="43.7096" lon="5.83179">
        <ele>393</ele>
        <time>2016-01-23T10:02:50.522Z</time>
      </trkpt>
      <trkpt lat="43.70956" lon="5.83177">
        <ele>393</ele>
        <time>2016-01-23T10:02:51.445Z</time>
      </trkpt>
      <trkpt lat="43.70951" lon="5.83176">
        <ele>393</ele>
        <time>2016-01-23T10:02:52.471Z</time>
      </trkpt>
      <trkpt lat="43.70945" lon="5.83173">
        <ele>393</ele>
        <time>2016-01-23T10:02:53.447Z</time>
      </trkpt>
      <trkpt lat="43.7094" lon="5.8317">
        <ele>392</ele>
        <time>2016-01-23T10:02:54.695Z</time>
      </trkpt>
      <trkpt lat="43.70934" lon="5.83167">
        <ele>392</ele>
        <time>2016-01-23T10:02:55.445Z</time>
      </trkpt>
      <trkpt lat="43.70928" lon="5.83163">
        <ele>392</ele>
        <time>2016-01-23T10:02:56.479Z</time>
      </trkpt>
      <trkpt lat="43.70922" lon="5.8316">
        <ele>392</ele>
        <time>2016-01-23T10:02:57.445Z</time>
      </trkpt>
      <trkpt lat="43.70916" lon="5.83156">
        <ele>392</ele>
        <time>2016-01-23T10:02:58.497Z</time>
      </trkpt>
      <trkpt lat="43.70911" lon="5.83153">
        <ele>392</ele>
        <time>2016-01-23T10:02:59.455Z</time>
      </trkpt>
      <trkpt lat="43.70905" lon="5.8315">
        <ele>392</ele>
        <time>2016-01-23T10:03:00.470Z</time>
      </trkpt>
      <trkpt lat="43.709" lon="5.83148">
        <ele>393</ele>
        <time>2016-01-23T10:03:01.446Z</time>
      </trkpt>
      <trkpt lat="43.70896" lon="5.83146">
        <ele>392</ele>
        <time>2016-01-23T10:03:02.472Z</time>
      </trkpt>
      <trkpt lat="43.70891" lon="5.83145">
        <ele>392</ele>
        <time>2016-01-23T10:03:03.446Z</time>
      </trkpt>
      <trkpt lat="43.70886" lon="5.83144">
        <ele>392</ele>
        <time>2016-01-23T10:03:04.471Z</time>
      </trkpt>
      <trkpt lat="43.70881" lon="5.83144">
        <ele>392</ele>
        <time>2016-01-23T10:03:05.445Z</time>
      </trkpt>
      <trkpt lat="43.70876" lon="5.83144">
        <ele>392</ele>
        <time>2016-01-23T10:03:06.469Z</time>
      </trkpt>
      <trkpt lat="43.70871" lon="5.83144">
        <ele>391</ele>
        <time>2016-01-23T10:03:07.443Z</time>
      </trkpt>
      <trkpt lat="43.70867" lon="5.83144">
        <ele>391</ele>
        <time>2016-01-23T10:03:08.469Z</time>
      </trkpt>
      <trkpt lat="43.70861" lon="5.83143">
        <ele>391</ele>
        <time>2016-01-23T10:03:09.473Z</time>
      </trkpt>
      <trkpt lat="43.70857" lon="5.83143">
        <ele>391</ele>
        <time>2016-01-23T10:03:10.470Z</time>
      </trkpt>
      <trkpt lat="43.70852" lon="5.83143">
        <ele>391</ele>
        <time>2016-01-23T10:03:11.456Z</time>
      </trkpt>
      <trkpt lat="43.70847" lon="5.83142">
        <ele>391</ele>
        <time>2016-01-23T10:03:12.471Z</time>
      </trkpt>
      <trkpt lat="43.70842" lon="5.83142">
        <ele>391</ele>
        <time>2016-01-23T10:03:13.453Z</time>
      </trkpt>
      <trkpt lat="43.70837" lon="5.83142">
        <ele>391</ele>
        <time>2016-01-23T10:03:14.469Z</time>
      </trkpt>
      <trkpt lat="43.70833" lon="5.83142">
        <ele>390</ele>
        <time>2016-01-23T10:03:15.445Z</time>
      </trkpt>
      <trkpt lat="43.70824" lon="5.83141">
        <ele>390</ele>
        <time>2016-01-23T10:03:17.468Z</time>
      </trkpt>
      <trkpt lat="43.7082" lon="5.83141">
        <ele>390</ele>
        <time>2016-01-23T10:03:18.446Z</time>
      </trkpt>
      <trkpt lat="43.70815" lon="5.8314">
        <ele>390</ele>
        <time>2016-01-23T10:03:19.457Z</time>
      </trkpt>
      <trkpt lat="43.7081" lon="5.8314">
        <ele>390</ele>
        <time>2016-01-23T10:03:20.470Z</time>
      </trkpt>
      <trkpt lat="43.70801" lon="5.8314">
        <ele>391</ele>
        <time>2016-01-23T10:03:22.470Z</time>
      </trkpt>
      <trkpt lat="43.70797" lon="5.8314">
        <ele>391</ele>
        <time>2016-01-23T10:03:23.444Z</time>
      </trkpt>
      <trkpt lat="43.70788" lon="5.83139">
        <ele>392</ele>
        <time>2016-01-23T10:03:25.469Z</time>
      </trkpt>
      <trkpt lat="43.70784" lon="5.83139">
        <ele>392</ele>
        <time>2016-01-23T10:03:26.443Z</time>
      </trkpt>
      <trkpt lat="43.70776" lon="5.83139">
        <ele>393</ele>
        <time>2016-01-23T10:03:28.478Z</time>
      </trkpt>
      <trkpt lat="43.70772" lon="5.83139">
        <ele>393</ele>
        <time>2016-01-23T10:03:29.446Z</time>
      </trkpt>
      <trkpt lat="43.70763" lon="5.83138">
        <ele>393</ele>
        <time>2016-01-23T10:03:31.496Z</time>
      </trkpt>
      <trkpt lat="43.70759" lon="5.83137">
        <ele>393</ele>
        <time>2016-01-23T10:03:32.446Z</time>
      </trkpt>
      <trkpt lat="43.70751" lon="5.83137">
        <ele>394</ele>
        <time>2016-01-23T10:03:34.472Z</time>
      </trkpt>
      <trkpt lat="43.70747" lon="5.83136">
        <ele>394</ele>
        <time>2016-01-23T10:03:35.445Z</time>
      </trkpt>
      <trkpt lat="43.7074" lon="5.83135">
        <ele>394</ele>
        <time>2016-01-23T10:03:37.470Z</time>
      </trkpt>
      <trkpt lat="43.70736" lon="5.83134">
        <ele>394</ele>
        <time>2016-01-23T10:03:38.444Z</time>
      </trkpt>
      <trkpt lat="43.70728" lon="5.83133">
        <ele>394</ele>
        <time>2016-01-23T10:03:40.698Z</time>
      </trkpt>
      <trkpt lat="43.70724" lon="5.83132">
        <ele>394</ele>
        <time>2016-01-23T10:03:41.446Z</time>
      </trkpt>
      <trkpt lat="43.70717" lon="5.83129">
        <ele>393</ele>
        <time>2016-01-23T10:03:43.471Z</time>
      </trkpt>
      <trkpt lat="43.70713" lon="5.83128">
        <ele>393</ele>
        <time>2016-01-23T10:03:44.445Z</time>
      </trkpt>
      <trkpt lat="43.70706" lon="5.83125">
        <ele>393</ele>
        <time>2016-01-23T10:03:46.469Z</time>
      </trkpt>
      <trkpt lat="43.70703" lon="5.83123">
        <ele>393</ele>
        <time>2016-01-23T10:03:47.470Z</time>
      </trkpt>
      <trkpt lat="43.70696" lon="5.83119">
        <ele>394</ele>
        <time>2016-01-23T10:03:49.470Z</time>
      </trkpt>
      <trkpt lat="43.70692" lon="5.83116">
        <ele>394</ele>
        <time>2016-01-23T10:03:50.447Z</time>
      </trkpt>
      <trkpt lat="43.70686" lon="5.83113">
        <ele>394</ele>
        <time>2016-01-23T10:03:52.471Z</time>
      </trkpt>
      <trkpt lat="43.70684" lon="5.83111">
        <ele>393</ele>
        <time>2016-01-23T10:03:53.441Z</time>
      </trkpt>
      <trkpt lat="43.70678" lon="5.83107">
        <ele>394</ele>
        <time>2016-01-23T10:03:55.469Z</time>
      </trkpt>
      <trkpt lat="43.70676" lon="5.83105">
        <ele>394</ele>
        <time>2016-01-23T10:03:56.452Z</time>
      </trkpt>
      <trkpt lat="43.7067" lon="5.83101">
        <ele>394</ele>
        <time>2016-01-23T10:03:58.496Z</time>
      </trkpt>
      <trkpt lat="43.70667" lon="5.83099">
        <ele>394</ele>
        <time>2016-01-23T10:03:59.445Z</time>
      </trkpt>
      <trkpt lat="43.70661" lon="5.83097">
        <ele>394</ele>
        <time>2016-01-23T10:04:01.465Z</time>
      </trkpt>
      <trkpt lat="43.70658" lon="5.83096">
        <ele>394</ele>
        <time>2016-01-23T10:04:02.447Z</time>
      </trkpt>
      <trkpt lat="43.70651" lon="5.83094">
        <ele>395</ele>
        <time>2016-01-23T10:04:04.471Z</time>
      </trkpt>
      <trkpt lat="43.70648" lon="5.83093">
        <ele>396</ele>
        <time>2016-01-23T10:04:05.445Z</time>
      </trkpt>
      <trkpt lat="43.70642" lon="5.83092">
        <ele>397</ele>
        <time>2016-01-23T10:04:07.471Z</time>
      </trkpt>
      <trkpt lat="43.70639" lon="5.83091">
        <ele>397</ele>
        <time>2016-01-23T10:04:08.444Z</time>
      </trkpt>
      <trkpt lat="43.70633" lon="5.8309">
        <ele>398</ele>
        <time>2016-01-23T10:04:10.469Z</time>
      </trkpt>
      <trkpt lat="43.7063" lon="5.83089">
        <ele>398</ele>
        <time>2016-01-23T10:04:11.445Z</time>
      </trkpt>
      <trkpt lat="43.70622" lon="5.83087">
        <ele>399</ele>
        <time>2016-01-23T10:04:14.515Z</time>
      </trkpt>
      <trkpt lat="43.70619" lon="5.83085">
        <ele>400</ele>
        <time>2016-01-23T10:04:15.444Z</time>
      </trkpt>
      <trkpt lat="43.70612" lon="5.83078">
        <ele>400</ele>
        <time>2016-01-23T10:04:18.468Z</time>
      </trkpt>
      <trkpt lat="43.7061" lon="5.83075">
        <ele>401</ele>
        <time>2016-01-23T10:04:19.444Z</time>
      </trkpt>
      <trkpt lat="43.70604" lon="5.83065">
        <ele>400</ele>
        <time>2016-01-23T10:04:22.467Z</time>
      </trkpt>
      <trkpt lat="43.70602" lon="5.83063">
        <ele>400</ele>
        <time>2016-01-23T10:04:23.443Z</time>
      </trkpt>
      <trkpt lat="43.70597" lon="5.83057">
        <ele>400</ele>
        <time>2016-01-23T10:04:25.496Z</time>
      </trkpt>
      <trkpt lat="43.70595" lon="5.83054">
        <ele>400</ele>
        <time>2016-01-23T10:04:26.450Z</time>
      </trkpt>
      <trkpt lat="43.70588" lon="5.83047">
        <ele>400</ele>
        <time>2016-01-23T10:04:29.469Z</time>
      </trkpt>
      <trkpt lat="43.70586" lon="5.83044">
        <ele>400</ele>
        <time>2016-01-23T10:04:30.444Z</time>
      </trkpt>
      <trkpt lat="43.7058" lon="5.83037">
        <ele>401</ele>
        <time>2016-01-23T10:04:33.468Z</time>
      </trkpt>
      <trkpt lat="43.70577" lon="5.83034">
        <ele>401</ele>
        <time>2016-01-23T10:04:34.443Z</time>
      </trkpt>
      <trkpt lat="43.70573" lon="5.83029">
        <ele>401</ele>
        <time>2016-01-23T10:04:36.449Z</time>
      </trkpt>
      <trkpt lat="43.7057" lon="5.83026">
        <ele>401</ele>
        <time>2016-01-23T10:04:37.438Z</time>
      </trkpt>
      <trkpt lat="43.70564" lon="5.83018">
        <ele>401</ele>
        <time>2016-01-23T10:04:40.472Z</time>
      </trkpt>
      <trkpt lat="43.70561" lon="5.83015">
        <ele>400</ele>
        <time>2016-01-23T10:04:41.445Z</time>
      </trkpt>
      <trkpt lat="43.70556" lon="5.8301">
        <ele>400</ele>
        <time>2016-01-23T10:04:43.480Z</time>
      </trkpt>
      <trkpt lat="43.70554" lon="5.83007">
        <ele>401</ele>
        <time>2016-01-23T10:04:44.443Z</time>
      </trkpt>
      <trkpt lat="43.70547" lon="5.83">
        <ele>401</ele>
        <time>2016-01-23T10:04:47.470Z</time>
      </trkpt>
      <trkpt lat="43.70544" lon="5.82998">
        <ele>401</ele>
        <time>2016-01-23T10:04:48.444Z</time>
      </trkpt>
      <trkpt lat="43.70538" lon="5.82993">
        <ele>402</ele>
        <time>2016-01-23T10:04:51.471Z</time>
      </trkpt>
      <trkpt lat="43.70536" lon="5.82991">
        <ele>402</ele>
        <time>2016-01-23T10:04:52.447Z</time>
      </trkpt>
      <trkpt lat="43.7053" lon="5.82985">
        <ele>402</ele>
        <time>2016-01-23T10:04:55.469Z</time>
      </trkpt>
      <trkpt lat="43.70527" lon="5.82983">
        <ele>403</ele>
        <time>2016-01-23T10:04:56.445Z</time>
      </trkpt>
      <trkpt lat="43.7052" lon="5.82977">
        <ele>403</ele>
        <time>2016-01-23T10:04:59.472Z</time>
      </trkpt>
      <trkpt lat="43.70518" lon="5.82975">
        <ele>403</ele>
        <time>2016-01-23T10:05:00.447Z</time>
      </trkpt>
      <trkpt lat="43.70511" lon="5.8297">
        <ele>405</ele>
        <time>2016-01-23T10:05:03.516Z</time>
      </trkpt>
      <trkpt lat="43.70508" lon="5.82968">
        <ele>405</ele>
        <time>2016-01-23T10:05:04.457Z</time>
      </trkpt>
      <trkpt lat="43.70502" lon="5.82975">
        <ele>406</ele>
        <time>2016-01-23T10:05:08.496Z</time>
      </trkpt>
      <trkpt lat="43.70502" lon="5.82979">
        <ele>406</ele>
        <time>2016-01-23T10:05:09.446Z</time>
      </trkpt>
      <trkpt lat="43.70501" lon="5.82991">
        <ele>406</ele>
        <time>2016-01-23T10:05:12.470Z</time>
      </trkpt>
      <trkpt lat="43.705" lon="5.82995">
        <ele>406</ele>
        <time>2016-01-23T10:05:13.455Z</time>
      </trkpt>
      <trkpt lat="43.70498" lon="5.83006">
        <ele>406</ele>
        <time>2016-01-23T10:05:16.681Z</time>
      </trkpt>
      <trkpt lat="43.70497" lon="5.83011">
        <ele>406</ele>
        <time>2016-01-23T10:05:17.447Z</time>
      </trkpt>
      <trkpt lat="43.70495" lon="5.83022">
        <ele>406</ele>
        <time>2016-01-23T10:05:20.473Z</time>
      </trkpt>
      <trkpt lat="43.70494" lon="5.83025">
        <ele>406</ele>
        <time>2016-01-23T10:05:21.446Z</time>
      </trkpt>
      <trkpt lat="43.70491" lon="5.83036">
        <ele>406</ele>
        <time>2016-01-23T10:05:24.471Z</time>
      </trkpt>
      <trkpt lat="43.70491" lon="5.8304">
        <ele>406</ele>
        <time>2016-01-23T10:05:25.458Z</time>
      </trkpt>
      <trkpt lat="43.70488" lon="5.83051">
        <ele>407</ele>
        <time>2016-01-23T10:05:28.470Z</time>
      </trkpt>
      <trkpt lat="43.70487" lon="5.83054">
        <ele>407</ele>
        <time>2016-01-23T10:05:29.446Z</time>
      </trkpt>
      <trkpt lat="43.70484" lon="5.83064">
        <ele>408</ele>
        <time>2016-01-23T10:05:33.482Z</time>
      </trkpt>
      <trkpt lat="43.70483" lon="5.83066">
        <ele>408</ele>
        <time>2016-01-23T10:05:34.448Z</time>
      </trkpt>
      <trkpt lat="43.70483" lon="5.83077">
        <ele>409</ele>
        <time>2016-01-23T10:05:38.518Z</time>
      </trkpt>
      <trkpt lat="43.70482" lon="5.8308">
        <ele>409</ele>
        <time>2016-01-23T10:05:39.447Z</time>
      </trkpt>
      <trkpt lat="43.70483" lon="5.83092">
        <ele>409</ele>
        <time>2016-01-23T10:05:43.479Z</time>
      </trkpt>
      <trkpt lat="43.70482" lon="5.83094">
        <ele>410</ele>
        <time>2016-01-23T10:05:44.458Z</time>
      </trkpt>
      <trkpt lat="43.70474" lon="5.83098">
        <ele>409</ele>
        <time>2016-01-23T10:05:50.470Z</time>
      </trkpt>
      <trkpt lat="43.70472" lon="5.83099">
        <ele>410</ele>
        <time>2016-01-23T10:05:51.446Z</time>
      </trkpt>
      <trkpt lat="43.70466" lon="5.83107">
        <ele>411</ele>
        <time>2016-01-23T10:05:55.471Z</time>
      </trkpt>
      <trkpt lat="43.70465" lon="5.83109">
        <ele>411</ele>
        <time>2016-01-23T10:05:56.446Z</time>
      </trkpt>
      <trkpt lat="43.70459" lon="5.83118">
        <ele>412</ele>
        <time>2016-01-23T10:06:00.470Z</time>
      </trkpt>
      <trkpt lat="43.70458" lon="5.8312">
        <ele>412</ele>
        <time>2016-01-23T10:06:01.445Z</time>
      </trkpt>
      <trkpt lat="43.70453" lon="5.83131">
        <ele>412</ele>
        <time>2016-01-23T10:06:05.470Z</time>
      </trkpt>
      <trkpt lat="43.70453" lon="5.83134">
        <ele>412</ele>
        <time>2016-01-23T10:06:06.447Z</time>
      </trkpt>
      <trkpt lat="43.7045" lon="5.83145">
        <ele>412</ele>
        <time>2016-01-23T10:06:10.471Z</time>
      </trkpt>
      <trkpt lat="43.70449" lon="5.83148">
        <ele>412</ele>
        <time>2016-01-23T10:06:11.446Z</time>
      </trkpt>
      <trkpt lat="43.70446" lon="5.83157">
        <ele>410</ele>
        <time>2016-01-23T10:06:14.469Z</time>
      </trkpt>
      <trkpt lat="43.70445" lon="5.83161">
        <ele>410</ele>
        <time>2016-01-23T10:06:15.447Z</time>
      </trkpt>
      <trkpt lat="43.70443" lon="5.83169">
        <ele>410</ele>
        <time>2016-01-23T10:06:17.471Z</time>
      </trkpt>
      <trkpt lat="43.70442" lon="5.83173">
        <ele>409</ele>
        <time>2016-01-23T10:06:18.446Z</time>
      </trkpt>
      <trkpt lat="43.70439" lon="5.83182">
        <ele>409</ele>
        <time>2016-01-23T10:06:20.470Z</time>
      </trkpt>
      <trkpt lat="43.70436" lon="5.83187">
        <ele>409</ele>
        <time>2016-01-23T10:06:21.446Z</time>
      </trkpt>
      <trkpt lat="43.70432" lon="5.83194">
        <ele>409</ele>
        <time>2016-01-23T10:06:23.471Z</time>
      </trkpt>
      <trkpt lat="43.70429" lon="5.83198">
        <ele>410</ele>
        <time>2016-01-23T10:06:24.446Z</time>
      </trkpt>
      <trkpt lat="43.70423" lon="5.83207">
        <ele>410</ele>
        <time>2016-01-23T10:06:27.471Z</time>
      </trkpt>
      <trkpt lat="43.70422" lon="5.8321">
        <ele>410</ele>
        <time>2016-01-23T10:06:28.447Z</time>
      </trkpt>
      <trkpt lat="43.70417" lon="5.83218">
        <ele>410</ele>
        <time>2016-01-23T10:06:31.466Z</time>
      </trkpt>
      <trkpt lat="43.70416" lon="5.83221">
        <ele>410</ele>
        <time>2016-01-23T10:06:32.446Z</time>
      </trkpt>
      <trkpt lat="43.70418" lon="5.83232">
        <ele>409</ele>
        <time>2016-01-23T10:06:37.471Z</time>
      </trkpt>
      <trkpt lat="43.70418" lon="5.83234">
        <ele>409</ele>
        <time>2016-01-23T10:06:38.448Z</time>
      </trkpt>
      <trkpt lat="43.70418" lon="5.83245">
        <ele>409</ele>
        <time>2016-01-23T10:06:42.564Z</time>
      </trkpt>
      <trkpt lat="43.70418" lon="5.83247">
        <ele>409</ele>
        <time>2016-01-23T10:06:43.458Z</time>
      </trkpt>
      <trkpt lat="43.70423" lon="5.83257">
        <ele>410</ele>
        <time>2016-01-23T10:06:47.470Z</time>
      </trkpt>
      <trkpt lat="43.70424" lon="5.83259">
        <ele>409</ele>
        <time>2016-01-23T10:06:48.447Z</time>
      </trkpt>
      <trkpt lat="43.7043" lon="5.83268">
        <ele>410</ele>
        <time>2016-01-23T10:06:52.472Z</time>
      </trkpt>
      <trkpt lat="43.70432" lon="5.83271">
        <ele>410</ele>
        <time>2016-01-23T10:06:53.446Z</time>
      </trkpt>
      <trkpt lat="43.70437" lon="5.8328">
        <ele>410</ele>
        <time>2016-01-23T10:06:57.508Z</time>
      </trkpt>
      <trkpt lat="43.70439" lon="5.83282">
        <ele>410</ele>
        <time>2016-01-23T10:06:58.447Z</time>
      </trkpt>
      <trkpt lat="43.70444" lon="5.83292">
        <ele>411</ele>
        <time>2016-01-23T10:07:02.471Z</time>
      </trkpt>
      <trkpt lat="43.70445" lon="5.83294">
        <ele>411</ele>
        <time>2016-01-23T10:07:03.445Z</time>
      </trkpt>
      <trkpt lat="43.70451" lon="5.83302">
        <ele>411</ele>
        <time>2016-01-23T10:07:07.473Z</time>
      </trkpt>
      <trkpt lat="43.70453" lon="5.83304">
        <ele>412</ele>
        <time>2016-01-23T10:07:08.476Z</time>
      </trkpt>
      <trkpt lat="43.70459" lon="5.83309">
        <ele>413</ele>
        <time>2016-01-23T10:07:12.483Z</time>
      </trkpt>
      <trkpt lat="43.70461" lon="5.83309">
        <ele>413</ele>
        <time>2016-01-23T10:07:13.446Z</time>
      </trkpt>
      <trkpt lat="43.70468" lon="5.8331">
        <ele>414</ele>
        <time>2016-01-23T10:07:17.481Z</time>
      </trkpt>
      <trkpt lat="43.7047" lon="5.8331">
        <ele>414</ele>
        <time>2016-01-23T10:07:18.446Z</time>
      </trkpt>
      <trkpt lat="43.70477" lon="5.83315">
        <ele>414</ele>
        <time>2016-01-23T10:07:22.470Z</time>
      </trkpt>
      <trkpt lat="43.70479" lon="5.83316">
        <ele>414</ele>
        <time>2016-01-23T10:07:23.447Z</time>
      </trkpt>
      <trkpt lat="43.70485" lon="5.83323">
        <ele>414</ele>
        <time>2016-01-23T10:07:27.472Z</time>
      </trkpt>
      <trkpt lat="43.70487" lon="5.83325">
        <ele>414</ele>
        <time>2016-01-23T10:07:28.447Z</time>
      </trkpt>
      <trkpt lat="43.70493" lon="5.83329">
        <ele>414</ele>
        <time>2016-01-23T10:07:31.471Z</time>
      </trkpt>
      <trkpt lat="43.70495" lon="5.8333">
        <ele>414</ele>
        <time>2016-01-23T10:07:32.446Z</time>
      </trkpt>
      <trkpt lat="43.70502" lon="5.83332">
        <ele>414</ele>
        <time>2016-01-23T10:07:35.470Z</time>
      </trkpt>
      <trkpt lat="43.70505" lon="5.83333">
        <ele>413</ele>
        <time>2016-01-23T10:07:36.447Z</time>
      </trkpt>
      <trkpt lat="43.70513" lon="5.83337">
        <ele>413</ele>
        <time>2016-01-23T10:07:38.473Z</time>
      </trkpt>
      <trkpt lat="43.70516" lon="5.8334">
        <ele>412</ele>
        <time>2016-01-23T10:07:39.446Z</time>
      </trkpt>
      <trkpt lat="43.70523" lon="5.83346">
        <ele>411</ele>
        <time>2016-01-23T10:07:41.498Z</time>
      </trkpt>
      <trkpt lat="43.70527" lon="5.83353">
        <ele>411</ele>
        <time>2016-01-23T10:07:42.445Z</time>
      </trkpt>
      <trkpt lat="43.7053" lon="5.8336">
        <ele>410</ele>
        <time>2016-01-23T10:07:43.698Z</time>
      </trkpt>
      <trkpt lat="43.70531" lon="5.83368">
        <ele>410</ele>
        <time>2016-01-23T10:07:44.448Z</time>
      </trkpt>
      <trkpt lat="43.7053" lon="5.83375">
        <ele>409</ele>
        <time>2016-01-23T10:07:45.456Z</time>
      </trkpt>
      <trkpt lat="43.7053" lon="5.83382">
        <ele>409</ele>
        <time>2016-01-23T10:07:46.435Z</time>
      </trkpt>
      <trkpt lat="43.70529" lon="5.83388">
        <ele>409</ele>
        <time>2016-01-23T10:07:47.473Z</time>
      </trkpt>
      <trkpt lat="43.70528" lon="5.83395">
        <ele>409</ele>
        <time>2016-01-23T10:07:48.446Z</time>
      </trkpt>
      <trkpt lat="43.70527" lon="5.83401">
        <ele>409</ele>
        <time>2016-01-23T10:07:49.472Z</time>
      </trkpt>
      <trkpt lat="43.70524" lon="5.83406">
        <ele>409</ele>
        <time>2016-01-23T10:07:50.452Z</time>
      </trkpt>
      <trkpt lat="43.70519" lon="5.83416">
        <ele>409</ele>
        <time>2016-01-23T10:07:53.470Z</time>
      </trkpt>
      <trkpt lat="43.70518" lon="5.83417">
        <ele>410</ele>
        <time>2016-01-23T10:07:54.446Z</time>
      </trkpt>
      <trkpt lat="43.70514" lon="5.83428">
        <ele>408</ele>
        <time>2016-01-23T10:08:00.470Z</time>
      </trkpt>
      <trkpt lat="43.70514" lon="5.83429">
        <ele>408</ele>
        <time>2016-01-23T10:08:01.447Z</time>
      </trkpt>
      <trkpt lat="43.70513" lon="5.8344">
        <ele>411</ele>
        <time>2016-01-23T10:08:05.516Z</time>
      </trkpt>
      <trkpt lat="43.70513" lon="5.83444">
        <ele>412</ele>
        <time>2016-01-23T10:08:06.447Z</time>
      </trkpt>
      <trkpt lat="43.70513" lon="5.83456">
        <ele>412</ele>
        <time>2016-01-23T10:08:09.481Z</time>
      </trkpt>
      <trkpt lat="43.70513" lon="5.83461">
        <ele>412</ele>
        <time>2016-01-23T10:08:10.449Z</time>
      </trkpt>
      <trkpt lat="43.70512" lon="5.83469">
        <ele>409</ele>
        <time>2016-01-23T10:08:12.473Z</time>
      </trkpt>
      <trkpt lat="43.70511" lon="5.83474">
        <ele>409</ele>
        <time>2016-01-23T10:08:13.446Z</time>
      </trkpt>
      <trkpt lat="43.70508" lon="5.83482">
        <ele>410</ele>
        <time>2016-01-23T10:08:15.468Z</time>
      </trkpt>
      <trkpt lat="43.70506" lon="5.83487">
        <ele>409</ele>
        <time>2016-01-23T10:08:16.442Z</time>
      </trkpt>
      <trkpt lat="43.70502" lon="5.83494">
        <ele>410</ele>
        <time>2016-01-23T10:08:18.473Z</time>
      </trkpt>
      <trkpt lat="43.705" lon="5.83498">
        <ele>410</ele>
        <time>2016-01-23T10:08:19.448Z</time>
      </trkpt>
      <trkpt lat="43.70495" lon="5.83505">
        <ele>410</ele>
        <time>2016-01-23T10:08:21.455Z</time>
      </trkpt>
      <trkpt lat="43.70493" lon="5.83508">
        <ele>410</ele>
        <time>2016-01-23T10:08:22.446Z</time>
      </trkpt>
      <trkpt lat="43.70488" lon="5.83515">
        <ele>410</ele>
        <time>2016-01-23T10:08:24.472Z</time>
      </trkpt>
      <trkpt lat="43.70485" lon="5.83518">
        <ele>410</ele>
        <time>2016-01-23T10:08:25.474Z</time>
      </trkpt>
      <trkpt lat="43.70482" lon="5.83525">
        <ele>409</ele>
        <time>2016-01-23T10:08:27.546Z</time>
      </trkpt>
      <trkpt lat="43.70481" lon="5.83529">
        <ele>409</ele>
        <time>2016-01-23T10:08:28.447Z</time>
      </trkpt>
      <trkpt lat="43.70479" lon="5.83537">
        <ele>410</ele>
        <time>2016-01-23T10:08:30.471Z</time>
      </trkpt>
      <trkpt lat="43.70478" lon="5.83541">
        <ele>409</ele>
        <time>2016-01-23T10:08:31.449Z</time>
      </trkpt>
      <trkpt lat="43.70479" lon="5.83552">
        <ele>409</ele>
        <time>2016-01-23T10:08:34.484Z</time>
      </trkpt>
      <trkpt lat="43.70479" lon="5.83555">
        <ele>409</ele>
        <time>2016-01-23T10:08:35.451Z</time>
      </trkpt>
      <trkpt lat="43.70484" lon="5.83563">
        <ele>410</ele>
        <time>2016-01-23T10:08:38.473Z</time>
      </trkpt>
      <trkpt lat="43.70485" lon="5.83565">
        <ele>410</ele>
        <time>2016-01-23T10:08:39.442Z</time>
      </trkpt>
      <trkpt lat="43.7049" lon="5.83571">
        <ele>409</ele>
        <time>2016-01-23T10:08:42.512Z</time>
      </trkpt>
      <trkpt lat="43.70492" lon="5.83573">
        <ele>410</ele>
        <time>2016-01-23T10:08:43.671Z</time>
      </trkpt>
      <trkpt lat="43.70498" lon="5.83579">
        <ele>410</ele>
        <time>2016-01-23T10:08:47.499Z</time>
      </trkpt>
      <trkpt lat="43.705" lon="5.83581">
        <ele>411</ele>
        <time>2016-01-23T10:08:48.446Z</time>
      </trkpt>
      <trkpt lat="43.70507" lon="5.83584">
        <ele>411</ele>
        <time>2016-01-23T10:08:52.471Z</time>
      </trkpt>
      <trkpt lat="43.70509" lon="5.83585">
        <ele>411</ele>
        <time>2016-01-23T10:08:53.458Z</time>
      </trkpt>
      <trkpt lat="43.70517" lon="5.83587">
        <ele>411</ele>
        <time>2016-01-23T10:08:57.470Z</time>
      </trkpt>
      <trkpt lat="43.70519" lon="5.83588">
        <ele>411</ele>
        <time>2016-01-23T10:08:58.472Z</time>
      </trkpt>
      <trkpt lat="43.70526" lon="5.83589">
        <ele>411</ele>
        <time>2016-01-23T10:09:02.472Z</time>
      </trkpt>
      <trkpt lat="43.70528" lon="5.8359">
        <ele>412</ele>
        <time>2016-01-23T10:09:03.447Z</time>
      </trkpt>
      <trkpt lat="43.70535" lon="5.83593">
        <ele>414</ele>
        <time>2016-01-23T10:09:07.472Z</time>
      </trkpt>
      <trkpt lat="43.70537" lon="5.83594">
        <ele>414</ele>
        <time>2016-01-23T10:09:08.447Z</time>
      </trkpt>
      <trkpt lat="43.70544" lon="5.83598">
        <ele>414</ele>
        <time>2016-01-23T10:09:12.471Z</time>
      </trkpt>
      <trkpt lat="43.70546" lon="5.83599">
        <ele>414</ele>
        <time>2016-01-23T10:09:13.447Z</time>
      </trkpt>
      <trkpt lat="43.70553" lon="5.83602">
        <ele>415</ele>
        <time>2016-01-23T10:09:17.471Z</time>
      </trkpt>
      <trkpt lat="43.70554" lon="5.83604">
        <ele>414</ele>
        <time>2016-01-23T10:09:18.458Z</time>
      </trkpt>
      <trkpt lat="43.70557" lon="5.83613">
        <ele>415</ele>
        <time>2016-01-23T10:09:22.471Z</time>
      </trkpt>
      <trkpt lat="43.70557" lon="5.83616">
        <ele>416</ele>
        <time>2016-01-23T10:09:23.459Z</time>
      </trkpt>
      <trkpt lat="43.70558" lon="5.83626">
        <ele>416</ele>
        <time>2016-01-23T10:09:27.470Z</time>
      </trkpt>
      <trkpt lat="43.70558" lon="5.83629">
        <ele>417</ele>
        <time>2016-01-23T10:09:28.448Z</time>
      </trkpt>
      <trkpt lat="43.7056" lon="5.8364">
        <ele>418</ele>
        <time>2016-01-23T10:09:33.470Z</time>
      </trkpt>
      <trkpt lat="43.7056" lon="5.83642">
        <ele>417</ele>
        <time>2016-01-23T10:09:34.447Z</time>
      </trkpt>
      <trkpt lat="43.70561" lon="5.83653">
        <ele>417</ele>
        <time>2016-01-23T10:09:38.474Z</time>
      </trkpt>
      <trkpt lat="43.70561" lon="5.83655">
        <ele>417</ele>
        <time>2016-01-23T10:09:39.448Z</time>
      </trkpt>
      <trkpt lat="43.70561" lon="5.83668">
        <ele>417</ele>
        <time>2016-01-23T10:09:43.471Z</time>
      </trkpt>
      <trkpt lat="43.7056" lon="5.8367">
        <ele>417</ele>
        <time>2016-01-23T10:09:44.446Z</time>
      </trkpt>
      <trkpt lat="43.70558" lon="5.83679">
        <ele>417</ele>
        <time>2016-01-23T10:09:47.497Z</time>
      </trkpt>
      <trkpt lat="43.70557" lon="5.83683">
        <ele>416</ele>
        <time>2016-01-23T10:09:48.447Z</time>
      </trkpt>
      <trkpt lat="43.70554" lon="5.8369">
        <ele>416</ele>
        <time>2016-01-23T10:09:50.549Z</time>
      </trkpt>
      <trkpt lat="43.70553" lon="5.83694">
        <ele>416</ele>
        <time>2016-01-23T10:09:51.449Z</time>
      </trkpt>
      <trkpt lat="43.7055" lon="5.83701">
        <ele>417</ele>
        <time>2016-01-23T10:09:53.468Z</time>
      </trkpt>
      <trkpt lat="43.70548" lon="5.83705">
        <ele>416</ele>
        <time>2016-01-23T10:09:54.446Z</time>
      </trkpt>
      <trkpt lat="43.70546" lon="5.83713">
        <ele>416</ele>
        <time>2016-01-23T10:09:56.471Z</time>
      </trkpt>
      <trkpt lat="43.70544" lon="5.83717">
        <ele>417</ele>
        <time>2016-01-23T10:09:57.447Z</time>
      </trkpt>
      <trkpt lat="43.70542" lon="5.83728">
        <ele>417</ele>
        <time>2016-01-23T10:10:00.457Z</time>
      </trkpt>
      <trkpt lat="43.70542" lon="5.83731">
        <ele>418</ele>
        <time>2016-01-23T10:10:01.447Z</time>
      </trkpt>
      <trkpt lat="43.70544" lon="5.8374">
        <ele>418</ele>
        <time>2016-01-23T10:10:04.471Z</time>
      </trkpt>
      <trkpt lat="43.70546" lon="5.83744">
        <ele>417</ele>
        <time>2016-01-23T10:10:05.458Z</time>
      </trkpt>
      <trkpt lat="43.70554" lon="5.83749">
        <ele>416</ele>
        <time>2016-01-23T10:10:08.484Z</time>
      </trkpt>
      <trkpt lat="43.70557" lon="5.83751">
        <ele>416</ele>
        <time>2016-01-23T10:10:09.447Z</time>
      </trkpt>
      <trkpt lat="43.70561" lon="5.8376">
        <ele>416</ele>
        <time>2016-01-23T10:10:11.470Z</time>
      </trkpt>
      <trkpt lat="43.70562" lon="5.83766">
        <ele>416</ele>
        <time>2016-01-23T10:10:12.448Z</time>
      </trkpt>
      <trkpt lat="43.70562" lon="5.83777">
        <ele>418</ele>
        <time>2016-01-23T10:10:14.471Z</time>
      </trkpt>
      <trkpt lat="43.70561" lon="5.83783">
        <ele>417</ele>
        <time>2016-01-23T10:10:15.456Z</time>
      </trkpt>
      <trkpt lat="43.7056" lon="5.83793">
        <ele>417</ele>
        <time>2016-01-23T10:10:17.471Z</time>
      </trkpt>
      <trkpt lat="43.7056" lon="5.83799">
        <ele>417</ele>
        <time>2016-01-23T10:10:18.448Z</time>
      </trkpt>
      <trkpt lat="43.70558" lon="5.83808">
        <ele>417</ele>
        <time>2016-01-23T10:10:20.484Z</time>
      </trkpt>
      <trkpt lat="43.70556" lon="5.83812">
        <ele>417</ele>
        <time>2016-01-23T10:10:21.449Z</time>
      </trkpt>
      <trkpt lat="43.70551" lon="5.83822">
        <ele>417</ele>
        <time>2016-01-23T10:10:24.495Z</time>
      </trkpt>
      <trkpt lat="43.7055" lon="5.83825">
        <ele>417</ele>
        <time>2016-01-23T10:10:25.456Z</time>
      </trkpt>
      <trkpt lat="43.70543" lon="5.83831">
        <ele>417</ele>
        <time>2016-01-23T10:10:28.470Z</time>
      </trkpt>
      <trkpt lat="43.70541" lon="5.83832">
        <ele>418</ele>
        <time>2016-01-23T10:10:29.447Z</time>
      </trkpt>
      <trkpt lat="43.70532" lon="5.83834">
        <ele>419</ele>
        <time>2016-01-23T10:10:35.483Z</time>
      </trkpt>
      <trkpt lat="43.70531" lon="5.83835">
        <ele>419</ele>
        <time>2016-01-23T10:10:36.444Z</time>
      </trkpt>
      <trkpt lat="43.70524" lon="5.83839">
        <ele>419</ele>
        <time>2016-01-23T10:10:41.471Z</time>
      </trkpt>
      <trkpt lat="43.70522" lon="5.8384">
        <ele>419</ele>
        <time>2016-01-23T10:10:42.448Z</time>
      </trkpt>
      <trkpt lat="43.70515" lon="5.83843">
        <ele>422</ele>
        <time>2016-01-23T10:10:47.473Z</time>
      </trkpt>
      <trkpt lat="43.70513" lon="5.83844">
        <ele>422</ele>
        <time>2016-01-23T10:10:48.448Z</time>
      </trkpt>
      <trkpt lat="43.70506" lon="5.8385">
        <ele>423</ele>
        <time>2016-01-23T10:10:53.475Z</time>
      </trkpt>
      <trkpt lat="43.70505" lon="5.83851">
        <ele>423</ele>
        <time>2016-01-23T10:10:54.446Z</time>
      </trkpt>
      <trkpt lat="43.70498" lon="5.83858">
        <ele>422</ele>
        <time>2016-01-23T10:10:59.476Z</time>
      </trkpt>
      <trkpt lat="43.70497" lon="5.83859">
        <ele>422</ele>
        <time>2016-01-23T10:11:00.449Z</time>
      </trkpt>
      <trkpt lat="43.7049" lon="5.83865">
        <ele>422</ele>
        <time>2016-01-23T10:11:05.483Z</time>
      </trkpt>
      <trkpt lat="43.70489" lon="5.83867">
        <ele>423</ele>
        <time>2016-01-23T10:11:06.444Z</time>
      </trkpt>
      <trkpt lat="43.70483" lon="5.83874">
        <ele>423</ele>
        <time>2016-01-23T10:11:11.471Z</time>
      </trkpt>
      <trkpt lat="43.70482" lon="5.83876">
        <ele>423</ele>
        <time>2016-01-23T10:11:12.446Z</time>
      </trkpt>
      <trkpt lat="43.70475" lon="5.83883">
        <ele>424</ele>
        <time>2016-01-23T10:11:17.474Z</time>
      </trkpt>
      <trkpt lat="43.70474" lon="5.83884">
        <ele>425</ele>
        <time>2016-01-23T10:11:18.461Z</time>
      </trkpt>
      <trkpt lat="43.70467" lon="5.8389">
        <ele>425</ele>
        <time>2016-01-23T10:11:23.471Z</time>
      </trkpt>
      <trkpt lat="43.70466" lon="5.83892">
        <ele>425</ele>
        <time>2016-01-23T10:11:24.475Z</time>
      </trkpt>
      <trkpt lat="43.7046" lon="5.839">
        <ele>425</ele>
        <time>2016-01-23T10:11:29.471Z</time>
      </trkpt>
      <trkpt lat="43.70459" lon="5.83902">
        <ele>425</ele>
        <time>2016-01-23T10:11:30.446Z</time>
      </trkpt>
      <trkpt lat="43.70454" lon="5.8391">
        <ele>425</ele>
        <time>2016-01-23T10:11:35.499Z</time>
      </trkpt>
      <trkpt lat="43.70453" lon="5.83911">
        <ele>425</ele>
        <time>2016-01-23T10:11:36.447Z</time>
      </trkpt>
      <trkpt lat="43.70446" lon="5.83918">
        <ele>429</ele>
        <time>2016-01-23T10:11:41.471Z</time>
      </trkpt>
      <trkpt lat="43.70445" lon="5.83919">
        <ele>429</ele>
        <time>2016-01-23T10:11:42.459Z</time>
      </trkpt>
      <trkpt lat="43.70438" lon="5.83923">
        <ele>431</ele>
        <time>2016-01-23T10:11:47.497Z</time>
      </trkpt>
      <trkpt lat="43.70437" lon="5.83924">
        <ele>432</ele>
        <time>2016-01-23T10:11:48.449Z</time>
      </trkpt>
      <trkpt lat="43.70429" lon="5.83929">
        <ele>433</ele>
        <time>2016-01-23T10:11:54.478Z</time>
      </trkpt>
      <trkpt lat="43.70427" lon="5.8393">
        <ele>433</ele>
        <time>2016-01-23T10:11:55.447Z</time>
      </trkpt>
      <trkpt lat="43.70422" lon="5.83937">
        <ele>432</ele>
        <time>2016-01-23T10:11:59.471Z</time>
      </trkpt>
      <trkpt lat="43.7042" lon="5.83939">
        <ele>432</ele>
        <time>2016-01-23T10:12:00.446Z</time>
      </trkpt>
      <trkpt lat="43.70415" lon="5.83945">
        <ele>431</ele>
        <time>2016-01-23T10:12:04.474Z</time>
      </trkpt>
      <trkpt lat="43.70413" lon="5.83946">
        <ele>431</ele>
        <time>2016-01-23T10:12:05.447Z</time>
      </trkpt>
      <trkpt lat="43.70405" lon="5.83951">
        <ele>432</ele>
        <time>2016-01-23T10:12:10.471Z</time>
      </trkpt>
      <trkpt lat="43.70403" lon="5.83951">
        <ele>432</ele>
        <time>2016-01-23T10:12:11.445Z</time>
      </trkpt>
      <trkpt lat="43.70395" lon="5.83953">
        <ele>433</ele>
        <time>2016-01-23T10:12:16.701Z</time>
      </trkpt>
      <trkpt lat="43.70394" lon="5.83954">
        <ele>433</ele>
        <time>2016-01-23T10:12:17.459Z</time>
      </trkpt>
      <trkpt lat="43.70386" lon="5.83957">
        <ele>434</ele>
        <time>2016-01-23T10:12:22.473Z</time>
      </trkpt>
      <trkpt lat="43.70384" lon="5.83958">
        <ele>434</ele>
        <time>2016-01-23T10:12:23.448Z</time>
      </trkpt>
      <trkpt lat="43.70376" lon="5.83961">
        <ele>435</ele>
        <time>2016-01-23T10:12:28.474Z</time>
      </trkpt>
      <trkpt lat="43.70374" lon="5.83962">
        <ele>436</ele>
        <time>2016-01-23T10:12:29.458Z</time>
      </trkpt>
      <trkpt lat="43.70366" lon="5.83963">
        <ele>435</ele>
        <time>2016-01-23T10:12:52.470Z</time>
      </trkpt>
      <trkpt lat="43.70363" lon="5.83964">
        <ele>435</ele>
        <time>2016-01-23T10:12:53.447Z</time>
      </trkpt>
      <trkpt lat="43.70356" lon="5.83965">
        <ele>436</ele>
        <time>2016-01-23T10:12:57.498Z</time>
      </trkpt>
      <trkpt lat="43.70354" lon="5.83965">
        <ele>436</ele>
        <time>2016-01-23T10:12:58.449Z</time>
      </trkpt>
      <trkpt lat="43.70347" lon="5.83968">
        <ele>437</ele>
        <time>2016-01-23T10:13:02.474Z</time>
      </trkpt>
      <trkpt lat="43.70345" lon="5.83969">
        <ele>437</ele>
        <time>2016-01-23T10:13:03.448Z</time>
      </trkpt>
      <trkpt lat="43.70336" lon="5.83971">
        <ele>438</ele>
        <time>2016-01-23T10:13:07.472Z</time>
      </trkpt>
      <trkpt lat="43.70334" lon="5.83971">
        <ele>438</ele>
        <time>2016-01-23T10:13:08.473Z</time>
      </trkpt>
      <trkpt lat="43.70325" lon="5.83973">
        <ele>438</ele>
        <time>2016-01-23T10:13:12.473Z</time>
      </trkpt>
      <trkpt lat="43.70323" lon="5.83974">
        <ele>438</ele>
        <time>2016-01-23T10:13:13.449Z</time>
      </trkpt>
      <trkpt lat="43.70317" lon="5.83977">
        <ele>439</ele>
        <time>2016-01-23T10:13:16.472Z</time>
      </trkpt>
      <trkpt lat="43.70314" lon="5.83978">
        <ele>439</ele>
        <time>2016-01-23T10:13:17.458Z</time>
      </trkpt>
      <trkpt lat="43.70305" lon="5.83979">
        <ele>438</ele>
        <time>2016-01-23T10:13:22.471Z</time>
      </trkpt>
      <trkpt lat="43.70304" lon="5.83978">
        <ele>438</ele>
        <time>2016-01-23T10:13:23.447Z</time>
      </trkpt>
      <trkpt lat="43.70296" lon="5.83976">
        <ele>439</ele>
        <time>2016-01-23T10:13:28.472Z</time>
      </trkpt>
      <trkpt lat="43.70295" lon="5.83977">
        <ele>439</ele>
        <time>2016-01-23T10:13:29.448Z</time>
      </trkpt>
      <trkpt lat="43.70287" lon="5.83979">
        <ele>438</ele>
        <time>2016-01-23T10:13:34.472Z</time>
      </trkpt>
      <trkpt lat="43.70285" lon="5.8398">
        <ele>438</ele>
        <time>2016-01-23T10:13:35.447Z</time>
      </trkpt>
      <trkpt lat="43.70277" lon="5.83979">
        <ele>437</ele>
        <time>2016-01-23T10:13:40.553Z</time>
      </trkpt>
      <trkpt lat="43.70275" lon="5.83979">
        <ele>437</ele>
        <time>2016-01-23T10:13:41.447Z</time>
      </trkpt>
      <trkpt lat="43.70268" lon="5.83977">
        <ele>436</ele>
        <time>2016-01-23T10:13:46.471Z</time>
      </trkpt>
      <trkpt lat="43.70266" lon="5.83977">
        <ele>437</ele>
        <time>2016-01-23T10:13:47.445Z</time>
      </trkpt>
      <trkpt lat="43.70258" lon="5.83981">
        <ele>439</ele>
        <time>2016-01-23T10:13:53.482Z</time>
      </trkpt>
      <trkpt lat="43.70257" lon="5.83982">
        <ele>439</ele>
        <time>2016-01-23T10:13:54.447Z</time>
      </trkpt>
      <trkpt lat="43.7025" lon="5.83988">
        <ele>440</ele>
        <time>2016-01-23T10:14:10.477Z</time>
      </trkpt>
      <trkpt lat="43.70249" lon="5.83989">
        <ele>441</ele>
        <time>2016-01-23T10:14:11.448Z</time>
      </trkpt>
      <trkpt lat="43.70242" lon="5.83997">
        <ele>441</ele>
        <time>2016-01-23T10:14:23.471Z</time>
      </trkpt>
      <trkpt lat="43.70242" lon="5.83998">
        <ele>441</ele>
        <time>2016-01-23T10:14:24.447Z</time>
      </trkpt>
      <trkpt lat="43.70235" lon="5.84007">
        <ele>443</ele>
        <time>2016-01-23T10:14:33.473Z</time>
      </trkpt>
      <trkpt lat="43.70234" lon="5.84008">
        <ele>443</ele>
        <time>2016-01-23T10:14:34.459Z</time>
      </trkpt>
      <trkpt lat="43.70228" lon="5.84017">
        <ele>446</ele>
        <time>2016-01-23T10:14:43.472Z</time>
      </trkpt>
      <trkpt lat="43.70227" lon="5.84017">
        <ele>446</ele>
        <time>2016-01-23T10:14:44.457Z</time>
      </trkpt>
      <trkpt lat="43.7022" lon="5.84024">
        <ele>447</ele>
        <time>2016-01-23T10:14:52.474Z</time>
      </trkpt>
      <trkpt lat="43.70219" lon="5.84025">
        <ele>447</ele>
        <time>2016-01-23T10:14:53.447Z</time>
      </trkpt>
      <trkpt lat="43.70213" lon="5.84032">
        <ele>447</ele>
        <time>2016-01-23T10:15:01.510Z</time>
      </trkpt>
      <trkpt lat="43.70212" lon="5.84033">
        <ele>448</ele>
        <time>2016-01-23T10:15:02.449Z</time>
      </trkpt>
      <trkpt lat="43.70206" lon="5.84042">
        <ele>449</ele>
        <time>2016-01-23T10:15:11.473Z</time>
      </trkpt>
      <trkpt lat="43.70205" lon="5.84042">
        <ele>449</ele>
        <time>2016-01-23T10:15:12.476Z</time>
      </trkpt>
      <trkpt lat="43.70197" lon="5.84048">
        <ele>451</ele>
        <time>2016-01-23T10:15:21.471Z</time>
      </trkpt>
      <trkpt lat="43.70196" lon="5.84048">
        <ele>451</ele>
        <time>2016-01-23T10:15:22.449Z</time>
      </trkpt>
      <trkpt lat="43.70189" lon="5.84053">
        <ele>452</ele>
        <time>2016-01-23T10:15:31.473Z</time>
      </trkpt>
      <trkpt lat="43.70188" lon="5.84053">
        <ele>452</ele>
        <time>2016-01-23T10:15:32.448Z</time>
      </trkpt>
      <trkpt lat="43.70181" lon="5.84059">
        <ele>453</ele>
        <time>2016-01-23T10:15:40.471Z</time>
      </trkpt>
      <trkpt lat="43.7018" lon="5.8406">
        <ele>454</ele>
        <time>2016-01-23T10:15:41.448Z</time>
      </trkpt>
      <trkpt lat="43.70174" lon="5.84068">
        <ele>455</ele>
        <time>2016-01-23T10:15:50.502Z</time>
      </trkpt>
      <trkpt lat="43.70173" lon="5.84068">
        <ele>455</ele>
        <time>2016-01-23T10:15:51.447Z</time>
      </trkpt>
      <trkpt lat="43.70166" lon="5.84074">
        <ele>456</ele>
        <time>2016-01-23T10:15:59.472Z</time>
      </trkpt>
      <trkpt lat="43.70165" lon="5.84075">
        <ele>456</ele>
        <time>2016-01-23T10:16:00.448Z</time>
      </trkpt>
      <trkpt lat="43.70159" lon="5.84084">
        <ele>457</ele>
        <time>2016-01-23T10:16:08.471Z</time>
      </trkpt>
      <trkpt lat="43.70159" lon="5.84085">
        <ele>458</ele>
        <time>2016-01-23T10:16:09.448Z</time>
      </trkpt>
      <trkpt lat="43.70154" lon="5.84093">
        <ele>457</ele>
        <time>2016-01-23T10:16:28.510Z</time>
      </trkpt>
      <trkpt lat="43.70153" lon="5.84096">
        <ele>457</ele>
        <time>2016-01-23T10:16:29.450Z</time>
      </trkpt>
      <trkpt lat="43.70148" lon="5.84106">
        <ele>457</ele>
        <time>2016-01-23T10:16:34.486Z</time>
      </trkpt>
      <trkpt lat="43.70146" lon="5.84108">
        <ele>456</ele>
        <time>2016-01-23T10:16:35.450Z</time>
      </trkpt>
      <trkpt lat="43.70142" lon="5.84116">
        <ele>457</ele>
        <time>2016-01-23T10:16:39.483Z</time>
      </trkpt>
      <trkpt lat="43.7014" lon="5.84118">
        <ele>457</ele>
        <time>2016-01-23T10:16:40.449Z</time>
      </trkpt>
      <trkpt lat="43.70135" lon="5.84128">
        <ele>457</ele>
        <time>2016-01-23T10:16:45.472Z</time>
      </trkpt>
      <trkpt lat="43.70134" lon="5.84129">
        <ele>457</ele>
        <time>2016-01-23T10:16:46.453Z</time>
      </trkpt>
      <trkpt lat="43.70128" lon="5.84137">
        <ele>458</ele>
        <time>2016-01-23T10:16:51.474Z</time>
      </trkpt>
      <trkpt lat="43.70127" lon="5.84138">
        <ele>458</ele>
        <time>2016-01-23T10:16:52.449Z</time>
      </trkpt>
      <trkpt lat="43.7012" lon="5.84145">
        <ele>460</ele>
        <time>2016-01-23T10:16:58.472Z</time>
      </trkpt>
      <trkpt lat="43.70119" lon="5.84147">
        <ele>460</ele>
        <time>2016-01-23T10:16:59.459Z</time>
      </trkpt>
      <trkpt lat="43.70112" lon="5.84155">
        <ele>460</ele>
        <time>2016-01-23T10:17:04.476Z</time>
      </trkpt>
      <trkpt lat="43.70111" lon="5.84156">
        <ele>461</ele>
        <time>2016-01-23T10:17:05.450Z</time>
      </trkpt>
      <trkpt lat="43.70107" lon="5.84165">
        <ele>461</ele>
        <time>2016-01-23T10:17:10.473Z</time>
      </trkpt>
      <trkpt lat="43.70106" lon="5.84167">
        <ele>461</ele>
        <time>2016-01-23T10:17:11.451Z</time>
      </trkpt>
      <trkpt lat="43.70103" lon="5.84177">
        <ele>461</ele>
        <time>2016-01-23T10:17:16.472Z</time>
      </trkpt>
      <trkpt lat="43.70102" lon="5.84179">
        <ele>460</ele>
        <time>2016-01-23T10:17:17.477Z</time>
      </trkpt>
      <trkpt lat="43.70098" lon="5.84189">
        <ele>462</ele>
        <time>2016-01-23T10:17:26.473Z</time>
      </trkpt>
      <trkpt lat="43.70098" lon="5.8419">
        <ele>462</ele>
        <time>2016-01-23T10:17:27.449Z</time>
      </trkpt>
      <trkpt lat="43.70094" lon="5.842">
        <ele>464</ele>
        <time>2016-01-23T10:17:35.466Z</time>
      </trkpt>
      <trkpt lat="43.70093" lon="5.84202">
        <ele>464</ele>
        <time>2016-01-23T10:17:36.448Z</time>
      </trkpt>
      <trkpt lat="43.70091" lon="5.84213">
        <ele>467</ele>
        <time>2016-01-23T10:17:46.458Z</time>
      </trkpt>
      <trkpt lat="43.70091" lon="5.84214">
        <ele>467</ele>
        <time>2016-01-23T10:17:47.448Z</time>
      </trkpt>
      <trkpt lat="43.70088" lon="5.84225">
        <ele>468</ele>
        <time>2016-01-23T10:17:55.551Z</time>
      </trkpt>
      <trkpt lat="43.70088" lon="5.84227">
        <ele>469</ele>
        <time>2016-01-23T10:17:56.463Z</time>
      </trkpt>
      <trkpt lat="43.70085" lon="5.84238">
        <ele>469</ele>
        <time>2016-01-23T10:18:04.472Z</time>
      </trkpt>
      <trkpt lat="43.70084" lon="5.84239">
        <ele>470</ele>
        <time>2016-01-23T10:18:05.444Z</time>
      </trkpt>
      <trkpt lat="43.7008" lon="5.84248">
        <ele>471</ele>
        <time>2016-01-23T10:18:13.483Z</time>
      </trkpt>
      <trkpt lat="43.70079" lon="5.84249">
        <ele>470</ele>
        <time>2016-01-23T10:18:14.439Z</time>
      </trkpt>
      <trkpt lat="43.70077" lon="5.84261">
        <ele>474</ele>
        <time>2016-01-23T10:18:26.474Z</time>
      </trkpt>
      <trkpt lat="43.70077" lon="5.84261">
        <ele>474</ele>
        <time>2016-01-23T10:18:27.491Z</time>
      </trkpt>
      <trkpt lat="43.70074" lon="5.84273">
        <ele>473</ele>
        <time>2016-01-23T10:18:38.475Z</time>
      </trkpt>
      <trkpt lat="43.70073" lon="5.84273">
        <ele>473</ele>
        <time>2016-01-23T10:18:39.459Z</time>
      </trkpt>
      <trkpt lat="43.70064" lon="5.84276">
        <ele>475</ele>
        <time>2016-01-23T10:19:07.479Z</time>
      </trkpt>
      <trkpt lat="43.70063" lon="5.84276">
        <ele>475</ele>
        <time>2016-01-23T10:19:08.450Z</time>
      </trkpt>
      <trkpt lat="43.70055" lon="5.8427">
        <ele>475</ele>
        <time>2016-01-23T10:19:23.476Z</time>
      </trkpt>
      <trkpt lat="43.70055" lon="5.84269">
        <ele>475</ele>
        <time>2016-01-23T10:19:24.450Z</time>
      </trkpt>
      <trkpt lat="43.70049" lon="5.84261">
        <ele>477</ele>
        <time>2016-01-23T10:19:33.474Z</time>
      </trkpt>
      <trkpt lat="43.70048" lon="5.8426">
        <ele>478</ele>
        <time>2016-01-23T10:19:34.450Z</time>
      </trkpt>
      <trkpt lat="43.70042" lon="5.84251">
        <ele>480</ele>
        <time>2016-01-23T10:19:47.471Z</time>
      </trkpt>
      <trkpt lat="43.70042" lon="5.8425">
        <ele>480</ele>
        <time>2016-01-23T10:19:48.449Z</time>
      </trkpt>
      <trkpt lat="43.70034" lon="5.84245">
        <ele>478</ele>
        <time>2016-01-23T10:19:56.475Z</time>
      </trkpt>
      <trkpt lat="43.70033" lon="5.84245">
        <ele>478</ele>
        <time>2016-01-23T10:19:57.448Z</time>
      </trkpt>
      <trkpt lat="43.70025" lon="5.84242">
        <ele>480</ele>
        <time>2016-01-23T10:20:03.474Z</time>
      </trkpt>
      <trkpt lat="43.70024" lon="5.84241">
        <ele>481</ele>
        <time>2016-01-23T10:20:04.448Z</time>
      </trkpt>
      <trkpt lat="43.70015" lon="5.8424">
        <ele>481</ele>
        <time>2016-01-23T10:20:10.475Z</time>
      </trkpt>
      <trkpt lat="43.70014" lon="5.84239">
        <ele>481</ele>
        <time>2016-01-23T10:20:11.451Z</time>
      </trkpt>
      <trkpt lat="43.70006" lon="5.84237">
        <ele>482</ele>
        <time>2016-01-23T10:20:16.473Z</time>
      </trkpt>
      <trkpt lat="43.70005" lon="5.84236">
        <ele>482</ele>
        <time>2016-01-23T10:20:17.448Z</time>
      </trkpt>
      <trkpt lat="43.69998" lon="5.84229">
        <ele>482</ele>
        <time>2016-01-23T10:20:25.474Z</time>
      </trkpt>
      <trkpt lat="43.69997" lon="5.84227">
        <ele>482</ele>
        <time>2016-01-23T10:20:26.449Z</time>
      </trkpt>
      <trkpt lat="43.69991" lon="5.84218">
        <ele>483</ele>
        <time>2016-01-23T10:20:35.497Z</time>
      </trkpt>
      <trkpt lat="43.6999" lon="5.84217">
        <ele>481</ele>
        <time>2016-01-23T10:20:36.447Z</time>
      </trkpt>
      <trkpt lat="43.69983" lon="5.84211">
        <ele>481</ele>
        <time>2016-01-23T10:20:42.476Z</time>
      </trkpt>
      <trkpt lat="43.69982" lon="5.8421">
        <ele>480</ele>
        <time>2016-01-23T10:20:43.447Z</time>
      </trkpt>
      <trkpt lat="43.69976" lon="5.84204">
        <ele>482</ele>
        <time>2016-01-23T10:20:50.473Z</time>
      </trkpt>
      <trkpt lat="43.69975" lon="5.84203">
        <ele>482</ele>
        <time>2016-01-23T10:20:51.476Z</time>
      </trkpt>
      <trkpt lat="43.69967" lon="5.84198">
        <ele>484</ele>
        <time>2016-01-23T10:20:59.473Z</time>
      </trkpt>
      <trkpt lat="43.69966" lon="5.84198">
        <ele>484</ele>
        <time>2016-01-23T10:21:00.466Z</time>
      </trkpt>
      <trkpt lat="43.69959" lon="5.84191">
        <ele>486</ele>
        <time>2016-01-23T10:21:09.513Z</time>
      </trkpt>
      <trkpt lat="43.69958" lon="5.8419">
        <ele>486</ele>
        <time>2016-01-23T10:21:10.450Z</time>
      </trkpt>
      <trkpt lat="43.69951" lon="5.84184">
        <ele>487</ele>
        <time>2016-01-23T10:21:18.503Z</time>
      </trkpt>
      <trkpt lat="43.6995" lon="5.84183">
        <ele>487</ele>
        <time>2016-01-23T10:21:19.451Z</time>
      </trkpt>
      <trkpt lat="43.69943" lon="5.84175">
        <ele>488</ele>
        <time>2016-01-23T10:21:27.478Z</time>
      </trkpt>
      <trkpt lat="43.69942" lon="5.84174">
        <ele>488</ele>
        <time>2016-01-23T10:21:28.451Z</time>
      </trkpt>
      <trkpt lat="43.69936" lon="5.84166">
        <ele>487</ele>
        <time>2016-01-23T10:21:36.470Z</time>
      </trkpt>
      <trkpt lat="43.69935" lon="5.84165">
        <ele>488</ele>
        <time>2016-01-23T10:21:37.450Z</time>
      </trkpt>
      <trkpt lat="43.69928" lon="5.84159">
        <ele>489</ele>
        <time>2016-01-23T10:21:46.475Z</time>
      </trkpt>
      <trkpt lat="43.69927" lon="5.84158">
        <ele>489</ele>
        <time>2016-01-23T10:21:47.450Z</time>
      </trkpt>
      <trkpt lat="43.69919" lon="5.84155">
        <ele>489</ele>
        <time>2016-01-23T10:21:55.474Z</time>
      </trkpt>
      <trkpt lat="43.69918" lon="5.84155">
        <ele>489</ele>
        <time>2016-01-23T10:21:56.477Z</time>
      </trkpt>
      <trkpt lat="43.69911" lon="5.84148">
        <ele>491</ele>
        <time>2016-01-23T10:22:04.473Z</time>
      </trkpt>
      <trkpt lat="43.6991" lon="5.84147">
        <ele>491</ele>
        <time>2016-01-23T10:22:05.448Z</time>
      </trkpt>
      <trkpt lat="43.69902" lon="5.84143">
        <ele>493</ele>
        <time>2016-01-23T10:22:14.702Z</time>
      </trkpt>
      <trkpt lat="43.69901" lon="5.84142">
        <ele>493</ele>
        <time>2016-01-23T10:22:15.459Z</time>
      </trkpt>
      <trkpt lat="43.69894" lon="5.84135">
        <ele>496</ele>
        <time>2016-01-23T10:23:07.474Z</time>
      </trkpt>
      <trkpt lat="43.69894" lon="5.84135">
        <ele>496</ele>
        <time>2016-01-23T10:23:08.496Z</time>
      </trkpt>
      <trkpt lat="43.69886" lon="5.84133">
        <ele>494</ele>
        <time>2016-01-23T10:30:23.478Z</time>
      </trkpt>
      <trkpt lat="43.69884" lon="5.84133">
        <ele>494</ele>
        <time>2016-01-23T10:30:24.460Z</time>
      </trkpt>
      <trkpt lat="43.69877" lon="5.84135">
        <ele>493</ele>
        <time>2016-01-23T10:30:28.474Z</time>
      </trkpt>
      <trkpt lat="43.69874" lon="5.84137">
        <ele>493</ele>
        <time>2016-01-23T10:30:29.461Z</time>
      </trkpt>
      <trkpt lat="43.69866" lon="5.8414">
        <ele>493</ele>
        <time>2016-01-23T10:30:32.574Z</time>
      </trkpt>
      <trkpt lat="43.69862" lon="5.84141">
        <ele>493</ele>
        <time>2016-01-23T10:30:33.442Z</time>
      </trkpt>
      <trkpt lat="43.69856" lon="5.84142">
        <ele>492</ele>
        <time>2016-01-23T10:30:35.508Z</time>
      </trkpt>
      <trkpt lat="43.69852" lon="5.84142">
        <ele>492</ele>
        <time>2016-01-23T10:30:36.448Z</time>
      </trkpt>
      <trkpt lat="43.69845" lon="5.84144">
        <ele>492</ele>
        <time>2016-01-23T10:30:38.498Z</time>
      </trkpt>
      <trkpt lat="43.69842" lon="5.84144">
        <ele>491</ele>
        <time>2016-01-23T10:30:39.443Z</time>
      </trkpt>
      <trkpt lat="43.69835" lon="5.84148">
        <ele>492</ele>
        <time>2016-01-23T10:30:41.505Z</time>
      </trkpt>
      <trkpt lat="43.69832" lon="5.8415">
        <ele>492</ele>
        <time>2016-01-23T10:30:42.450Z</time>
      </trkpt>
      <trkpt lat="43.69827" lon="5.84159">
        <ele>491</ele>
        <time>2016-01-23T10:30:46.476Z</time>
      </trkpt>
      <trkpt lat="43.69826" lon="5.84161">
        <ele>491</ele>
        <time>2016-01-23T10:30:47.451Z</time>
      </trkpt>
      <trkpt lat="43.69818" lon="5.84167">
        <ele>491</ele>
        <time>2016-01-23T10:30:52.477Z</time>
      </trkpt>
      <trkpt lat="43.69817" lon="5.84169">
        <ele>491</ele>
        <time>2016-01-23T10:30:53.452Z</time>
      </trkpt>
      <trkpt lat="43.69813" lon="5.84179">
        <ele>492</ele>
        <time>2016-01-23T10:30:57.477Z</time>
      </trkpt>
      <trkpt lat="43.69812" lon="5.84181">
        <ele>492</ele>
        <time>2016-01-23T10:30:58.451Z</time>
      </trkpt>
      <trkpt lat="43.69812" lon="5.84191">
        <ele>493</ele>
        <time>2016-01-23T10:31:02.502Z</time>
      </trkpt>
      <trkpt lat="43.69812" lon="5.84194">
        <ele>493</ele>
        <time>2016-01-23T10:31:03.452Z</time>
      </trkpt>
      <trkpt lat="43.69808" lon="5.84203">
        <ele>493</ele>
        <time>2016-01-23T10:31:07.499Z</time>
      </trkpt>
      <trkpt lat="43.69808" lon="5.84206">
        <ele>493</ele>
        <time>2016-01-23T10:31:08.450Z</time>
      </trkpt>
      <trkpt lat="43.6981" lon="5.84215">
        <ele>493</ele>
        <time>2016-01-23T10:31:11.474Z</time>
      </trkpt>
      <trkpt lat="43.69809" lon="5.84218">
        <ele>493</ele>
        <time>2016-01-23T10:31:12.452Z</time>
      </trkpt>
      <trkpt lat="43.69808" lon="5.8423">
        <ele>493</ele>
        <time>2016-01-23T10:31:16.476Z</time>
      </trkpt>
      <trkpt lat="43.69808" lon="5.84233">
        <ele>493</ele>
        <time>2016-01-23T10:31:17.450Z</time>
      </trkpt>
      <trkpt lat="43.69808" lon="5.84245">
        <ele>494</ele>
        <time>2016-01-23T10:31:21.476Z</time>
      </trkpt>
      <trkpt lat="43.69808" lon="5.84248">
        <ele>494</ele>
        <time>2016-01-23T10:31:22.453Z</time>
      </trkpt>
      <trkpt lat="43.69806" lon="5.8426">
        <ele>494</ele>
        <time>2016-01-23T10:31:26.479Z</time>
      </trkpt>
      <trkpt lat="43.69806" lon="5.84263">
        <ele>495</ele>
        <time>2016-01-23T10:31:27.457Z</time>
      </trkpt>
      <trkpt lat="43.69808" lon="5.84274">
        <ele>495</ele>
        <time>2016-01-23T10:31:31.469Z</time>
      </trkpt>
      <trkpt lat="43.69809" lon="5.84277">
        <ele>495</ele>
        <time>2016-01-23T10:31:32.448Z</time>
      </trkpt>
      <trkpt lat="43.69809" lon="5.84287">
        <ele>495</ele>
        <time>2016-01-23T10:31:36.469Z</time>
      </trkpt>
      <trkpt lat="43.69808" lon="5.84289">
        <ele>496</ele>
        <time>2016-01-23T10:31:37.449Z</time>
      </trkpt>
      <trkpt lat="43.69807" lon="5.84301">
        <ele>498</ele>
        <time>2016-01-23T10:31:42.476Z</time>
      </trkpt>
      <trkpt lat="43.69806" lon="5.84303">
        <ele>498</ele>
        <time>2016-01-23T10:31:43.440Z</time>
      </trkpt>
      <trkpt lat="43.69803" lon="5.84313">
        <ele>499</ele>
        <time>2016-01-23T10:31:48.471Z</time>
      </trkpt>
      <trkpt lat="43.69802" lon="5.84316">
        <ele>498</ele>
        <time>2016-01-23T10:31:49.449Z</time>
      </trkpt>
      <trkpt lat="43.69805" lon="5.84325">
        <ele>498</ele>
        <time>2016-01-23T10:31:53.469Z</time>
      </trkpt>
      <trkpt lat="43.69806" lon="5.84327">
        <ele>498</ele>
        <time>2016-01-23T10:31:54.446Z</time>
      </trkpt>
      <trkpt lat="43.69811" lon="5.84338">
        <ele>499</ele>
        <time>2016-01-23T10:31:59.477Z</time>
      </trkpt>
      <trkpt lat="43.69811" lon="5.84341">
        <ele>499</ele>
        <time>2016-01-23T10:32:00.519Z</time>
      </trkpt>
      <trkpt lat="43.69817" lon="5.84349">
        <ele>498</ele>
        <time>2016-01-23T10:32:04.489Z</time>
      </trkpt>
      <trkpt lat="43.69819" lon="5.84351">
        <ele>498</ele>
        <time>2016-01-23T10:32:05.451Z</time>
      </trkpt>
      <trkpt lat="43.69822" lon="5.84362">
        <ele>496</ele>
        <time>2016-01-23T10:32:08.477Z</time>
      </trkpt>
      <trkpt lat="43.69821" lon="5.84366">
        <ele>496</ele>
        <time>2016-01-23T10:32:09.453Z</time>
      </trkpt>
      <trkpt lat="43.69823" lon="5.84377">
        <ele>496</ele>
        <time>2016-01-23T10:32:12.478Z</time>
      </trkpt>
      <trkpt lat="43.69824" lon="5.8438">
        <ele>495</ele>
        <time>2016-01-23T10:32:13.450Z</time>
      </trkpt>
      <trkpt lat="43.69825" lon="5.84388">
        <ele>496</ele>
        <time>2016-01-23T10:32:15.490Z</time>
      </trkpt>
      <trkpt lat="43.69827" lon="5.84392">
        <ele>495</ele>
        <time>2016-01-23T10:32:16.453Z</time>
      </trkpt>
      <trkpt lat="43.69829" lon="5.84401">
        <ele>494</ele>
        <time>2016-01-23T10:32:18.469Z</time>
      </trkpt>
      <trkpt lat="43.69829" lon="5.84406">
        <ele>494</ele>
        <time>2016-01-23T10:32:19.453Z</time>
      </trkpt>
      <trkpt lat="43.69828" lon="5.84416">
        <ele>493</ele>
        <time>2016-01-23T10:32:21.712Z</time>
      </trkpt>
      <trkpt lat="43.69827" lon="5.8442">
        <ele>492</ele>
        <time>2016-01-23T10:32:22.446Z</time>
      </trkpt>
      <trkpt lat="43.69829" lon="5.84431">
        <ele>492</ele>
        <time>2016-01-23T10:32:25.470Z</time>
      </trkpt>
      <trkpt lat="43.69831" lon="5.84433">
        <ele>492</ele>
        <time>2016-01-23T10:32:26.449Z</time>
      </trkpt>
      <trkpt lat="43.69828" lon="5.84442">
        <ele>491</ele>
        <time>2016-01-23T10:32:31.477Z</time>
      </trkpt>
      <trkpt lat="43.69825" lon="5.84443">
        <ele>491</ele>
        <time>2016-01-23T10:32:32.450Z</time>
      </trkpt>
      <trkpt lat="43.69823" lon="5.84453">
        <ele>490</ele>
        <time>2016-01-23T10:32:35.470Z</time>
      </trkpt>
      <trkpt lat="43.69823" lon="5.84457">
        <ele>490</ele>
        <time>2016-01-23T10:32:36.451Z</time>
      </trkpt>
      <trkpt lat="43.69823" lon="5.84466">
        <ele>489</ele>
        <time>2016-01-23T10:32:38.472Z</time>
      </trkpt>
      <trkpt lat="43.69823" lon="5.8447">
        <ele>489</ele>
        <time>2016-01-23T10:32:39.450Z</time>
      </trkpt>
      <trkpt lat="43.69827" lon="5.84478">
        <ele>488</ele>
        <time>2016-01-23T10:32:41.471Z</time>
      </trkpt>
      <trkpt lat="43.69828" lon="5.84481">
        <ele>488</ele>
        <time>2016-01-23T10:32:42.450Z</time>
      </trkpt>
      <trkpt lat="43.69827" lon="5.8449">
        <ele>487</ele>
        <time>2016-01-23T10:32:44.498Z</time>
      </trkpt>
      <trkpt lat="43.69825" lon="5.84494">
        <ele>487</ele>
        <time>2016-01-23T10:32:45.446Z</time>
      </trkpt>
      <trkpt lat="43.69821" lon="5.84504">
        <ele>486</ele>
        <time>2016-01-23T10:32:47.476Z</time>
      </trkpt>
      <trkpt lat="43.69819" lon="5.84509">
        <ele>486</ele>
        <time>2016-01-23T10:32:48.453Z</time>
      </trkpt>
      <trkpt lat="43.69816" lon="5.84518">
        <ele>486</ele>
        <time>2016-01-23T10:32:50.477Z</time>
      </trkpt>
      <trkpt lat="43.69815" lon="5.84523">
        <ele>486</ele>
        <time>2016-01-23T10:32:51.464Z</time>
      </trkpt>
      <trkpt lat="43.69817" lon="5.84532">
        <ele>486</ele>
        <time>2016-01-23T10:32:53.477Z</time>
      </trkpt>
      <trkpt lat="43.6982" lon="5.84535">
        <ele>486</ele>
        <time>2016-01-23T10:32:54.452Z</time>
      </trkpt>
      <trkpt lat="43.69824" lon="5.84544">
        <ele>485</ele>
        <time>2016-01-23T10:32:56.476Z</time>
      </trkpt>
      <trkpt lat="43.69826" lon="5.8455">
        <ele>484</ele>
        <time>2016-01-23T10:32:57.452Z</time>
      </trkpt>
      <trkpt lat="43.69827" lon="5.84556">
        <ele>484</ele>
        <time>2016-01-23T10:32:58.465Z</time>
      </trkpt>
      <trkpt lat="43.69827" lon="5.84563">
        <ele>484</ele>
        <time>2016-01-23T10:32:59.452Z</time>
      </trkpt>
      <trkpt lat="43.69824" lon="5.84573">
        <ele>484</ele>
        <time>2016-01-23T10:33:01.473Z</time>
      </trkpt>
      <trkpt lat="43.69823" lon="5.84577">
        <ele>484</ele>
        <time>2016-01-23T10:33:02.451Z</time>
      </trkpt>
      <trkpt lat="43.6982" lon="5.84588">
        <ele>485</ele>
        <time>2016-01-23T10:33:05.476Z</time>
      </trkpt>
      <trkpt lat="43.69822" lon="5.84591">
        <ele>485</ele>
        <time>2016-01-23T10:33:06.452Z</time>
      </trkpt>
      <trkpt lat="43.69828" lon="5.84597">
        <ele>484</ele>
        <time>2016-01-23T10:33:09.476Z</time>
      </trkpt>
      <trkpt lat="43.69828" lon="5.846">
        <ele>484</ele>
        <time>2016-01-23T10:33:10.453Z</time>
      </trkpt>
      <trkpt lat="43.69828" lon="5.84609">
        <ele>485</ele>
        <time>2016-01-23T10:33:13.476Z</time>
      </trkpt>
      <trkpt lat="43.69829" lon="5.84612">
        <ele>485</ele>
        <time>2016-01-23T10:33:14.452Z</time>
      </trkpt>
      <trkpt lat="43.69831" lon="5.84622">
        <ele>485</ele>
        <time>2016-01-23T10:33:17.478Z</time>
      </trkpt>
      <trkpt lat="43.69831" lon="5.84626">
        <ele>485</ele>
        <time>2016-01-23T10:33:18.453Z</time>
      </trkpt>
      <trkpt lat="43.69837" lon="5.84632">
        <ele>484</ele>
        <time>2016-01-23T10:33:21.526Z</time>
      </trkpt>
      <trkpt lat="43.69839" lon="5.84633">
        <ele>483</ele>
        <time>2016-01-23T10:33:22.478Z</time>
      </trkpt>
      <trkpt lat="43.6984" lon="5.84645">
        <ele>482</ele>
        <time>2016-01-23T10:33:27.489Z</time>
      </trkpt>
      <trkpt lat="43.69842" lon="5.84647">
        <ele>482</ele>
        <time>2016-01-23T10:33:28.452Z</time>
      </trkpt>
      <trkpt lat="43.69838" lon="5.84657">
        <ele>483</ele>
        <time>2016-01-23T10:33:33.508Z</time>
      </trkpt>
      <trkpt lat="43.69837" lon="5.84659">
        <ele>483</ele>
        <time>2016-01-23T10:33:34.675Z</time>
      </trkpt>
      <trkpt lat="43.69834" lon="5.84668">
        <ele>482</ele>
        <time>2016-01-23T10:33:36.476Z</time>
      </trkpt>
      <trkpt lat="43.69833" lon="5.84671">
        <ele>482</ele>
        <time>2016-01-23T10:33:37.453Z</time>
      </trkpt>
      <trkpt lat="43.69829" lon="5.84679">
        <ele>482</ele>
        <time>2016-01-23T10:33:39.477Z</time>
      </trkpt>
      <trkpt lat="43.69827" lon="5.84682">
        <ele>482</ele>
        <time>2016-01-23T10:33:40.452Z</time>
      </trkpt>
      <trkpt lat="43.69823" lon="5.8469">
        <ele>481</ele>
        <time>2016-01-23T10:33:42.474Z</time>
      </trkpt>
      <trkpt lat="43.69821" lon="5.84693">
        <ele>482</ele>
        <time>2016-01-23T10:33:43.452Z</time>
      </trkpt>
      <trkpt lat="43.69816" lon="5.84699">
        <ele>481</ele>
        <time>2016-01-23T10:33:45.476Z</time>
      </trkpt>
      <trkpt lat="43.69812" lon="5.847">
        <ele>481</ele>
        <time>2016-01-23T10:33:46.463Z</time>
      </trkpt>
      <trkpt lat="43.69806" lon="5.84703">
        <ele>481</ele>
        <time>2016-01-23T10:33:48.478Z</time>
      </trkpt>
      <trkpt lat="43.69804" lon="5.84706">
        <ele>482</ele>
        <time>2016-01-23T10:33:49.479Z</time>
      </trkpt>
      <trkpt lat="43.69796" lon="5.84708">
        <ele>483</ele>
        <time>2016-01-23T10:33:54.476Z</time>
      </trkpt>
      <trkpt lat="43.69794" lon="5.84708">
        <ele>482</ele>
        <time>2016-01-23T10:33:55.452Z</time>
      </trkpt>
      <trkpt lat="43.69787" lon="5.8471">
        <ele>484</ele>
        <time>2016-01-23T10:33:59.565Z</time>
      </trkpt>
      <trkpt lat="43.69784" lon="5.84711">
        <ele>485</ele>
        <time>2016-01-23T10:34:00.477Z</time>
      </trkpt>
      <trkpt lat="43.69779" lon="5.84718">
        <ele>485</ele>
        <time>2016-01-23T10:34:04.482Z</time>
      </trkpt>
      <trkpt lat="43.69776" lon="5.84721">
        <ele>485</ele>
        <time>2016-01-23T10:34:05.466Z</time>
      </trkpt>
      <trkpt lat="43.6977" lon="5.84726">
        <ele>485</ele>
        <time>2016-01-23T10:34:08.481Z</time>
      </trkpt>
      <trkpt lat="43.69767" lon="5.84726">
        <ele>485</ele>
        <time>2016-01-23T10:34:09.453Z</time>
      </trkpt>
      <trkpt lat="43.6976" lon="5.84733">
        <ele>485</ele>
        <time>2016-01-23T10:34:12.486Z</time>
      </trkpt>
      <trkpt lat="43.69759" lon="5.84737">
        <ele>485</ele>
        <time>2016-01-23T10:34:13.453Z</time>
      </trkpt>
      <trkpt lat="43.69754" lon="5.84747">
        <ele>485</ele>
        <time>2016-01-23T10:34:16.478Z</time>
      </trkpt>
      <trkpt lat="43.69753" lon="5.8475">
        <ele>484</ele>
        <time>2016-01-23T10:34:17.454Z</time>
      </trkpt>
      <trkpt lat="43.69748" lon="5.8476">
        <ele>483</ele>
        <time>2016-01-23T10:34:20.478Z</time>
      </trkpt>
      <trkpt lat="43.69746" lon="5.84763">
        <ele>484</ele>
        <time>2016-01-23T10:34:21.454Z</time>
      </trkpt>
      <trkpt lat="43.69741" lon="5.84773">
        <ele>484</ele>
        <time>2016-01-23T10:34:24.478Z</time>
      </trkpt>
      <trkpt lat="43.6974" lon="5.84776">
        <ele>484</ele>
        <time>2016-01-23T10:34:25.452Z</time>
      </trkpt>
      <trkpt lat="43.69735" lon="5.84785">
        <ele>483</ele>
        <time>2016-01-23T10:34:28.478Z</time>
      </trkpt>
      <trkpt lat="43.69733" lon="5.84788">
        <ele>483</ele>
        <time>2016-01-23T10:34:29.453Z</time>
      </trkpt>
      <trkpt lat="43.69727" lon="5.84795">
        <ele>483</ele>
        <time>2016-01-23T10:34:32.478Z</time>
      </trkpt>
      <trkpt lat="43.69726" lon="5.84798">
        <ele>483</ele>
        <time>2016-01-23T10:34:33.481Z</time>
      </trkpt>
      <trkpt lat="43.69724" lon="5.8481">
        <ele>483</ele>
        <time>2016-01-23T10:34:37.477Z</time>
      </trkpt>
      <trkpt lat="43.69723" lon="5.84813">
        <ele>483</ele>
        <time>2016-01-23T10:34:38.456Z</time>
      </trkpt>
      <trkpt lat="43.69721" lon="5.84824">
        <ele>484</ele>
        <time>2016-01-23T10:34:42.488Z</time>
      </trkpt>
      <trkpt lat="43.6972" lon="5.84827">
        <ele>484</ele>
        <time>2016-01-23T10:34:43.453Z</time>
      </trkpt>
      <trkpt lat="43.69719" lon="5.84837">
        <ele>485</ele>
        <time>2016-01-23T10:34:47.476Z</time>
      </trkpt>
      <trkpt lat="43.69718" lon="5.8484">
        <ele>485</ele>
        <time>2016-01-23T10:34:48.453Z</time>
      </trkpt>
      <trkpt lat="43.69714" lon="5.8485">
        <ele>485</ele>
        <time>2016-01-23T10:34:52.479Z</time>
      </trkpt>
      <trkpt lat="43.69713" lon="5.84853">
        <ele>485</ele>
        <time>2016-01-23T10:34:53.455Z</time>
      </trkpt>
      <trkpt lat="43.69707" lon="5.84862">
        <ele>486</ele>
        <time>2016-01-23T10:34:57.477Z</time>
      </trkpt>
      <trkpt lat="43.69704" lon="5.84863">
        <ele>486</ele>
        <time>2016-01-23T10:34:58.452Z</time>
      </trkpt>
      <trkpt lat="43.69696" lon="5.84867">
        <ele>486</ele>
        <time>2016-01-23T10:35:01.477Z</time>
      </trkpt>
      <trkpt lat="43.69694" lon="5.84869">
        <ele>486</ele>
        <time>2016-01-23T10:35:02.453Z</time>
      </trkpt>
      <trkpt lat="43.69691" lon="5.84879">
        <ele>487</ele>
        <time>2016-01-23T10:35:05.479Z</time>
      </trkpt>
      <trkpt lat="43.69691" lon="5.84882">
        <ele>487</ele>
        <time>2016-01-23T10:35:06.452Z</time>
      </trkpt>
      <trkpt lat="43.6969" lon="5.84893">
        <ele>488</ele>
        <time>2016-01-23T10:35:10.477Z</time>
      </trkpt>
      <trkpt lat="43.69689" lon="5.84895">
        <ele>488</ele>
        <time>2016-01-23T10:35:11.481Z</time>
      </trkpt>
      <trkpt lat="43.69686" lon="5.84904">
        <ele>490</ele>
        <time>2016-01-23T10:35:15.478Z</time>
      </trkpt>
      <trkpt lat="43.69685" lon="5.84906">
        <ele>490</ele>
        <time>2016-01-23T10:35:16.452Z</time>
      </trkpt>
      <trkpt lat="43.69682" lon="5.84917">
        <ele>490</ele>
        <time>2016-01-23T10:35:20.477Z</time>
      </trkpt>
      <trkpt lat="43.69681" lon="5.84919">
        <ele>490</ele>
        <time>2016-01-23T10:35:21.452Z</time>
      </trkpt>
      <trkpt lat="43.69676" lon="5.84925">
        <ele>490</ele>
        <time>2016-01-23T10:35:24.477Z</time>
      </trkpt>
      <trkpt lat="43.69674" lon="5.84928">
        <ele>490</ele>
        <time>2016-01-23T10:35:25.448Z</time>
      </trkpt>
      <trkpt lat="43.69667" lon="5.84935">
        <ele>490</ele>
        <time>2016-01-23T10:35:28.477Z</time>
      </trkpt>
      <trkpt lat="43.69665" lon="5.84937">
        <ele>490</ele>
        <time>2016-01-23T10:35:29.452Z</time>
      </trkpt>
      <trkpt lat="43.69658" lon="5.84943">
        <ele>490</ele>
        <time>2016-01-23T10:35:32.479Z</time>
      </trkpt>
      <trkpt lat="43.69656" lon="5.84946">
        <ele>490</ele>
        <time>2016-01-23T10:35:33.481Z</time>
      </trkpt>
      <trkpt lat="43.69651" lon="5.84956">
        <ele>489</ele>
        <time>2016-01-23T10:35:36.692Z</time>
      </trkpt>
      <trkpt lat="43.69649" lon="5.84959">
        <ele>489</ele>
        <time>2016-01-23T10:35:37.452Z</time>
      </trkpt>
      <trkpt lat="43.69644" lon="5.84967">
        <ele>490</ele>
        <time>2016-01-23T10:35:40.477Z</time>
      </trkpt>
      <trkpt lat="43.69641" lon="5.84968">
        <ele>490</ele>
        <time>2016-01-23T10:35:41.452Z</time>
      </trkpt>
      <trkpt lat="43.69634" lon="5.84966">
        <ele>489</ele>
        <time>2016-01-23T10:35:45.490Z</time>
      </trkpt>
      <trkpt lat="43.69632" lon="5.84964">
        <ele>489</ele>
        <time>2016-01-23T10:35:46.453Z</time>
      </trkpt>
      <trkpt lat="43.69627" lon="5.84956">
        <ele>489</ele>
        <time>2016-01-23T10:35:49.476Z</time>
      </trkpt>
      <trkpt lat="43.69626" lon="5.84954">
        <ele>489</ele>
        <time>2016-01-23T10:35:50.454Z</time>
      </trkpt>
      <trkpt lat="43.69621" lon="5.84943">
        <ele>489</ele>
        <time>2016-01-23T10:35:54.488Z</time>
      </trkpt>
      <trkpt lat="43.69619" lon="5.84942">
        <ele>489</ele>
        <time>2016-01-23T10:35:55.479Z</time>
      </trkpt>
      <trkpt lat="43.69612" lon="5.84941">
        <ele>489</ele>
        <time>2016-01-23T10:35:58.476Z</time>
      </trkpt>
      <trkpt lat="43.69609" lon="5.84941">
        <ele>490</ele>
        <time>2016-01-23T10:35:59.462Z</time>
      </trkpt>
      <trkpt lat="43.69602" lon="5.84944">
        <ele>490</ele>
        <time>2016-01-23T10:36:03.478Z</time>
      </trkpt>
      <trkpt lat="43.696" lon="5.84945">
        <ele>490</ele>
        <time>2016-01-23T10:36:04.454Z</time>
      </trkpt>
      <trkpt lat="43.69594" lon="5.8495">
        <ele>491</ele>
        <time>2016-01-23T10:36:08.487Z</time>
      </trkpt>
      <trkpt lat="43.69592" lon="5.84951">
        <ele>491</ele>
        <time>2016-01-23T10:36:09.455Z</time>
      </trkpt>
      <trkpt lat="43.69586" lon="5.84957">
        <ele>491</ele>
        <time>2016-01-23T10:36:13.480Z</time>
      </trkpt>
      <trkpt lat="43.69585" lon="5.84958">
        <ele>492</ele>
        <time>2016-01-23T10:36:14.453Z</time>
      </trkpt>
      <trkpt lat="43.69579" lon="5.84965">
        <ele>492</ele>
        <time>2016-01-23T10:36:18.486Z</time>
      </trkpt>
      <trkpt lat="43.69577" lon="5.84967">
        <ele>493</ele>
        <time>2016-01-23T10:36:19.452Z</time>
      </trkpt>
      <trkpt lat="43.6957" lon="5.84973">
        <ele>491</ele>
        <time>2016-01-23T10:36:22.479Z</time>
      </trkpt>
      <trkpt lat="43.69568" lon="5.84974">
        <ele>492</ele>
        <time>2016-01-23T10:36:23.454Z</time>
      </trkpt>
      <trkpt lat="43.69562" lon="5.8498">
        <ele>492</ele>
        <time>2016-01-23T10:36:26.477Z</time>
      </trkpt>
      <trkpt lat="43.6956" lon="5.84982">
        <ele>492</ele>
        <time>2016-01-23T10:36:27.454Z</time>
      </trkpt>
      <trkpt lat="43.69554" lon="5.84987">
        <ele>493</ele>
        <time>2016-01-23T10:36:30.478Z</time>
      </trkpt>
      <trkpt lat="43.69552" lon="5.84988">
        <ele>493</ele>
        <time>2016-01-23T10:36:31.452Z</time>
      </trkpt>
      <trkpt lat="43.69546" lon="5.84991">
        <ele>493</ele>
        <time>2016-01-23T10:36:34.480Z</time>
      </trkpt>
      <trkpt lat="43.69543" lon="5.84993">
        <ele>493</ele>
        <time>2016-01-23T10:36:35.450Z</time>
      </trkpt>
      <trkpt lat="43.69537" lon="5.84998">
        <ele>493</ele>
        <time>2016-01-23T10:36:38.475Z</time>
      </trkpt>
      <trkpt lat="43.69534" lon="5.84999">
        <ele>493</ele>
        <time>2016-01-23T10:36:39.481Z</time>
      </trkpt>
      <trkpt lat="43.69529" lon="5.85007">
        <ele>494</ele>
        <time>2016-01-23T10:36:42.479Z</time>
      </trkpt>
      <trkpt lat="43.69527" lon="5.85009">
        <ele>494</ele>
        <time>2016-01-23T10:36:43.464Z</time>
      </trkpt>
      <trkpt lat="43.69521" lon="5.85016">
        <ele>494</ele>
        <time>2016-01-23T10:36:46.477Z</time>
      </trkpt>
      <trkpt lat="43.69519" lon="5.85019">
        <ele>494</ele>
        <time>2016-01-23T10:36:47.453Z</time>
      </trkpt>
      <trkpt lat="43.69513" lon="5.85027">
        <ele>493</ele>
        <time>2016-01-23T10:36:50.505Z</time>
      </trkpt>
      <trkpt lat="43.69511" lon="5.8503">
        <ele>494</ele>
        <time>2016-01-23T10:36:51.454Z</time>
      </trkpt>
      <trkpt lat="43.69504" lon="5.85035">
        <ele>495</ele>
        <time>2016-01-23T10:36:54.478Z</time>
      </trkpt>
      <trkpt lat="43.69501" lon="5.85037">
        <ele>494</ele>
        <time>2016-01-23T10:36:55.452Z</time>
      </trkpt>
      <trkpt lat="43.69496" lon="5.85046">
        <ele>494</ele>
        <time>2016-01-23T10:36:58.490Z</time>
      </trkpt>
      <trkpt lat="43.69494" lon="5.85049">
        <ele>494</ele>
        <time>2016-01-23T10:36:59.453Z</time>
      </trkpt>
      <trkpt lat="43.6949" lon="5.85058">
        <ele>494</ele>
        <time>2016-01-23T10:37:02.526Z</time>
      </trkpt>
      <trkpt lat="43.69488" lon="5.85061">
        <ele>494</ele>
        <time>2016-01-23T10:37:03.451Z</time>
      </trkpt>
      <trkpt lat="43.69481" lon="5.85068">
        <ele>493</ele>
        <time>2016-01-23T10:37:06.477Z</time>
      </trkpt>
      <trkpt lat="43.69479" lon="5.8507">
        <ele>494</ele>
        <time>2016-01-23T10:37:07.452Z</time>
      </trkpt>
      <trkpt lat="43.69473" lon="5.85076">
        <ele>494</ele>
        <time>2016-01-23T10:37:10.478Z</time>
      </trkpt>
      <trkpt lat="43.69471" lon="5.85078">
        <ele>494</ele>
        <time>2016-01-23T10:37:11.465Z</time>
      </trkpt>
      <trkpt lat="43.69464" lon="5.85084">
        <ele>494</ele>
        <time>2016-01-23T10:37:14.476Z</time>
      </trkpt>
      <trkpt lat="43.69462" lon="5.85086">
        <ele>494</ele>
        <time>2016-01-23T10:37:15.454Z</time>
      </trkpt>
      <trkpt lat="43.69455" lon="5.85094">
        <ele>494</ele>
        <time>2016-01-23T10:37:19.478Z</time>
      </trkpt>
      <trkpt lat="43.69454" lon="5.85096">
        <ele>494</ele>
        <time>2016-01-23T10:37:20.454Z</time>
      </trkpt>
      <trkpt lat="43.69446" lon="5.85102">
        <ele>495</ele>
        <time>2016-01-23T10:37:24.476Z</time>
      </trkpt>
      <trkpt lat="43.69445" lon="5.85105">
        <ele>496</ele>
        <time>2016-01-23T10:37:25.465Z</time>
      </trkpt>
      <trkpt lat="43.6944" lon="5.85115">
        <ele>496</ele>
        <time>2016-01-23T10:37:30.478Z</time>
      </trkpt>
      <trkpt lat="43.69439" lon="5.85116">
        <ele>496</ele>
        <time>2016-01-23T10:37:31.456Z</time>
      </trkpt>
      <trkpt lat="43.69435" lon="5.85123">
        <ele>495</ele>
        <time>2016-01-23T10:37:35.478Z</time>
      </trkpt>
      <trkpt lat="43.69433" lon="5.85126">
        <ele>495</ele>
        <time>2016-01-23T10:37:36.464Z</time>
      </trkpt>
      <trkpt lat="43.69428" lon="5.85134">
        <ele>493</ele>
        <time>2016-01-23T10:37:39.703Z</time>
      </trkpt>
      <trkpt lat="43.69425" lon="5.85136">
        <ele>493</ele>
        <time>2016-01-23T10:37:40.453Z</time>
      </trkpt>
      <trkpt lat="43.69422" lon="5.85137">
        <ele>493</ele>
        <time>2016-01-23T10:37:41.468Z</time>
      </trkpt>
      <trkpt lat="43.69415" lon="5.85137">
        <ele>492</ele>
        <time>2016-01-23T10:37:42.455Z</time>
      </trkpt>
      <trkpt lat="43.69415" lon="5.85137">
        <ele>492</ele>
        <time>2016-01-23T10:37:42.484Z</time>
      </trkpt>
      <trkpt lat="43.69406" lon="5.85137">
        <ele>492</ele>
        <time>2016-01-23T10:37:43.454Z</time>
      </trkpt>
      <trkpt lat="43.69401" lon="5.85129">
        <ele>492</ele>
        <time>2016-01-23T10:37:45.478Z</time>
      </trkpt>
      <trkpt lat="43.69398" lon="5.85127">
        <ele>491</ele>
        <time>2016-01-23T10:37:46.453Z</time>
      </trkpt>
      <trkpt lat="43.69389" lon="5.85128">
        <ele>493</ele>
        <time>2016-01-23T10:37:50.508Z</time>
      </trkpt>
      <trkpt lat="43.69388" lon="5.85128">
        <ele>494</ele>
        <time>2016-01-23T10:37:51.467Z</time>
      </trkpt>
      <trkpt lat="43.6938" lon="5.85122">
        <ele>495</ele>
        <time>2016-01-23T10:37:55.505Z</time>
      </trkpt>
      <trkpt lat="43.69377" lon="5.85121">
        <ele>494</ele>
        <time>2016-01-23T10:37:56.454Z</time>
      </trkpt>
      <trkpt lat="43.6937" lon="5.85119">
        <ele>493</ele>
        <time>2016-01-23T10:37:58.479Z</time>
      </trkpt>
      <trkpt lat="43.69366" lon="5.85119">
        <ele>493</ele>
        <time>2016-01-23T10:37:59.454Z</time>
      </trkpt>
      <trkpt lat="43.69359" lon="5.85119">
        <ele>492</ele>
        <time>2016-01-23T10:38:01.491Z</time>
      </trkpt>
      <trkpt lat="43.69355" lon="5.85119">
        <ele>491</ele>
        <time>2016-01-23T10:38:02.452Z</time>
      </trkpt>
      <trkpt lat="43.69347" lon="5.85118">
        <ele>489</ele>
        <time>2016-01-23T10:38:04.477Z</time>
      </trkpt>
      <trkpt lat="43.69343" lon="5.85117">
        <ele>489</ele>
        <time>2016-01-23T10:38:05.452Z</time>
      </trkpt>
      <trkpt lat="43.69336" lon="5.85119">
        <ele>488</ele>
        <time>2016-01-23T10:38:07.479Z</time>
      </trkpt>
      <trkpt lat="43.69332" lon="5.85121">
        <ele>487</ele>
        <time>2016-01-23T10:38:08.454Z</time>
      </trkpt>
      <trkpt lat="43.69325" lon="5.85122">
        <ele>487</ele>
        <time>2016-01-23T10:38:10.477Z</time>
      </trkpt>
      <trkpt lat="43.69321" lon="5.8512">
        <ele>485</ele>
        <time>2016-01-23T10:38:11.453Z</time>
      </trkpt>
      <trkpt lat="43.69318" lon="5.85117">
        <ele>485</ele>
        <time>2016-01-23T10:38:12.481Z</time>
      </trkpt>
      <trkpt lat="43.69313" lon="5.85113">
        <ele>484</ele>
        <time>2016-01-23T10:38:13.453Z</time>
      </trkpt>
      <trkpt lat="43.69305" lon="5.85109">
        <ele>483</ele>
        <time>2016-01-23T10:38:15.477Z</time>
      </trkpt>
      <trkpt lat="43.69301" lon="5.85105">
        <ele>483</ele>
        <time>2016-01-23T10:38:16.452Z</time>
      </trkpt>
      <trkpt lat="43.69293" lon="5.85102">
        <ele>482</ele>
        <time>2016-01-23T10:38:18.490Z</time>
      </trkpt>
      <trkpt lat="43.69289" lon="5.85102">
        <ele>481</ele>
        <time>2016-01-23T10:38:19.455Z</time>
      </trkpt>
      <trkpt lat="43.6928" lon="5.85105">
        <ele>479</ele>
        <time>2016-01-23T10:38:21.487Z</time>
      </trkpt>
      <trkpt lat="43.69276" lon="5.85103">
        <ele>479</ele>
        <time>2016-01-23T10:38:22.479Z</time>
      </trkpt>
      <trkpt lat="43.69268" lon="5.85102">
        <ele>477</ele>
        <time>2016-01-23T10:38:24.478Z</time>
      </trkpt>
      <trkpt lat="43.69264" lon="5.85103">
        <ele>477</ele>
        <time>2016-01-23T10:38:25.454Z</time>
      </trkpt>
      <trkpt lat="43.69259" lon="5.85104">
        <ele>477</ele>
        <time>2016-01-23T10:38:26.478Z</time>
      </trkpt>
      <trkpt lat="43.69254" lon="5.85103">
        <ele>476</ele>
        <time>2016-01-23T10:38:27.454Z</time>
      </trkpt>
      <trkpt lat="43.69249" lon="5.85104">
        <ele>476</ele>
        <time>2016-01-23T10:38:28.478Z</time>
      </trkpt>
      <trkpt lat="43.69243" lon="5.85104">
        <ele>476</ele>
        <time>2016-01-23T10:38:29.466Z</time>
      </trkpt>
      <trkpt lat="43.69237" lon="5.85103">
        <ele>476</ele>
        <time>2016-01-23T10:38:30.478Z</time>
      </trkpt>
      <trkpt lat="43.69232" lon="5.85103">
        <ele>475</ele>
        <time>2016-01-23T10:38:31.453Z</time>
      </trkpt>
      <trkpt lat="43.69226" lon="5.85112">
        <ele>475</ele>
        <time>2016-01-23T10:38:34.480Z</time>
      </trkpt>
      <trkpt lat="43.69226" lon="5.85115">
        <ele>473</ele>
        <time>2016-01-23T10:38:35.452Z</time>
      </trkpt>
      <trkpt lat="43.6922" lon="5.85119">
        <ele>472</ele>
        <time>2016-01-23T10:38:38.501Z</time>
      </trkpt>
      <trkpt lat="43.69216" lon="5.85121">
        <ele>471</ele>
        <time>2016-01-23T10:38:39.465Z</time>
      </trkpt>
      <trkpt lat="43.6921" lon="5.85123">
        <ele>471</ele>
        <time>2016-01-23T10:38:40.477Z</time>
      </trkpt>
      <trkpt lat="43.69206" lon="5.85126">
        <ele>471</ele>
        <time>2016-01-23T10:38:41.453Z</time>
      </trkpt>
      <trkpt lat="43.69201" lon="5.8513">
        <ele>471</ele>
        <time>2016-01-23T10:38:42.476Z</time>
      </trkpt>
      <trkpt lat="43.69196" lon="5.85136">
        <ele>471</ele>
        <time>2016-01-23T10:38:43.453Z</time>
      </trkpt>
      <trkpt lat="43.69193" lon="5.85142">
        <ele>470</ele>
        <time>2016-01-23T10:38:44.490Z</time>
      </trkpt>
      <trkpt lat="43.69191" lon="5.85152">
        <ele>469</ele>
        <time>2016-01-23T10:38:45.453Z</time>
      </trkpt>
      <trkpt lat="43.69191" lon="5.8516">
        <ele>468</ele>
        <time>2016-01-23T10:38:46.476Z</time>
      </trkpt>
      <trkpt lat="43.69189" lon="5.8517">
        <ele>468</ele>
        <time>2016-01-23T10:38:47.455Z</time>
      </trkpt>
      <trkpt lat="43.69187" lon="5.85179">
        <ele>468</ele>
        <time>2016-01-23T10:38:48.477Z</time>
      </trkpt>
      <trkpt lat="43.69188" lon="5.85187">
        <ele>466</ele>
        <time>2016-01-23T10:38:49.492Z</time>
      </trkpt>
      <trkpt lat="43.69187" lon="5.85196">
        <ele>466</ele>
        <time>2016-01-23T10:38:50.467Z</time>
      </trkpt>
      <trkpt lat="43.69185" lon="5.85202">
        <ele>463</ele>
        <time>2016-01-23T10:38:51.453Z</time>
      </trkpt>
      <trkpt lat="43.69182" lon="5.85206">
        <ele>463</ele>
        <time>2016-01-23T10:38:52.469Z</time>
      </trkpt>
      <trkpt lat="43.69179" lon="5.85211">
        <ele>462</ele>
        <time>2016-01-23T10:38:53.453Z</time>
      </trkpt>
      <trkpt lat="43.69176" lon="5.85217">
        <ele>461</ele>
        <time>2016-01-23T10:38:54.475Z</time>
      </trkpt>
      <trkpt lat="43.69173" lon="5.85223">
        <ele>462</ele>
        <time>2016-01-23T10:38:55.452Z</time>
      </trkpt>
      <trkpt lat="43.69169" lon="5.85233">
        <ele>461</ele>
        <time>2016-01-23T10:38:57.502Z</time>
      </trkpt>
      <trkpt lat="43.69168" lon="5.85237">
        <ele>461</ele>
        <time>2016-01-23T10:38:58.453Z</time>
      </trkpt>
      <trkpt lat="43.69164" lon="5.85245">
        <ele>460</ele>
        <time>2016-01-23T10:39:00.527Z</time>
      </trkpt>
      <trkpt lat="43.69161" lon="5.8525">
        <ele>460</ele>
        <time>2016-01-23T10:39:01.453Z</time>
      </trkpt>
      <trkpt lat="43.69158" lon="5.85254">
        <ele>459</ele>
        <time>2016-01-23T10:39:02.516Z</time>
      </trkpt>
      <trkpt lat="43.69154" lon="5.85258">
        <ele>457</ele>
        <time>2016-01-23T10:39:03.453Z</time>
      </trkpt>
      <trkpt lat="43.69149" lon="5.85263">
        <ele>457</ele>
        <time>2016-01-23T10:39:04.478Z</time>
      </trkpt>
      <trkpt lat="43.69145" lon="5.85266">
        <ele>457</ele>
        <time>2016-01-23T10:39:05.453Z</time>
      </trkpt>
      <trkpt lat="43.6914" lon="5.85267">
        <ele>456</ele>
        <time>2016-01-23T10:39:06.480Z</time>
      </trkpt>
      <trkpt lat="43.69136" lon="5.85268">
        <ele>456</ele>
        <time>2016-01-23T10:39:07.454Z</time>
      </trkpt>
      <trkpt lat="43.69129" lon="5.85267">
        <ele>455</ele>
        <time>2016-01-23T10:39:09.477Z</time>
      </trkpt>
      <trkpt lat="43.69127" lon="5.85269">
        <ele>454</ele>
        <time>2016-01-23T10:39:10.452Z</time>
      </trkpt>
      <trkpt lat="43.69121" lon="5.85278">
        <ele>454</ele>
        <time>2016-01-23T10:39:12.693Z</time>
      </trkpt>
      <trkpt lat="43.69119" lon="5.85282">
        <ele>453</ele>
        <time>2016-01-23T10:39:13.453Z</time>
      </trkpt>
      <trkpt lat="43.69113" lon="5.85289">
        <ele>453</ele>
        <time>2016-01-23T10:39:15.473Z</time>
      </trkpt>
      <trkpt lat="43.6911" lon="5.85289">
        <ele>453</ele>
        <time>2016-01-23T10:39:16.452Z</time>
      </trkpt>
      <trkpt lat="43.69104" lon="5.85293">
        <ele>453</ele>
        <time>2016-01-23T10:40:01.487Z</time>
      </trkpt>
      <trkpt lat="43.69101" lon="5.85294">
        <ele>453</ele>
        <time>2016-01-23T10:40:02.465Z</time>
      </trkpt>
      <trkpt lat="43.69092" lon="5.85294">
        <ele>452</ele>
        <time>2016-01-23T10:40:05.491Z</time>
      </trkpt>
      <trkpt lat="43.6909" lon="5.85294">
        <ele>452</ele>
        <time>2016-01-23T10:40:06.452Z</time>
      </trkpt>
      <trkpt lat="43.69082" lon="5.85296">
        <ele>452</ele>
        <time>2016-01-23T10:40:28.479Z</time>
      </trkpt>
      <trkpt lat="43.69079" lon="5.85297">
        <ele>451</ele>
        <time>2016-01-23T10:40:29.453Z</time>
      </trkpt>
      <trkpt lat="43.69072" lon="5.85302">
        <ele>451</ele>
        <time>2016-01-23T10:40:32.618Z</time>
      </trkpt>
      <trkpt lat="43.69071" lon="5.85304">
        <ele>451</ele>
        <time>2016-01-23T10:40:33.439Z</time>
      </trkpt>
      <trkpt lat="43.69067" lon="5.85311">
        <ele>449</ele>
        <time>2016-01-23T10:40:35.487Z</time>
      </trkpt>
      <trkpt lat="43.69065" lon="5.85317">
        <ele>448</ele>
        <time>2016-01-23T10:40:36.461Z</time>
      </trkpt>
      <trkpt lat="43.69062" lon="5.85328">
        <ele>448</ele>
        <time>2016-01-23T10:40:38.488Z</time>
      </trkpt>
      <trkpt lat="43.69061" lon="5.85334">
        <ele>446</ele>
        <time>2016-01-23T10:40:39.441Z</time>
      </trkpt>
      <trkpt lat="43.69059" lon="5.8534">
        <ele>446</ele>
        <time>2016-01-23T10:40:40.473Z</time>
      </trkpt>
      <trkpt lat="43.69058" lon="5.85349">
        <ele>446</ele>
        <time>2016-01-23T10:40:41.452Z</time>
      </trkpt>
      <trkpt lat="43.69053" lon="5.85359">
        <ele>446</ele>
        <time>2016-01-23T10:40:43.473Z</time>
      </trkpt>
      <trkpt lat="43.6905" lon="5.85359">
        <ele>446</ele>
        <time>2016-01-23T10:40:44.453Z</time>
      </trkpt>
      <trkpt lat="43.69042" lon="5.85364">
        <ele>446</ele>
        <time>2016-01-23T10:40:46.472Z</time>
      </trkpt>
      <trkpt lat="43.69039" lon="5.85366">
        <ele>446</ele>
        <time>2016-01-23T10:40:47.451Z</time>
      </trkpt>
      <trkpt lat="43.69032" lon="5.85372">
        <ele>446</ele>
        <time>2016-01-23T10:40:49.474Z</time>
      </trkpt>
      <trkpt lat="43.69028" lon="5.85375">
        <ele>446</ele>
        <time>2016-01-23T10:40:50.451Z</time>
      </trkpt>
      <trkpt lat="43.69021" lon="5.85378">
        <ele>447</ele>
        <time>2016-01-23T10:40:52.471Z</time>
      </trkpt>
      <trkpt lat="43.69018" lon="5.8538">
        <ele>448</ele>
        <time>2016-01-23T10:40:53.447Z</time>
      </trkpt>
      <trkpt lat="43.69011" lon="5.8538">
        <ele>448</ele>
        <time>2016-01-23T10:40:55.467Z</time>
      </trkpt>
      <trkpt lat="43.69008" lon="5.8538">
        <ele>447</ele>
        <time>2016-01-23T10:40:56.453Z</time>
      </trkpt>
      <trkpt lat="43.69001" lon="5.85376">
        <ele>447</ele>
        <time>2016-01-23T10:40:59.507Z</time>
      </trkpt>
      <trkpt lat="43.68999" lon="5.85373">
        <ele>447</ele>
        <time>2016-01-23T10:41:00.455Z</time>
      </trkpt>
      <trkpt lat="43.68995" lon="5.85366">
        <ele>447</ele>
        <time>2016-01-23T10:41:02.525Z</time>
      </trkpt>
      <trkpt lat="43.68992" lon="5.85362">
        <ele>446</ele>
        <time>2016-01-23T10:41:03.453Z</time>
      </trkpt>
      <trkpt lat="43.68984" lon="5.85356">
        <ele>445</ele>
        <time>2016-01-23T10:41:05.477Z</time>
      </trkpt>
      <trkpt lat="43.6898" lon="5.85353">
        <ele>445</ele>
        <time>2016-01-23T10:41:06.500Z</time>
      </trkpt>
      <trkpt lat="43.68974" lon="5.85351">
        <ele>445</ele>
        <time>2016-01-23T10:41:07.466Z</time>
      </trkpt>
      <trkpt lat="43.68968" lon="5.8535">
        <ele>444</ele>
        <time>2016-01-23T10:41:08.454Z</time>
      </trkpt>
      <trkpt lat="43.68962" lon="5.8535">
        <ele>444</ele>
        <time>2016-01-23T10:41:09.469Z</time>
      </trkpt>
      <trkpt lat="43.68957" lon="5.85351">
        <ele>444</ele>
        <time>2016-01-23T10:41:10.484Z</time>
      </trkpt>
      <trkpt lat="43.68949" lon="5.85346">
        <ele>445</ele>
        <time>2016-01-23T10:41:12.479Z</time>
      </trkpt>
      <trkpt lat="43.68945" lon="5.85344">
        <ele>444</ele>
        <time>2016-01-23T10:41:13.455Z</time>
      </trkpt>
      <trkpt lat="43.68939" lon="5.85342">
        <ele>444</ele>
        <time>2016-01-23T10:41:14.477Z</time>
      </trkpt>
      <trkpt lat="43.68934" lon="5.85341">
        <ele>444</ele>
        <time>2016-01-23T10:41:15.455Z</time>
      </trkpt>
      <trkpt lat="43.68929" lon="5.85339">
        <ele>444</ele>
        <time>2016-01-23T10:41:16.479Z</time>
      </trkpt>
      <trkpt lat="43.68924" lon="5.85338">
        <ele>444</ele>
        <time>2016-01-23T10:41:17.454Z</time>
      </trkpt>
      <trkpt lat="43.68919" lon="5.85336">
        <ele>444</ele>
        <time>2016-01-23T10:41:18.465Z</time>
      </trkpt>
      <trkpt lat="43.68914" lon="5.85333">
        <ele>443</ele>
        <time>2016-01-23T10:41:19.454Z</time>
      </trkpt>
      <trkpt lat="43.68908" lon="5.85331">
        <ele>442</ele>
        <time>2016-01-23T10:41:20.477Z</time>
      </trkpt>
      <trkpt lat="43.68903" lon="5.8533">
        <ele>441</ele>
        <time>2016-01-23T10:41:21.480Z</time>
      </trkpt>
      <trkpt lat="43.68896" lon="5.85328">
        <ele>441</ele>
        <time>2016-01-23T10:41:22.479Z</time>
      </trkpt>
      <trkpt lat="43.68889" lon="5.85326">
        <ele>440</ele>
        <time>2016-01-23T10:41:23.454Z</time>
      </trkpt>
      <trkpt lat="43.68882" lon="5.85325">
        <ele>440</ele>
        <time>2016-01-23T10:41:24.478Z</time>
      </trkpt>
      <trkpt lat="43.68875" lon="5.85323">
        <ele>439</ele>
        <time>2016-01-23T10:41:25.453Z</time>
      </trkpt>
      <trkpt lat="43.68868" lon="5.85321">
        <ele>439</ele>
        <time>2016-01-23T10:41:26.476Z</time>
      </trkpt>
      <trkpt lat="43.68861" lon="5.8532">
        <ele>439</ele>
        <time>2016-01-23T10:41:27.668Z</time>
      </trkpt>
      <trkpt lat="43.68854" lon="5.85318">
        <ele>438</ele>
        <time>2016-01-23T10:41:28.477Z</time>
      </trkpt>
      <trkpt lat="43.68848" lon="5.85316">
        <ele>438</ele>
        <time>2016-01-23T10:41:29.454Z</time>
      </trkpt>
      <trkpt lat="43.68841" lon="5.85314">
        <ele>438</ele>
        <time>2016-01-23T10:41:30.477Z</time>
      </trkpt>
      <trkpt lat="43.68835" lon="5.85313">
        <ele>438</ele>
        <time>2016-01-23T10:41:31.454Z</time>
      </trkpt>
      <trkpt lat="43.68829" lon="5.85311">
        <ele>438</ele>
        <time>2016-01-23T10:41:32.479Z</time>
      </trkpt>
      <trkpt lat="43.68823" lon="5.8531">
        <ele>438</ele>
        <time>2016-01-23T10:41:33.455Z</time>
      </trkpt>
      <trkpt lat="43.68818" lon="5.85309">
        <ele>438</ele>
        <time>2016-01-23T10:41:34.481Z</time>
      </trkpt>
      <trkpt lat="43.68813" lon="5.85307">
        <ele>437</ele>
        <time>2016-01-23T10:41:35.452Z</time>
      </trkpt>
      <trkpt lat="43.68807" lon="5.85303">
        <ele>437</ele>
        <time>2016-01-23T10:41:36.476Z</time>
      </trkpt>
      <trkpt lat="43.68802" lon="5.85301">
        <ele>437</ele>
        <time>2016-01-23T10:41:37.453Z</time>
      </trkpt>
      <trkpt lat="43.68797" lon="5.85298">
        <ele>436</ele>
        <time>2016-01-23T10:41:38.472Z</time>
      </trkpt>
      <trkpt lat="43.68791" lon="5.85295">
        <ele>436</ele>
        <time>2016-01-23T10:41:39.454Z</time>
      </trkpt>
      <trkpt lat="43.68786" lon="5.85292">
        <ele>435</ele>
        <time>2016-01-23T10:41:40.479Z</time>
      </trkpt>
      <trkpt lat="43.68779" lon="5.85291">
        <ele>435</ele>
        <time>2016-01-23T10:41:41.454Z</time>
      </trkpt>
      <trkpt lat="43.68774" lon="5.85289">
        <ele>434</ele>
        <time>2016-01-23T10:41:42.517Z</time>
      </trkpt>
      <trkpt lat="43.68769" lon="5.85286">
        <ele>434</ele>
        <time>2016-01-23T10:41:43.457Z</time>
      </trkpt>
      <trkpt lat="43.68764" lon="5.85282">
        <ele>434</ele>
        <time>2016-01-23T10:41:44.479Z</time>
      </trkpt>
      <trkpt lat="43.6876" lon="5.85279">
        <ele>433</ele>
        <time>2016-01-23T10:41:45.457Z</time>
      </trkpt>
      <trkpt lat="43.68753" lon="5.85274">
        <ele>433</ele>
        <time>2016-01-23T10:41:47.500Z</time>
      </trkpt>
      <trkpt lat="43.68751" lon="5.85273">
        <ele>433</ele>
        <time>2016-01-23T10:41:48.453Z</time>
      </trkpt>
      <trkpt lat="43.68744" lon="5.8527">
        <ele>434</ele>
        <time>2016-01-23T10:41:51.479Z</time>
      </trkpt>
      <trkpt lat="43.68741" lon="5.85268">
        <ele>434</ele>
        <time>2016-01-23T10:41:52.452Z</time>
      </trkpt>
      <trkpt lat="43.68734" lon="5.85262">
        <ele>433</ele>
        <time>2016-01-23T10:41:54.494Z</time>
      </trkpt>
      <trkpt lat="43.6873" lon="5.85258">
        <ele>431</ele>
        <time>2016-01-23T10:41:55.454Z</time>
      </trkpt>
      <trkpt lat="43.68727" lon="5.85252">
        <ele>431</ele>
        <time>2016-01-23T10:41:56.476Z</time>
      </trkpt>
      <trkpt lat="43.68724" lon="5.85246">
        <ele>430</ele>
        <time>2016-01-23T10:41:57.464Z</time>
      </trkpt>
      <trkpt lat="43.6872" lon="5.85242">
        <ele>430</ele>
        <time>2016-01-23T10:41:58.479Z</time>
      </trkpt>
      <trkpt lat="43.68716" lon="5.85238">
        <ele>431</ele>
        <time>2016-01-23T10:41:59.453Z</time>
      </trkpt>
      <trkpt lat="43.6871" lon="5.85233">
        <ele>431</ele>
        <time>2016-01-23T10:42:01.482Z</time>
      </trkpt>
      <trkpt lat="43.68707" lon="5.85231">
        <ele>431</ele>
        <time>2016-01-23T10:42:02.467Z</time>
      </trkpt>
      <trkpt lat="43.687" lon="5.85226">
        <ele>431</ele>
        <time>2016-01-23T10:42:05.478Z</time>
      </trkpt>
      <trkpt lat="43.68698" lon="5.85224">
        <ele>431</ele>
        <time>2016-01-23T10:42:06.453Z</time>
      </trkpt>
      <trkpt lat="43.6869" lon="5.85219">
        <ele>431</ele>
        <time>2016-01-23T10:42:09.489Z</time>
      </trkpt>
      <trkpt lat="43.68688" lon="5.85218">
        <ele>432</ele>
        <time>2016-01-23T10:42:10.455Z</time>
      </trkpt>
      <trkpt lat="43.6868" lon="5.85216">
        <ele>434</ele>
        <time>2016-01-23T10:42:13.708Z</time>
      </trkpt>
      <trkpt lat="43.68678" lon="5.85216">
        <ele>434</ele>
        <time>2016-01-23T10:42:14.444Z</time>
      </trkpt>
      <trkpt lat="43.6867" lon="5.85216">
        <ele>434</ele>
        <time>2016-01-23T10:42:17.479Z</time>
      </trkpt>
      <trkpt lat="43.68667" lon="5.85217">
        <ele>434</ele>
        <time>2016-01-23T10:42:18.449Z</time>
      </trkpt>
      <trkpt lat="43.6866" lon="5.85221">
        <ele>435</ele>
        <time>2016-01-23T10:42:23.479Z</time>
      </trkpt>
      <trkpt lat="43.68659" lon="5.85223">
        <ele>435</ele>
        <time>2016-01-23T10:42:24.465Z</time>
      </trkpt>
      <trkpt lat="43.68655" lon="5.85233">
        <ele>435</ele>
        <time>2016-01-23T10:44:13.496Z</time>
      </trkpt>
      <trkpt lat="43.68655" lon="5.85236">
        <ele>435</ele>
        <time>2016-01-23T10:44:14.454Z</time>
      </trkpt>
      <trkpt lat="43.68652" lon="5.85245">
        <ele>435</ele>
        <time>2016-01-23T10:44:18.480Z</time>
      </trkpt>
      <trkpt lat="43.68652" lon="5.85247">
        <ele>435</ele>
        <time>2016-01-23T10:44:19.455Z</time>
      </trkpt>
      <trkpt lat="43.68648" lon="5.85256">
        <ele>436</ele>
        <time>2016-01-23T10:44:23.479Z</time>
      </trkpt>
      <trkpt lat="43.68647" lon="5.85259">
        <ele>436</ele>
        <time>2016-01-23T10:44:24.483Z</time>
      </trkpt>
      <trkpt lat="43.68645" lon="5.85271">
        <ele>436</ele>
        <time>2016-01-23T10:44:28.489Z</time>
      </trkpt>
      <trkpt lat="43.68644" lon="5.85274">
        <ele>436</ele>
        <time>2016-01-23T10:44:29.453Z</time>
      </trkpt>
      <trkpt lat="43.68641" lon="5.85284">
        <ele>436</ele>
        <time>2016-01-23T10:44:32.478Z</time>
      </trkpt>
      <trkpt lat="43.6864" lon="5.85287">
        <ele>435</ele>
        <time>2016-01-23T10:44:33.454Z</time>
      </trkpt>
      <trkpt lat="43.68639" lon="5.85298">
        <ele>435</ele>
        <time>2016-01-23T10:44:37.479Z</time>
      </trkpt>
      <trkpt lat="43.68639" lon="5.853">
        <ele>435</ele>
        <time>2016-01-23T10:44:38.455Z</time>
      </trkpt>
      <trkpt lat="43.68637" lon="5.8531">
        <ele>435</ele>
        <time>2016-01-23T10:44:42.467Z</time>
      </trkpt>
      <trkpt lat="43.68636" lon="5.85312">
        <ele>436</ele>
        <time>2016-01-23T10:44:43.454Z</time>
      </trkpt>
      <trkpt lat="43.68632" lon="5.85321">
        <ele>436</ele>
        <time>2016-01-23T10:44:46.479Z</time>
      </trkpt>
      <trkpt lat="43.68631" lon="5.85324">
        <ele>436</ele>
        <time>2016-01-23T10:44:47.456Z</time>
      </trkpt>
      <trkpt lat="43.68628" lon="5.85335">
        <ele>436</ele>
        <time>2016-01-23T10:44:51.479Z</time>
      </trkpt>
      <trkpt lat="43.68627" lon="5.85338">
        <ele>436</ele>
        <time>2016-01-23T10:44:52.455Z</time>
      </trkpt>
      <trkpt lat="43.68624" lon="5.85348">
        <ele>437</ele>
        <time>2016-01-23T10:44:56.498Z</time>
      </trkpt>
      <trkpt lat="43.68623" lon="5.85351">
        <ele>437</ele>
        <time>2016-01-23T10:44:57.451Z</time>
      </trkpt>
      <trkpt lat="43.6862" lon="5.85361">
        <ele>437</ele>
        <time>2016-01-23T10:45:01.472Z</time>
      </trkpt>
      <trkpt lat="43.68619" lon="5.85364">
        <ele>437</ele>
        <time>2016-01-23T10:45:02.460Z</time>
      </trkpt>
      <trkpt lat="43.68616" lon="5.85375">
        <ele>437</ele>
        <time>2016-01-23T10:45:06.473Z</time>
      </trkpt>
      <trkpt lat="43.68615" lon="5.85378">
        <ele>437</ele>
        <time>2016-01-23T10:45:07.469Z</time>
      </trkpt>
      <trkpt lat="43.68612" lon="5.85386">
        <ele>437</ele>
        <time>2016-01-23T10:45:10.471Z</time>
      </trkpt>
      <trkpt lat="43.68611" lon="5.85389">
        <ele>437</ele>
        <time>2016-01-23T10:45:11.461Z</time>
      </trkpt>
      <trkpt lat="43.68608" lon="5.85401">
        <ele>438</ele>
        <time>2016-01-23T10:45:15.474Z</time>
      </trkpt>
      <trkpt lat="43.68607" lon="5.85403">
        <ele>438</ele>
        <time>2016-01-23T10:45:16.452Z</time>
      </trkpt>
      <trkpt lat="43.68604" lon="5.85414">
        <ele>437</ele>
        <time>2016-01-23T10:45:20.480Z</time>
      </trkpt>
      <trkpt lat="43.68604" lon="5.85417">
        <ele>437</ele>
        <time>2016-01-23T10:45:21.454Z</time>
      </trkpt>
      <trkpt lat="43.68601" lon="5.85428">
        <ele>438</ele>
        <time>2016-01-23T10:45:25.481Z</time>
      </trkpt>
      <trkpt lat="43.68601" lon="5.85431">
        <ele>438</ele>
        <time>2016-01-23T10:45:26.455Z</time>
      </trkpt>
      <trkpt lat="43.68598" lon="5.85441">
        <ele>439</ele>
        <time>2016-01-23T10:45:30.479Z</time>
      </trkpt>
      <trkpt lat="43.68597" lon="5.85444">
        <ele>439</ele>
        <time>2016-01-23T10:45:31.454Z</time>
      </trkpt>
      <trkpt lat="43.68595" lon="5.85455">
        <ele>440</ele>
        <time>2016-01-23T10:45:35.491Z</time>
      </trkpt>
      <trkpt lat="43.68594" lon="5.85458">
        <ele>440</ele>
        <time>2016-01-23T10:45:36.454Z</time>
      </trkpt>
      <trkpt lat="43.68592" lon="5.85469">
        <ele>440</ele>
        <time>2016-01-23T10:45:40.474Z</time>
      </trkpt>
      <trkpt lat="43.68591" lon="5.85472">
        <ele>440</ele>
        <time>2016-01-23T10:45:41.454Z</time>
      </trkpt>
      <trkpt lat="43.68589" lon="5.85481">
        <ele>440</ele>
        <time>2016-01-23T10:45:44.479Z</time>
      </trkpt>
      <trkpt lat="43.68588" lon="5.85484">
        <ele>440</ele>
        <time>2016-01-23T10:45:45.482Z</time>
      </trkpt>
      <trkpt lat="43.68585" lon="5.85494">
        <ele>440</ele>
        <time>2016-01-23T10:45:48.478Z</time>
      </trkpt>
      <trkpt lat="43.68585" lon="5.85497">
        <ele>440</ele>
        <time>2016-01-23T10:45:49.454Z</time>
      </trkpt>
      <trkpt lat="43.68582" lon="5.85507">
        <ele>440</ele>
        <time>2016-01-23T10:45:52.478Z</time>
      </trkpt>
      <trkpt lat="43.68581" lon="5.8551">
        <ele>440</ele>
        <time>2016-01-23T10:45:53.454Z</time>
      </trkpt>
      <trkpt lat="43.68579" lon="5.85519">
        <ele>440</ele>
        <time>2016-01-23T10:45:56.507Z</time>
      </trkpt>
      <trkpt lat="43.68578" lon="5.85522">
        <ele>440</ele>
        <time>2016-01-23T10:45:57.455Z</time>
      </trkpt>
      <trkpt lat="43.68575" lon="5.85533">
        <ele>441</ele>
        <time>2016-01-23T10:46:01.474Z</time>
      </trkpt>
      <trkpt lat="43.68574" lon="5.85536">
        <ele>441</ele>
        <time>2016-01-23T10:46:02.452Z</time>
      </trkpt>
      <trkpt lat="43.68571" lon="5.85547">
        <ele>442</ele>
        <time>2016-01-23T10:46:06.473Z</time>
      </trkpt>
      <trkpt lat="43.6857" lon="5.85549">
        <ele>442</ele>
        <time>2016-01-23T10:46:07.476Z</time>
      </trkpt>
      <trkpt lat="43.68567" lon="5.8556">
        <ele>442</ele>
        <time>2016-01-23T10:46:11.474Z</time>
      </trkpt>
      <trkpt lat="43.68566" lon="5.85563">
        <ele>441</ele>
        <time>2016-01-23T10:46:12.454Z</time>
      </trkpt>
      <trkpt lat="43.68562" lon="5.85573">
        <ele>442</ele>
        <time>2016-01-23T10:46:16.474Z</time>
      </trkpt>
      <trkpt lat="43.68561" lon="5.85575">
        <ele>442</ele>
        <time>2016-01-23T10:46:17.451Z</time>
      </trkpt>
      <trkpt lat="43.68558" lon="5.85586">
        <ele>442</ele>
        <time>2016-01-23T10:46:22.475Z</time>
      </trkpt>
      <trkpt lat="43.68557" lon="5.85589">
        <ele>442</ele>
        <time>2016-01-23T10:46:23.466Z</time>
      </trkpt>
      <trkpt lat="43.68553" lon="5.85599">
        <ele>443</ele>
        <time>2016-01-23T10:46:27.473Z</time>
      </trkpt>
      <trkpt lat="43.68552" lon="5.85602">
        <ele>443</ele>
        <time>2016-01-23T10:46:28.453Z</time>
      </trkpt>
      <trkpt lat="43.68547" lon="5.85612">
        <ele>443</ele>
        <time>2016-01-23T10:46:32.672Z</time>
      </trkpt>
      <trkpt lat="43.68546" lon="5.85615">
        <ele>443</ele>
        <time>2016-01-23T10:46:33.450Z</time>
      </trkpt>
      <trkpt lat="43.68543" lon="5.85622">
        <ele>443</ele>
        <time>2016-01-23T10:46:36.554Z</time>
      </trkpt>
      <trkpt lat="43.68541" lon="5.85625">
        <ele>442</ele>
        <time>2016-01-23T10:46:37.447Z</time>
      </trkpt>
      <trkpt lat="43.68536" lon="5.85632">
        <ele>442</ele>
        <time>2016-01-23T10:46:39.516Z</time>
      </trkpt>
      <trkpt lat="43.68533" lon="5.85637">
        <ele>441</ele>
        <time>2016-01-23T10:46:40.456Z</time>
      </trkpt>
      <trkpt lat="43.68528" lon="5.85646">
        <ele>441</ele>
        <time>2016-01-23T10:46:42.481Z</time>
      </trkpt>
      <trkpt lat="43.68526" lon="5.8565">
        <ele>441</ele>
        <time>2016-01-23T10:46:43.455Z</time>
      </trkpt>
      <trkpt lat="43.68523" lon="5.85655">
        <ele>440</ele>
        <time>2016-01-23T10:46:44.710Z</time>
      </trkpt>
      <trkpt lat="43.68521" lon="5.85661">
        <ele>440</ele>
        <time>2016-01-23T10:46:45.455Z</time>
      </trkpt>
      <trkpt lat="43.68518" lon="5.85672">
        <ele>439</ele>
        <time>2016-01-23T10:46:47.478Z</time>
      </trkpt>
      <trkpt lat="43.68516" lon="5.85677">
        <ele>439</ele>
        <time>2016-01-23T10:46:48.455Z</time>
      </trkpt>
      <trkpt lat="43.68512" lon="5.85685">
        <ele>439</ele>
        <time>2016-01-23T10:46:50.526Z</time>
      </trkpt>
      <trkpt lat="43.6851" lon="5.85689">
        <ele>439</ele>
        <time>2016-01-23T10:46:51.454Z</time>
      </trkpt>
      <trkpt lat="43.68506" lon="5.85697">
        <ele>439</ele>
        <time>2016-01-23T10:46:53.481Z</time>
      </trkpt>
      <trkpt lat="43.68505" lon="5.85701">
        <ele>439</ele>
        <time>2016-01-23T10:46:54.455Z</time>
      </trkpt>
      <trkpt lat="43.68503" lon="5.85711">
        <ele>439</ele>
        <time>2016-01-23T10:46:56.708Z</time>
      </trkpt>
      <trkpt lat="43.68502" lon="5.85715">
        <ele>440</ele>
        <time>2016-01-23T10:46:57.455Z</time>
      </trkpt>
      <trkpt lat="43.68498" lon="5.85723">
        <ele>440</ele>
        <time>2016-01-23T10:46:59.480Z</time>
      </trkpt>
      <trkpt lat="43.68497" lon="5.85725">
        <ele>440</ele>
        <time>2016-01-23T10:47:00.457Z</time>
      </trkpt>
      <trkpt lat="43.68491" lon="5.85733">
        <ele>441</ele>
        <time>2016-01-23T10:47:03.480Z</time>
      </trkpt>
      <trkpt lat="43.68489" lon="5.85735">
        <ele>441</ele>
        <time>2016-01-23T10:47:04.450Z</time>
      </trkpt>
      <trkpt lat="43.68483" lon="5.85742">
        <ele>442</ele>
        <time>2016-01-23T10:47:08.480Z</time>
      </trkpt>
      <trkpt lat="43.68482" lon="5.85744">
        <ele>442</ele>
        <time>2016-01-23T10:47:09.454Z</time>
      </trkpt>
      <trkpt lat="43.68475" lon="5.85751">
        <ele>442</ele>
        <time>2016-01-23T10:47:13.478Z</time>
      </trkpt>
      <trkpt lat="43.68474" lon="5.85753">
        <ele>443</ele>
        <time>2016-01-23T10:47:14.454Z</time>
      </trkpt>
      <trkpt lat="43.68467" lon="5.8576">
        <ele>443</ele>
        <time>2016-01-23T10:47:18.480Z</time>
      </trkpt>
      <trkpt lat="43.68466" lon="5.85761">
        <ele>443</ele>
        <time>2016-01-23T10:47:19.462Z</time>
      </trkpt>
      <trkpt lat="43.68461" lon="5.85769">
        <ele>443</ele>
        <time>2016-01-23T10:47:23.480Z</time>
      </trkpt>
      <trkpt lat="43.6846" lon="5.85771">
        <ele>443</ele>
        <time>2016-01-23T10:47:24.468Z</time>
      </trkpt>
      <trkpt lat="43.68456" lon="5.85778">
        <ele>443</ele>
        <time>2016-01-23T10:47:26.483Z</time>
      </trkpt>
      <trkpt lat="43.68455" lon="5.85782">
        <ele>442</ele>
        <time>2016-01-23T10:47:27.450Z</time>
      </trkpt>
      <trkpt lat="43.68452" lon="5.85792">
        <ele>442</ele>
        <time>2016-01-23T10:47:29.490Z</time>
      </trkpt>
      <trkpt lat="43.68451" lon="5.85797">
        <ele>442</ele>
        <time>2016-01-23T10:47:30.455Z</time>
      </trkpt>
      <trkpt lat="43.68448" lon="5.85807">
        <ele>441</ele>
        <time>2016-01-23T10:47:32.482Z</time>
      </trkpt>
      <trkpt lat="43.68446" lon="5.85812">
        <ele>441</ele>
        <time>2016-01-23T10:47:33.486Z</time>
      </trkpt>
      <trkpt lat="43.68443" lon="5.85822">
        <ele>441</ele>
        <time>2016-01-23T10:47:35.475Z</time>
      </trkpt>
      <trkpt lat="43.68441" lon="5.85827">
        <ele>442</ele>
        <time>2016-01-23T10:47:36.450Z</time>
      </trkpt>
      <trkpt lat="43.68438" lon="5.85836">
        <ele>441</ele>
        <time>2016-01-23T10:47:38.462Z</time>
      </trkpt>
      <trkpt lat="43.68437" lon="5.8584">
        <ele>442</ele>
        <time>2016-01-23T10:47:39.450Z</time>
      </trkpt>
      <trkpt lat="43.68434" lon="5.85852">
        <ele>442</ele>
        <time>2016-01-23T10:47:42.476Z</time>
      </trkpt>
      <trkpt lat="43.68433" lon="5.85856">
        <ele>443</ele>
        <time>2016-01-23T10:47:43.455Z</time>
      </trkpt>
      <trkpt lat="43.6843" lon="5.85863">
        <ele>444</ele>
        <time>2016-01-23T10:47:45.468Z</time>
      </trkpt>
      <trkpt lat="43.68429" lon="5.85867">
        <ele>443</ele>
        <time>2016-01-23T10:47:46.455Z</time>
      </trkpt>
      <trkpt lat="43.68427" lon="5.85874">
        <ele>444</ele>
        <time>2016-01-23T10:47:48.481Z</time>
      </trkpt>
      <trkpt lat="43.68425" lon="5.85879">
        <ele>444</ele>
        <time>2016-01-23T10:47:49.456Z</time>
      </trkpt>
      <trkpt lat="43.68423" lon="5.85886">
        <ele>444</ele>
        <time>2016-01-23T10:47:51.481Z</time>
      </trkpt>
      <trkpt lat="43.68421" lon="5.8589">
        <ele>444</ele>
        <time>2016-01-23T10:47:52.455Z</time>
      </trkpt>
      <trkpt lat="43.68417" lon="5.859">
        <ele>444</ele>
        <time>2016-01-23T10:47:55.571Z</time>
      </trkpt>
      <trkpt lat="43.68416" lon="5.85904">
        <ele>444</ele>
        <time>2016-01-23T10:47:56.451Z</time>
      </trkpt>
      <trkpt lat="43.68413" lon="5.85915">
        <ele>444</ele>
        <time>2016-01-23T10:47:59.482Z</time>
      </trkpt>
      <trkpt lat="43.68412" lon="5.85919">
        <ele>444</ele>
        <time>2016-01-23T10:48:00.456Z</time>
      </trkpt>
      <trkpt lat="43.68408" lon="5.8593">
        <ele>444</ele>
        <time>2016-01-23T10:48:03.479Z</time>
      </trkpt>
      <trkpt lat="43.68406" lon="5.85933">
        <ele>444</ele>
        <time>2016-01-23T10:48:04.450Z</time>
      </trkpt>
      <trkpt lat="43.68401" lon="5.85943">
        <ele>444</ele>
        <time>2016-01-23T10:48:07.479Z</time>
      </trkpt>
      <trkpt lat="43.68399" lon="5.85946">
        <ele>444</ele>
        <time>2016-01-23T10:48:08.457Z</time>
      </trkpt>
      <trkpt lat="43.68392" lon="5.85953">
        <ele>444</ele>
        <time>2016-01-23T10:48:11.509Z</time>
      </trkpt>
      <trkpt lat="43.6839" lon="5.85955">
        <ele>444</ele>
        <time>2016-01-23T10:48:12.455Z</time>
      </trkpt>
      <trkpt lat="43.68384" lon="5.85963">
        <ele>444</ele>
        <time>2016-01-23T10:48:15.479Z</time>
      </trkpt>
      <trkpt lat="43.68382" lon="5.85966">
        <ele>444</ele>
        <time>2016-01-23T10:48:16.454Z</time>
      </trkpt>
      <trkpt lat="43.68377" lon="5.85975">
        <ele>445</ele>
        <time>2016-01-23T10:48:19.473Z</time>
      </trkpt>
      <trkpt lat="43.68376" lon="5.85978">
        <ele>445</ele>
        <time>2016-01-23T10:48:20.455Z</time>
      </trkpt>
      <trkpt lat="43.68373" lon="5.85987">
        <ele>446</ele>
        <time>2016-01-23T10:48:23.480Z</time>
      </trkpt>
      <trkpt lat="43.68372" lon="5.8599">
        <ele>446</ele>
        <time>2016-01-23T10:48:24.456Z</time>
      </trkpt>
      <trkpt lat="43.68369" lon="5.85998">
        <ele>446</ele>
        <time>2016-01-23T10:48:27.482Z</time>
      </trkpt>
      <trkpt lat="43.68368" lon="5.86001">
        <ele>447</ele>
        <time>2016-01-23T10:48:28.455Z</time>
      </trkpt>
      <trkpt lat="43.68364" lon="5.8601">
        <ele>447</ele>
        <time>2016-01-23T10:48:31.480Z</time>
      </trkpt>
      <trkpt lat="43.68362" lon="5.86014">
        <ele>447</ele>
        <time>2016-01-23T10:48:32.483Z</time>
      </trkpt>
      <trkpt lat="43.68357" lon="5.86023">
        <ele>447</ele>
        <time>2016-01-23T10:48:35.491Z</time>
      </trkpt>
      <trkpt lat="43.68355" lon="5.86026">
        <ele>447</ele>
        <time>2016-01-23T10:48:36.455Z</time>
      </trkpt>
      <trkpt lat="43.68349" lon="5.86035">
        <ele>447</ele>
        <time>2016-01-23T10:48:39.483Z</time>
      </trkpt>
      <trkpt lat="43.68347" lon="5.86038">
        <ele>447</ele>
        <time>2016-01-23T10:48:40.467Z</time>
      </trkpt>
      <trkpt lat="43.68341" lon="5.86047">
        <ele>447</ele>
        <time>2016-01-23T10:48:43.479Z</time>
      </trkpt>
      <trkpt lat="43.68339" lon="5.8605">
        <ele>447</ele>
        <time>2016-01-23T10:48:44.450Z</time>
      </trkpt>
      <trkpt lat="43.68335" lon="5.86056">
        <ele>447</ele>
        <time>2016-01-23T10:48:46.715Z</time>
      </trkpt>
      <trkpt lat="43.68333" lon="5.86059">
        <ele>447</ele>
        <time>2016-01-23T10:48:47.457Z</time>
      </trkpt>
      <trkpt lat="43.68328" lon="5.86065">
        <ele>448</ele>
        <time>2016-01-23T10:48:49.472Z</time>
      </trkpt>
      <trkpt lat="43.68326" lon="5.86067">
        <ele>447</ele>
        <time>2016-01-23T10:48:50.448Z</time>
      </trkpt>
      <trkpt lat="43.68321" lon="5.86073">
        <ele>448</ele>
        <time>2016-01-23T10:48:52.475Z</time>
      </trkpt>
      <trkpt lat="43.68318" lon="5.86076">
        <ele>447</ele>
        <time>2016-01-23T10:48:53.453Z</time>
      </trkpt>
      <trkpt lat="43.68311" lon="5.86081">
        <ele>447</ele>
        <time>2016-01-23T10:48:55.473Z</time>
      </trkpt>
      <trkpt lat="43.68308" lon="5.86084">
        <ele>447</ele>
        <time>2016-01-23T10:48:56.454Z</time>
      </trkpt>
      <trkpt lat="43.68301" lon="5.86088">
        <ele>446</ele>
        <time>2016-01-23T10:48:58.474Z</time>
      </trkpt>
      <trkpt lat="43.68298" lon="5.86091">
        <ele>446</ele>
        <time>2016-01-23T10:48:59.458Z</time>
      </trkpt>
      <trkpt lat="43.68292" lon="5.86096">
        <ele>446</ele>
        <time>2016-01-23T10:49:01.473Z</time>
      </trkpt>
      <trkpt lat="43.68289" lon="5.86098">
        <ele>446</ele>
        <time>2016-01-23T10:49:02.453Z</time>
      </trkpt>
      <trkpt lat="43.68284" lon="5.86102">
        <ele>445</ele>
        <time>2016-01-23T10:49:04.492Z</time>
      </trkpt>
      <trkpt lat="43.68281" lon="5.86104">
        <ele>445</ele>
        <time>2016-01-23T10:49:05.454Z</time>
      </trkpt>
      <trkpt lat="43.68275" lon="5.86107">
        <ele>445</ele>
        <time>2016-01-23T10:49:07.476Z</time>
      </trkpt>
      <trkpt lat="43.68272" lon="5.86109">
        <ele>446</ele>
        <time>2016-01-23T10:49:08.455Z</time>
      </trkpt>
      <trkpt lat="43.68264" lon="5.86111">
        <ele>445</ele>
        <time>2016-01-23T10:49:11.475Z</time>
      </trkpt>
      <trkpt lat="43.68262" lon="5.86112">
        <ele>445</ele>
        <time>2016-01-23T10:49:12.454Z</time>
      </trkpt>
      <trkpt lat="43.68254" lon="5.86112">
        <ele>445</ele>
        <time>2016-01-23T10:49:15.498Z</time>
      </trkpt>
      <trkpt lat="43.68251" lon="5.86111">
        <ele>445</ele>
        <time>2016-01-23T10:49:16.455Z</time>
      </trkpt>
      <trkpt lat="43.68242" lon="5.86108">
        <ele>445</ele>
        <time>2016-01-23T10:49:19.476Z</time>
      </trkpt>
      <trkpt lat="43.68239" lon="5.86108">
        <ele>445</ele>
        <time>2016-01-23T10:49:20.456Z</time>
      </trkpt>
      <trkpt lat="43.68233" lon="5.86107">
        <ele>445</ele>
        <time>2016-01-23T10:49:22.476Z</time>
      </trkpt>
      <trkpt lat="43.6823" lon="5.86106">
        <ele>445</ele>
        <time>2016-01-23T10:49:23.454Z</time>
      </trkpt>
      <trkpt lat="43.68223" lon="5.86106">
        <ele>446</ele>
        <time>2016-01-23T10:49:25.477Z</time>
      </trkpt>
      <trkpt lat="43.6822" lon="5.86106">
        <ele>446</ele>
        <time>2016-01-23T10:49:26.451Z</time>
      </trkpt>
      <trkpt lat="43.68213" lon="5.86108">
        <ele>446</ele>
        <time>2016-01-23T10:49:28.478Z</time>
      </trkpt>
      <trkpt lat="43.6821" lon="5.86109">
        <ele>446</ele>
        <time>2016-01-23T10:49:29.456Z</time>
      </trkpt>
      <trkpt lat="43.68205" lon="5.86115">
        <ele>446</ele>
        <time>2016-01-23T10:49:31.500Z</time>
      </trkpt>
      <trkpt lat="43.68203" lon="5.86118">
        <ele>447</ele>
        <time>2016-01-23T10:49:32.457Z</time>
      </trkpt>
      <trkpt lat="43.68199" lon="5.86125">
        <ele>447</ele>
        <time>2016-01-23T10:49:34.477Z</time>
      </trkpt>
      <trkpt lat="43.68197" lon="5.86128">
        <ele>447</ele>
        <time>2016-01-23T10:49:35.456Z</time>
      </trkpt>
      <trkpt lat="43.68189" lon="5.8613">
        <ele>448</ele>
        <time>2016-01-23T10:49:39.477Z</time>
      </trkpt>
      <trkpt lat="43.68187" lon="5.8613">
        <ele>448</ele>
        <time>2016-01-23T10:49:40.454Z</time>
      </trkpt>
      <trkpt lat="43.6818" lon="5.86133">
        <ele>448</ele>
        <time>2016-01-23T10:49:44.476Z</time>
      </trkpt>
      <trkpt lat="43.68178" lon="5.86134">
        <ele>448</ele>
        <time>2016-01-23T10:49:45.454Z</time>
      </trkpt>
      <trkpt lat="43.6817" lon="5.86131">
        <ele>448</ele>
        <time>2016-01-23T10:49:49.481Z</time>
      </trkpt>
      <trkpt lat="43.68169" lon="5.8613">
        <ele>448</ele>
        <time>2016-01-23T10:49:50.456Z</time>
      </trkpt>
      <trkpt lat="43.68162" lon="5.86123">
        <ele>449</ele>
        <time>2016-01-23T10:49:54.482Z</time>
      </trkpt>
      <trkpt lat="43.6816" lon="5.86121">
        <ele>450</ele>
        <time>2016-01-23T10:49:55.467Z</time>
      </trkpt>
      <trkpt lat="43.68152" lon="5.86116">
        <ele>451</ele>
        <time>2016-01-23T10:49:59.470Z</time>
      </trkpt>
      <trkpt lat="43.6815" lon="5.86114">
        <ele>451</ele>
        <time>2016-01-23T10:50:00.455Z</time>
      </trkpt>
      <trkpt lat="43.68144" lon="5.86109">
        <ele>451</ele>
        <time>2016-01-23T10:50:04.511Z</time>
      </trkpt>
      <trkpt lat="43.68142" lon="5.86107">
        <ele>452</ele>
        <time>2016-01-23T10:50:05.455Z</time>
      </trkpt>
      <trkpt lat="43.68135" lon="5.86103">
        <ele>452</ele>
        <time>2016-01-23T10:50:09.480Z</time>
      </trkpt>
      <trkpt lat="43.68133" lon="5.86103">
        <ele>452</ele>
        <time>2016-01-23T10:50:10.455Z</time>
      </trkpt>
      <trkpt lat="43.68125" lon="5.86101">
        <ele>452</ele>
        <time>2016-01-23T10:50:14.480Z</time>
      </trkpt>
      <trkpt lat="43.68123" lon="5.86101">
        <ele>453</ele>
        <time>2016-01-23T10:50:15.457Z</time>
      </trkpt>
      <trkpt lat="43.68115" lon="5.86101">
        <ele>453</ele>
        <time>2016-01-23T10:50:19.479Z</time>
      </trkpt>
      <trkpt lat="43.68113" lon="5.86101">
        <ele>453</ele>
        <time>2016-01-23T10:50:20.481Z</time>
      </trkpt>
      <trkpt lat="43.68105" lon="5.86099">
        <ele>454</ele>
        <time>2016-01-23T10:50:24.481Z</time>
      </trkpt>
      <trkpt lat="43.68103" lon="5.86098">
        <ele>454</ele>
        <time>2016-01-23T10:50:25.457Z</time>
      </trkpt>
      <trkpt lat="43.68094" lon="5.86094">
        <ele>455</ele>
        <time>2016-01-23T10:50:29.481Z</time>
      </trkpt>
      <trkpt lat="43.68092" lon="5.86094">
        <ele>455</ele>
        <time>2016-01-23T10:50:30.455Z</time>
      </trkpt>
      <trkpt lat="43.68086" lon="5.86091">
        <ele>454</ele>
        <time>2016-01-23T10:50:33.462Z</time>
      </trkpt>
      <trkpt lat="43.68083" lon="5.8609">
        <ele>454</ele>
        <time>2016-01-23T10:50:34.458Z</time>
      </trkpt>
      <trkpt lat="43.68076" lon="5.86086">
        <ele>454</ele>
        <time>2016-01-23T10:50:37.478Z</time>
      </trkpt>
      <trkpt lat="43.68073" lon="5.86084">
        <ele>454</ele>
        <time>2016-01-23T10:50:38.453Z</time>
      </trkpt>
      <trkpt lat="43.68067" lon="5.86079">
        <ele>454</ele>
        <time>2016-01-23T10:50:40.466Z</time>
      </trkpt>
      <trkpt lat="43.68064" lon="5.86077">
        <ele>454</ele>
        <time>2016-01-23T10:50:41.454Z</time>
      </trkpt>
      <trkpt lat="43.68056" lon="5.86073">
        <ele>453</ele>
        <time>2016-01-23T10:50:43.481Z</time>
      </trkpt>
      <trkpt lat="43.68051" lon="5.86072">
        <ele>453</ele>
        <time>2016-01-23T10:50:44.456Z</time>
      </trkpt>
      <trkpt lat="43.68043" lon="5.8607">
        <ele>454</ele>
        <time>2016-01-23T10:50:46.481Z</time>
      </trkpt>
      <trkpt lat="43.68037" lon="5.86069">
        <ele>453</ele>
        <time>2016-01-23T10:50:47.460Z</time>
      </trkpt>
      <trkpt lat="43.68028" lon="5.86069">
        <ele>453</ele>
        <time>2016-01-23T10:50:49.480Z</time>
      </trkpt>
      <trkpt lat="43.68024" lon="5.86068">
        <ele>453</ele>
        <time>2016-01-23T10:50:50.455Z</time>
      </trkpt>
      <trkpt lat="43.68019" lon="5.86067">
        <ele>452</ele>
        <time>2016-01-23T10:50:51.472Z</time>
      </trkpt>
      <trkpt lat="43.68015" lon="5.86066">
        <ele>452</ele>
        <time>2016-01-23T10:50:52.483Z</time>
      </trkpt>
      <trkpt lat="43.68007" lon="5.86062">
        <ele>452</ele>
        <time>2016-01-23T10:50:54.481Z</time>
      </trkpt>
      <trkpt lat="43.68004" lon="5.8606">
        <ele>451</ele>
        <time>2016-01-23T10:50:55.457Z</time>
      </trkpt>
      <trkpt lat="43.67999" lon="5.8605">
        <ele>450</ele>
        <time>2016-01-23T10:50:58.504Z</time>
      </trkpt>
      <trkpt lat="43.67999" lon="5.86046">
        <ele>451</ele>
        <time>2016-01-23T10:50:59.452Z</time>
      </trkpt>
      <trkpt lat="43.67995" lon="5.86038">
        <ele>451</ele>
        <time>2016-01-23T10:51:02.492Z</time>
      </trkpt>
      <trkpt lat="43.67993" lon="5.86036">
        <ele>451</ele>
        <time>2016-01-23T10:51:03.483Z</time>
      </trkpt>
      <trkpt lat="43.67987" lon="5.86031">
        <ele>452</ele>
        <time>2016-01-23T10:51:06.481Z</time>
      </trkpt>
      <trkpt lat="43.67984" lon="5.8603">
        <ele>452</ele>
        <time>2016-01-23T10:51:07.455Z</time>
      </trkpt>
      <trkpt lat="43.67978" lon="5.86031">
        <ele>452</ele>
        <time>2016-01-23T10:51:10.481Z</time>
      </trkpt>
      <trkpt lat="43.67975" lon="5.86031">
        <ele>452</ele>
        <time>2016-01-23T10:51:11.454Z</time>
      </trkpt>
      <trkpt lat="43.67968" lon="5.8603">
        <ele>452</ele>
        <time>2016-01-23T10:51:14.508Z</time>
      </trkpt>
      <trkpt lat="43.67966" lon="5.8603">
        <ele>452</ele>
        <time>2016-01-23T10:51:15.458Z</time>
      </trkpt>
      <trkpt lat="43.67958" lon="5.86028">
        <ele>453</ele>
        <time>2016-01-23T10:51:19.481Z</time>
      </trkpt>
      <trkpt lat="43.67955" lon="5.86027">
        <ele>453</ele>
        <time>2016-01-23T10:51:20.457Z</time>
      </trkpt>
      <trkpt lat="43.67947" lon="5.86023">
        <ele>454</ele>
        <time>2016-01-23T10:51:24.559Z</time>
      </trkpt>
      <trkpt lat="43.67945" lon="5.86022">
        <ele>454</ele>
        <time>2016-01-23T10:51:25.486Z</time>
      </trkpt>
      <trkpt lat="43.67937" lon="5.8602">
        <ele>454</ele>
        <time>2016-01-23T10:51:29.480Z</time>
      </trkpt>
      <trkpt lat="43.67935" lon="5.86019">
        <ele>455</ele>
        <time>2016-01-23T10:51:30.457Z</time>
      </trkpt>
      <trkpt lat="43.67927" lon="5.86015">
        <ele>455</ele>
        <time>2016-01-23T10:51:34.483Z</time>
      </trkpt>
      <trkpt lat="43.67925" lon="5.86014">
        <ele>455</ele>
        <time>2016-01-23T10:51:35.456Z</time>
      </trkpt>
      <trkpt lat="43.67917" lon="5.86008">
        <ele>456</ele>
        <time>2016-01-23T10:51:39.481Z</time>
      </trkpt>
      <trkpt lat="43.67915" lon="5.86007">
        <ele>456</ele>
        <time>2016-01-23T10:51:40.457Z</time>
      </trkpt>
      <trkpt lat="43.67908" lon="5.86001">
        <ele>456</ele>
        <time>2016-01-23T10:51:44.481Z</time>
      </trkpt>
      <trkpt lat="43.67906" lon="5.86">
        <ele>456</ele>
        <time>2016-01-23T10:51:45.457Z</time>
      </trkpt>
      <trkpt lat="43.679" lon="5.85995">
        <ele>456</ele>
        <time>2016-01-23T10:51:48.475Z</time>
      </trkpt>
      <trkpt lat="43.67898" lon="5.85993">
        <ele>456</ele>
        <time>2016-01-23T10:51:49.454Z</time>
      </trkpt>
      <trkpt lat="43.67891" lon="5.85989">
        <ele>456</ele>
        <time>2016-01-23T10:51:52.499Z</time>
      </trkpt>
      <trkpt lat="43.67889" lon="5.85988">
        <ele>455</ele>
        <time>2016-01-23T10:51:53.454Z</time>
      </trkpt>
      <trkpt lat="43.67882" lon="5.85982">
        <ele>456</ele>
        <time>2016-01-23T10:51:56.479Z</time>
      </trkpt>
      <trkpt lat="43.67879" lon="5.85981">
        <ele>456</ele>
        <time>2016-01-23T10:51:57.454Z</time>
      </trkpt>
      <trkpt lat="43.67872" lon="5.85976">
        <ele>456</ele>
        <time>2016-01-23T10:52:00.495Z</time>
      </trkpt>
      <trkpt lat="43.6787" lon="5.85974">
        <ele>456</ele>
        <time>2016-01-23T10:52:01.453Z</time>
      </trkpt>
      <trkpt lat="43.67862" lon="5.85969">
        <ele>456</ele>
        <time>2016-01-23T10:52:04.483Z</time>
      </trkpt>
      <trkpt lat="43.67859" lon="5.85968">
        <ele>456</ele>
        <time>2016-01-23T10:52:05.455Z</time>
      </trkpt>
      <trkpt lat="43.67851" lon="5.85964">
        <ele>456</ele>
        <time>2016-01-23T10:52:08.499Z</time>
      </trkpt>
      <trkpt lat="43.67849" lon="5.85963">
        <ele>456</ele>
        <time>2016-01-23T10:52:09.457Z</time>
      </trkpt>
      <trkpt lat="43.67841" lon="5.85959">
        <ele>456</ele>
        <time>2016-01-23T10:52:12.487Z</time>
      </trkpt>
      <trkpt lat="43.67838" lon="5.85959">
        <ele>456</ele>
        <time>2016-01-23T10:52:13.455Z</time>
      </trkpt>
      <trkpt lat="43.6783" lon="5.85959">
        <ele>457</ele>
        <time>2016-01-23T10:52:16.475Z</time>
      </trkpt>
      <trkpt lat="43.67828" lon="5.8596">
        <ele>457</ele>
        <time>2016-01-23T10:52:17.454Z</time>
      </trkpt>
      <trkpt lat="43.67821" lon="5.85965">
        <ele>458</ele>
        <time>2016-01-23T10:52:20.475Z</time>
      </trkpt>
      <trkpt lat="43.67818" lon="5.85966">
        <ele>458</ele>
        <time>2016-01-23T10:52:21.454Z</time>
      </trkpt>
      <trkpt lat="43.67809" lon="5.85967">
        <ele>457</ele>
        <time>2016-01-23T10:52:24.476Z</time>
      </trkpt>
      <trkpt lat="43.67806" lon="5.85967">
        <ele>457</ele>
        <time>2016-01-23T10:52:25.455Z</time>
      </trkpt>
      <trkpt lat="43.67798" lon="5.85968">
        <ele>457</ele>
        <time>2016-01-23T10:52:28.475Z</time>
      </trkpt>
      <trkpt lat="43.67795" lon="5.85968">
        <ele>457</ele>
        <time>2016-01-23T10:52:29.455Z</time>
      </trkpt>
      <trkpt lat="43.67788" lon="5.85972">
        <ele>456</ele>
        <time>2016-01-23T10:52:32.476Z</time>
      </trkpt>
      <trkpt lat="43.67785" lon="5.85973">
        <ele>456</ele>
        <time>2016-01-23T10:52:33.454Z</time>
      </trkpt>
      <trkpt lat="43.67779" lon="5.85977">
        <ele>456</ele>
        <time>2016-01-23T10:52:35.475Z</time>
      </trkpt>
      <trkpt lat="43.67776" lon="5.85979">
        <ele>455</ele>
        <time>2016-01-23T10:52:36.452Z</time>
      </trkpt>
      <trkpt lat="43.67769" lon="5.85982">
        <ele>456</ele>
        <time>2016-01-23T10:52:38.475Z</time>
      </trkpt>
      <trkpt lat="43.67767" lon="5.85984">
        <ele>456</ele>
        <time>2016-01-23T10:52:39.449Z</time>
      </trkpt>
      <trkpt lat="43.67761" lon="5.85988">
        <ele>456</ele>
        <time>2016-01-23T10:52:41.498Z</time>
      </trkpt>
      <trkpt lat="43.67758" lon="5.8599">
        <ele>456</ele>
        <time>2016-01-23T10:52:42.454Z</time>
      </trkpt>
      <trkpt lat="43.67752" lon="5.85994">
        <ele>456</ele>
        <time>2016-01-23T10:52:44.473Z</time>
      </trkpt>
      <trkpt lat="43.67749" lon="5.85997">
        <ele>455</ele>
        <time>2016-01-23T10:52:45.455Z</time>
      </trkpt>
      <trkpt lat="43.67743" lon="5.86001">
        <ele>455</ele>
        <time>2016-01-23T10:52:47.475Z</time>
      </trkpt>
      <trkpt lat="43.6774" lon="5.86003">
        <ele>455</ele>
        <time>2016-01-23T10:52:48.463Z</time>
      </trkpt>
      <trkpt lat="43.67734" lon="5.86008">
        <ele>454</ele>
        <time>2016-01-23T10:52:51.654Z</time>
      </trkpt>
      <trkpt lat="43.67732" lon="5.86009">
        <ele>454</ele>
        <time>2016-01-23T10:52:52.473Z</time>
      </trkpt>
      <trkpt lat="43.67725" lon="5.86016">
        <ele>455</ele>
        <time>2016-01-23T10:52:56.480Z</time>
      </trkpt>
      <trkpt lat="43.67724" lon="5.86018">
        <ele>455</ele>
        <time>2016-01-23T10:52:57.454Z</time>
      </trkpt>
      <trkpt lat="43.67718" lon="5.86023">
        <ele>455</ele>
        <time>2016-01-23T10:53:00.465Z</time>
      </trkpt>
      <trkpt lat="43.67716" lon="5.86025">
        <ele>456</ele>
        <time>2016-01-23T10:53:01.456Z</time>
      </trkpt>
      <trkpt lat="43.67709" lon="5.86031">
        <ele>456</ele>
        <time>2016-01-23T10:53:05.493Z</time>
      </trkpt>
      <trkpt lat="43.67707" lon="5.86033">
        <ele>456</ele>
        <time>2016-01-23T10:53:06.461Z</time>
      </trkpt>
      <trkpt lat="43.677" lon="5.8604">
        <ele>456</ele>
        <time>2016-01-23T10:53:10.485Z</time>
      </trkpt>
      <trkpt lat="43.67698" lon="5.86042">
        <ele>457</ele>
        <time>2016-01-23T10:53:11.458Z</time>
      </trkpt>
      <trkpt lat="43.67693" lon="5.86047">
        <ele>457</ele>
        <time>2016-01-23T10:53:14.509Z</time>
      </trkpt>
      <trkpt lat="43.67691" lon="5.86049">
        <ele>457</ele>
        <time>2016-01-23T10:53:15.457Z</time>
      </trkpt>
      <trkpt lat="43.67684" lon="5.86056">
        <ele>457</ele>
        <time>2016-01-23T10:53:19.476Z</time>
      </trkpt>
      <trkpt lat="43.67682" lon="5.86058">
        <ele>457</ele>
        <time>2016-01-23T10:53:20.456Z</time>
      </trkpt>
      <trkpt lat="43.67675" lon="5.86064">
        <ele>457</ele>
        <time>2016-01-23T10:53:24.475Z</time>
      </trkpt>
      <trkpt lat="43.67673" lon="5.86066">
        <ele>458</ele>
        <time>2016-01-23T10:53:25.479Z</time>
      </trkpt>
      <trkpt lat="43.67665" lon="5.8607">
        <ele>459</ele>
        <time>2016-01-23T10:53:34.484Z</time>
      </trkpt>
      <trkpt lat="43.67664" lon="5.86071">
        <ele>459</ele>
        <time>2016-01-23T10:53:35.470Z</time>
      </trkpt>
      <trkpt lat="43.67656" lon="5.86076">
        <ele>461</ele>
        <time>2016-01-23T10:53:41.484Z</time>
      </trkpt>
      <trkpt lat="43.67655" lon="5.86077">
        <ele>461</ele>
        <time>2016-01-23T10:53:42.458Z</time>
      </trkpt>
      <trkpt lat="43.67647" lon="5.86082">
        <ele>463</ele>
        <time>2016-01-23T10:53:49.483Z</time>
      </trkpt>
      <trkpt lat="43.67645" lon="5.86082">
        <ele>463</ele>
        <time>2016-01-23T10:53:50.459Z</time>
      </trkpt>
      <trkpt lat="43.67638" lon="5.86084">
        <ele>461</ele>
        <time>2016-01-23T10:53:55.472Z</time>
      </trkpt>
      <trkpt lat="43.67636" lon="5.86084">
        <ele>461</ele>
        <time>2016-01-23T10:53:56.460Z</time>
      </trkpt>
      <trkpt lat="43.67629" lon="5.86086">
        <ele>462</ele>
        <time>2016-01-23T10:54:01.485Z</time>
      </trkpt>
      <trkpt lat="43.67628" lon="5.86087">
        <ele>461</ele>
        <time>2016-01-23T10:54:02.458Z</time>
      </trkpt>
      <trkpt lat="43.6762" lon="5.86089">
        <ele>460</ele>
        <time>2016-01-23T10:54:07.483Z</time>
      </trkpt>
      <trkpt lat="43.67619" lon="5.86089">
        <ele>461</ele>
        <time>2016-01-23T10:54:08.459Z</time>
      </trkpt>
      <trkpt lat="43.67611" lon="5.86091">
        <ele>463</ele>
        <time>2016-01-23T10:54:14.484Z</time>
      </trkpt>
      <trkpt lat="43.6761" lon="5.86091">
        <ele>463</ele>
        <time>2016-01-23T10:54:15.458Z</time>
      </trkpt>
      <trkpt lat="43.67602" lon="5.86092">
        <ele>464</ele>
        <time>2016-01-23T10:54:21.484Z</time>
      </trkpt>
      <trkpt lat="43.676" lon="5.86092">
        <ele>464</ele>
        <time>2016-01-23T10:54:22.458Z</time>
      </trkpt>
      <trkpt lat="43.67593" lon="5.86094">
        <ele>464</ele>
        <time>2016-01-23T10:54:28.482Z</time>
      </trkpt>
      <trkpt lat="43.67591" lon="5.86094">
        <ele>464</ele>
        <time>2016-01-23T10:54:29.459Z</time>
      </trkpt>
      <trkpt lat="43.67582" lon="5.86096">
        <ele>463</ele>
        <time>2016-01-23T10:54:35.495Z</time>
      </trkpt>
      <trkpt lat="43.67581" lon="5.86096">
        <ele>463</ele>
        <time>2016-01-23T10:54:36.457Z</time>
      </trkpt>
      <trkpt lat="43.67574" lon="5.86098">
        <ele>465</ele>
        <time>2016-01-23T10:54:45.534Z</time>
      </trkpt>
      <trkpt lat="43.67572" lon="5.86099">
        <ele>465</ele>
        <time>2016-01-23T10:54:46.459Z</time>
      </trkpt>
      <trkpt lat="43.67563" lon="5.86101">
        <ele>466</ele>
        <time>2016-01-23T10:54:50.506Z</time>
      </trkpt>
      <trkpt lat="43.67561" lon="5.86101">
        <ele>466</ele>
        <time>2016-01-23T10:54:51.459Z</time>
      </trkpt>
      <trkpt lat="43.67552" lon="5.86099">
        <ele>466</ele>
        <time>2016-01-23T10:54:55.482Z</time>
      </trkpt>
      <trkpt lat="43.6755" lon="5.86098">
        <ele>466</ele>
        <time>2016-01-23T10:54:56.461Z</time>
      </trkpt>
      <trkpt lat="43.67542" lon="5.86094">
        <ele>466</ele>
        <time>2016-01-23T10:54:59.485Z</time>
      </trkpt>
      <trkpt lat="43.67539" lon="5.86092">
        <ele>466</ele>
        <time>2016-01-23T10:55:00.445Z</time>
      </trkpt>
      <trkpt lat="43.67533" lon="5.86089">
        <ele>465</ele>
        <time>2016-01-23T10:55:02.484Z</time>
      </trkpt>
      <trkpt lat="43.6753" lon="5.86087">
        <ele>465</ele>
        <time>2016-01-23T10:55:03.458Z</time>
      </trkpt>
      <trkpt lat="43.67525" lon="5.86084">
        <ele>464</ele>
        <time>2016-01-23T10:55:05.483Z</time>
      </trkpt>
      <trkpt lat="43.67522" lon="5.86082">
        <ele>464</ele>
        <time>2016-01-23T10:55:06.458Z</time>
      </trkpt>
      <trkpt lat="43.67514" lon="5.8608">
        <ele>464</ele>
        <time>2016-01-23T10:55:09.481Z</time>
      </trkpt>
      <trkpt lat="43.67511" lon="5.86078">
        <ele>464</ele>
        <time>2016-01-23T10:55:10.459Z</time>
      </trkpt>
      <trkpt lat="43.67503" lon="5.86075">
        <ele>464</ele>
        <time>2016-01-23T10:55:13.484Z</time>
      </trkpt>
      <trkpt lat="43.67501" lon="5.86074">
        <ele>464</ele>
        <time>2016-01-23T10:55:14.459Z</time>
      </trkpt>
      <trkpt lat="43.67492" lon="5.86073">
        <ele>463</ele>
        <time>2016-01-23T10:55:17.482Z</time>
      </trkpt>
      <trkpt lat="43.6749" lon="5.86073">
        <ele>463</ele>
        <time>2016-01-23T10:55:18.458Z</time>
      </trkpt>
      <trkpt lat="43.67481" lon="5.86072">
        <ele>464</ele>
        <time>2016-01-23T10:55:21.484Z</time>
      </trkpt>
      <trkpt lat="43.67478" lon="5.86072">
        <ele>464</ele>
        <time>2016-01-23T10:55:22.458Z</time>
      </trkpt>
      <trkpt lat="43.6747" lon="5.86069">
        <ele>464</ele>
        <time>2016-01-23T10:55:25.482Z</time>
      </trkpt>
      <trkpt lat="43.67467" lon="5.86068">
        <ele>464</ele>
        <time>2016-01-23T10:55:26.459Z</time>
      </trkpt>
      <trkpt lat="43.67459" lon="5.86065">
        <ele>465</ele>
        <time>2016-01-23T10:55:29.481Z</time>
      </trkpt>
      <trkpt lat="43.67456" lon="5.86064">
        <ele>465</ele>
        <time>2016-01-23T10:55:30.456Z</time>
      </trkpt>
      <trkpt lat="43.67448" lon="5.86061">
        <ele>466</ele>
        <time>2016-01-23T10:55:33.468Z</time>
      </trkpt>
      <trkpt lat="43.67445" lon="5.8606">
        <ele>466</ele>
        <time>2016-01-23T10:55:34.469Z</time>
      </trkpt>
      <trkpt lat="43.67437" lon="5.86057">
        <ele>466</ele>
        <time>2016-01-23T10:55:37.483Z</time>
      </trkpt>
      <trkpt lat="43.67434" lon="5.86055">
        <ele>466</ele>
        <time>2016-01-23T10:55:38.457Z</time>
      </trkpt>
      <trkpt lat="43.67427" lon="5.86051">
        <ele>467</ele>
        <time>2016-01-23T10:55:41.483Z</time>
      </trkpt>
      <trkpt lat="43.67425" lon="5.86049">
        <ele>467</ele>
        <time>2016-01-23T10:55:42.457Z</time>
      </trkpt>
      <trkpt lat="43.67417" lon="5.86044">
        <ele>467</ele>
        <time>2016-01-23T10:55:45.483Z</time>
      </trkpt>
      <trkpt lat="43.67415" lon="5.86042">
        <ele>467</ele>
        <time>2016-01-23T10:55:46.459Z</time>
      </trkpt>
      <trkpt lat="43.67408" lon="5.86034">
        <ele>467</ele>
        <time>2016-01-23T10:55:49.482Z</time>
      </trkpt>
      <trkpt lat="43.67406" lon="5.86031">
        <ele>467</ele>
        <time>2016-01-23T10:55:50.457Z</time>
      </trkpt>
      <trkpt lat="43.67401" lon="5.86025">
        <ele>467</ele>
        <time>2016-01-23T10:55:52.481Z</time>
      </trkpt>
      <trkpt lat="43.67399" lon="5.86022">
        <ele>467</ele>
        <time>2016-01-23T10:55:53.457Z</time>
      </trkpt>
      <trkpt lat="43.67395" lon="5.86015">
        <ele>466</ele>
        <time>2016-01-23T10:55:55.483Z</time>
      </trkpt>
      <trkpt lat="43.67393" lon="5.86012">
        <ele>467</ele>
        <time>2016-01-23T10:55:56.458Z</time>
      </trkpt>
      <trkpt lat="43.67389" lon="5.86005">
        <ele>467</ele>
        <time>2016-01-23T10:55:58.493Z</time>
      </trkpt>
      <trkpt lat="43.67387" lon="5.86002">
        <ele>466</ele>
        <time>2016-01-23T10:55:59.457Z</time>
      </trkpt>
      <trkpt lat="43.67384" lon="5.85995">
        <ele>466</ele>
        <time>2016-01-23T10:56:01.481Z</time>
      </trkpt>
      <trkpt lat="43.67382" lon="5.85991">
        <ele>467</ele>
        <time>2016-01-23T10:56:02.460Z</time>
      </trkpt>
      <trkpt lat="43.67378" lon="5.85984">
        <ele>467</ele>
        <time>2016-01-23T10:56:04.482Z</time>
      </trkpt>
      <trkpt lat="43.67377" lon="5.8598">
        <ele>467</ele>
        <time>2016-01-23T10:56:05.459Z</time>
      </trkpt>
      <trkpt lat="43.67372" lon="5.85969">
        <ele>467</ele>
        <time>2016-01-23T10:56:08.479Z</time>
      </trkpt>
      <trkpt lat="43.67371" lon="5.85966">
        <ele>467</ele>
        <time>2016-01-23T10:56:09.455Z</time>
      </trkpt>
      <trkpt lat="43.67368" lon="5.85955">
        <ele>468</ele>
        <time>2016-01-23T10:56:12.510Z</time>
      </trkpt>
      <trkpt lat="43.67366" lon="5.85951">
        <ele>468</ele>
        <time>2016-01-23T10:56:13.458Z</time>
      </trkpt>
      <trkpt lat="43.67362" lon="5.85941">
        <ele>469</ele>
        <time>2016-01-23T10:56:16.482Z</time>
      </trkpt>
      <trkpt lat="43.6736" lon="5.85938">
        <ele>469</ele>
        <time>2016-01-23T10:56:17.457Z</time>
      </trkpt>
      <trkpt lat="43.67353" lon="5.85933">
        <ele>468</ele>
        <time>2016-01-23T10:56:21.483Z</time>
      </trkpt>
      <trkpt lat="43.67351" lon="5.85933">
        <ele>469</ele>
        <time>2016-01-23T10:56:22.457Z</time>
      </trkpt>
      <trkpt lat="43.67343" lon="5.85935">
        <ele>469</ele>
        <time>2016-01-23T10:56:25.482Z</time>
      </trkpt>
      <trkpt lat="43.67341" lon="5.85936">
        <ele>469</ele>
        <time>2016-01-23T10:56:26.459Z</time>
      </trkpt>
      <trkpt lat="43.67333" lon="5.85938">
        <ele>470</ele>
        <time>2016-01-23T10:56:30.483Z</time>
      </trkpt>
      <trkpt lat="43.67332" lon="5.85938">
        <ele>470</ele>
        <time>2016-01-23T10:56:31.459Z</time>
      </trkpt>
      <trkpt lat="43.67327" lon="5.85946">
        <ele>467</ele>
        <time>2016-01-23T10:57:58.480Z</time>
      </trkpt>
      <trkpt lat="43.67326" lon="5.8595">
        <ele>467</ele>
        <time>2016-01-23T10:57:59.458Z</time>
      </trkpt>
      <trkpt lat="43.67328" lon="5.85959">
        <ele>467</ele>
        <time>2016-01-23T10:58:01.485Z</time>
      </trkpt>
      <trkpt lat="43.67329" lon="5.85964">
        <ele>467</ele>
        <time>2016-01-23T10:58:02.459Z</time>
      </trkpt>
      <trkpt lat="43.67331" lon="5.85973">
        <ele>468</ele>
        <time>2016-01-23T10:58:04.482Z</time>
      </trkpt>
      <trkpt lat="43.67332" lon="5.85979">
        <ele>467</ele>
        <time>2016-01-23T10:58:05.457Z</time>
      </trkpt>
      <trkpt lat="43.67333" lon="5.85988">
        <ele>466</ele>
        <time>2016-01-23T10:58:07.471Z</time>
      </trkpt>
      <trkpt lat="43.67334" lon="5.85993">
        <ele>466</ele>
        <time>2016-01-23T10:58:08.461Z</time>
      </trkpt>
      <trkpt lat="43.67334" lon="5.86003">
        <ele>467</ele>
        <time>2016-01-23T10:58:10.482Z</time>
      </trkpt>
      <trkpt lat="43.67334" lon="5.86008">
        <ele>467</ele>
        <time>2016-01-23T10:58:11.459Z</time>
      </trkpt>
      <trkpt lat="43.67334" lon="5.86019">
        <ele>467</ele>
        <time>2016-01-23T10:58:13.484Z</time>
      </trkpt>
      <trkpt lat="43.67334" lon="5.86025">
        <ele>466</ele>
        <time>2016-01-23T10:58:14.460Z</time>
      </trkpt>
      <trkpt lat="43.67333" lon="5.86032">
        <ele>466</ele>
        <time>2016-01-23T10:58:15.484Z</time>
      </trkpt>
      <trkpt lat="43.67332" lon="5.86039">
        <ele>466</ele>
        <time>2016-01-23T10:58:16.458Z</time>
      </trkpt>
      <trkpt lat="43.67331" lon="5.86047">
        <ele>467</ele>
        <time>2016-01-23T10:58:17.726Z</time>
      </trkpt>
      <trkpt lat="43.67331" lon="5.8606">
        <ele>465</ele>
        <time>2016-01-23T10:58:18.446Z</time>
      </trkpt>
      <trkpt lat="43.67328" lon="5.86066">
        <ele>466</ele>
        <time>2016-01-23T10:58:19.483Z</time>
      </trkpt>
      <trkpt lat="43.67325" lon="5.86074">
        <ele>466</ele>
        <time>2016-01-23T10:58:20.460Z</time>
      </trkpt>
      <trkpt lat="43.67321" lon="5.8608">
        <ele>465</ele>
        <time>2016-01-23T10:58:21.481Z</time>
      </trkpt>
      <trkpt lat="43.67318" lon="5.86085">
        <ele>464</ele>
        <time>2016-01-23T10:58:22.501Z</time>
      </trkpt>
      <trkpt lat="43.67314" lon="5.86093">
        <ele>464</ele>
        <time>2016-01-23T10:58:23.478Z</time>
      </trkpt>
      <trkpt lat="43.67311" lon="5.86102">
        <ele>464</ele>
        <time>2016-01-23T10:58:24.467Z</time>
      </trkpt>
      <trkpt lat="43.67308" lon="5.86109">
        <ele>464</ele>
        <time>2016-01-23T10:58:25.477Z</time>
      </trkpt>
      <trkpt lat="43.67305" lon="5.86115">
        <ele>463</ele>
        <time>2016-01-23T10:58:26.457Z</time>
      </trkpt>
      <trkpt lat="43.67301" lon="5.86123">
        <ele>463</ele>
        <time>2016-01-23T10:58:27.477Z</time>
      </trkpt>
      <trkpt lat="43.67298" lon="5.86132">
        <ele>463</ele>
        <time>2016-01-23T10:58:28.458Z</time>
      </trkpt>
      <trkpt lat="43.67295" lon="5.8614">
        <ele>463</ele>
        <time>2016-01-23T10:58:29.487Z</time>
      </trkpt>
      <trkpt lat="43.67292" lon="5.86147">
        <ele>463</ele>
        <time>2016-01-23T10:58:30.459Z</time>
      </trkpt>
      <trkpt lat="43.67289" lon="5.86155">
        <ele>463</ele>
        <time>2016-01-23T10:58:31.480Z</time>
      </trkpt>
      <trkpt lat="43.67286" lon="5.86163">
        <ele>463</ele>
        <time>2016-01-23T10:58:32.465Z</time>
      </trkpt>
      <trkpt lat="43.67284" lon="5.86171">
        <ele>464</ele>
        <time>2016-01-23T10:58:33.500Z</time>
      </trkpt>
      <trkpt lat="43.67281" lon="5.86178">
        <ele>464</ele>
        <time>2016-01-23T10:58:34.456Z</time>
      </trkpt>
      <trkpt lat="43.67279" lon="5.86185">
        <ele>464</ele>
        <time>2016-01-23T10:58:35.476Z</time>
      </trkpt>
      <trkpt lat="43.67278" lon="5.86192">
        <ele>464</ele>
        <time>2016-01-23T10:58:36.452Z</time>
      </trkpt>
      <trkpt lat="43.67275" lon="5.86204">
        <ele>464</ele>
        <time>2016-01-23T10:58:38.480Z</time>
      </trkpt>
      <trkpt lat="43.67274" lon="5.86209">
        <ele>464</ele>
        <time>2016-01-23T10:58:39.459Z</time>
      </trkpt>
      <trkpt lat="43.67273" lon="5.86221">
        <ele>464</ele>
        <time>2016-01-23T10:58:41.483Z</time>
      </trkpt>
      <trkpt lat="43.67272" lon="5.86227">
        <ele>465</ele>
        <time>2016-01-23T10:58:42.460Z</time>
      </trkpt>
      <trkpt lat="43.67269" lon="5.86239">
        <ele>465</ele>
        <time>2016-01-23T10:58:44.517Z</time>
      </trkpt>
      <trkpt lat="43.67268" lon="5.86245">
        <ele>465</ele>
        <time>2016-01-23T10:58:45.454Z</time>
      </trkpt>
      <trkpt lat="43.67265" lon="5.86255">
        <ele>466</ele>
        <time>2016-01-23T10:58:47.488Z</time>
      </trkpt>
      <trkpt lat="43.67264" lon="5.86261">
        <ele>466</ele>
        <time>2016-01-23T10:58:48.462Z</time>
      </trkpt>
      <trkpt lat="43.67261" lon="5.8627">
        <ele>467</ele>
        <time>2016-01-23T10:58:50.487Z</time>
      </trkpt>
      <trkpt lat="43.67259" lon="5.86275">
        <ele>467</ele>
        <time>2016-01-23T10:58:51.458Z</time>
      </trkpt>
      <trkpt lat="43.67257" lon="5.86285">
        <ele>468</ele>
        <time>2016-01-23T10:58:53.496Z</time>
      </trkpt>
      <trkpt lat="43.67255" lon="5.86289">
        <ele>468</ele>
        <time>2016-01-23T10:58:54.460Z</time>
      </trkpt>
      <trkpt lat="43.67252" lon="5.86298">
        <ele>469</ele>
        <time>2016-01-23T10:58:56.487Z</time>
      </trkpt>
      <trkpt lat="43.6725" lon="5.86301">
        <ele>469</ele>
        <time>2016-01-23T10:58:57.459Z</time>
      </trkpt>
      <trkpt lat="43.67245" lon="5.86305">
        <ele>469</ele>
        <time>2016-01-23T10:58:59.483Z</time>
      </trkpt>
      <trkpt lat="43.67241" lon="5.86307">
        <ele>469</ele>
        <time>2016-01-23T10:59:00.460Z</time>
      </trkpt>
      <trkpt lat="43.67235" lon="5.86305">
        <ele>468</ele>
        <time>2016-01-23T10:59:02.568Z</time>
      </trkpt>
      <trkpt lat="43.67232" lon="5.86301">
        <ele>467</ele>
        <time>2016-01-23T10:59:03.462Z</time>
      </trkpt>
      <trkpt lat="43.6723" lon="5.86295">
        <ele>467</ele>
        <time>2016-01-23T10:59:04.475Z</time>
      </trkpt>
      <trkpt lat="43.6723" lon="5.86287">
        <ele>467</ele>
        <time>2016-01-23T10:59:05.462Z</time>
      </trkpt>
      <trkpt lat="43.6723" lon="5.86287">
        <ele>467</ele>
        <time>2016-01-23T10:59:05.492Z</time>
      </trkpt>
      <trkpt lat="43.67233" lon="5.86276">
        <ele>467</ele>
        <time>2016-01-23T10:59:06.461Z</time>
      </trkpt>
      <trkpt lat="43.67232" lon="5.86268">
        <ele>467</ele>
        <time>2016-01-23T10:59:07.473Z</time>
      </trkpt>
      <trkpt lat="43.67229" lon="5.86262">
        <ele>467</ele>
        <time>2016-01-23T10:59:08.460Z</time>
      </trkpt>
      <trkpt lat="43.67225" lon="5.86256">
        <ele>466</ele>
        <time>2016-01-23T10:59:09.486Z</time>
      </trkpt>
      <trkpt lat="43.67221" lon="5.86251">
        <ele>466</ele>
        <time>2016-01-23T10:59:10.461Z</time>
      </trkpt>
      <trkpt lat="43.67218" lon="5.86245">
        <ele>466</ele>
        <time>2016-01-23T10:59:11.515Z</time>
      </trkpt>
      <trkpt lat="43.67214" lon="5.8624">
        <ele>466</ele>
        <time>2016-01-23T10:59:12.461Z</time>
      </trkpt>
      <trkpt lat="43.67207" lon="5.86233">
        <ele>466</ele>
        <time>2016-01-23T10:59:14.484Z</time>
      </trkpt>
      <trkpt lat="43.67205" lon="5.8623">
        <ele>466</ele>
        <time>2016-01-23T10:59:15.461Z</time>
      </trkpt>
      <trkpt lat="43.67201" lon="5.86221">
        <ele>467</ele>
        <time>2016-01-23T11:00:09.477Z</time>
      </trkpt>
      <trkpt lat="43.672" lon="5.86219">
        <ele>467</ele>
        <time>2016-01-23T11:00:10.456Z</time>
      </trkpt>
      <trkpt lat="43.67202" lon="5.86208">
        <ele>467</ele>
        <time>2016-01-23T11:00:15.508Z</time>
      </trkpt>
      <trkpt lat="43.67204" lon="5.86205">
        <ele>467</ele>
        <time>2016-01-23T11:00:16.456Z</time>
      </trkpt>
      <trkpt lat="43.67212" lon="5.86199">
        <ele>467</ele>
        <time>2016-01-23T11:00:19.651Z</time>
      </trkpt>
      <trkpt lat="43.67215" lon="5.86197">
        <ele>467</ele>
        <time>2016-01-23T11:00:20.457Z</time>
      </trkpt>
      <trkpt lat="43.6722" lon="5.86193">
        <ele>468</ele>
        <time>2016-01-23T11:00:22.476Z</time>
      </trkpt>
      <trkpt lat="43.67223" lon="5.86191">
        <ele>469</ele>
        <time>2016-01-23T11:00:23.455Z</time>
      </trkpt>
      <trkpt lat="43.6723" lon="5.86183">
        <ele>469</ele>
        <time>2016-01-23T11:00:26.476Z</time>
      </trkpt>
      <trkpt lat="43.67231" lon="5.86179">
        <ele>469</ele>
        <time>2016-01-23T11:00:27.456Z</time>
      </trkpt>
      <trkpt lat="43.67227" lon="5.86171">
        <ele>469</ele>
        <time>2016-01-23T11:00:30.476Z</time>
      </trkpt>
      <trkpt lat="43.67225" lon="5.8617">
        <ele>469</ele>
        <time>2016-01-23T11:00:31.479Z</time>
      </trkpt>
      <trkpt lat="43.67217" lon="5.8617">
        <ele>470</ele>
        <time>2016-01-23T11:00:34.477Z</time>
      </trkpt>
      <trkpt lat="43.67215" lon="5.8617">
        <ele>470</ele>
        <time>2016-01-23T11:00:35.459Z</time>
      </trkpt>
      <trkpt lat="43.67206" lon="5.86169">
        <ele>471</ele>
        <time>2016-01-23T11:00:39.464Z</time>
      </trkpt>
      <trkpt lat="43.67204" lon="5.86169">
        <ele>472</ele>
        <time>2016-01-23T11:00:40.451Z</time>
      </trkpt>
      <trkpt lat="43.67196" lon="5.86168">
        <ele>471</ele>
        <time>2016-01-23T11:00:43.480Z</time>
      </trkpt>
      <trkpt lat="43.67193" lon="5.86167">
        <ele>471</ele>
        <time>2016-01-23T11:00:44.458Z</time>
      </trkpt>
      <trkpt lat="43.67186" lon="5.86162">
        <ele>471</ele>
        <time>2016-01-23T11:00:47.478Z</time>
      </trkpt>
      <trkpt lat="43.67185" lon="5.86158">
        <ele>472</ele>
        <time>2016-01-23T11:00:48.456Z</time>
      </trkpt>
      <trkpt lat="43.67188" lon="5.86148">
        <ele>473</ele>
        <time>2016-01-23T11:00:52.479Z</time>
      </trkpt>
      <trkpt lat="43.67191" lon="5.86147">
        <ele>473</ele>
        <time>2016-01-23T11:00:53.482Z</time>
      </trkpt>
      <trkpt lat="43.67196" lon="5.86139">
        <ele>475</ele>
        <time>2016-01-23T11:00:57.477Z</time>
      </trkpt>
      <trkpt lat="43.67197" lon="5.86137">
        <ele>475</ele>
        <time>2016-01-23T11:00:58.455Z</time>
      </trkpt>
      <trkpt lat="43.67203" lon="5.86128">
        <ele>474</ele>
        <time>2016-01-23T11:01:17.482Z</time>
      </trkpt>
      <trkpt lat="43.67203" lon="5.86126">
        <ele>474</ele>
        <time>2016-01-23T11:01:18.457Z</time>
      </trkpt>
      <trkpt lat="43.67211" lon="5.86128">
        <ele>471</ele>
        <time>2016-01-23T11:01:27.486Z</time>
      </trkpt>
      <trkpt lat="43.67212" lon="5.86128">
        <ele>470</ele>
        <time>2016-01-23T11:01:28.459Z</time>
      </trkpt>
      <trkpt lat="43.67219" lon="5.86137">
        <ele>469</ele>
        <time>2016-01-23T11:01:38.483Z</time>
      </trkpt>
      <trkpt lat="43.6722" lon="5.86137">
        <ele>470</ele>
        <time>2016-01-23T11:01:39.459Z</time>
      </trkpt>
      <trkpt lat="43.67222" lon="5.86138">
        <ele>472</ele>
        <time>2016-01-23T11:02:49.101Z</time>
      </trkpt>
    </trkseg>
  </trk>
</gpx>